<?xml version='1.0' encoding='UTF-8'?><gpx version="1.1" creator="JPX - https://github.com/jenetics/jpx" xmlns="http://www.topografix.com/GPX/1/1"><trk><trkseg><trkpt lat="47.24659572359849" lon="-1.5689435787513561"><ele>28.999999999999996</ele><time>2026-03-29T08:15:13.056Z</time></trkpt><trkpt lat="47.24664903250266" lon="-1.5688891801997729"><ele>29.0</ele><time>2026-03-29T08:15:52.038Z</time></trkpt><trkpt lat="47.24671587818045" lon="-1.5689046029016085"><ele>29.0</ele><time>2026-03-29T08:15:55.042Z</time></trkpt><trkpt lat="47.24679672163654" lon="-1.5689261443927593"><ele>29.0</ele><time>2026-03-29T08:15:58.04Z</time></trkpt><trkpt lat="47.24689822648395" lon="-1.5689064469203062"><ele>28.999999999999996</ele><time>2026-03-29T08:16:00.039Z</time></trkpt><trkpt lat="47.246967754370765" lon="-1.568828746677906"><ele>29.0</ele><time>2026-03-29T08:16:02.036Z</time></trkpt><trkpt lat="47.2469910979711" lon="-1.5687111485764091"><ele>28.799999999999997</ele><time>2026-03-29T08:16:04.042Z</time></trkpt><trkpt lat="47.24700941242953" lon="-1.5685968194171493"><ele>28.599999999999998</ele><time>2026-03-29T08:16:06.035Z</time></trkpt><trkpt lat="47.24702659533103" lon="-1.5684684924795929"><ele>28.4</ele><time>2026-03-29T08:16:08.032Z</time></trkpt><trkpt lat="47.24702253010799" lon="-1.5683379024281803"><ele>28.2</ele><time>2026-03-29T08:16:10.033Z</time></trkpt><trkpt lat="47.247034222862915" lon="-1.5681994333877862"><ele>28.0</ele><time>2026-03-29T08:16:12.034Z</time></trkpt><trkpt lat="47.24706707992335" lon="-1.5680478885784448"><ele>28.0</ele><time>2026-03-29T08:16:14.036Z</time></trkpt><trkpt lat="47.24709268663754" lon="-1.5679551847293673"><ele>28.0</ele><time>2026-03-29T08:16:15.037Z</time></trkpt><trkpt lat="47.24713183012535" lon="-1.5678792446866332"><ele>28.0</ele><time>2026-03-29T08:16:16.038Z</time></trkpt><trkpt lat="47.247155215635196" lon="-1.5677910670652686"><ele>28.0</ele><time>2026-03-29T08:16:17.039Z</time></trkpt><trkpt lat="47.247182540639535" lon="-1.5676859579994973"><ele>28.0</ele><time>2026-03-29T08:16:19.034Z</time></trkpt><trkpt lat="47.247247709936694" lon="-1.5676260273918208"><ele>28.0</ele><time>2026-03-29T08:16:21.038Z</time></trkpt><trkpt lat="47.24733940795739" lon="-1.5675964392736252"><ele>28.0</ele><time>2026-03-29T08:16:23.036Z</time></trkpt><trkpt lat="47.24742733412166" lon="-1.5676312241717871"><ele>28.000000000000004</ele><time>2026-03-29T08:16:25.038Z</time></trkpt><trkpt lat="47.24748592362483" lon="-1.5676759835347231"><ele>28.0</ele><time>2026-03-29T08:16:26.034Z</time></trkpt><trkpt lat="47.247570036023156" lon="-1.567734070123702"><ele>28.0</ele><time>2026-03-29T08:16:28.045Z</time></trkpt><trkpt lat="47.24764777817507" lon="-1.5678022149964868"><ele>28.0</ele><time>2026-03-29T08:16:30.048Z</time></trkpt><trkpt lat="47.24772057500412" lon="-1.5678393468275367"><ele>28.000000000000004</ele><time>2026-03-29T08:16:31.049Z</time></trkpt><trkpt lat="47.247780798978404" lon="-1.5678859502091704"><ele>28.0</ele><time>2026-03-29T08:16:32.047Z</time></trkpt><trkpt lat="47.247861935801104" lon="-1.5679572802051602"><ele>28.4</ele><time>2026-03-29T08:16:34.051Z</time></trkpt><trkpt lat="47.247952586083905" lon="-1.5680090803667603"><ele>28.799999999999997</ele><time>2026-03-29T08:16:36.046Z</time></trkpt><trkpt lat="47.24804621194233" lon="-1.568060209976107"><ele>29.2</ele><time>2026-03-29T08:16:38.04Z</time></trkpt><trkpt lat="47.24815257829358" lon="-1.5681000240161718"><ele>29.6</ele><time>2026-03-29T08:16:40.047Z</time></trkpt><trkpt lat="47.24822487220843" lon="-1.5681374911233485"><ele>30.0</ele><time>2026-03-29T08:16:42.037Z</time></trkpt><trkpt lat="47.248293939090566" lon="-1.5681495610639156"><ele>30.4</ele><time>2026-03-29T08:16:43.038Z</time></trkpt><trkpt lat="47.24840173036535" lon="-1.5681828372195066"><ele>30.8</ele><time>2026-03-29T08:16:45.053Z</time></trkpt><trkpt lat="47.24851488605817" lon="-1.56822307035473"><ele>31.200000000000003</ele><time>2026-03-29T08:16:47.036Z</time></trkpt><trkpt lat="47.24860147111793" lon="-1.5682552568629087"><ele>31.6</ele><time>2026-03-29T08:16:49.05Z</time></trkpt><trkpt lat="47.24869061265816" lon="-1.568281156943709"><ele>32.0</ele><time>2026-03-29T08:16:51.046Z</time></trkpt><trkpt lat="47.24878537007351" lon="-1.568309152500302"><ele>32.0</ele><time>2026-03-29T08:16:53.048Z</time></trkpt><trkpt lat="47.24888800647785" lon="-1.5683376509710851"><ele>32.0</ele><time>2026-03-29T08:16:55.048Z</time></trkpt><trkpt lat="47.248985990925924" lon="-1.5683729387834373"><ele>32.0</ele><time>2026-03-29T08:16:57.047Z</time></trkpt><trkpt lat="47.24908535838802" lon="-1.5683960728361908"><ele>32.0</ele><time>2026-03-29T08:16:59.041Z</time></trkpt><trkpt lat="47.249186108864144" lon="-1.5684199612602296"><ele>32.0</ele><time>2026-03-29T08:17:01.047Z</time></trkpt><trkpt lat="47.24926397674461" lon="-1.5684558358058038"><ele>32.666666666666664</ele><time>2026-03-29T08:17:03.039Z</time></trkpt><trkpt lat="47.249360117173985" lon="-1.5684869326665702"><ele>33.33333333333333</ele><time>2026-03-29T08:17:05.054Z</time></trkpt><trkpt lat="47.24943136335094" lon="-1.5685104019954508"><ele>34.0</ele><time>2026-03-29T08:17:06.054Z</time></trkpt><trkpt lat="47.24951149434526" lon="-1.5685395710184877"><ele>34.666666666666664</ele><time>2026-03-29T08:17:09.043Z</time></trkpt><trkpt lat="47.24957419098099" lon="-1.56856362708059"><ele>35.333333333333336</ele><time>2026-03-29T08:17:10.043Z</time></trkpt><trkpt lat="47.24966907412489" lon="-1.568600423635513"><ele>36.0</ele><time>2026-03-29T08:17:12.04Z</time></trkpt><trkpt lat="47.24976232279767" lon="-1.5686193667366808"><ele>36.5</ele><time>2026-03-29T08:17:14.044Z</time></trkpt><trkpt lat="47.24985439800401" lon="-1.5686254017069643"><ele>37.0</ele><time>2026-03-29T08:17:16.047Z</time></trkpt><trkpt lat="47.24993817512621" lon="-1.5686040278538769"><ele>37.5</ele><time>2026-03-29T08:17:18.05Z</time></trkpt><trkpt lat="47.25011486564507" lon="-1.5686010941877668"><ele>38.0</ele><time>2026-03-29T08:17:23.043Z</time></trkpt><trkpt lat="47.250206144570605" lon="-1.568558346481592"><ele>38.0</ele><time>2026-03-29T08:17:26.05Z</time></trkpt><trkpt lat="47.250300021886126" lon="-1.5685130842044657"><ele>38.0</ele><time>2026-03-29T08:17:28.046Z</time></trkpt><trkpt lat="47.250383002727524" lon="-1.5684813167914453"><ele>38.0</ele><time>2026-03-29T08:17:30.052Z</time></trkpt><trkpt lat="47.250458062670425" lon="-1.568445190788776"><ele>38.0</ele><time>2026-03-29T08:17:32.048Z</time></trkpt><trkpt lat="47.25054079205473" lon="-1.5684037841871086"><ele>38.0</ele><time>2026-03-29T08:17:34.059Z</time></trkpt><trkpt lat="47.25062808957626" lon="-1.5683546662345234"><ele>38.0</ele><time>2026-03-29T08:17:36.055Z</time></trkpt><trkpt lat="47.25069870711048" lon="-1.5683192946031395"><ele>37.8</ele><time>2026-03-29T08:17:37.056Z</time></trkpt><trkpt lat="47.25079514090647" lon="-1.5682638902231756"><ele>37.599999999999994</ele><time>2026-03-29T08:17:39.048Z</time></trkpt><trkpt lat="47.25088939540763" lon="-1.5681933984175027"><ele>37.400000000000006</ele><time>2026-03-29T08:17:41.043Z</time></trkpt><trkpt lat="47.25094509315421" lon="-1.5681348089143337"><ele>37.2</ele><time>2026-03-29T08:17:43.046Z</time></trkpt><trkpt lat="47.25105141759594" lon="-1.5680776443347038"><ele>37.0</ele><time>2026-03-29T08:17:45.043Z</time></trkpt><trkpt lat="47.25112123884936" lon="-1.5679406002178489"><ele>37.5</ele><time>2026-03-29T08:17:47.051Z</time></trkpt><trkpt lat="47.25122157023032" lon="-1.5678343176856337"><ele>38.0</ele><time>2026-03-29T08:17:49.052Z</time></trkpt><trkpt lat="47.25128217139025" lon="-1.5677207428976592"><ele>38.5</ele><time>2026-03-29T08:17:51.049Z</time></trkpt><trkpt lat="47.25134767596354" lon="-1.567659555004507"><ele>39.0</ele><time>2026-03-29T08:17:52.051Z</time></trkpt><trkpt lat="47.25137546197255" lon="-1.5675722155734595"><ele>39.5</ele><time>2026-03-29T08:17:53.051Z</time></trkpt><trkpt lat="47.2514263401248" lon="-1.5675028972342306"><ele>40.0</ele><time>2026-03-29T08:17:54.056Z</time></trkpt><trkpt lat="47.25146946501662" lon="-1.5674199163928324"><ele>39.16666666666667</ele><time>2026-03-29T08:17:55.052Z</time></trkpt><trkpt lat="47.251505130014614" lon="-1.5673394501223856"><ele>38.333333333333336</ele><time>2026-03-29T08:17:56.044Z</time></trkpt><trkpt lat="47.25155018274416" lon="-1.5672423038646273"><ele>37.5</ele><time>2026-03-29T08:17:57.045Z</time></trkpt><trkpt lat="47.25158739839424" lon="-1.567136943341761"><ele>36.666666666666664</ele><time>2026-03-29T08:17:58.043Z</time></trkpt><trkpt lat="47.25162838590075" lon="-1.5669465065017034"><ele>35.83333333333333</ele><time>2026-03-29T08:18:00.043Z</time></trkpt><trkpt lat="47.25164875392546" lon="-1.5668443311020424"><ele>35.0</ele><time>2026-03-29T08:18:01.051Z</time></trkpt><trkpt lat="47.251639785289065" lon="-1.5666730050012159"><ele>35.0</ele><time>2026-03-29T08:18:03.053Z</time></trkpt><trkpt lat="47.25163760599424" lon="-1.566484412179856"><ele>35.0</ele><time>2026-03-29T08:18:05.046Z</time></trkpt><trkpt lat="47.25164774809708" lon="-1.5663697477444694"><ele>35.0</ele><time>2026-03-29T08:18:06.05Z</time></trkpt><trkpt lat="47.251655459447996" lon="-1.5662757027908845"><ele>35.0</ele><time>2026-03-29T08:18:07.034Z</time></trkpt><trkpt lat="47.251669415316776" lon="-1.566177466885714"><ele>35.0</ele><time>2026-03-29T08:18:08.032Z</time></trkpt><trkpt lat="47.25168211390008" lon="-1.5660664904877226"><ele>35.0</ele><time>2026-03-29T08:18:09.037Z</time></trkpt><trkpt lat="47.25169929680158" lon="-1.5659482218339722"><ele>34.6</ele><time>2026-03-29T08:18:10.047Z</time></trkpt><trkpt lat="47.251717778898076" lon="-1.5658500697478333"><ele>34.2</ele><time>2026-03-29T08:18:11.035Z</time></trkpt><trkpt lat="47.251754575453" lon="-1.565682264046339"><ele>33.8</ele><time>2026-03-29T08:18:13.038Z</time></trkpt><trkpt lat="47.25175277334382" lon="-1.5654839482173002"><ele>33.4</ele><time>2026-03-29T08:18:15.038Z</time></trkpt><trkpt lat="47.251768489412264" lon="-1.5653792582466874"><ele>33.0</ele><time>2026-03-29T08:18:16.031Z</time></trkpt><trkpt lat="47.25178672005166" lon="-1.5652779210373435"><ele>32.714285714285715</ele><time>2026-03-29T08:18:17.029Z</time></trkpt><trkpt lat="47.25179338366468" lon="-1.565167950467733"><ele>32.42857142857143</ele><time>2026-03-29T08:18:18.034Z</time></trkpt><trkpt lat="47.251818152188555" lon="-1.565059488640693"><ele>32.142857142857146</ele><time>2026-03-29T08:18:19.029Z</time></trkpt><trkpt lat="47.2518185293742" lon="-1.564955217765239"><ele>31.857142857142858</ele><time>2026-03-29T08:18:20.032Z</time></trkpt><trkpt lat="47.251818864650325" lon="-1.5648493543281823"><ele>31.571428571428577</ele><time>2026-03-29T08:18:21.031Z</time></trkpt><trkpt lat="47.25182070866902" lon="-1.5647559799268513"><ele>31.28571428571429</ele><time>2026-03-29T08:18:22.03Z</time></trkpt><trkpt lat="47.251835670366184" lon="-1.5646491944804457"><ele>31.0</ele><time>2026-03-29T08:18:23.037Z</time></trkpt><trkpt lat="47.25184346553613" lon="-1.564549868927863"><ele>30.333333333333336</ele><time>2026-03-29T08:18:24.048Z</time></trkpt><trkpt lat="47.25186039698054" lon="-1.5644382219776178"><ele>29.666666666666668</ele><time>2026-03-29T08:18:25.033Z</time></trkpt><trkpt lat="47.25187028762628" lon="-1.5643396507963205"><ele>29.0</ele><time>2026-03-29T08:18:26.035Z</time></trkpt><trkpt lat="47.251880471638636" lon="-1.5642212983235384"><ele>28.333333333333336</ele><time>2026-03-29T08:18:27.046Z</time></trkpt><trkpt lat="47.251889482184545" lon="-1.564114177601006"><ele>27.666666666666668</ele><time>2026-03-29T08:18:28.049Z</time></trkpt><trkpt lat="47.25189157766034" lon="-1.5639555919930002"><ele>27.0</ele><time>2026-03-29T08:18:30.053Z</time></trkpt><trkpt lat="47.25190976639022" lon="-1.5638258401319047"><ele>27.200000000000003</ele><time>2026-03-29T08:18:31.044Z</time></trkpt><trkpt lat="47.25200858902861" lon="-1.563684018330242"><ele>27.400000000000002</ele><time>2026-03-29T08:18:33.039Z</time></trkpt><trkpt lat="47.25209064786066" lon="-1.5635414421572942"><ele>27.599999999999998</ele><time>2026-03-29T08:18:35.034Z</time></trkpt><trkpt lat="47.25211910442193" lon="-1.5634531807168977"><ele>27.799999999999997</ele><time>2026-03-29T08:18:36.044Z</time></trkpt><trkpt lat="47.2521473095261" lon="-1.5633575432017104"><ele>28.0</ele><time>2026-03-29T08:18:37.037Z</time></trkpt><trkpt lat="47.25216885101725" lon="-1.563257211820747"><ele>28.0</ele><time>2026-03-29T08:18:38.039Z</time></trkpt><trkpt lat="47.25219278135081" lon="-1.563167357818748"><ele>28.0</ele><time>2026-03-29T08:18:39.038Z</time></trkpt><trkpt lat="47.252221237912075" lon="-1.56307901255932"><ele>28.0</ele><time>2026-03-29T08:18:40.043Z</time></trkpt><trkpt lat="47.25225677718152" lon="-1.5629972890033972"><ele>28.0</ele><time>2026-03-29T08:18:41.04Z</time></trkpt><trkpt lat="47.252295292026595" lon="-1.5629101172104132"><ele>28.0</ele><time>2026-03-29T08:18:42.046Z</time></trkpt><trkpt lat="47.252324628687695" lon="-1.5628208499416363"><ele>28.0</ele><time>2026-03-29T08:18:43.039Z</time></trkpt><trkpt lat="47.252357150472" lon="-1.562735186891223"><ele>28.0</ele><time>2026-03-29T08:18:44.043Z</time></trkpt><trkpt lat="47.25239289928903" lon="-1.5626343525960693"><ele>27.500000000000004</ele><time>2026-03-29T08:18:45.039Z</time></trkpt><trkpt lat="47.25243153986265" lon="-1.5625436604037533"><ele>27.0</ele><time>2026-03-29T08:18:46.044Z</time></trkpt><trkpt lat="47.25247139581223" lon="-1.562454141677881"><ele>26.5</ele><time>2026-03-29T08:18:47.038Z</time></trkpt><trkpt lat="47.252528811848954" lon="-1.5623446740224607"><ele>26.0</ele><time>2026-03-29T08:18:48.041Z</time></trkpt><trkpt lat="47.252569966993526" lon="-1.5622533112778907"><ele>25.500000000000004</ele><time>2026-03-29T08:18:49.042Z</time></trkpt><trkpt lat="47.25261908494611" lon="-1.562173096464539"><ele>25.0</ele><time>2026-03-29T08:18:50.039Z</time></trkpt><trkpt lat="47.252652528739766" lon="-1.5620783809587007"><ele>25.5</ele><time>2026-03-29T08:18:51.04Z</time></trkpt><trkpt lat="47.252712124071316" lon="-1.5619236510261538"><ele>26.0</ele><time>2026-03-29T08:18:53.052Z</time></trkpt><trkpt lat="47.2527715517648" lon="-1.5617616288378477"><ele>26.5</ele><time>2026-03-29T08:18:55.041Z</time></trkpt><trkpt lat="47.25282481875946" lon="-1.5616058930769205"><ele>27.0</ele><time>2026-03-29T08:18:57.052Z</time></trkpt><trkpt lat="47.25286697973241" lon="-1.5614523366108177"><ele>27.0</ele><time>2026-03-29T08:18:59.053Z</time></trkpt><trkpt lat="47.25292179737915" lon="-1.561297858135366"><ele>27.000000000000004</ele><time>2026-03-29T08:19:01.05Z</time></trkpt><trkpt lat="47.25294618871738" lon="-1.5612004604205127"><ele>27.000000000000004</ele><time>2026-03-29T08:19:02.042Z</time></trkpt><trkpt lat="47.253001593097345" lon="-1.5610570460572475"><ele>27.0</ele><time>2026-03-29T08:19:04.041Z</time></trkpt><trkpt lat="47.25304890894075" lon="-1.560904327781462"><ele>27.0</ele><time>2026-03-29T08:19:06.043Z</time></trkpt><trkpt lat="47.253087884790496" lon="-1.5607586503043405"><ele>26.400000000000002</ele><time>2026-03-29T08:19:08.052Z</time></trkpt><trkpt lat="47.25313750565727" lon="-1.560631496833228"><ele>25.800000000000004</ele><time>2026-03-29T08:19:10.043Z</time></trkpt><trkpt lat="47.253179247535066" lon="-1.560497470201515"><ele>25.2</ele><time>2026-03-29T08:19:12.054Z</time></trkpt><trkpt lat="47.25319986701687" lon="-1.56033159233775"><ele>24.6</ele><time>2026-03-29T08:19:14.043Z</time></trkpt><trkpt lat="47.25320988339116" lon="-1.5601732581868397"><ele>24.0</ele><time>2026-03-29T08:19:16.042Z</time></trkpt><trkpt lat="47.25319844209333" lon="-1.560078542681001"><ele>24.0</ele><time>2026-03-29T08:19:17.039Z</time></trkpt><trkpt lat="47.25318368994375" lon="-1.559898247943781"><ele>24.0</ele><time>2026-03-29T08:19:19.04Z</time></trkpt><trkpt lat="47.25316168744792" lon="-1.559745445848964"><ele>24.0</ele><time>2026-03-29T08:19:21.039Z</time></trkpt><trkpt lat="47.25315590393473" lon="-1.5596530772760133"><ele>24.0</ele><time>2026-03-29T08:19:22.037Z</time></trkpt><trkpt lat="47.25313905630936" lon="-1.559459706769846"><ele>24.0</ele><time>2026-03-29T08:19:24.044Z</time></trkpt><trkpt lat="47.25313834384759" lon="-1.5593649912640073"><ele>24.0</ele><time>2026-03-29T08:19:25.044Z</time></trkpt><trkpt lat="47.2531188140132" lon="-1.5592155419304587"><ele>24.0</ele><time>2026-03-29T08:19:27.055Z</time></trkpt><trkpt lat="47.25309601523657" lon="-1.5590435452773785"><ele>24.0</ele><time>2026-03-29T08:19:29.045Z</time></trkpt><trkpt lat="47.2530662175708" lon="-1.5588816069081042"><ele>24.0</ele><time>2026-03-29T08:19:31.053Z</time></trkpt><trkpt lat="47.2530540638112" lon="-1.5587858855738852"><ele>24.0</ele><time>2026-03-29T08:19:32.04Z</time></trkpt><trkpt lat="47.25304421507497" lon="-1.5586411301061125"><ele>24.2</ele><time>2026-03-29T08:19:34.039Z</time></trkpt><trkpt lat="47.253038012466625" lon="-1.5585433971151323"><ele>24.4</ele><time>2026-03-29T08:19:35.049Z</time></trkpt><trkpt lat="47.253039521209196" lon="-1.55843921005871"><ele>24.6</ele><time>2026-03-29T08:19:36.04Z</time></trkpt><trkpt lat="47.253031348853604" lon="-1.5582594182356804"><ele>24.8</ele><time>2026-03-29T08:19:38.044Z</time></trkpt><trkpt lat="47.25302489478816" lon="-1.5580797102316823"><ele>25.0</ele><time>2026-03-29T08:19:40.042Z</time></trkpt><trkpt lat="47.25300092254509" lon="-1.5579266566797698"><ele>25.333333333333336</ele><time>2026-03-29T08:19:42.042Z</time></trkpt><trkpt lat="47.25299078044225" lon="-1.5578312706216777"><ele>25.666666666666668</ele><time>2026-03-29T08:19:43.056Z</time></trkpt><trkpt lat="47.25297581874509" lon="-1.557737477125188"><ele>26.0</ele><time>2026-03-29T08:19:44.045Z</time></trkpt><trkpt lat="47.25295281042089" lon="-1.5576208010330401"><ele>26.333333333333336</ele><time>2026-03-29T08:19:46.044Z</time></trkpt><trkpt lat="47.252924898683325" lon="-1.557527678088804"><ele>26.666666666666668</ele><time>2026-03-29T08:19:47.054Z</time></trkpt><trkpt lat="47.252895771569804" lon="-1.5573871135726174"><ele>27.0</ele><time>2026-03-29T08:19:49.039Z</time></trkpt><trkpt lat="47.25285159894009" lon="-1.5572093334063488"><ele>26.8</ele><time>2026-03-29T08:19:51.047Z</time></trkpt><trkpt lat="47.252840912013546" lon="-1.5570279490217165"><ele>26.6</ele><time>2026-03-29T08:19:53.051Z</time></trkpt><trkpt lat="47.25281962197949" lon="-1.5568607300534443"><ele>26.400000000000002</ele><time>2026-03-29T08:19:55.041Z</time></trkpt><trkpt lat="47.25282046016981" lon="-1.5567536931499435"><ele>26.200000000000003</ele><time>2026-03-29T08:19:56.041Z</time></trkpt><trkpt lat="47.25279062059452" lon="-1.5565683692708205"><ele>26.0</ele><time>2026-03-29T08:19:58.044Z</time></trkpt><trkpt lat="47.25276178684761" lon="-1.556406849996705"><ele>25.999999999999996</ele><time>2026-03-29T08:20:00.05Z</time></trkpt><trkpt lat="47.252733162648276" lon="-1.556268380956311"><ele>26.0</ele><time>2026-03-29T08:20:02.053Z</time></trkpt><trkpt lat="47.25271929059853" lon="-1.5560931991800255"><ele>26.0</ele><time>2026-03-29T08:20:04.047Z</time></trkpt><trkpt lat="47.25271028005262" lon="-1.5559957176461405"><ele>26.0</ele><time>2026-03-29T08:20:05.062Z</time></trkpt><trkpt lat="47.25268303886731" lon="-1.5558911114945597"><ele>25.999999999999996</ele><time>2026-03-29T08:20:06.052Z</time></trkpt><trkpt lat="47.25266958591272" lon="-1.5557836554959004"><ele>26.0</ele><time>2026-03-29T08:20:07.046Z</time></trkpt><trkpt lat="47.25267339967866" lon="-1.5556850004955713"><ele>25.666666666666664</ele><time>2026-03-29T08:20:08.052Z</time></trkpt><trkpt lat="47.25266040772875" lon="-1.5554680768414917"><ele>25.333333333333332</ele><time>2026-03-29T08:20:10.053Z</time></trkpt><trkpt lat="47.25265290592541" lon="-1.5553743671640337"><ele>25.0</ele><time>2026-03-29T08:20:11.046Z</time></trkpt><trkpt lat="47.25264003970404" lon="-1.5552603732809007"><ele>24.666666666666664</ele><time>2026-03-29T08:20:12.043Z</time></trkpt><trkpt lat="47.25262499418785" lon="-1.5551455412074504"><ele>24.333333333333332</ele><time>2026-03-29T08:20:13.053Z</time></trkpt><trkpt lat="47.252611876509384" lon="-1.5550367441042838"><ele>24.0</ele><time>2026-03-29T08:20:14.041Z</time></trkpt><trkpt lat="47.25252265115012" lon="-1.5549541823580442"><ele>23.666666666666668</ele><time>2026-03-29T08:20:15.039Z</time></trkpt><trkpt lat="47.252503708048955" lon="-1.5548585448428567"><ele>23.333333333333332</ele><time>2026-03-29T08:20:16.046Z</time></trkpt><trkpt lat="47.25251104221423" lon="-1.5547511726632293"><ele>23.0</ele><time>2026-03-29T08:20:17.038Z</time></trkpt><trkpt lat="47.252494110769824" lon="-1.5545917488649064"><ele>22.666666666666664</ele><time>2026-03-29T08:20:19.045Z</time></trkpt><trkpt lat="47.25248329811473" lon="-1.5544957760735922"><ele>22.333333333333332</ele><time>2026-03-29T08:20:20.052Z</time></trkpt><trkpt lat="47.252449477135436" lon="-1.554312296213167"><ele>22.0</ele><time>2026-03-29T08:20:22.041Z</time></trkpt><trkpt lat="47.25243434780021" lon="-1.554197464139717"><ele>21.666666666666664</ele><time>2026-03-29T08:20:23.053Z</time></trkpt><trkpt lat="47.25242047575046" lon="-1.5540815424188543"><ele>21.333333333333332</ele><time>2026-03-29T08:20:24.047Z</time></trkpt><trkpt lat="47.25241247103293" lon="-1.5539807081237007"><ele>21.0</ele><time>2026-03-29T08:20:25.045Z</time></trkpt><trkpt lat="47.25240350239654" lon="-1.5538652893170284"><ele>20.666666666666668</ele><time>2026-03-29T08:20:26.041Z</time></trkpt><trkpt lat="47.252366915389196" lon="-1.55376470647897"><ele>20.333333333333336</ele><time>2026-03-29T08:20:27.039Z</time></trkpt><trkpt lat="47.252335147976176" lon="-1.5536471921965047"><ele>20.0</ele><time>2026-03-29T08:20:28.055Z</time></trkpt><trkpt lat="47.25230962508102" lon="-1.5535506326719686"><ele>20.0</ele><time>2026-03-29T08:20:29.056Z</time></trkpt><trkpt lat="47.25226742219855" lon="-1.5534769557430905"><ele>20.0</ele><time>2026-03-29T08:20:30.041Z</time></trkpt><trkpt lat="47.25224567115982" lon="-1.5533764567240638"><ele>20.0</ele><time>2026-03-29T08:20:31.046Z</time></trkpt><trkpt lat="47.25225334060122" lon="-1.5532021969571272"><ele>20.0</ele><time>2026-03-29T08:20:33.045Z</time></trkpt><trkpt lat="47.25226930812676" lon="-1.5531103312983672"><ele>20.0</ele><time>2026-03-29T08:20:34.042Z</time></trkpt><trkpt lat="47.25229453765531" lon="-1.5529450401678242"><ele>20.0</ele><time>2026-03-29T08:20:36.04Z</time></trkpt><trkpt lat="47.25227660038252" lon="-1.5527602192028915"><ele>19.8</ele><time>2026-03-29T08:20:38.034Z</time></trkpt><trkpt lat="47.25224030674179" lon="-1.5525767393424665"><ele>19.6</ele><time>2026-03-29T08:20:40.031Z</time></trkpt><trkpt lat="47.25222014826466" lon="-1.5524724684670124"><ele>19.4</ele><time>2026-03-29T08:20:41.041Z</time></trkpt><trkpt lat="47.25219764285465" lon="-1.5523666050299558"><ele>19.2</ele><time>2026-03-29T08:20:42.035Z</time></trkpt><trkpt lat="47.25216344468971" lon="-1.5521818678840549"><ele>19.0</ele><time>2026-03-29T08:20:44.039Z</time></trkpt><trkpt lat="47.25213201255281" lon="-1.552089666949168"><ele>18.833333333333332</ele><time>2026-03-29T08:20:45.052Z</time></trkpt><trkpt lat="47.252113572365836" lon="-1.551977684722796"><ele>18.666666666666664</ele><time>2026-03-29T08:20:46.04Z</time></trkpt><trkpt lat="47.25209865257819" lon="-1.5518706478192954"><ele>18.5</ele><time>2026-03-29T08:20:47.041Z</time></trkpt><trkpt lat="47.25208700173278" lon="-1.551763191820636"><ele>18.333333333333332</ele><time>2026-03-29T08:20:48.038Z</time></trkpt><trkpt lat="47.25206210748036" lon="-1.5516522154226449"><ele>18.166666666666668</ele><time>2026-03-29T08:20:49.039Z</time></trkpt><trkpt lat="47.25204722960223" lon="-1.5515440888717318"><ele>18.0</ele><time>2026-03-29T08:20:50.038Z</time></trkpt><trkpt lat="47.252031429714755" lon="-1.5514317713692332"><ele>18.0</ele><time>2026-03-29T08:20:51.053Z</time></trkpt><trkpt lat="47.25200863093813" lon="-1.551329847426667"><ele>18.0</ele><time>2026-03-29T08:20:52.034Z</time></trkpt><trkpt lat="47.25198625125666" lon="-1.551226750017657"><ele>18.0</ele><time>2026-03-29T08:20:53.026Z</time></trkpt><trkpt lat="47.2519572917812" lon="-1.551097165794625"><ele>18.0</ele><time>2026-03-29T08:20:54.038Z</time></trkpt><trkpt lat="47.25194974806835" lon="-1.5509213972851177"><ele>18.0</ele><time>2026-03-29T08:20:56.039Z</time></trkpt><trkpt lat="47.25194417410274" lon="-1.550813186915173"><ele>18.0</ele><time>2026-03-29T08:20:57.041Z</time></trkpt><trkpt lat="47.25194555711676" lon="-1.5506902243956464"><ele>17.833333333333332</ele><time>2026-03-29T08:20:58.04Z</time></trkpt><trkpt lat="47.251944216012255" lon="-1.5505808405592576"><ele>17.666666666666668</ele><time>2026-03-29T08:20:59.05Z</time></trkpt><trkpt lat="47.251957585147814" lon="-1.5503943432136909"><ele>17.5</ele><time>2026-03-29T08:21:01.052Z</time></trkpt><trkpt lat="47.2519350797378" lon="-1.550285546110524"><ele>17.333333333333336</ele><time>2026-03-29T08:21:02.051Z</time></trkpt><trkpt lat="47.25194849078287" lon="-1.550181610511197"><ele>17.166666666666668</ele><time>2026-03-29T08:21:03.051Z</time></trkpt><trkpt lat="47.25195469339122" lon="-1.5500838775202166"><ele>17.0</ele><time>2026-03-29T08:21:04.052Z</time></trkpt><trkpt lat="47.2519660089605" lon="-1.5499822050347458"><ele>17.0</ele><time>2026-03-29T08:21:05.055Z</time></trkpt><trkpt lat="47.25197967146267" lon="-1.549873994664801"><ele>17.0</ele><time>2026-03-29T08:21:06.04Z</time></trkpt><trkpt lat="47.25201026540925" lon="-1.5496898442521223"><ele>17.0</ele><time>2026-03-29T08:21:08.043Z</time></trkpt><trkpt lat="47.25205636587669" lon="-1.5495195239796764"><ele>17.0</ele><time>2026-03-29T08:21:10.042Z</time></trkpt><trkpt lat="47.25210774694313" lon="-1.5493491198881988"><ele>17.0</ele><time>2026-03-29T08:21:12.041Z</time></trkpt><trkpt lat="47.252138382799224" lon="-1.5492659714087371"><ele>17.0</ele><time>2026-03-29T08:21:13.047Z</time></trkpt><trkpt lat="47.25224311467935" lon="-1.5491507202401282"><ele>17.0</ele><time>2026-03-29T08:21:15.048Z</time></trkpt><trkpt lat="47.25229877051641" lon="-1.5490793902441384"><ele>17.0</ele><time>2026-03-29T08:21:16.041Z</time></trkpt><trkpt lat="47.25234600254078" lon="-1.548988781870854"><ele>17.0</ele><time>2026-03-29T08:21:17.037Z</time></trkpt><trkpt lat="47.25238367919554" lon="-1.5489097405239463"><ele>17.0</ele><time>2026-03-29T08:21:18.038Z</time></trkpt><trkpt lat="47.2524002334543" lon="-1.5488085709526658"><ele>16.5</ele><time>2026-03-29T08:21:19.038Z</time></trkpt><trkpt lat="47.25242546298285" lon="-1.548711927609098"><ele>16.0</ele><time>2026-03-29T08:21:20.036Z</time></trkpt><trkpt lat="47.252446753016905" lon="-1.548619056121957"><ele>15.5</ele><time>2026-03-29T08:21:21.034Z</time></trkpt><trkpt lat="47.25247676023026" lon="-1.5485305432244656"><ele>15.0</ele><time>2026-03-29T08:21:22.03Z</time></trkpt><trkpt lat="47.25249679297884" lon="-1.548423171044838"><ele>14.500000000000002</ele><time>2026-03-29T08:21:23.059Z</time></trkpt><trkpt lat="47.25254171997984" lon="-1.5482736378922577"><ele>14.0</ele><time>2026-03-29T08:21:25.033Z</time></trkpt><trkpt lat="47.25256284237583" lon="-1.5481794253006094"><ele>14.0</ele><time>2026-03-29T08:21:26.035Z</time></trkpt><trkpt lat="47.252588281451956" lon="-1.5480225998922699"><ele>14.0</ele><time>2026-03-29T08:21:28.038Z</time></trkpt><trkpt lat="47.25257369694044" lon="-1.5478407125934472"><ele>14.0</ele><time>2026-03-29T08:21:30.036Z</time></trkpt><trkpt lat="47.25256875161757" lon="-1.5476748347296823"><ele>14.0</ele><time>2026-03-29T08:21:32.031Z</time></trkpt><trkpt lat="47.25257830698718" lon="-1.5475115552559005"><ele>14.166666666666668</ele><time>2026-03-29T08:21:34.035Z</time></trkpt><trkpt lat="47.25256326147099" lon="-1.5474135708078252"><ele>14.333333333333334</ele><time>2026-03-29T08:21:35.04Z</time></trkpt><trkpt lat="47.25254683294077" lon="-1.5473178494736062"><ele>14.5</ele><time>2026-03-29T08:21:36.033Z</time></trkpt><trkpt lat="47.2525299853154" lon="-1.5472217090442284"><ele>14.666666666666668</ele><time>2026-03-29T08:21:37.032Z</time></trkpt><trkpt lat="47.252506432167486" lon="-1.5470649674549206"><ele>14.833333333333334</ele><time>2026-03-29T08:21:39.038Z</time></trkpt><trkpt lat="47.25246724677016" lon="-1.5468962397440773"><ele>15.0</ele><time>2026-03-29T08:21:41.045Z</time></trkpt><trkpt lat="47.25244164005597" lon="-1.546803535895"><ele>15.2</ele><time>2026-03-29T08:21:42.04Z</time></trkpt><trkpt lat="47.2524226969548" lon="-1.546631790699015"><ele>15.4</ele><time>2026-03-29T08:21:44.036Z</time></trkpt><trkpt lat="47.25241930228402" lon="-1.5465298667564489"><ele>15.600000000000001</ele><time>2026-03-29T08:21:45.041Z</time></trkpt><trkpt lat="47.252422780773834" lon="-1.5463599655791618"><ele>15.8</ele><time>2026-03-29T08:21:47.035Z</time></trkpt><trkpt lat="47.25238397256215" lon="-1.546214371921072"><ele>16.0</ele><time>2026-03-29T08:21:49.038Z</time></trkpt><trkpt lat="47.252355390272335" lon="-1.5460669342442843"><ele>16.400000000000002</ele><time>2026-03-29T08:21:51.034Z</time></trkpt><trkpt lat="47.252365700013236" lon="-1.5459226816907021"><ele>16.8</ele><time>2026-03-29T08:21:53.035Z</time></trkpt><trkpt lat="47.25234570917417" lon="-1.5457635093494744"><ele>17.200000000000003</ele><time>2026-03-29T08:21:55.05Z</time></trkpt><trkpt lat="47.25231084045698" lon="-1.5456303209080786"><ele>17.6</ele><time>2026-03-29T08:21:57.031Z</time></trkpt><trkpt lat="47.25228380881925" lon="-1.545477854089388"><ele>18.0</ele><time>2026-03-29T08:21:59.04Z</time></trkpt><trkpt lat="47.25222836252977" lon="-1.54531817883397"><ele>19.2</ele><time>2026-03-29T08:22:01.03Z</time></trkpt><trkpt lat="47.25218398035248" lon="-1.5451799612506714"><ele>20.4</ele><time>2026-03-29T08:22:03.024Z</time></trkpt><trkpt lat="47.252178322567836" lon="-1.5450787916793907"><ele>21.599999999999998</ele><time>2026-03-29T08:22:04.036Z</time></trkpt><trkpt lat="47.25216516297986" lon="-1.5449394844486797"><ele>22.8</ele><time>2026-03-29T08:22:05.986Z</time></trkpt><trkpt lat="47.25214248993178" lon="-1.5447943937047801"><ele>24.0</ele><time>2026-03-29T08:22:07.987Z</time></trkpt><trkpt lat="47.25212807305832" lon="-1.5446474589421828"><ele>24.6</ele><time>2026-03-29T08:22:09.989Z</time></trkpt><trkpt lat="47.25212568421592" lon="-1.544517539443024"><ele>25.2</ele><time>2026-03-29T08:22:11.99Z</time></trkpt><trkpt lat="47.252101125239626" lon="-1.5443593729301768"><ele>25.800000000000004</ele><time>2026-03-29T08:22:13.992Z</time></trkpt><trkpt lat="47.25209039640357" lon="-1.5442058164640742"><ele>26.400000000000002</ele><time>2026-03-29T08:22:15.993Z</time></trkpt><trkpt lat="47.25207916465332" lon="-1.544113615529187"><ele>27.0</ele><time>2026-03-29T08:22:16.993Z</time></trkpt><trkpt lat="47.252066424160496" lon="-1.5439152158811165"><ele>27.0</ele><time>2026-03-29T08:22:18.994Z</time></trkpt><trkpt lat="47.2520611435615" lon="-1.543800467626698"><ele>27.0</ele><time>2026-03-29T08:22:19.995Z</time></trkpt><trkpt lat="47.25203742277552" lon="-1.5436950232848"><ele>27.0</ele><time>2026-03-29T08:22:20.995Z</time></trkpt><trkpt lat="47.25202011414547" lon="-1.5435823705061744"><ele>27.0</ele><time>2026-03-29T08:22:21.995Z</time></trkpt><trkpt lat="47.251995513259665" lon="-1.5434688795372318"><ele>27.0</ele><time>2026-03-29T08:22:22.996Z</time></trkpt><trkpt lat="47.2519808030196" lon="-1.5433704759939977"><ele>27.0</ele><time>2026-03-29T08:22:23.996Z</time></trkpt><trkpt lat="47.25195779469539" lon="-1.5432551410063573"><ele>26.200000000000003</ele><time>2026-03-29T08:22:24.996Z</time></trkpt><trkpt lat="47.25193868395616" lon="-1.5430842340006894"><ele>25.400000000000002</ele><time>2026-03-29T08:22:26.997Z</time></trkpt><trkpt lat="47.2519255662777" lon="-1.5429626125856701"><ele>24.6</ele><time>2026-03-29T08:22:27.997Z</time></trkpt><trkpt lat="47.25191127513279" lon="-1.5427773725255791"><ele>23.799999999999997</ele><time>2026-03-29T08:22:29.997Z</time></trkpt><trkpt lat="47.25189157766034" lon="-1.5426681563272537"><ele>23.0</ele><time>2026-03-29T08:22:30.998Z</time></trkpt><trkpt lat="47.25186932370742" lon="-1.5425298549249233"><ele>22.166666666666668</ele><time>2026-03-29T08:22:31.998Z</time></trkpt><trkpt lat="47.25187950771977" lon="-1.5423929784461319"><ele>21.333333333333336</ele><time>2026-03-29T08:22:32.998Z</time></trkpt><trkpt lat="47.25189417605032" lon="-1.5422749612494766"><ele>20.5</ele><time>2026-03-29T08:22:33.998Z</time></trkpt><trkpt lat="47.25190167785366" lon="-1.5420955885216054"><ele>19.666666666666668</ele><time>2026-03-29T08:22:35.999Z</time></trkpt><trkpt lat="47.25183852021326" lon="-1.542035657913929"><ele>18.833333333333332</ele><time>2026-03-29T08:22:36.999Z</time></trkpt><trkpt lat="47.25178646859457" lon="-1.54195460491026"><ele>18.0</ele><time>2026-03-29T08:22:37.999Z</time></trkpt><trkpt lat="47.25172716662963" lon="-1.5418938361122663"><ele>17.0</ele><time>2026-03-29T08:22:38.999Z</time></trkpt><trkpt lat="47.251643431416944" lon="-1.5418925788267905"><ele>16.0</ele><time>2026-03-29T08:22:39.999Z</time></trkpt><trkpt lat="47.25157851357688" lon="-1.5418557822718675"><ele>15.0</ele><time>2026-03-29T08:22:40.999Z</time></trkpt><trkpt lat="47.25151284136553" lon="-1.541786380113607"><ele>14.0</ele><time>2026-03-29T08:22:41.999Z</time></trkpt><trkpt lat="47.25147864320059" lon="-1.5416962746545129"><ele>13.0</ele><time>2026-03-29T08:22:42.999Z</time></trkpt><trkpt lat="47.25150031042029" lon="-1.5415847953423314"><ele>12.0</ele><time>2026-03-29T08:22:43.999Z</time></trkpt><trkpt lat="47.251519085883395" lon="-1.5414460748448422"><ele>12.0</ele><time>2026-03-29T08:22:45Z</time></trkpt><trkpt lat="47.25155441560526" lon="-1.5413293149336627"><ele>12.0</ele><time>2026-03-29T08:22:46Z</time></trkpt><trkpt lat="47.251587691760854" lon="-1.5412215236588764"><ele>12.0</ele><time>2026-03-29T08:22:47Z</time></trkpt><trkpt lat="47.25162893072446" lon="-1.5411113016321707"><ele>12.0</ele><time>2026-03-29T08:22:48Z</time></trkpt><trkpt lat="47.251674779734806" lon="-1.5410237107440279"><ele>12.0</ele><time>2026-03-29T08:22:49Z</time></trkpt><trkpt lat="47.25173626099457" lon="-1.5409237146391914"><ele>12.0</ele><time>2026-03-29T08:22:50Z</time></trkpt><trkpt lat="47.25181526043196" lon="-1.5408608503654049"><ele>11.166666666666666</ele><time>2026-03-29T08:22:51Z</time></trkpt><trkpt lat="47.25187100008805" lon="-1.5408073738231702"><ele>10.333333333333334</ele><time>2026-03-29T08:22:52Z</time></trkpt><trkpt lat="47.251977408348814" lon="-1.5407910291119857"><ele>9.5</ele><time>2026-03-29T08:22:54Z</time></trkpt><trkpt lat="47.25205670115282" lon="-1.5407799649997993"><ele>8.666666666666668</ele><time>2026-03-29T08:22:55Z</time></trkpt><trkpt lat="47.25216495343228" lon="-1.5407346189036413"><ele>7.833333333333334</ele><time>2026-03-29T08:22:56Z</time></trkpt><trkpt lat="47.25223565478553" lon="-1.5407266560956283"><ele>7.0</ele><time>2026-03-29T08:22:57Z</time></trkpt><trkpt lat="47.25235098977317" lon="-1.5406919550164981"><ele>7.000000000000001</ele><time>2026-03-29T08:22:58Z</time></trkpt><trkpt lat="47.252413770227925" lon="-1.5406847465797706"><ele>7.0</ele><time>2026-03-29T08:22:59Z</time></trkpt><trkpt lat="47.25247646686365" lon="-1.540675777943377"><ele>7.0</ele><time>2026-03-29T08:23:00Z</time></trkpt><trkpt lat="47.25253907968034" lon="-1.5406577568515583"><ele>7.0</ele><time>2026-03-29T08:23:01Z</time></trkpt><trkpt lat="47.2526526125588" lon="-1.5406300965710922"><ele>7.000000000000001</ele><time>2026-03-29T08:23:03Z</time></trkpt><trkpt lat="47.25277306050737" lon="-1.5405957307680886"><ele>7.0</ele><time>2026-03-29T08:23:05Z</time></trkpt><trkpt lat="47.25284300748934" lon="-1.540593551473264"><ele>7.000000000000001</ele><time>2026-03-29T08:23:06.001Z</time></trkpt><trkpt lat="47.25291253537615" lon="-1.5405834093704265"><ele>7.0</ele><time>2026-03-29T08:23:07.001Z</time></trkpt><trkpt lat="47.25299576767464" lon="-1.5405793860569041"><ele>7.0</ele><time>2026-03-29T08:23:08.001Z</time></trkpt><trkpt lat="47.25305808712472" lon="-1.5405660588308614"><ele>7.0</ele><time>2026-03-29T08:23:09.001Z</time></trkpt><trkpt lat="47.25318130110134" lon="-1.540521718563084"><ele>7.000000000000001</ele><time>2026-03-29T08:23:11.001Z</time></trkpt><trkpt lat="47.25324424919416" lon="-1.5405115764602464"><ele>7.0</ele><time>2026-03-29T08:23:12.001Z</time></trkpt><trkpt lat="47.253366834528045" lon="-1.5404698345824521"><ele>6.6</ele><time>2026-03-29T08:23:14.001Z</time></trkpt><trkpt lat="47.25343883507629" lon="-1.540466900916342"><ele>6.199999999999999</ele><time>2026-03-29T08:23:15.001Z</time></trkpt><trkpt lat="47.25353514314373" lon="-1.540424488486294"><ele>5.8</ele><time>2026-03-29T08:23:17.001Z</time></trkpt><trkpt lat="47.253663889176444" lon="-1.5404021926238578"><ele>5.4</ele><time>2026-03-29T08:23:19.001Z</time></trkpt><trkpt lat="47.253784169486956" lon="-1.5403601992889682"><ele>5.0</ele><time>2026-03-29T08:23:21.001Z</time></trkpt><trkpt lat="47.25387339484622" lon="-1.540330192075614"><ele>5.0</ele><time>2026-03-29T08:23:23.001Z</time></trkpt><trkpt lat="47.25400448781182" lon="-1.5403121709837952"><ele>5.0</ele><time>2026-03-29T08:23:25.001Z</time></trkpt><trkpt lat="47.2540797573023" lon="-1.5402862709029952"><ele>5.0</ele><time>2026-03-29T08:23:26.001Z</time></trkpt><trkpt lat="47.25420913197775" lon="-1.5402654837831298"><ele>5.0</ele><time>2026-03-29T08:23:28.001Z</time></trkpt><trkpt lat="47.25431927018543" lon="-1.5402255021050015"><ele>5.0</ele><time>2026-03-29T08:23:30.001Z</time></trkpt><trkpt lat="47.25437966179778" lon="-1.5401854366078416"><ele>5.0</ele><time>2026-03-29T08:23:31.001Z</time></trkpt><trkpt lat="47.25446293600579" lon="-1.5401755459620992"><ele>5.0</ele><time>2026-03-29T08:23:32.001Z</time></trkpt><trkpt lat="47.254525590731994" lon="-1.5401641465737859"><ele>5.0</ele><time>2026-03-29T08:23:33.001Z</time></trkpt><trkpt lat="47.25465295375069" lon="-1.540148472414855"><ele>5.0</ele><time>2026-03-29T08:23:35.001Z</time></trkpt><trkpt lat="47.254716781943344" lon="-1.5401554293944875"><ele>5.0</ele><time>2026-03-29T08:23:36.001Z</time></trkpt><trkpt lat="47.25477973003616" lon="-1.5401607938125172"><ele>5.833333333333334</ele><time>2026-03-29T08:23:37.001Z</time></trkpt><trkpt lat="47.254848796918296" lon="-1.5401693433537522"><ele>6.666666666666667</ele><time>2026-03-29T08:23:38.001Z</time></trkpt><trkpt lat="47.25492708389392" lon="-1.5401750430479089"><ele>7.5</ele><time>2026-03-29T08:23:40.001Z</time></trkpt><trkpt lat="47.255002688660525" lon="-1.540169678629879"><ele>8.333333333333334</ele><time>2026-03-29T08:23:42.001Z</time></trkpt><trkpt lat="47.25509706889024" lon="-1.5401422698065081"><ele>9.166666666666668</ele><time>2026-03-29T08:23:44.001Z</time></trkpt><trkpt lat="47.25516869225284" lon="-1.5401205606772936"><ele>10.0</ele><time>2026-03-29T08:23:45.001Z</time></trkpt><trkpt lat="47.25525737278839" lon="-1.5400866977884806"><ele>10.0</ele><time>2026-03-29T08:23:47.001Z</time></trkpt><trkpt lat="47.25535606969824" lon="-1.5400248393430747"><ele>10.0</ele><time>2026-03-29T08:23:49.001Z</time></trkpt><trkpt lat="47.25548737221142" lon="-1.539970273153428"><ele>10.0</ele><time>2026-03-29T08:23:51.001Z</time></trkpt><trkpt lat="47.255578064403736" lon="-1.5399458818151988"><ele>10.0</ele><time>2026-03-29T08:23:53.001Z</time></trkpt><trkpt lat="47.255694614767336" lon="-1.5398984402432478"><ele>10.4</ele><time>2026-03-29T08:23:55.001Z</time></trkpt><trkpt lat="47.255778601437115" lon="-1.5398712828769718"><ele>10.8</ele><time>2026-03-29T08:23:57.001Z</time></trkpt><trkpt lat="47.255876082971" lon="-1.5398402698352371"><ele>11.2</ele><time>2026-03-29T08:23:59.001Z</time></trkpt><trkpt lat="47.255971930033766" lon="-1.5397681016489302"><ele>11.6</ele><time>2026-03-29T08:24:01.001Z</time></trkpt><trkpt lat="47.2560375603356" lon="-1.5397328976556097"><ele>12.0</ele><time>2026-03-29T08:24:02.001Z</time></trkpt><trkpt lat="47.25614174739202" lon="-1.539683360607866"><ele>12.0</ele><time>2026-03-29T08:24:04.001Z</time></trkpt><trkpt lat="47.25627862387081" lon="-1.5395738091334137"><ele>12.0</ele><time>2026-03-29T08:24:06.001Z</time></trkpt><trkpt lat="47.25635301326146" lon="-1.5395436342819961"><ele>12.0</ele><time>2026-03-29T08:24:08.001Z</time></trkpt><trkpt lat="47.256434317722224" lon="-1.539539527149442"><ele>12.0</ele><time>2026-03-29T08:24:09.001Z</time></trkpt><trkpt lat="47.25652488418599" lon="-1.5394904930158886"><ele>12.0</ele><time>2026-03-29T08:24:11.001Z</time></trkpt><trkpt lat="47.2566480562531" lon="-1.5394654311254057"><ele>11.0</ele><time>2026-03-29T08:24:13.001Z</time></trkpt><trkpt lat="47.25671594966879" lon="-1.5394692029818329"><ele>10.0</ele><time>2026-03-29T08:24:14.001Z</time></trkpt><trkpt lat="47.25683103319933" lon="-1.539463000373486"><ele>9.0</ele><time>2026-03-29T08:24:16.001Z</time></trkpt><trkpt lat="47.25694896657696" lon="-1.539472723381165"><ele>8.0</ele><time>2026-03-29T08:24:18.001Z</time></trkpt><trkpt lat="47.25704435263505" lon="-1.539508597926739"><ele>7.0</ele><time>2026-03-29T08:24:20.001Z</time></trkpt><trkpt lat="47.257157592146896" lon="-1.5395364258452686"><ele>8.0</ele><time>2026-03-29T08:24:22.001Z</time></trkpt><trkpt lat="47.25724132735958" lon="-1.539595518262628"><ele>9.0</ele><time>2026-03-29T08:24:24.001Z</time></trkpt><trkpt lat="47.25730934650382" lon="-1.5396758168950115"><ele>10.0</ele><time>2026-03-29T08:24:26.001Z</time></trkpt><trkpt lat="47.2573679779165" lon="-1.5397978574051892"><ele>11.0</ele><time>2026-03-29T08:24:28.001Z</time></trkpt><trkpt lat="47.257416215769254" lon="-1.5399329736843146"><ele>12.0</ele><time>2026-03-29T08:24:30.001Z</time></trkpt><trkpt lat="47.25747082386842" lon="-1.540043614806179"><ele>12.0</ele><time>2026-03-29T08:24:32.001Z</time></trkpt><trkpt lat="47.25749948997726" lon="-1.5401685889824668"><ele>12.0</ele><time>2026-03-29T08:24:34.001Z</time></trkpt><trkpt lat="47.257541148036026" lon="-1.5402977541103402"><ele>12.0</ele><time>2026-03-29T08:24:36.001Z</time></trkpt><trkpt lat="47.25760648497125" lon="-1.540393307806496"><ele>12.0</ele><time>2026-03-29T08:24:38.001Z</time></trkpt><trkpt lat="47.25762324877759" lon="-1.5405112411841195"><ele>12.0</ele><time>2026-03-29T08:24:40.001Z</time></trkpt><trkpt lat="47.25764479026874" lon="-1.5406076330705925"><ele>12.0</ele><time>2026-03-29T08:24:42.001Z</time></trkpt><trkpt lat="47.25767094180664" lon="-1.5406979899867816"><ele>12.333333333333334</ele><time>2026-03-29T08:24:44.001Z</time></trkpt><trkpt lat="47.25769520741632" lon="-1.5407986566438718"><ele>12.666666666666668</ele><time>2026-03-29T08:24:46.001Z</time></trkpt><trkpt lat="47.25772743583401" lon="-1.540889097379093"><ele>13.0</ele><time>2026-03-29T08:24:48.001Z</time></trkpt><trkpt lat="47.257763729474746" lon="-1.540994206444864"><ele>13.333333333333334</ele><time>2026-03-29T08:24:50.001Z</time></trkpt><trkpt lat="47.25779574834486" lon="-1.541097387672906"><ele>13.666666666666668</ele><time>2026-03-29T08:24:52.001Z</time></trkpt><trkpt lat="47.25781167396089" lon="-1.5412303246572066"><ele>14.0</ele><time>2026-03-29T08:24:55.001Z</time></trkpt><trkpt lat="47.25783723876556" lon="-1.5413217712208083"><ele>14.142857142857142</ele><time>2026-03-29T08:24:57.001Z</time></trkpt><trkpt lat="47.25786644969811" lon="-1.541405757890587"><ele>14.285714285714285</ele><time>2026-03-29T08:24:59.001Z</time></trkpt><trkpt lat="47.257905802733504" lon="-1.5415068436428359"><ele>14.428571428571429</ele><time>2026-03-29T08:25:01.001Z</time></trkpt><trkpt lat="47.2579491371729" lon="-1.5416042413576894"><ele>14.571428571428571</ele><time>2026-03-29T08:25:03.001Z</time></trkpt><trkpt lat="47.25798698146572" lon="-1.5416883956655316"><ele>14.714285714285714</ele><time>2026-03-29T08:25:05.001Z</time></trkpt><trkpt lat="47.25802985490044" lon="-1.5417899843319707"><ele>14.857142857142858</ele><time>2026-03-29T08:25:07.001Z</time></trkpt><trkpt lat="47.258071932054364" lon="-1.541882436723953"><ele>15.0</ele><time>2026-03-29T08:25:09.001Z</time></trkpt><trkpt lat="47.25810939916154" lon="-1.5419821813716943"><ele>16.666666666666668</ele><time>2026-03-29T08:25:11.001Z</time></trkpt><trkpt lat="47.25815223068675" lon="-1.5420834347620067"><ele>18.333333333333336</ele><time>2026-03-29T08:25:13.001Z</time></trkpt><trkpt lat="47.258194643116795" lon="-1.5421738754972276"><ele>20.0</ele><time>2026-03-29T08:25:15.001Z</time></trkpt><trkpt lat="47.2582488321208" lon="-1.5422885399326145"><ele>21.666666666666668</ele><time>2026-03-29T08:25:17.001Z</time></trkpt><trkpt lat="47.25830427841028" lon="-1.542413262651807"><ele>23.333333333333336</ele><time>2026-03-29T08:25:19.001Z</time></trkpt><trkpt lat="47.2583593056046" lon="-1.5425123367472948"><ele>25.0</ele><time>2026-03-29T08:25:21.001Z</time></trkpt><trkpt lat="47.25841542244633" lon="-1.5425932221129002"><ele>25.000000000000004</ele><time>2026-03-29T08:25:23.001Z</time></trkpt><trkpt lat="47.258468521802925" lon="-1.542648626492864"><ele>25.0</ele><time>2026-03-29T08:25:25.001Z</time></trkpt><trkpt lat="47.258528829596244" lon="-1.5426871832474531"><ele>25.0</ele><time>2026-03-29T08:25:27.001Z</time></trkpt><trkpt lat="47.25859207105567" lon="-1.5427261590972008"><ele>25.0</ele><time>2026-03-29T08:25:29.001Z</time></trkpt><trkpt lat="47.25865070246836" lon="-1.5427710022791687"><ele>25.0</ele><time>2026-03-29T08:25:31.001Z</time></trkpt><trkpt lat="47.258710926442646" lon="-1.5428122412427727"><ele>25.000000000000004</ele><time>2026-03-29T08:25:33.001Z</time></trkpt><trkpt lat="47.25879487120291" lon="-1.542864292861468"><ele>25.0</ele><time>2026-03-29T08:25:36.001Z</time></trkpt><trkpt lat="47.258874625011586" lon="-1.5429163444801632"><ele>26.0</ele><time>2026-03-29T08:25:39.001Z</time></trkpt><trkpt lat="47.258969424336456" lon="-1.5429656300708119"><ele>27.0</ele><time>2026-03-29T08:25:42.001Z</time></trkpt><trkpt lat="47.259073024659656" lon="-1.5429686475559536"><ele>28.0</ele><time>2026-03-29T08:25:45.001Z</time></trkpt><trkpt lat="47.25914753977885" lon="-1.5429622773095433"><ele>29.0</ele><time>2026-03-29T08:25:48.002Z</time></trkpt><trkpt lat="47.25923412483861" lon="-1.5429518837496106"><ele>30.0</ele><time>2026-03-29T08:25:51.002Z</time></trkpt><trkpt lat="47.25933571350505" lon="-1.5429197810604636"><ele>30.0</ele><time>2026-03-29T08:25:54.002Z</time></trkpt><trkpt lat="47.25944015201857" lon="-1.5428883489235703"><ele>30.0</ele><time>2026-03-29T08:25:56.002Z</time></trkpt><trkpt lat="47.25950540513476" lon="-1.5428739320501152"><ele>30.0</ele><time>2026-03-29T08:25:57.002Z</time></trkpt><trkpt lat="47.25956927523693" lon="-1.5428620297476117"><ele>30.0</ele><time>2026-03-29T08:25:58.002Z</time></trkpt><trkpt lat="47.259682221382164" lon="-1.542844260112888"><ele>30.0</ele><time>2026-03-29T08:26:00.002Z</time></trkpt><trkpt lat="47.259794413156115" lon="-1.5428129117950264"><ele>29.5</ele><time>2026-03-29T08:26:02.002Z</time></trkpt><trkpt lat="47.2598969238319" lon="-1.5427878499045435"><ele>29.0</ele><time>2026-03-29T08:26:03.002Z</time></trkpt><trkpt lat="47.26001045671036" lon="-1.5427421685322584"><ele>28.5</ele><time>2026-03-29T08:26:05.002Z</time></trkpt><trkpt lat="47.26008254107764" lon="-1.542716939003712"><ele>28.0</ele><time>2026-03-29T08:26:06.002Z</time></trkpt><trkpt lat="47.26014662072738" lon="-1.5427089761956991"><ele>27.5</ele><time>2026-03-29T08:26:07.002Z</time></trkpt><trkpt lat="47.260211161381804" lon="-1.5426964033409418"><ele>27.0</ele><time>2026-03-29T08:26:08.002Z</time></trkpt><trkpt lat="47.260281862735056" lon="-1.5426751133068861"><ele>27.0</ele><time>2026-03-29T08:26:09.002Z</time></trkpt><trkpt lat="47.260365556038224" lon="-1.542688105256802"><ele>27.0</ele><time>2026-03-29T08:26:10.002Z</time></trkpt><trkpt lat="47.26049480498513" lon="-1.5426841657623114"><ele>27.0</ele><time>2026-03-29T08:26:12.002Z</time></trkpt><trkpt lat="47.26061529484322" lon="-1.5426819864674868"><ele>27.0</ele><time>2026-03-29T08:26:14.002Z</time></trkpt><trkpt lat="47.26075321905991" lon="-1.5426921285703243"><ele>26.166666666666668</ele><time>2026-03-29T08:26:16.002Z</time></trkpt><trkpt lat="47.26089080800047" lon="-1.5426940564080538"><ele>25.333333333333332</ele><time>2026-03-29T08:26:18.002Z</time></trkpt><trkpt lat="47.26096917879512" lon="-1.5427067969008745"><ele>24.5</ele><time>2026-03-29T08:26:19.002Z</time></trkpt><trkpt lat="47.261044322557055" lon="-1.5427204594030441"><ele>23.666666666666664</ele><time>2026-03-29T08:26:20.002Z</time></trkpt><trkpt lat="47.261123238175415" lon="-1.5427250694497885"><ele>22.833333333333332</ele><time>2026-03-29T08:26:21.002Z</time></trkpt><trkpt lat="47.2611853061684" lon="-1.5427410788848461"><ele>22.0</ele><time>2026-03-29T08:26:22.002Z</time></trkpt><trkpt lat="47.26125336722215" lon="-1.5427371393903555"><ele>22.0</ele><time>2026-03-29T08:26:23.002Z</time></trkpt><trkpt lat="47.26132490676572" lon="-1.5427468623980345"><ele>22.0</ele><time>2026-03-29T08:26:24.002Z</time></trkpt><trkpt lat="47.26139158480545" lon="-1.5427657216801707"><ele>22.0</ele><time>2026-03-29T08:26:25.002Z</time></trkpt><trkpt lat="47.26153608881613" lon="-1.5427667275085513"><ele>22.0</ele><time>2026-03-29T08:26:27.002Z</time></trkpt><trkpt lat="47.26161651317706" lon="-1.542771840469486"><ele>22.0</ele><time>2026-03-29T08:26:28.002Z</time></trkpt><trkpt lat="47.26168260448357" lon="-1.5427756961449448"><ele>22.0</ele><time>2026-03-29T08:26:29.002Z</time></trkpt><trkpt lat="47.261751126541995" lon="-1.5427775401636425"><ele>22.0</ele><time>2026-03-29T08:26:30.002Z</time></trkpt><trkpt lat="47.261826102665864" lon="-1.5427727624788348"><ele>22.0</ele><time>2026-03-29T08:26:31.002Z</time></trkpt><trkpt lat="47.26190610793164" lon="-1.5427733492120568"><ele>22.0</ele><time>2026-03-29T08:26:32.002Z</time></trkpt><trkpt lat="47.261973414614104" lon="-1.5427702479078833"><ele>22.0</ele><time>2026-03-29T08:26:33.002Z</time></trkpt><trkpt lat="47.26205580872228" lon="-1.5427855867906872"><ele>22.0</ele><time>2026-03-29T08:26:34.002Z</time></trkpt><trkpt lat="47.26217872933229" lon="-1.5428142528995339"><ele>22.0</ele><time>2026-03-29T08:26:36.002Z</time></trkpt><trkpt lat="47.26225031078538" lon="-1.5428384765996996"><ele>21.6</ele><time>2026-03-29T08:26:37.002Z</time></trkpt><trkpt lat="47.26231631827286" lon="-1.5428317710771624"><ele>21.200000000000003</ele><time>2026-03-29T08:26:38.002Z</time></trkpt><trkpt lat="47.26241254252127" lon="-1.5428593475385968"><ele>20.8</ele><time>2026-03-29T08:26:39.002Z</time></trkpt><trkpt lat="47.26255792663178" lon="-1.542903436349279"><ele>20.4</ele><time>2026-03-29T08:26:41.002Z</time></trkpt><trkpt lat="47.26264815781942" lon="-1.542944423855788"><ele>20.0</ele><time>2026-03-29T08:26:42.002Z</time></trkpt><trkpt lat="47.26273449142209" lon="-1.5429811365916792"><ele>19.833333333333336</ele><time>2026-03-29T08:26:43.002Z</time></trkpt><trkpt lat="47.26281294603577" lon="-1.5430302545442647"><ele>19.666666666666668</ele><time>2026-03-29T08:26:44.002Z</time></trkpt><trkpt lat="47.26291059520772" lon="-1.5431172586991853"><ele>19.5</ele><time>2026-03-29T08:26:46.002Z</time></trkpt><trkpt lat="47.26297685415229" lon="-1.5431778598591155"><ele>19.333333333333332</ele><time>2026-03-29T08:26:47.002Z</time></trkpt><trkpt lat="47.26304122716865" lon="-1.5432407241329023"><ele>19.166666666666664</ele><time>2026-03-29T08:26:48.002Z</time></trkpt><trkpt lat="47.2631024150618" lon="-1.5433144848808118"><ele>19.0</ele><time>2026-03-29T08:26:49.002Z</time></trkpt><trkpt lat="47.26317475088617" lon="-1.5433676261469194"><ele>19.0</ele><time>2026-03-29T08:26:50.002Z</time></trkpt><trkpt lat="47.263231077275485" lon="-1.5434187557562657"><ele>19.0</ele><time>2026-03-29T08:26:51.002Z</time></trkpt><trkpt lat="47.263282164975315" lon="-1.5434804465636085"><ele>19.0</ele><time>2026-03-29T08:26:52.002Z</time></trkpt><trkpt lat="47.263344987339586" lon="-1.543542724104173"><ele>19.0</ele><time>2026-03-29T08:26:53.002Z</time></trkpt><trkpt lat="47.2634227294915" lon="-1.5435985475792955"><ele>19.0</ele><time>2026-03-29T08:26:54.002Z</time></trkpt><trkpt lat="47.26347888824275" lon="-1.5436488389983247"><ele>19.0</ele><time>2026-03-29T08:26:55.002Z</time></trkpt><trkpt lat="47.26353169423273" lon="-1.5437129605575872"><ele>19.0</ele><time>2026-03-29T08:26:56.002Z</time></trkpt><trkpt lat="47.263588733083814" lon="-1.5437773335739446"><ele>19.0</ele><time>2026-03-29T08:26:57.002Z</time></trkpt><trkpt lat="47.26364878942004" lon="-1.5438326541348768"><ele>19.0</ele><time>2026-03-29T08:26:58.002Z</time></trkpt><trkpt lat="47.26374710914424" lon="-1.543938014657743"><ele>19.0</ele><time>2026-03-29T08:27:00.002Z</time></trkpt><trkpt lat="47.263839142441064" lon="-1.5440330654397085"><ele>19.0</ele><time>2026-03-29T08:27:02.002Z</time></trkpt><trkpt lat="47.26395560898563" lon="-1.5441405214383677"><ele>19.0</ele><time>2026-03-29T08:27:04.002Z</time></trkpt><trkpt lat="47.264013150750905" lon="-1.5441856998964625"><ele>19.0</ele><time>2026-03-29T08:27:05.002Z</time></trkpt><trkpt lat="47.26410862062803" lon="-1.544268010185607"><ele>19.0</ele><time>2026-03-29T08:27:07.002Z</time></trkpt><trkpt lat="47.264169557064086" lon="-1.5443352330490427"><ele>19.0</ele><time>2026-03-29T08:27:09.002Z</time></trkpt><trkpt lat="47.26426825397393" lon="-1.5444013662650662"><ele>19.0</ele><time>2026-03-29T08:27:11.002Z</time></trkpt><trkpt lat="47.264361712194294" lon="-1.5444243326797564"><ele>19.0</ele><time>2026-03-29T08:27:13.002Z</time></trkpt><trkpt lat="47.26443765223703" lon="-1.5444339718684037"><ele>19.0</ele><time>2026-03-29T08:27:14.002Z</time></trkpt><trkpt lat="47.264510616704136" lon="-1.544440342114814"><ele>19.0</ele><time>2026-03-29T08:27:15.002Z</time></trkpt><trkpt lat="47.2646289272674" lon="-1.5444144420340138"><ele>19.0</ele><time>2026-03-29T08:27:17.002Z</time></trkpt><trkpt lat="47.264736760451704" lon="-1.5443677548333483"><ele>19.0</ele><time>2026-03-29T08:27:19.002Z</time></trkpt><trkpt lat="47.264845012731165" lon="-1.5443093329682427"><ele>19.0</ele><time>2026-03-29T08:27:21.002Z</time></trkpt><trkpt lat="47.26492983759126" lon="-1.544242696838029"><ele>19.6</ele><time>2026-03-29T08:27:23.002Z</time></trkpt><trkpt lat="47.265015500641674" lon="-1.5441941656186657"><ele>20.2</ele><time>2026-03-29T08:27:25.002Z</time></trkpt><trkpt lat="47.265110174237996" lon="-1.5441346541061476"><ele>20.8</ele><time>2026-03-29T08:27:27.002Z</time></trkpt><trkpt lat="47.26521092471412" lon="-1.5440945886089876"><ele>21.400000000000002</ele><time>2026-03-29T08:27:29.002Z</time></trkpt><trkpt lat="47.26530446675351" lon="-1.5440306346877888"><ele>22.0</ele><time>2026-03-29T08:27:31.002Z</time></trkpt><trkpt lat="47.265407731800586" lon="-1.5439821034684256"><ele>22.0</ele><time>2026-03-29T08:27:33.002Z</time></trkpt><trkpt lat="47.265476756773204" lon="-1.543956622482784"><ele>22.0</ele><time>2026-03-29T08:27:34.002Z</time></trkpt><trkpt lat="47.26558542814782" lon="-1.5439039841308666"><ele>22.0</ele><time>2026-03-29T08:27:36.002Z</time></trkpt><trkpt lat="47.26566396658054" lon="-1.5438795089736057"><ele>22.0</ele><time>2026-03-29T08:27:38.002Z</time></trkpt><trkpt lat="47.265754365406245" lon="-1.5439470671131685"><ele>22.0</ele><time>2026-03-29T08:27:40.002Z</time></trkpt><trkpt lat="47.2657957300984" lon="-1.5440463088467196"><ele>22.0</ele><time>2026-03-29T08:27:42.002Z</time></trkpt><trkpt lat="47.265819534703404" lon="-1.544151920826681"><ele>22.0</ele><time>2026-03-29T08:27:44.002Z</time></trkpt><trkpt lat="47.26584610533646" lon="-1.5442659147098141"><ele>22.0</ele><time>2026-03-29T08:27:46.002Z</time></trkpt><trkpt lat="47.265867688737124" lon="-1.5444236621275027"><ele>22.0</ele><time>2026-03-29T08:27:48.002Z</time></trkpt><trkpt lat="47.265885584100396" lon="-1.5445657353862603"><ele>22.0</ele><time>2026-03-29T08:27:50.002Z</time></trkpt><trkpt lat="47.26594966375014" lon="-1.544636813925155"><ele>22.0</ele><time>2026-03-29T08:27:51.002Z</time></trkpt><trkpt lat="47.26604299624196" lon="-1.5447039529695592"><ele>22.200000000000003</ele><time>2026-03-29T08:27:53.002Z</time></trkpt><trkpt lat="47.26615204480222" lon="-1.5446866024299941"><ele>22.4</ele><time>2026-03-29T08:27:55.002Z</time></trkpt><trkpt lat="47.26625543557784" lon="-1.544663636015304"><ele>22.6</ele><time>2026-03-29T08:27:57.002Z</time></trkpt><trkpt lat="47.26631863512775" lon="-1.5446507278844197"><ele>22.799999999999997</ele><time>2026-03-29T08:27:58.002Z</time></trkpt><trkpt lat="47.26644411221823" lon="-1.5446240734323342"><ele>23.0</ele><time>2026-03-29T08:28:00.002Z</time></trkpt><trkpt lat="47.266543018675655" lon="-1.5445993468179782"><ele>23.4</ele><time>2026-03-29T08:28:02.002Z</time></trkpt><trkpt lat="47.26663962010971" lon="-1.5445764642223199"><ele>23.799999999999997</ele><time>2026-03-29T08:28:04.002Z</time></trkpt><trkpt lat="47.266763169362456" lon="-1.5445827506496985"><ele>24.2</ele><time>2026-03-29T08:28:06.002Z</time></trkpt><trkpt lat="47.26684803613207" lon="-1.544600855560549"><ele>24.6</ele><time>2026-03-29T08:28:08.002Z</time></trkpt><trkpt lat="47.26695151072672" lon="-1.5446083154543717"><ele>25.0</ele><time>2026-03-29T08:28:10.002Z</time></trkpt><trkpt lat="47.267067725814194" lon="-1.5446386579438527"><ele>25.000000000000004</ele><time>2026-03-29T08:28:12.002Z</time></trkpt><trkpt lat="47.267142073295325" lon="-1.5446585230543695"><ele>25.0</ele><time>2026-03-29T08:28:13.002Z</time></trkpt><trkpt lat="47.267247182361096" lon="-1.5446985047324977"><ele>25.0</ele><time>2026-03-29T08:28:15.002Z</time></trkpt><trkpt lat="47.26732140411368" lon="-1.5447269193842492"><ele>25.0</ele><time>2026-03-29T08:28:16.002Z</time></trkpt><trkpt lat="47.267382172911674" lon="-1.5447833295925937"><ele>25.000000000000004</ele><time>2026-03-29T08:28:18.002Z</time></trkpt><trkpt lat="47.26747064389965" lon="-1.5448585152640424"><ele>25.0</ele><time>2026-03-29T08:28:20.002Z</time></trkpt><trkpt lat="47.26753434636375" lon="-1.5449559967979276"><ele>25.4</ele><time>2026-03-29T08:28:22.002Z</time></trkpt><trkpt lat="47.26758761335841" lon="-1.5450626984253013"><ele>25.8</ele><time>2026-03-29T08:28:24.002Z</time></trkpt><trkpt lat="47.26765152537009" lon="-1.5451507922276344"><ele>26.200000000000003</ele><time>2026-03-29T08:28:26.002Z</time></trkpt><trkpt lat="47.26771116261116" lon="-1.5452683065100994"><ele>26.6</ele><time>2026-03-29T08:28:28.002Z</time></trkpt><trkpt lat="47.267771679952055" lon="-1.545358831064352"><ele>27.0</ele><time>2026-03-29T08:28:30.002Z</time></trkpt><trkpt lat="47.267818534790784" lon="-1.5454895887538282"><ele>27.0</ele><time>2026-03-29T08:28:32.002Z</time></trkpt><trkpt lat="47.26786559917709" lon="-1.545583298431286"><ele>27.0</ele><time>2026-03-29T08:28:34.002Z</time></trkpt><trkpt lat="47.267914549491614" lon="-1.545710619540462"><ele>27.0</ele><time>2026-03-29T08:28:36.002Z</time></trkpt><trkpt lat="47.267917064062566" lon="-1.545836934821257"><ele>27.0</ele><time>2026-03-29T08:28:39.002Z</time></trkpt><trkpt lat="47.26791337602517" lon="-1.5459482464953753"><ele>27.0</ele><time>2026-03-29T08:28:41.002Z</time></trkpt><trkpt lat="47.26793491751632" lon="-1.5460533555611464"><ele>27.0</ele><time>2026-03-29T08:28:43.002Z</time></trkpt><trkpt lat="47.26801974237642" lon="-1.5460560377701613"><ele>27.0</ele><time>2026-03-29T08:28:45.002Z</time></trkpt><trkpt lat="47.26810305849394" lon="-1.5460488293334338"><ele>27.0</ele><time>2026-03-29T08:28:47.002Z</time></trkpt><trkpt lat="47.268186793706626" lon="-1.5460445545628163"><ele>27.0</ele><time>2026-03-29T08:28:49.002Z</time></trkpt><trkpt lat="47.26826516450128" lon="-1.5460633300259206"><ele>27.0</ele><time>2026-03-29T08:28:51.002Z</time></trkpt><trkpt lat="47.26836490914902" lon="-1.5460665151491257"><ele>27.0</ele><time>2026-03-29T08:28:53.002Z</time></trkpt><trkpt lat="47.268440555825144" lon="-1.5460804291083905"><ele>27.0</ele><time>2026-03-29T08:28:55.002Z</time></trkpt><trkpt lat="47.26854235403916" lon="-1.5461076702936982"><ele>27.400000000000002</ele><time>2026-03-29T08:28:57.002Z</time></trkpt><trkpt lat="47.268643607429475" lon="-1.5461652539684867"><ele>27.800000000000004</ele><time>2026-03-29T08:28:59.002Z</time></trkpt><trkpt lat="47.26871003401211" lon="-1.5461997035905217"><ele>28.2</ele><time>2026-03-29T08:29:00.002Z</time></trkpt><trkpt lat="47.26880206730893" lon="-1.5462512522950267"><ele>28.6</ele><time>2026-03-29T08:29:02.002Z</time></trkpt><trkpt lat="47.26890621245584" lon="-1.5462957602008676"><ele>29.0</ele><time>2026-03-29T08:29:04.002Z</time></trkpt><trkpt lat="47.269008639312595" lon="-1.5462979394956922"><ele>29.666666666666664</ele><time>2026-03-29T08:29:06.002Z</time></trkpt><trkpt lat="47.26907250941476" lon="-1.5462898090496158"><ele>30.333333333333332</ele><time>2026-03-29T08:29:07.002Z</time></trkpt><trkpt lat="47.269142498306245" lon="-1.5462899766876792"><ele>31.0</ele><time>2026-03-29T08:29:09.002Z</time></trkpt><trkpt lat="47.26925385188988" lon="-1.5462772361948585"><ele>31.666666666666664</ele><time>2026-03-29T08:29:11.002Z</time></trkpt><trkpt lat="47.269318937368006" lon="-1.5462732128813361"><ele>32.333333333333336</ele><time>2026-03-29T08:29:12.002Z</time></trkpt><trkpt lat="47.269399529367" lon="-1.5462786611183976"><ele>33.0</ele><time>2026-03-29T08:29:13.002Z</time></trkpt><trkpt lat="47.26951972585848" lon="-1.5462504141047095"><ele>33.0</ele><time>2026-03-29T08:29:15.002Z</time></trkpt><trkpt lat="47.269613267897874" lon="-1.5462442953153943"><ele>33.0</ele><time>2026-03-29T08:29:17.001Z</time></trkpt><trkpt lat="47.269725166305214" lon="-1.54624261893476"><ele>33.0</ele><time>2026-03-29T08:29:19.001Z</time></trkpt><trkpt lat="47.26982914381406" lon="-1.546243205667982"><ele>33.0</ele><time>2026-03-29T08:29:21.001Z</time></trkpt><trkpt lat="47.26991002917967" lon="-1.5462239272906875"><ele>33.0</ele><time>2026-03-29T08:29:23.001Z</time></trkpt><trkpt lat="47.270019035830416" lon="-1.5461999550476169"><ele>33.0</ele><time>2026-03-29T08:29:25.001Z</time></trkpt><trkpt lat="47.27014191453091" lon="-1.5461905673160647"><ele>33.0</ele><time>2026-03-29T08:29:27.001Z</time></trkpt><trkpt lat="47.27022363808683" lon="-1.5461980272098874"><ele>33.0</ele><time>2026-03-29T08:29:28.001Z</time></trkpt><trkpt lat="47.27033767387948" lon="-1.5462326444699859"><ele>33.0</ele><time>2026-03-29T08:29:30.001Z</time></trkpt><trkpt lat="47.27040028669617" lon="-1.5462540183230733"><ele>33.0</ele><time>2026-03-29T08:29:31.001Z</time></trkpt><trkpt lat="47.27046344433657" lon="-1.5462710335865115"><ele>33.0</ele><time>2026-03-29T08:29:32.001Z</time></trkpt><trkpt lat="47.27058250927112" lon="-1.5462895575925206"><ele>33.0</ele><time>2026-03-29T08:29:34.001Z</time></trkpt><trkpt lat="47.270706016614355" lon="-1.5463294554516174"><ele>33.0</ele><time>2026-03-29T08:29:36Z</time></trkpt><trkpt lat="47.270816699645735" lon="-1.5463559422656394"><ele>33.0</ele><time>2026-03-29T08:29:38Z</time></trkpt><trkpt lat="47.27093693804673" lon="-1.5463751368239023"><ele>33.0</ele><time>2026-03-29T08:29:40Z</time></trkpt><trkpt lat="47.27104301103137" lon="-1.5463950019344188"><ele>33.0</ele><time>2026-03-29T08:29:42Z</time></trkpt><trkpt lat="47.27115256250582" lon="-1.5464187227203943"><ele>33.0</ele><time>2026-03-29T08:29:44Z</time></trkpt><trkpt lat="47.27123441179029" lon="-1.546445628629575"><ele>33.0</ele><time>2026-03-29T08:29:45Z</time></trkpt><trkpt lat="47.27132921111516" lon="-1.5464896336212255"><ele>33.0</ele><time>2026-03-29T08:29:47Z</time></trkpt><trkpt lat="47.27144089997492" lon="-1.546511258931408"><ele>32.6</ele><time>2026-03-29T08:29:49Z</time></trkpt><trkpt lat="47.2715550195866" lon="-1.5465505700572826"><ele>32.199999999999996</ele><time>2026-03-29T08:29:51Z</time></trkpt><trkpt lat="47.2716335161098" lon="-1.5465830918415884"><ele>31.8</ele><time>2026-03-29T08:29:52Z</time></trkpt><trkpt lat="47.271750737025656" lon="-1.5466200560345749"><ele>31.4</ele><time>2026-03-29T08:29:54Z</time></trkpt><trkpt lat="47.271863054528154" lon="-1.5466437768205503"><ele>31.0</ele><time>2026-03-29T08:29:56Z</time></trkpt><trkpt lat="47.27197214499793" lon="-1.5466914698495964"><ele>31.000000000000004</ele><time>2026-03-29T08:29:58Z</time></trkpt><trkpt lat="47.272037272385575" lon="-1.546701611952434"><ele>31.0</ele><time>2026-03-29T08:29:59Z</time></trkpt><trkpt lat="47.27213081442497" lon="-1.5467249974622825"><ele>31.0</ele><time>2026-03-29T08:30:01Z</time></trkpt><trkpt lat="47.272242335646666" lon="-1.5467609558268884"><ele>31.0</ele><time>2026-03-29T08:30:03Z</time></trkpt><trkpt lat="47.27231039670042" lon="-1.5467869397267202"><ele>31.000000000000004</ele><time>2026-03-29T08:30:04Z</time></trkpt><trkpt lat="47.27238365453414" lon="-1.5468136779978376"><ele>31.0</ele><time>2026-03-29T08:30:05Z</time></trkpt><trkpt lat="47.27244999729774" lon="-1.546841841192494"><ele>31.200000000000003</ele><time>2026-03-29T08:30:06Z</time></trkpt><trkpt lat="47.272560345052995" lon="-1.546868663282643"><ele>31.400000000000002</ele><time>2026-03-29T08:30:08Z</time></trkpt><trkpt lat="47.27262505334548" lon="-1.546881319956432"><ele>31.6</ele><time>2026-03-29T08:30:09Z</time></trkpt><trkpt lat="47.27274206471375" lon="-1.5469270013287169"><ele>31.8</ele><time>2026-03-29T08:30:11Z</time></trkpt><trkpt lat="47.27285350211642" lon="-1.5469466149821383"><ele>32.0</ele><time>2026-03-29T08:30:13Z</time></trkpt><trkpt lat="47.2729158215665" lon="-1.5469665639116865"><ele>32.0</ele><time>2026-03-29T08:30:14Z</time></trkpt><trkpt lat="47.27302143354646" lon="-1.5469957329347235"><ele>32.0</ele><time>2026-03-29T08:30:16Z</time></trkpt><trkpt lat="47.27313362532041" lon="-1.5470228064819675"><ele>32.0</ele><time>2026-03-29T08:30:18Z</time></trkpt><trkpt lat="47.27324233860455" lon="-1.5470681525781258"><ele>32.0</ele><time>2026-03-29T08:30:20Z</time></trkpt><trkpt lat="47.27336014625362" lon="-1.547098411248575"><ele>32.2</ele><time>2026-03-29T08:30:22Z</time></trkpt><trkpt lat="47.273463620848275" lon="-1.5471398178502425"><ele>32.400000000000006</ele><time>2026-03-29T08:30:24Z</time></trkpt><trkpt lat="47.27357719563625" lon="-1.547187929974447"><ele>32.599999999999994</ele><time>2026-03-29T08:30:26Z</time></trkpt><trkpt lat="47.27366792973808" lon="-1.5472523868098362"><ele>32.8</ele><time>2026-03-29T08:30:28Z</time></trkpt><trkpt lat="47.27376059167764" lon="-1.5473462641253577"><ele>33.0</ele><time>2026-03-29T08:30:30Z</time></trkpt><trkpt lat="47.273830287202514" lon="-1.5474429074689255"><ele>33.0</ele><time>2026-03-29T08:30:32Z</time></trkpt><trkpt lat="47.2738965880566" lon="-1.5475496929153312"><ele>33.0</ele><time>2026-03-29T08:30:34Z</time></trkpt><trkpt lat="47.27400735490701" lon="-1.5476390440031398"><ele>33.0</ele><time>2026-03-29T08:30:36Z</time></trkpt><trkpt lat="47.27408409123055" lon="-1.5477271378054727"><ele>33.0</ele><time>2026-03-29T08:30:38Z</time></trkpt><trkpt lat="47.27414926052771" lon="-1.5477692987784257"><ele>33.0</ele><time>2026-03-29T08:30:40Z</time></trkpt><trkpt lat="47.27423576176844" lon="-1.5478068497046342"><ele>33.166666666666664</ele><time>2026-03-29T08:30:42Z</time></trkpt><trkpt lat="47.27431241427294" lon="-1.5477615036084762"><ele>33.333333333333336</ele><time>2026-03-29T08:30:44Z</time></trkpt><trkpt lat="47.274385211101986" lon="-1.5477137267603982"><ele>33.5</ele><time>2026-03-29T08:30:46Z</time></trkpt><trkpt lat="47.27444979366592" lon="-1.5476869046702493"><ele>33.66666666666667</ele><time>2026-03-29T08:30:48Z</time></trkpt><trkpt lat="47.27451823190532" lon="-1.547628985719334"><ele>33.833333333333336</ele><time>2026-03-29T08:30:51Z</time></trkpt><trkpt lat="47.27457627658478" lon="-1.5475598350181687"><ele>34.0</ele><time>2026-03-29T08:30:53Z</time></trkpt><trkpt lat="47.274646349295296" lon="-1.5475013293340312"><ele>34.0</ele><time>2026-03-29T08:30:55Z</time></trkpt><trkpt lat="47.274725055366076" lon="-1.5474891755744324"><ele>34.0</ele><time>2026-03-29T08:30:57Z</time></trkpt><trkpt lat="47.274804180532016" lon="-1.547517254950057"><ele>34.0</ele><time>2026-03-29T08:30:59Z</time></trkpt><trkpt lat="47.27488971785388" lon="-1.5475354436799396"><ele>34.0</ele><time>2026-03-29T08:31:01Z</time></trkpt><trkpt lat="47.274971441409804" lon="-1.5475532133146632"><ele>34.0</ele><time>2026-03-29T08:31:03Z</time></trkpt><trkpt lat="47.27505350024185" lon="-1.5475719049587358"><ele>34.0</ele><time>2026-03-29T08:31:05Z</time></trkpt><trkpt lat="47.27513669063083" lon="-1.5475931949927915"><ele>34.8</ele><time>2026-03-29T08:31:07Z</time></trkpt><trkpt lat="47.27521522906355" lon="-1.5476139821126569"><ele>35.599999999999994</ele><time>2026-03-29T08:31:09Z</time></trkpt><trkpt lat="47.275312291502274" lon="-1.5476468391730893"><ele>36.4</ele><time>2026-03-29T08:31:11Z</time></trkpt><trkpt lat="47.27540390570394" lon="-1.5476739127203334"><ele>37.199999999999996</ele><time>2026-03-29T08:31:13Z</time></trkpt><trkpt lat="47.27548868865452" lon="-1.5476986393346894"><ele>38.0</ele><time>2026-03-29T08:31:15Z</time></trkpt><trkpt lat="47.27558214687488" lon="-1.5477295685573924"><ele>38.0</ele><time>2026-03-29T08:31:17Z</time></trkpt><trkpt lat="47.27565976329825" lon="-1.547760665418159"><ele>38.0</ele><time>2026-03-29T08:31:19Z</time></trkpt><trkpt lat="47.27574098393998" lon="-1.5477918460979572"><ele>38.0</ele><time>2026-03-29T08:31:21Z</time></trkpt><trkpt lat="47.2758012917333" lon="-1.5478433948024621"><ele>38.0</ele><time>2026-03-29T08:31:23Z</time></trkpt><trkpt lat="47.27587488484315" lon="-1.547927632929336"><ele>38.0</ele><time>2026-03-29T08:31:25Z</time></trkpt><trkpt lat="47.275932594246484" lon="-1.5480373520418518"><ele>38.0</ele><time>2026-03-29T08:31:27Z</time></trkpt><trkpt lat="47.27595991925082" lon="-1.548162158580076"><ele>38.0</ele><time>2026-03-29T08:31:29Z</time></trkpt><trkpt lat="47.276035775474526" lon="-1.548259975390088"><ele>38.0</ele><time>2026-03-29T08:31:31Z</time></trkpt><trkpt lat="47.27611150596968" lon="-1.5483337361379976"><ele>38.0</ele><time>2026-03-29T08:31:33Z</time></trkpt><trkpt lat="47.27620932277969" lon="-1.5483500808491821"><ele>38.0</ele><time>2026-03-29T08:31:35Z</time></trkpt><trkpt lat="47.276296913667835" lon="-1.5483422856792326"><ele>38.0</ele><time>2026-03-29T08:31:37Z</time></trkpt><trkpt lat="47.27638421118937" lon="-1.5482883062228079"><ele>38.199999999999996</ele><time>2026-03-29T08:31:41Z</time></trkpt><trkpt lat="47.27645076350055" lon="-1.548230806367051"><ele>38.4</ele><time>2026-03-29T08:31:43Z</time></trkpt><trkpt lat="47.276523434601046" lon="-1.5481863822802417"><ele>38.599999999999994</ele><time>2026-03-29T08:31:45Z</time></trkpt><trkpt lat="47.276606499261476" lon="-1.5481655113413446"><ele>38.8</ele><time>2026-03-29T08:31:47Z</time></trkpt><trkpt lat="47.2767114825987" lon="-1.5481619071229809"><ele>39.0</ele><time>2026-03-29T08:31:49Z</time></trkpt><trkpt lat="47.27682136934928" lon="-1.548178922386419"><ele>39.0</ele><time>2026-03-29T08:31:51Z</time></trkpt><trkpt lat="47.276937542527236" lon="-1.5482168924077861"><ele>39.0</ele><time>2026-03-29T08:31:53Z</time></trkpt><trkpt lat="47.27702806708149" lon="-1.5482378471657152"><ele>39.0</ele><time>2026-03-29T08:31:55Z</time></trkpt><trkpt lat="47.277164189188994" lon="-1.5482568740859146"><ele>39.0</ele><time>2026-03-29T08:31:57Z</time></trkpt><trkpt lat="47.27728648115627" lon="-1.548304734753024"><ele>38.666666666666664</ele><time>2026-03-29T08:31:59Z</time></trkpt><trkpt lat="47.27735341065309" lon="-1.5483196545406694"><ele>38.333333333333336</ele><time>2026-03-29T08:32:00Z</time></trkpt><trkpt lat="47.277471008754596" lon="-1.5483599714949245"><ele>38.0</ele><time>2026-03-29T08:32:02Z</time></trkpt><trkpt lat="47.27753429212354" lon="-1.548366928474557"><ele>37.66666666666667</ele><time>2026-03-29T08:32:03Z</time></trkpt><trkpt lat="47.27760235317729" lon="-1.5484136994942541"><ele>37.333333333333336</ele><time>2026-03-29T08:32:04Z</time></trkpt><trkpt lat="47.27766806729816" lon="-1.5484282001867409"><ele>37.0</ele><time>2026-03-29T08:32:05Z</time></trkpt><trkpt lat="47.277737301818355" lon="-1.5484554413720484"><ele>37.0</ele><time>2026-03-29T08:32:06Z</time></trkpt><trkpt lat="47.277865796393975" lon="-1.5484985243543503"><ele>37.0</ele><time>2026-03-29T08:32:08Z</time></trkpt><trkpt lat="47.2780051455342" lon="-1.5485217422261355"><ele>37.0</ele><time>2026-03-29T08:32:10Z</time></trkpt><trkpt lat="47.27808427070014" lon="-1.548537164927971"><ele>37.0</ele><time>2026-03-29T08:32:11Z</time></trkpt><trkpt lat="47.27816813164137" lon="-1.5485488995924113"><ele>37.0</ele><time>2026-03-29T08:32:12Z</time></trkpt><trkpt lat="47.278242269574925" lon="-1.5485661663129446"><ele>36.5</ele><time>2026-03-29T08:32:13Z</time></trkpt><trkpt lat="47.278315820775255" lon="-1.5485952515169499"><ele>36.0</ele><time>2026-03-29T08:32:14Z</time></trkpt><trkpt lat="47.2783938982033" lon="-1.5486234147116062"><ele>35.5</ele><time>2026-03-29T08:32:15Z</time></trkpt><trkpt lat="47.27847256236456" lon="-1.5486462134882328"><ele>35.0</ele><time>2026-03-29T08:32:16Z</time></trkpt><trkpt lat="47.278557722500786" lon="-1.5486863628044245"><ele>34.5</ele><time>2026-03-29T08:32:17Z</time></trkpt><trkpt lat="47.27863445882432" lon="-1.5487042162581799"><ele>34.0</ele><time>2026-03-29T08:32:18Z</time></trkpt><trkpt lat="47.27871622428976" lon="-1.5487258415683627"><ele>34.0</ele><time>2026-03-29T08:32:19Z</time></trkpt><trkpt lat="47.27880339608274" lon="-1.5487417671843886"><ele>34.0</ele><time>2026-03-29T08:32:20Z</time></trkpt><trkpt lat="47.278881683058366" lon="-1.5487520769252896"><ele>34.0</ele><time>2026-03-29T08:32:21Z</time></trkpt><trkpt lat="47.27896508299492" lon="-1.548785520718944"><ele>34.0</ele><time>2026-03-29T08:32:22Z</time></trkpt><trkpt lat="47.27905041076921" lon="-1.5488115046187758"><ele>34.0</ele><time>2026-03-29T08:32:23Z</time></trkpt><trkpt lat="47.27912496779792" lon="-1.5488235745593428"><ele>34.0</ele><time>2026-03-29T08:32:24Z</time></trkpt><trkpt lat="47.279209499291404" lon="-1.548851821573031"><ele>33.16666666666667</ele><time>2026-03-29T08:32:25Z</time></trkpt><trkpt lat="47.279299143745824" lon="-1.5488832537099242"><ele>32.333333333333336</ele><time>2026-03-29T08:32:26Z</time></trkpt><trkpt lat="47.27938568689607" lon="-1.5489105787142634"><ele>31.5</ele><time>2026-03-29T08:32:27Z</time></trkpt><trkpt lat="47.27947013457052" lon="-1.5489321202054143"><ele>30.666666666666664</ele><time>2026-03-29T08:32:28Z</time></trkpt><trkpt lat="47.27955215149306" lon="-1.548959948123944"><ele>29.833333333333332</ele><time>2026-03-29T08:32:29Z</time></trkpt><trkpt lat="47.27964401715182" lon="-1.5489903744324567"><ele>29.0</ele><time>2026-03-29T08:32:30Z</time></trkpt><trkpt lat="47.279723058498725" lon="-1.5490130055710198"><ele>28.333333333333332</ele><time>2026-03-29T08:32:31Z</time></trkpt><trkpt lat="47.27980687753044" lon="-1.5490386541947248"><ele>27.666666666666664</ele><time>2026-03-29T08:32:32Z</time></trkpt><trkpt lat="47.27988814008169" lon="-1.5490623749807002"><ele>27.0</ele><time>2026-03-29T08:32:33Z</time></trkpt><trkpt lat="47.279981137297376" lon="-1.5491000935449721"><ele>26.333333333333336</ele><time>2026-03-29T08:32:34Z</time></trkpt><trkpt lat="47.28006751280956" lon="-1.5491246525212647"><ele>25.666666666666668</ele><time>2026-03-29T08:32:35Z</time></trkpt><trkpt lat="47.280144039585515" lon="-1.5491445176317813"><ele>25.0</ele><time>2026-03-29T08:32:36Z</time></trkpt><trkpt lat="47.28022572123192" lon="-1.549161700533283"><ele>25.000000000000004</ele><time>2026-03-29T08:32:37Z</time></trkpt><trkpt lat="47.28033673953943" lon="-1.549166981132281"><ele>25.0</ele><time>2026-03-29T08:32:39Z</time></trkpt><trkpt lat="47.280406686521395" lon="-1.5491964016124133"><ele>25.0</ele><time>2026-03-29T08:32:40Z</time></trkpt><trkpt lat="47.28047856134109" lon="-1.5492238104357843"><ele>25.0</ele><time>2026-03-29T08:32:41Z</time></trkpt><trkpt lat="47.280561374544426" lon="-1.5492535661920432"><ele>25.000000000000004</ele><time>2026-03-29T08:32:42Z</time></trkpt><trkpt lat="47.28064003870569" lon="-1.5492697432651643"><ele>25.0</ele><time>2026-03-29T08:32:43Z</time></trkpt><trkpt lat="47.28071631402455" lon="-1.5492921229466323"><ele>25.166666666666668</ele><time>2026-03-29T08:32:44Z</time></trkpt><trkpt lat="47.28084623352371" lon="-1.549305450172675"><ele>25.333333333333336</ele><time>2026-03-29T08:32:46Z</time></trkpt><trkpt lat="47.280925107232555" lon="-1.5493285004063968"><ele>25.5</ele><time>2026-03-29T08:32:47Z</time></trkpt><trkpt lat="47.280998448885306" lon="-1.549361441285861"><ele>25.666666666666664</ele><time>2026-03-29T08:32:48Z</time></trkpt><trkpt lat="47.281068270138725" lon="-1.5493836533292655"><ele>25.833333333333332</ele><time>2026-03-29T08:32:49Z</time></trkpt><trkpt lat="47.28113633119248" lon="-1.5494106430574779"><ele>26.0</ele><time>2026-03-29T08:32:50Z</time></trkpt><trkpt lat="47.281200997575446" lon="-1.5494253952070598"><ele>25.999999999999996</ele><time>2026-03-29T08:32:51Z</time></trkpt><trkpt lat="47.28126369421117" lon="-1.5494359564050562"><ele>26.0</ele><time>2026-03-29T08:32:52Z</time></trkpt><trkpt lat="47.28138326205991" lon="-1.5494682267322666"><ele>26.0</ele><time>2026-03-29T08:32:54Z</time></trkpt><trkpt lat="47.28145069447093" lon="-1.5494908578708297"><ele>26.0</ele><time>2026-03-29T08:32:55Z</time></trkpt><trkpt lat="47.28152286265723" lon="-1.5495076216771728"><ele>25.999999999999996</ele><time>2026-03-29T08:32:56Z</time></trkpt><trkpt lat="47.28158765476875" lon="-1.5495381318047172"><ele>26.0</ele><time>2026-03-29T08:32:57Z</time></trkpt><trkpt lat="47.28165257260881" lon="-1.549558835105551"><ele>26.4</ele><time>2026-03-29T08:32:58Z</time></trkpt><trkpt lat="47.28172717154704" lon="-1.5495757665499574"><ele>26.8</ele><time>2026-03-29T08:32:59Z</time></trkpt><trkpt lat="47.28179020345889" lon="-1.5495881717666513"><ele>27.199999999999996</ele><time>2026-03-29T08:33:00Z</time></trkpt><trkpt lat="47.28191769220613" lon="-1.5496163349613077"><ele>27.599999999999998</ele><time>2026-03-29T08:33:02Z</time></trkpt><trkpt lat="47.28203503885053" lon="-1.5496419835850126"><ele>28.0</ele><time>2026-03-29T08:33:04Z</time></trkpt><trkpt lat="47.28209828030996" lon="-1.549648353831423"><ele>28.0</ele><time>2026-03-29T08:33:05Z</time></trkpt><trkpt lat="47.28222384121947" lon="-1.54968288727249"><ele>27.999999999999996</ele><time>2026-03-29T08:33:07Z</time></trkpt><trkpt lat="47.282291064082905" lon="-1.5496973879649767"><ele>27.999999999999996</ele><time>2026-03-29T08:33:08Z</time></trkpt><trkpt lat="47.28239038963549" lon="-1.5497081168010363"><ele>28.0</ele><time>2026-03-29T08:33:10Z</time></trkpt><trkpt lat="47.28246218063615" lon="-1.5497165825232395"><ele>28.0</ele><time>2026-03-29T08:33:12Z</time></trkpt><trkpt lat="47.282583760141655" lon="-1.5497360285385975"><ele>28.166666666666668</ele><time>2026-03-29T08:33:14Z</time></trkpt><trkpt lat="47.2826480912485" lon="-1.549749439583672"><ele>28.333333333333336</ele><time>2026-03-29T08:33:15Z</time></trkpt><trkpt lat="47.28272759360008" lon="-1.5497742500170597"><ele>28.5</ele><time>2026-03-29T08:33:16Z</time></trkpt><trkpt lat="47.282817782878205" lon="-1.5498240385218987"><ele>28.666666666666664</ele><time>2026-03-29T08:33:18Z</time></trkpt><trkpt lat="47.28288391609423" lon="-1.5498845558627972"><ele>28.833333333333332</ele><time>2026-03-29T08:33:20Z</time></trkpt><trkpt lat="47.2829483310201" lon="-1.5499104559435974"><ele>29.0</ele><time>2026-03-29T08:33:22Z</time></trkpt><trkpt lat="47.28305318862878" lon="-1.549899894745601"><ele>29.0</ele><time>2026-03-29T08:33:24Z</time></trkpt><trkpt lat="47.28313864213161" lon="-1.5498214401319155"><ele>29.0</ele><time>2026-03-29T08:33:26Z</time></trkpt><trkpt lat="47.28323909924112" lon="-1.5497978869840034"><ele>29.0</ele><time>2026-03-29T08:33:28Z</time></trkpt><trkpt lat="47.28330707647584" lon="-1.5497952885940203"><ele>29.0</ele><time>2026-03-29T08:33:29Z</time></trkpt><trkpt lat="47.28343284693293" lon="-1.5498031675830015"><ele>29.0</ele><time>2026-03-29T08:33:31Z</time></trkpt><trkpt lat="47.28354893629186" lon="-1.5498169139042028"><ele>29.0</ele><time>2026-03-29T08:33:33Z</time></trkpt><trkpt lat="47.283613099760636" lon="-1.5498134773239025"><ele>29.0</ele><time>2026-03-29T08:33:34Z</time></trkpt><trkpt lat="47.28372457907282" lon="-1.5498308278634676"><ele>29.0</ele><time>2026-03-29T08:33:36Z</time></trkpt><trkpt lat="47.28379494514994" lon="-1.549836276100529"><ele>29.0</ele><time>2026-03-29T08:33:37Z</time></trkpt><trkpt lat="47.28391962595962" lon="-1.5498320851489433"><ele>29.0</ele><time>2026-03-29T08:33:39Z</time></trkpt><trkpt lat="47.284043007574304" lon="-1.5498256310835012"><ele>28.833333333333332</ele><time>2026-03-29T08:33:41Z</time></trkpt><trkpt lat="47.28412267756395" lon="-1.5498235356077084"><ele>28.666666666666664</ele><time>2026-03-29T08:33:42Z</time></trkpt><trkpt lat="47.284188475503846" lon="-1.5498344320818314"><ele>28.5</ele><time>2026-03-29T08:33:43Z</time></trkpt><trkpt lat="47.28428687904708" lon="-1.5498429816230663"><ele>28.333333333333336</ele><time>2026-03-29T08:33:45Z</time></trkpt><trkpt lat="47.284361184618696" lon="-1.5498370304718145"><ele>28.166666666666668</ele><time>2026-03-29T08:33:46Z</time></trkpt><trkpt lat="47.28447760925375" lon="-1.5498346835389265"><ele>28.0</ele><time>2026-03-29T08:33:48Z</time></trkpt><trkpt lat="47.28457877882503" lon="-1.5498942788704761"><ele>28.0</ele><time>2026-03-29T08:33:49Z</time></trkpt><trkpt lat="47.28467257232152" lon="-1.5498496871456036"><ele>27.999999999999996</ele><time>2026-03-29T08:33:52.001Z</time></trkpt><trkpt lat="47.28477646601133" lon="-1.5498489327743181"><ele>27.999999999999996</ele><time>2026-03-29T08:33:54.001Z</time></trkpt><trkpt lat="47.28489381265573" lon="-1.549845999108208"><ele>28.0</ele><time>2026-03-29T08:33:56.001Z</time></trkpt><trkpt lat="47.285003238401636" lon="-1.5498374495669731"><ele>28.0</ele><time>2026-03-29T08:33:58.001Z</time></trkpt><trkpt lat="47.28511216123336" lon="-1.5498795267208942"><ele>27.799999999999997</ele><time>2026-03-29T08:34:00.001Z</time></trkpt><trkpt lat="47.285172385207645" lon="-1.5499495994314085"><ele>27.599999999999998</ele><time>2026-03-29T08:34:01.001Z</time></trkpt><trkpt lat="47.28522837632083" lon="-1.5500516910120379"><ele>27.400000000000002</ele><time>2026-03-29T08:34:03.001Z</time></trkpt><trkpt lat="47.285315338566235" lon="-1.5501557942494286"><ele>27.200000000000003</ele><time>2026-03-29T08:34:05.001Z</time></trkpt><trkpt lat="47.28538662665271" lon="-1.55025260523106"><ele>27.0</ele><time>2026-03-29T08:34:07.001Z</time></trkpt><trkpt lat="47.285460932224325" lon="-1.5503303892924918"><ele>27.166666666666668</ele><time>2026-03-29T08:34:09.001Z</time></trkpt><trkpt lat="47.28550673932516" lon="-1.5504413656904832"><ele>27.333333333333336</ele><time>2026-03-29T08:34:11.001Z</time></trkpt><trkpt lat="47.28558624167674" lon="-1.5505244303509131"><ele>27.5</ele><time>2026-03-29T08:34:13.001Z</time></trkpt><trkpt lat="47.28564914786004" lon="-1.5505010448410645"><ele>27.666666666666668</ele><time>2026-03-29T08:34:15.001Z</time></trkpt><trkpt lat="47.28574231271379" lon="-1.550451759250416"><ele>27.833333333333336</ele><time>2026-03-29T08:34:17.001Z</time></trkpt><trkpt lat="47.2857817076587" lon="-1.5503542777165307"><ele>28.0</ele><time>2026-03-29T08:34:19.001Z</time></trkpt><trkpt lat="47.285831538073055" lon="-1.5502168983235491"><ele>27.599999999999998</ele><time>2026-03-29T08:34:21.001Z</time></trkpt><trkpt lat="47.285865820057026" lon="-1.5500582288965117"><ele>27.199999999999996</ele><time>2026-03-29T08:34:23.001Z</time></trkpt><trkpt lat="47.28590990886771" lon="-1.549937697128905"><ele>26.8</ele><time>2026-03-29T08:34:25.001Z</time></trkpt><trkpt lat="47.285954668230644" lon="-1.5498629305526146"><ele>26.4</ele><time>2026-03-29T08:34:26.001Z</time></trkpt><trkpt lat="47.28606216613882" lon="-1.5497604198768267"><ele>26.0</ele><time>2026-03-29T08:34:28.001Z</time></trkpt><trkpt lat="47.28613793854349" lon="-1.5497602522387632"><ele>26.0</ele><time>2026-03-29T08:34:29.001Z</time></trkpt><trkpt lat="47.286256668201915" lon="-1.5497584920390972"><ele>26.0</ele><time>2026-03-29T08:34:31.001Z</time></trkpt><trkpt lat="47.28638763543897" lon="-1.5497258026167282"><ele>26.0</ele><time>2026-03-29T08:34:33.001Z</time></trkpt><trkpt lat="47.28646059990608" lon="-1.5497274789973625"><ele>26.0</ele><time>2026-03-29T08:34:34.001Z</time></trkpt><trkpt lat="47.28652891241693" lon="-1.5497216954841742"><ele>26.0</ele><time>2026-03-29T08:34:35.001Z</time></trkpt><trkpt lat="47.286608247130445" lon="-1.549723204226745"><ele>25.857142857142858</ele><time>2026-03-29T08:34:36.001Z</time></trkpt><trkpt lat="47.28668234315448" lon="-1.5497059375062117"><ele>25.714285714285715</ele><time>2026-03-29T08:34:38.001Z</time></trkpt><trkpt lat="47.286745333156816" lon="-1.5497067756965288"><ele>25.571428571428573</ele><time>2026-03-29T08:34:39.001Z</time></trkpt><trkpt lat="47.28682315912776" lon="-1.549699064345611"><ele>25.42857142857143</ele><time>2026-03-29T08:34:40.001Z</time></trkpt><trkpt lat="47.2868885379725" lon="-1.5496866591289171"><ele>25.285714285714285</ele><time>2026-03-29T08:34:41.001Z</time></trkpt><trkpt lat="47.28696795650505" lon="-1.549659837038768"><ele>25.142857142857146</ele><time>2026-03-29T08:34:42.001Z</time></trkpt><trkpt lat="47.2870397055962" lon="-1.5496532153352625"><ele>25.0</ele><time>2026-03-29T08:34:43.001Z</time></trkpt><trkpt lat="47.28710600645029" lon="-1.5496366191669828"><ele>25.0</ele><time>2026-03-29T08:34:44.001Z</time></trkpt><trkpt lat="47.287188274829916" lon="-1.5496237948551304"><ele>25.0</ele><time>2026-03-29T08:34:45.001Z</time></trkpt><trkpt lat="47.28725600060754" lon="-1.5496043488397724"><ele>25.0</ele><time>2026-03-29T08:34:46.001Z</time></trkpt><trkpt lat="47.28736819238149" lon="-1.54959739186014"><ele>25.0</ele><time>2026-03-29T08:34:48.001Z</time></trkpt><trkpt lat="47.28748696394943" lon="-1.5495719108744985"><ele>25.0</ele><time>2026-03-29T08:34:50.001Z</time></trkpt><trkpt lat="47.28760468777948" lon="-1.5495801251396066"><ele>25.2</ele><time>2026-03-29T08:34:52.001Z</time></trkpt><trkpt lat="47.28771440689199" lon="-1.5495619364097244"><ele>25.4</ele><time>2026-03-29T08:34:54.001Z</time></trkpt><trkpt lat="47.28781410963022" lon="-1.5495394729092247"><ele>25.6</ele><time>2026-03-29T08:34:56.001Z</time></trkpt><trkpt lat="47.287878482646576" lon="-1.5495422389372713"><ele>25.8</ele><time>2026-03-29T08:34:57.001Z</time></trkpt><trkpt lat="47.28799155452036" lon="-1.5495334379389412"><ele>26.0</ele><time>2026-03-29T08:34:59.001Z</time></trkpt><trkpt lat="47.288058064922026" lon="-1.5495413169279224"><ele>25.999999999999996</ele><time>2026-03-29T08:35:00.001Z</time></trkpt><trkpt lat="47.288164808458916" lon="-1.5495495311930305"><ele>26.0</ele><time>2026-03-29T08:35:02.001Z</time></trkpt><trkpt lat="47.288227044089965" lon="-1.5495320968344337"><ele>26.0</ele><time>2026-03-29T08:35:03.001Z</time></trkpt><trkpt lat="47.28832100522452" lon="-1.549513740466488"><ele>26.0</ele><time>2026-03-29T08:35:05.001Z</time></trkpt><trkpt lat="47.288409140936366" lon="-1.549483733253134"><ele>25.999999999999996</ele><time>2026-03-29T08:35:07.001Z</time></trkpt><trkpt lat="47.28848713454538" lon="-1.5494476072504646"><ele>26.0</ele><time>2026-03-29T08:35:09.001Z</time></trkpt><trkpt lat="47.28856428996407" lon="-1.5494356211289293"><ele>25.999999999999996</ele><time>2026-03-29T08:35:10.001Z</time></trkpt><trkpt lat="47.288641361563734" lon="-1.5494228806361083"><ele>26.0</ele><time>2026-03-29T08:35:11.001Z</time></trkpt><trkpt lat="47.28871503849261" lon="-1.5494067035629873"><ele>26.0</ele><time>2026-03-29T08:35:12.001Z</time></trkpt><trkpt lat="47.28878465019845" lon="-1.549401506783021"><ele>26.0</ele><time>2026-03-29T08:35:13.001Z</time></trkpt><trkpt lat="47.28885648310863" lon="-1.5493895206614856"><ele>25.999999999999996</ele><time>2026-03-29T08:35:14.001Z</time></trkpt><trkpt lat="47.28892613672399" lon="-1.5493697393700008"><ele>26.0</ele><time>2026-03-29T08:35:15.001Z</time></trkpt><trkpt lat="47.289035939655534" lon="-1.549343168736947"><ele>26.285714285714285</ele><time>2026-03-29T08:35:17.001Z</time></trkpt><trkpt lat="47.2891066829183" lon="-1.5493335295482997"><ele>26.571428571428573</ele><time>2026-03-29T08:35:18.001Z</time></trkpt><trkpt lat="47.28918350306087" lon="-1.5493330266341094"><ele>26.857142857142858</ele><time>2026-03-29T08:35:19.001Z</time></trkpt><trkpt lat="47.28926673535936" lon="-1.549313412980688"><ele>27.142857142857142</ele><time>2026-03-29T08:35:20.001Z</time></trkpt><trkpt lat="47.289338232993416" lon="-1.5493107307716731"><ele>27.42857142857143</ele><time>2026-03-29T08:35:21.001Z</time></trkpt><trkpt lat="47.289400971538655" lon="-1.5493235550835256"><ele>27.714285714285715</ele><time>2026-03-29T08:35:22.001Z</time></trkpt><trkpt lat="47.28947557047688" lon="-1.549332858996046"><ele>28.0</ele><time>2026-03-29T08:35:24.001Z</time></trkpt><trkpt lat="47.2895704955303" lon="-1.549369655550969"><ele>28.0</ele><time>2026-03-29T08:35:26.001Z</time></trkpt><trkpt lat="47.289709760851494" lon="-1.5494072902962093"><ele>28.0</ele><time>2026-03-29T08:35:28.001Z</time></trkpt><trkpt lat="47.2898294963383" lon="-1.5493578370674972"><ele>28.0</ele><time>2026-03-29T08:35:29.001Z</time></trkpt><trkpt lat="47.289933054751984" lon="-1.5493414923563127"><ele>28.0</ele><time>2026-03-29T08:35:30.001Z</time></trkpt><trkpt lat="47.29003091347151" lon="-1.5493061207249288"><ele>27.500000000000004</ele><time>2026-03-29T08:35:31.001Z</time></trkpt><trkpt lat="47.29012399450623" lon="-1.5493269078447942"><ele>27.0</ele><time>2026-03-29T08:35:33.001Z</time></trkpt><trkpt lat="47.290188409432105" lon="-1.5493330266341094"><ele>26.5</ele><time>2026-03-29T08:35:34.001Z</time></trkpt><trkpt lat="47.29027109690689" lon="-1.5493271593018894"><ele>26.0</ele><time>2026-03-29T08:35:36.001Z</time></trkpt><trkpt lat="47.290332368619076" lon="-1.5492422506227617"><ele>25.500000000000004</ele><time>2026-03-29T08:35:38.001Z</time></trkpt><trkpt lat="47.29041400835597" lon="-1.549184080214751"><ele>25.0</ele><time>2026-03-29T08:35:40.001Z</time></trkpt><trkpt lat="47.29052699641072" lon="-1.5491751115783574"><ele>25.6</ele><time>2026-03-29T08:35:42.001Z</time></trkpt><trkpt lat="47.29061907161706" lon="-1.5491651371135833"><ele>26.2</ele><time>2026-03-29T08:35:44.001Z</time></trkpt><trkpt lat="47.290689521513215" lon="-1.549173183740628"><ele>26.799999999999997</ele><time>2026-03-29T08:35:45.001Z</time></trkpt><trkpt lat="47.29082694281571" lon="-1.5491571743055703"><ele>27.4</ele><time>2026-03-29T08:35:47.001Z</time></trkpt><trkpt lat="47.29092291560703" lon="-1.5491374768331172"><ele>28.0</ele><time>2026-03-29T08:35:49.001Z</time></trkpt><trkpt lat="47.29099600580268" lon="-1.5491505526020648"><ele>28.000000000000004</ele><time>2026-03-29T08:35:50.001Z</time></trkpt><trkpt lat="47.291100486225716" lon="-1.549160191790712"><ele>28.0</ele><time>2026-03-29T08:35:52.001Z</time></trkpt><trkpt lat="47.291173031597665" lon="-1.5491574257626655"><ele>28.0</ele><time>2026-03-29T08:35:53.001Z</time></trkpt><trkpt lat="47.29124662470751" lon="-1.549150217325938"><ele>28.0</ele><time>2026-03-29T08:35:55.001Z</time></trkpt><trkpt lat="47.29135584090584" lon="-1.5491477865740182"><ele>28.000000000000004</ele><time>2026-03-29T08:35:57.001Z</time></trkpt><trkpt lat="47.291424949697486" lon="-1.549152564258826"><ele>28.0</ele><time>2026-03-29T08:35:59.001Z</time></trkpt><trkpt lat="47.291538189209334" lon="-1.5491711720838668"><ele>27.799999999999997</ele><time>2026-03-29T08:36:01.001Z</time></trkpt><trkpt lat="47.29165222500198" lon="-1.5491556655629994"><ele>27.599999999999998</ele><time>2026-03-29T08:36:03.001Z</time></trkpt><trkpt lat="47.291736169762245" lon="-1.5491471998407962"><ele>27.400000000000002</ele><time>2026-03-29T08:36:04.001Z</time></trkpt><trkpt lat="47.291838470890454" lon="-1.549146948383701"><ele>27.200000000000003</ele><time>2026-03-29T08:36:06.001Z</time></trkpt><trkpt lat="47.291913740380934" lon="-1.5491215512170913"><ele>27.0</ele><time>2026-03-29T08:36:07.001Z</time></trkpt><trkpt lat="47.29201482613318" lon="-1.5490972436978938"><ele>27.0</ele><time>2026-03-29T08:36:09.001Z</time></trkpt><trkpt lat="47.29212546725505" lon="-1.5491037815823676"><ele>27.000000000000004</ele><time>2026-03-29T08:36:11.001Z</time></trkpt><trkpt lat="47.29222521190279" lon="-1.5491023566588284"><ele>27.000000000000004</ele><time>2026-03-29T08:36:13.001Z</time></trkpt><trkpt lat="47.29230312169277" lon="-1.5491468645646693"><ele>27.0</ele><time>2026-03-29T08:36:15.001Z</time></trkpt><trkpt lat="47.29241401427173" lon="-1.5491952281459693"><ele>27.0</ele><time>2026-03-29T08:36:17.001Z</time></trkpt><trkpt lat="47.29247721382164" lon="-1.549210315571678"><ele>27.333333333333332</ele><time>2026-03-29T08:36:18.001Z</time></trkpt><trkpt lat="47.292539994276396" lon="-1.5491895284518127"><ele>27.666666666666664</ele><time>2026-03-29T08:36:20.001Z</time></trkpt><trkpt lat="47.2926380625435" lon="-1.5491854213192584"><ele>28.0</ele><time>2026-03-29T08:36:22.001Z</time></trkpt><trkpt lat="47.292729467197596" lon="-1.5491774585112454"><ele>28.333333333333332</ele><time>2026-03-29T08:36:24.001Z</time></trkpt><trkpt lat="47.29281412441963" lon="-1.549168154598725"><ele>28.666666666666664</ele><time>2026-03-29T08:36:26.001Z</time></trkpt><trkpt lat="47.2929089237445" lon="-1.5491663105800273"><ele>29.0</ele><time>2026-03-29T08:36:28.001Z</time></trkpt><trkpt lat="47.292986959263025" lon="-1.5491643827422978"><ele>29.4</ele><time>2026-03-29T08:36:30.001Z</time></trkpt><trkpt lat="47.29309554681861" lon="-1.5491926297559862"><ele>29.799999999999997</ele><time>2026-03-29T08:36:32.001Z</time></trkpt><trkpt lat="47.29317643218422" lon="-1.5491948928698425"><ele>30.200000000000003</ele><time>2026-03-29T08:36:34.001Z</time></trkpt><trkpt lat="47.29326595091009" lon="-1.5491781290634992"><ele>30.6</ele><time>2026-03-29T08:36:36.001Z</time></trkpt><trkpt lat="47.29335517626935" lon="-1.5491492114975574"><ele>31.0</ele><time>2026-03-29T08:36:38.001Z</time></trkpt><trkpt lat="47.2934512328797" lon="-1.549108391629112"><ele>31.0</ele><time>2026-03-29T08:36:40.001Z</time></trkpt><trkpt lat="47.293523484885036" lon="-1.5490293502822043"><ele>31.0</ele><time>2026-03-29T08:36:42.001Z</time></trkpt><trkpt lat="47.29360256814146" lon="-1.5489695873125913"><ele>31.0</ele><time>2026-03-29T08:36:44.001Z</time></trkpt><trkpt lat="47.29370193560356" lon="-1.5489458665266156"><ele>31.0</ele><time>2026-03-29T08:36:46.001Z</time></trkpt><trkpt lat="47.29380113542759" lon="-1.5489439386888861"><ele>31.0</ele><time>2026-03-29T08:36:48.001Z</time></trkpt><trkpt lat="47.293903101279675" lon="-1.5489375684424758"><ele>31.333333333333336</ele><time>2026-03-29T08:36:50.001Z</time></trkpt><trkpt lat="47.29399601467633" lon="-1.5489545837059142"><ele>31.666666666666668</ele><time>2026-03-29T08:36:52.001Z</time></trkpt><trkpt lat="47.29406705130571" lon="-1.5489519014968993"><ele>32.0</ele><time>2026-03-29T08:36:53.001Z</time></trkpt><trkpt lat="47.29413008321756" lon="-1.5489329583957314"><ele>32.333333333333336</ele><time>2026-03-29T08:36:54.001Z</time></trkpt><trkpt lat="47.29423276153141" lon="-1.548928683625114"><ele>32.666666666666664</ele><time>2026-03-29T08:36:56.001Z</time></trkpt><trkpt lat="47.294338247782825" lon="-1.5489335451289534"><ele>33.0</ele><time>2026-03-29T08:36:58.001Z</time></trkpt><trkpt lat="47.29446020447397" lon="-1.5489353053286194"><ele>33.0</ele><time>2026-03-29T08:37:00.001Z</time></trkpt><trkpt lat="47.29452839125627" lon="-1.5489391610040784"><ele>33.0</ele><time>2026-03-29T08:37:01.001Z</time></trkpt><trkpt lat="47.294659819498" lon="-1.5489250794067502"><ele>33.0</ele><time>2026-03-29T08:37:03.001Z</time></trkpt><trkpt lat="47.294727461456596" lon="-1.5489462018027425"><ele>33.0</ele><time>2026-03-29T08:37:04.001Z</time></trkpt><trkpt lat="47.2948334506222" lon="-1.5489700064077498"><ele>33.0</ele><time>2026-03-29T08:37:06.001Z</time></trkpt><trkpt lat="47.294898997105" lon="-1.548955254258168"><ele>33.0</ele><time>2026-03-29T08:37:07.001Z</time></trkpt><trkpt lat="47.295017642944394" lon="-1.5489584393813731"><ele>32.833333333333336</ele><time>2026-03-29T08:37:09.001Z</time></trkpt><trkpt lat="47.29508193214172" lon="-1.5489631332471492"><ele>32.666666666666664</ele><time>2026-03-29T08:37:10.001Z</time></trkpt><trkpt lat="47.29514823299581" lon="-1.5489636361613395"><ele>32.5</ele><time>2026-03-29T08:37:11.001Z</time></trkpt><trkpt lat="47.295217970430194" lon="-1.5489583555623414"><ele>32.33333333333333</ele><time>2026-03-29T08:37:12.001Z</time></trkpt><trkpt lat="47.295339256569086" lon="-1.548934550957334"><ele>32.166666666666664</ele><time>2026-03-29T08:37:14.001Z</time></trkpt><trkpt lat="47.29540953882718" lon="-1.548936311157"><ele>32.0</ele><time>2026-03-29T08:37:15.001Z</time></trkpt><trkpt lat="47.29549809363419" lon="-1.5489288512631774"><ele>31.999999999999996</ele><time>2026-03-29T08:37:16.001Z</time></trkpt><trkpt lat="47.29556343056941" lon="-1.5489244088544964"><ele>32.0</ele><time>2026-03-29T08:37:17.001Z</time></trkpt><trkpt lat="47.295647459148704" lon="-1.5489278454347968"><ele>32.0</ele><time>2026-03-29T08:37:18.001Z</time></trkpt><trkpt lat="47.29572847024286" lon="-1.5489138476565003"><ele>32.0</ele><time>2026-03-29T08:37:19.001Z</time></trkpt><trkpt lat="47.29579615411097" lon="-1.548918625341308"><ele>31.999999999999996</ele><time>2026-03-29T08:37:20.001Z</time></trkpt><trkpt lat="47.29586069476539" lon="-1.5489155240371346"><ele>32.0</ele><time>2026-03-29T08:37:21.001Z</time></trkpt><trkpt lat="47.295948034196435" lon="-1.5488669928177714"><ele>31.8</ele><time>2026-03-29T08:37:23.001Z</time></trkpt><trkpt lat="47.29602091484451" lon="-1.548842936755669"><ele>31.6</ele><time>2026-03-29T08:37:24.001Z</time></trkpt><trkpt lat="47.29614727203482" lon="-1.5487908851369738"><ele>31.400000000000002</ele><time>2026-03-29T08:37:26.001Z</time></trkpt><trkpt lat="47.29622006886387" lon="-1.5487717743977427"><ele>31.200000000000003</ele><time>2026-03-29T08:37:27.001Z</time></trkpt><trkpt lat="47.29629370388323" lon="-1.5487645659610152"><ele>31.0</ele><time>2026-03-29T08:37:28.001Z</time></trkpt><trkpt lat="47.29640530892396" lon="-1.5487324632718682"><ele>30.6</ele><time>2026-03-29T08:37:30.001Z</time></trkpt><trkpt lat="47.29653983846986" lon="-1.5487164538368106"><ele>30.200000000000003</ele><time>2026-03-29T08:37:32.001Z</time></trkpt><trkpt lat="47.29665177878672" lon="-1.5486989356591818"><ele>29.799999999999997</ele><time>2026-03-29T08:37:34.001Z</time></trkpt><trkpt lat="47.29671502024615" lon="-1.548677645625126"><ele>29.4</ele><time>2026-03-29T08:37:35.001Z</time></trkpt><trkpt lat="47.29681375906551" lon="-1.5486200619503376"><ele>29.0</ele><time>2026-03-29T08:37:37.001Z</time></trkpt><trkpt lat="47.29688182011926" lon="-1.5486177988364813"><ele>28.4</ele><time>2026-03-29T08:37:38.001Z</time></trkpt><trkpt lat="47.29696207684213" lon="-1.5486115124091027"><ele>27.799999999999997</ele><time>2026-03-29T08:37:39.001Z</time></trkpt><trkpt lat="47.29707548399204" lon="-1.5485956706121085"><ele>27.200000000000003</ele><time>2026-03-29T08:37:41.001Z</time></trkpt><trkpt lat="47.29716802020305" lon="-1.5486286114915726"><ele>26.6</ele><time>2026-03-29T08:37:43.001Z</time></trkpt><trkpt lat="47.29726554364645" lon="-1.548576643691909"><ele>26.0</ele><time>2026-03-29T08:37:45.001Z</time></trkpt><trkpt lat="47.297384105666815" lon="-1.5485292859389899"><ele>25.999999999999996</ele><time>2026-03-29T08:37:47.001Z</time></trkpt><trkpt lat="47.29746369183743" lon="-1.5485200658455012"><ele>26.0</ele><time>2026-03-29T08:37:48.001Z</time></trkpt><trkpt lat="47.297529908872484" lon="-1.5485060680672047"><ele>26.0</ele><time>2026-03-29T08:37:49.001Z</time></trkpt><trkpt lat="47.29760522027248" lon="-1.5484645776465054"><ele>26.0</ele><time>2026-03-29T08:37:50.001Z</time></trkpt><trkpt lat="47.29767030575061" lon="-1.5484276134535189"><ele>25.999999999999996</ele><time>2026-03-29T08:37:51.001Z</time></trkpt><trkpt lat="47.29778752666646" lon="-1.548427864910614"><ele>26.0</ele><time>2026-03-29T08:37:53.001Z</time></trkpt><trkpt lat="47.297913548580645" lon="-1.5484592970475073"><ele>25.999999999999996</ele><time>2026-03-29T08:37:55.001Z</time></trkpt><trkpt lat="47.29798626159066" lon="-1.5484694391503449"><ele>26.0</ele><time>2026-03-29T08:37:56.001Z</time></trkpt><trkpt lat="47.29805977088147" lon="-1.5484616439803953"><ele>26.0</ele><time>2026-03-29T08:37:57.001Z</time></trkpt><trkpt lat="47.298138560771285" lon="-1.548434067518961"><ele>26.0</ele><time>2026-03-29T08:37:58.001Z</time></trkpt><trkpt lat="47.29827996347779" lon="-1.548434318976056"><ele>25.999999999999996</ele><time>2026-03-29T08:38:00.001Z</time></trkpt><trkpt lat="47.29834358212286" lon="-1.5484430361553545"><ele>26.0</ele><time>2026-03-29T08:38:01.001Z</time></trkpt><trkpt lat="47.29844823018396" lon="-1.548418728636157"><ele>25.5</ele><time>2026-03-29T08:38:03.001Z</time></trkpt><trkpt lat="47.29855912276292" lon="-1.548377489672553"><ele>25.0</ele><time>2026-03-29T08:38:05.001Z</time></trkpt><trkpt lat="47.29868325874889" lon="-1.5482993703349943"><ele>24.5</ele><time>2026-03-29T08:38:07.001Z</time></trkpt><trkpt lat="47.29881506417626" lon="-1.5482474863543625"><ele>24.0</ele><time>2026-03-29T08:38:09.001Z</time></trkpt><trkpt lat="47.29887843136424" lon="-1.5482305549099558"><ele>24.333333333333332</ele><time>2026-03-29T08:38:10.001Z</time></trkpt><trkpt lat="47.29894448076123" lon="-1.5481955185546987"><ele>24.666666666666664</ele><time>2026-03-29T08:38:11.001Z</time></trkpt><trkpt lat="47.2990080994063" lon="-1.5481815207764023"><ele>25.0</ele><time>2026-03-29T08:38:12.001Z</time></trkpt><trkpt lat="47.299117022238015" lon="-1.5481597278281563"><ele>25.333333333333332</ele><time>2026-03-29T08:38:14.001Z</time></trkpt><trkpt lat="47.29921902999961" lon="-1.5481389407082908"><ele>25.666666666666664</ele><time>2026-03-29T08:38:16.001Z</time></trkpt><trkpt lat="47.29930821344936" lon="-1.5480989590301626"><ele>26.0</ele><time>2026-03-29T08:38:18.001Z</time></trkpt><trkpt lat="47.29938943409109" lon="-1.5480744838729017"><ele>26.0</ele><time>2026-03-29T08:38:20.001Z</time></trkpt><trkpt lat="47.29948285040194" lon="-1.548048164696943"><ele>26.0</ele><time>2026-03-29T08:38:22.001Z</time></trkpt><trkpt lat="47.29956122119659" lon="-1.5480231028064602"><ele>26.0</ele><time>2026-03-29T08:38:23.001Z</time></trkpt><trkpt lat="47.29964654897088" lon="-1.5480783395483606"><ele>26.0</ele><time>2026-03-29T08:38:24.001Z</time></trkpt><trkpt lat="47.29970865887338" lon="-1.5480367653086298"><ele>26.0</ele><time>2026-03-29T08:38:25.001Z</time></trkpt><trkpt lat="47.299824119589566" lon="-1.5479496773346773"><ele>25.999999999999996</ele><time>2026-03-29T08:38:27.001Z</time></trkpt><trkpt lat="47.29989209682429" lon="-1.5479325782522073"><ele>26.0</ele><time>2026-03-29T08:38:28.001Z</time></trkpt><trkpt lat="47.30000860527837" lon="-1.5478821191951146"><ele>26.0</ele><time>2026-03-29T08:38:30.001Z</time></trkpt><trkpt lat="47.300072014375864" lon="-1.547863176093947"><ele>26.0</ele><time>2026-03-29T08:38:31.001Z</time></trkpt><trkpt lat="47.30018718172544" lon="-1.54783400707091"><ele>25.999999999999996</ele><time>2026-03-29T08:38:33.001Z</time></trkpt><trkpt lat="47.30025520086968" lon="-1.5478008985533824"><ele>26.0</ele><time>2026-03-29T08:38:34.001Z</time></trkpt><trkpt lat="47.300371751233286" lon="-1.5477516967817653"><ele>26.0</ele><time>2026-03-29T08:38:36.001Z</time></trkpt><trkpt lat="47.30044081811542" lon="-1.547713223846208"><ele>26.0</ele><time>2026-03-29T08:38:37.001Z</time></trkpt><trkpt lat="47.300522206395215" lon="-1.547680199147712"><ele>26.0</ele><time>2026-03-29T08:38:39.001Z</time></trkpt><trkpt lat="47.300631171136445" lon="-1.5476335119470466"><ele>26.0</ele><time>2026-03-29T08:38:41.001Z</time></trkpt><trkpt lat="47.300752163908726" lon="-1.5475690551116574"><ele>26.0</ele><time>2026-03-29T08:38:43.001Z</time></trkpt><trkpt lat="47.30082190134311" lon="-1.547541478650223"><ele>25.6</ele><time>2026-03-29T08:38:44.001Z</time></trkpt><trkpt lat="47.30088539425964" lon="-1.5475159138455497"><ele>25.200000000000003</ele><time>2026-03-29T08:38:45.001Z</time></trkpt><trkpt lat="47.300948132804876" lon="-1.547490768136035"><ele>24.799999999999997</ele><time>2026-03-29T08:38:46.001Z</time></trkpt><trkpt lat="47.30104682971472" lon="-1.5474474336966382"><ele>24.4</ele><time>2026-03-29T08:38:48.001Z</time></trkpt><trkpt lat="47.30111937508667" lon="-1.5474179293974744"><ele>24.0</ele><time>2026-03-29T08:38:49.001Z</time></trkpt><trkpt lat="47.301251054785496" lon="-1.5473406482502328"><ele>24.0</ele><time>2026-03-29T08:38:51.001Z</time></trkpt><trkpt lat="47.3013197863915" lon="-1.5473131556078301"><ele>24.0</ele><time>2026-03-29T08:38:52.001Z</time></trkpt><trkpt lat="47.30138407558883" lon="-1.5472745988532408"><ele>24.0</ele><time>2026-03-29T08:38:53.001Z</time></trkpt><trkpt lat="47.301502889066285" lon="-1.547195306049238"><ele>24.0</ele><time>2026-03-29T08:38:55.001Z</time></trkpt><trkpt lat="47.30156826791102" lon="-1.5471606887891396"><ele>24.0</ele><time>2026-03-29T08:38:56.001Z</time></trkpt><trkpt lat="47.30163364675576" lon="-1.5471409913166865"><ele>24.0</ele><time>2026-03-29T08:38:57.001Z</time></trkpt><trkpt lat="47.301766332282966" lon="-1.5470774564906462"><ele>23.6</ele><time>2026-03-29T08:38:59.001Z</time></trkpt><trkpt lat="47.30182982519949" lon="-1.5470297634616"><ele>23.2</ele><time>2026-03-29T08:39:00.001Z</time></trkpt><trkpt lat="47.30194151405925" lon="-1.5469796396806341"><ele>22.8</ele><time>2026-03-29T08:39:02.001Z</time></trkpt><trkpt lat="47.30202265088195" lon="-1.5469594392939907"><ele>22.400000000000002</ele><time>2026-03-29T08:39:03.001Z</time></trkpt><trkpt lat="47.30213304054672" lon="-1.54688953422154"><ele>22.0</ele><time>2026-03-29T08:39:05.001Z</time></trkpt><trkpt lat="47.30220256843353" lon="-1.5468446072205406"><ele>21.857142857142858</ele><time>2026-03-29T08:39:06.001Z</time></trkpt><trkpt lat="47.3022688273781" lon="-1.5468082297607761"><ele>21.714285714285715</ele><time>2026-03-29T08:39:07.001Z</time></trkpt><trkpt lat="47.30232741688127" lon="-1.5467648115023473"><ele>21.57142857142857</ele><time>2026-03-29T08:39:08.001Z</time></trkpt><trkpt lat="47.30238818567926" lon="-1.5467260871096948"><ele>21.42857142857143</ele><time>2026-03-29T08:39:09.001Z</time></trkpt><trkpt lat="47.3024527682432" lon="-1.5466888714596132"><ele>21.285714285714285</ele><time>2026-03-29T08:39:10.001Z</time></trkpt><trkpt lat="47.302528875924" lon="-1.5466585289701322"><ele>21.142857142857142</ele><time>2026-03-29T08:39:11.001Z</time></trkpt><trkpt lat="47.30259391949261" lon="-1.5466162841781477"><ele>21.0</ele><time>2026-03-29T08:39:12.001Z</time></trkpt><trkpt lat="47.302670530087596" lon="-1.546570518986831"><ele>21.0</ele><time>2026-03-29T08:39:13.001Z</time></trkpt><trkpt lat="47.302736998579746" lon="-1.5465620532646276"><ele>21.0</ele><time>2026-03-29T08:39:14.001Z</time></trkpt><trkpt lat="47.30285120201046" lon="-1.546595245601187"><ele>21.0</ele><time>2026-03-29T08:39:15.001Z</time></trkpt><trkpt lat="47.30292521421546" lon="-1.546604381875644"><ele>21.0</ele><time>2026-03-29T08:39:16.001Z</time></trkpt><trkpt lat="47.30299939405853" lon="-1.5466395020499328"><ele>21.0</ele><time>2026-03-29T08:39:17.001Z</time></trkpt><trkpt lat="47.30305848647589" lon="-1.546673029662619"><ele>21.0</ele><time>2026-03-29T08:39:18.001Z</time></trkpt><trkpt lat="47.30316321835602" lon="-1.5467067249133686"><ele>20.400000000000002</ele><time>2026-03-29T08:39:20.001Z</time></trkpt><trkpt lat="47.30326769877905" lon="-1.5467283502235512"><ele>19.8</ele><time>2026-03-29T08:39:22.001Z</time></trkpt><trkpt lat="47.3033627076515" lon="-1.5466776397093633"><ele>19.200000000000003</ele><time>2026-03-29T08:39:24.001Z</time></trkpt><trkpt lat="47.30346329048956" lon="-1.5466174576445917"><ele>18.6</ele><time>2026-03-29T08:39:26.001Z</time></trkpt><trkpt lat="47.303592036522275" lon="-1.5465768054142097"><ele>18.0</ele><time>2026-03-29T08:39:28.001Z</time></trkpt><trkpt lat="47.30365351778204" lon="-1.5465317945941783"><ele>18.0</ele><time>2026-03-29T08:39:29.001Z</time></trkpt><trkpt lat="47.303704647391385" lon="-1.5464551839991905"><ele>18.0</ele><time>2026-03-29T08:39:30.001Z</time></trkpt><trkpt lat="47.30375020303512" lon="-1.5463689342155553"><ele>18.0</ele><time>2026-03-29T08:39:31.001Z</time></trkpt><trkpt lat="47.30380657133395" lon="-1.546299196781168"><ele>18.0</ele><time>2026-03-29T08:39:32.001Z</time></trkpt><trkpt lat="47.30386780113662" lon="-1.5462194010629748"><ele>18.0</ele><time>2026-03-29T08:39:33.001Z</time></trkpt><trkpt lat="47.30392039757902" lon="-1.546160727740774"><ele>18.0</ele><time>2026-03-29T08:39:34.001Z</time></trkpt><trkpt lat="47.30399151802743" lon="-1.5460238512619826"><ele>18.8</ele><time>2026-03-29T08:39:36.001Z</time></trkpt><trkpt lat="47.304064817770666" lon="-1.5459057502462956"><ele>19.6</ele><time>2026-03-29T08:39:38.001Z</time></trkpt><trkpt lat="47.30413560294295" lon="-1.5458117052927107"><ele>20.400000000000002</ele><time>2026-03-29T08:39:40.001Z</time></trkpt><trkpt lat="47.304226504682845" lon="-1.5457315742983908"><ele>21.200000000000003</ele><time>2026-03-29T08:39:42.001Z</time></trkpt><trkpt lat="47.30431753215129" lon="-1.5456480067237706"><ele>22.0</ele><time>2026-03-29T08:39:44.001Z</time></trkpt><trkpt lat="47.30438467119569" lon="-1.5456258784993977"><ele>22.0</ele><time>2026-03-29T08:39:45.001Z</time></trkpt><trkpt lat="47.30447879996831" lon="-1.5455559734269468"><ele>22.0</ele><time>2026-03-29T08:39:47.001Z</time></trkpt><trkpt lat="47.304552393078154" lon="-1.5454819612219421"><ele>22.0</ele><time>2026-03-29T08:39:49.001Z</time></trkpt><trkpt lat="47.30463164397264" lon="-1.5454282332226126"><ele>22.0</ele><time>2026-03-29T08:39:51.001Z</time></trkpt><trkpt lat="47.30474111162806" lon="-1.5453717391952362"><ele>22.0</ele><time>2026-03-29T08:39:53.001Z</time></trkpt><trkpt lat="47.304821200712865" lon="-1.545301415027627"><ele>22.666666666666664</ele><time>2026-03-29T08:39:55.001Z</time></trkpt><trkpt lat="47.30489177633757" lon="-1.5452290792032566"><ele>23.333333333333332</ele><time>2026-03-29T08:39:57.001Z</time></trkpt><trkpt lat="47.304966794370955" lon="-1.5451694000526752"><ele>24.0</ele><time>2026-03-29T08:39:59.001Z</time></trkpt><trkpt lat="47.305045500441736" lon="-1.5451074577882373"><ele>24.666666666666664</ele><time>2026-03-29T08:40:01.001Z</time></trkpt><trkpt lat="47.305117836266106" lon="-1.5450422465815628"><ele>25.333333333333332</ele><time>2026-03-29T08:40:03.001Z</time></trkpt><trkpt lat="47.30521037247712" lon="-1.5449798852219665"><ele>26.0</ele><time>2026-03-29T08:40:05.001Z</time></trkpt><trkpt lat="47.30529892728413" lon="-1.544929090888747"><ele>25.999999999999996</ele><time>2026-03-29T08:40:07.001Z</time></trkpt><trkpt lat="47.30538102802569" lon="-1.5448632091298184"><ele>26.0</ele><time>2026-03-29T08:40:09.001Z</time></trkpt><trkpt lat="47.305448879531866" lon="-1.5447862632587037"><ele>26.0</ele><time>2026-03-29T08:40:11.001Z</time></trkpt><trkpt lat="47.30552167636091" lon="-1.5447353851064525"><ele>26.0</ele><time>2026-03-29T08:40:13.001Z</time></trkpt><trkpt lat="47.305600047155565" lon="-1.544665731491097"><ele>25.999999999999996</ele><time>2026-03-29T08:40:15.001Z</time></trkpt><trkpt lat="47.30567234107042" lon="-1.5445855166777451"><ele>26.0</ele><time>2026-03-29T08:40:17.001Z</time></trkpt><trkpt lat="47.305758171758896" lon="-1.5445190481855948"><ele>26.166666666666664</ele><time>2026-03-29T08:40:19.001Z</time></trkpt><trkpt lat="47.30583859611983" lon="-1.5444555971785863"><ele>26.333333333333332</ele><time>2026-03-29T08:40:21.001Z</time></trkpt><trkpt lat="47.305895676880425" lon="-1.5444159507765847"><ele>26.5</ele><time>2026-03-29T08:40:22.001Z</time></trkpt><trkpt lat="47.3059341917255" lon="-1.5443361550583916"><ele>26.666666666666664</ele><time>2026-03-29T08:40:24.001Z</time></trkpt><trkpt lat="47.306001582227" lon="-1.5443066507592278"><ele>26.833333333333332</ele><time>2026-03-29T08:40:25.001Z</time></trkpt><trkpt lat="47.30609717783267" lon="-1.5442090015872794"><ele>27.0</ele><time>2026-03-29T08:40:27.001Z</time></trkpt><trkpt lat="47.306154887236005" lon="-1.5441649127765968"><ele>27.0</ele><time>2026-03-29T08:40:28.001Z</time></trkpt><trkpt lat="47.30624495078558" lon="-1.5440792497261837"><ele>27.000000000000004</ele><time>2026-03-29T08:40:30.001Z</time></trkpt><trkpt lat="47.306323237761205" lon="-1.543999956922181"><ele>27.000000000000004</ele><time>2026-03-29T08:40:32.001Z</time></trkpt><trkpt lat="47.30638300073082" lon="-1.5439641661956385"><ele>27.0</ele><time>2026-03-29T08:40:33.001Z</time></trkpt><trkpt lat="47.30647524357522" lon="-1.5438803471639229"><ele>27.0</ele><time>2026-03-29T08:40:35.001Z</time></trkpt><trkpt lat="47.30657964017922" lon="-1.5437924209996534"><ele>26.8</ele><time>2026-03-29T08:40:37.001Z</time></trkpt><trkpt lat="47.3066707514667" lon="-1.543696196751244"><ele>26.6</ele><time>2026-03-29T08:40:39.001Z</time></trkpt><trkpt lat="47.306732987097746" lon="-1.5436547063305448"><ele>26.400000000000002</ele><time>2026-03-29T08:40:40.001Z</time></trkpt><trkpt lat="47.30683713224465" lon="-1.5435684565469097"><ele>26.200000000000003</ele><time>2026-03-29T08:40:42.001Z</time></trkpt><trkpt lat="47.3069469351762" lon="-1.5434778481736253"><ele>26.0</ele><time>2026-03-29T08:40:44.001Z</time></trkpt><trkpt lat="47.307003848298734" lon="-1.5434285625829764"><ele>25.999999999999996</ele><time>2026-03-29T08:40:45.001Z</time></trkpt><trkpt lat="47.307112813039964" lon="-1.5433403849616119"><ele>26.0</ele><time>2026-03-29T08:40:47.001Z</time></trkpt><trkpt lat="47.30717861097986" lon="-1.543291769923217"><ele>26.0</ele><time>2026-03-29T08:40:48.001Z</time></trkpt><trkpt lat="47.3072387092256" lon="-1.543248770759947"><ele>26.0</ele><time>2026-03-29T08:40:49.001Z</time></trkpt><trkpt lat="47.30731008113111" lon="-1.543195964769966"><ele>25.999999999999996</ele><time>2026-03-29T08:40:50.001Z</time></trkpt><trkpt lat="47.307372526309734" lon="-1.5431406442090339"><ele>26.0</ele><time>2026-03-29T08:40:51.001Z</time></trkpt><trkpt lat="47.30744519741023" lon="-1.54310233891154"><ele>25.200000000000003</ele><time>2026-03-29T08:40:52.001Z</time></trkpt><trkpt lat="47.30750064369971" lon="-1.5430491976454324"><ele>24.400000000000002</ele><time>2026-03-29T08:40:53.001Z</time></trkpt><trkpt lat="47.30761602059687" lon="-1.5430017560734814"><ele>23.6</ele><time>2026-03-29T08:40:55.001Z</time></trkpt><trkpt lat="47.30773357678885" lon="-1.54300804250086"><ele>22.8</ele><time>2026-03-29T08:40:57.001Z</time></trkpt><trkpt lat="47.30782825038517" lon="-1.5430403128280705"><ele>22.0</ele><time>2026-03-29T08:40:59.001Z</time></trkpt><trkpt lat="47.3079570383274" lon="-1.5430365409716433"><ele>22.0</ele><time>2026-03-29T08:41:01.001Z</time></trkpt><trkpt lat="47.3080698587441" lon="-1.5430248063072032"><ele>22.0</ele><time>2026-03-29T08:41:03.001Z</time></trkpt><trkpt lat="47.308167214549435" lon="-1.5429983194931811"><ele>22.0</ele><time>2026-03-29T08:41:05.001Z</time></trkpt><trkpt lat="47.308263648345424" lon="-1.5429537277683083"><ele>22.0</ele><time>2026-03-29T08:41:07.001Z</time></trkpt><trkpt lat="47.30834227059717" lon="-1.5428988263025347"><ele>22.0</ele><time>2026-03-29T08:41:09.001Z</time></trkpt><trkpt lat="47.308419635563446" lon="-1.5428222157075469"><ele>21.333333333333332</ele><time>2026-03-29T08:41:11.001Z</time></trkpt><trkpt lat="47.30850965720351" lon="-1.5427866764380995"><ele>20.666666666666664</ele><time>2026-03-29T08:41:12.001Z</time></trkpt><trkpt lat="47.30857000690634" lon="-1.5427545737489525"><ele>20.0</ele><time>2026-03-29T08:41:13.001Z</time></trkpt><trkpt lat="47.308666524521364" lon="-1.54273345135296"><ele>19.333333333333332</ele><time>2026-03-29T08:41:14.001Z</time></trkpt><trkpt lat="47.308759396008504" lon="-1.5427228901549639"><ele>18.666666666666668</ele><time>2026-03-29T08:41:15.001Z</time></trkpt><trkpt lat="47.30885193221952" lon="-1.5427633747472826"><ele>18.0</ele><time>2026-03-29T08:41:16.001Z</time></trkpt><trkpt lat="47.30893235658045" lon="-1.5427627880140606"><ele>17.5</ele><time>2026-03-29T08:41:17.001Z</time></trkpt><trkpt lat="47.30901026637043" lon="-1.542769158260471"><ele>17.0</ele><time>2026-03-29T08:41:18.001Z</time></trkpt><trkpt lat="47.309081428728355" lon="-1.542770331726915"><ele>16.5</ele><time>2026-03-29T08:41:19.001Z</time></trkpt><trkpt lat="47.30915372264321" lon="-1.5427473653122248"><ele>16.0</ele><time>2026-03-29T08:41:20.001Z</time></trkpt><trkpt lat="47.3092586221614" lon="-1.5427605249002043"><ele>15.5</ele><time>2026-03-29T08:41:21.001Z</time></trkpt><trkpt lat="47.30934734460647" lon="-1.5427689906224076"><ele>15.0</ele><time>2026-03-29T08:41:22.001Z</time></trkpt><trkpt lat="47.309408742047204" lon="-1.5427996683880154"><ele>15.0</ele><time>2026-03-29T08:41:23.001Z</time></trkpt><trkpt lat="47.3095057206669" lon="-1.542839817704207"><ele>15.0</ele><time>2026-03-29T08:41:24.001Z</time></trkpt><trkpt lat="47.309627677358044" lon="-1.5429250616594616"><ele>15.0</ele><time>2026-03-29T08:41:26.001Z</time></trkpt><trkpt lat="47.30970215056772" lon="-1.5429368801429335"><ele>15.0</ele><time>2026-03-29T08:41:27.001Z</time></trkpt><trkpt lat="47.30978634678508" lon="-1.542921122164971"><ele>15.0</ele><time>2026-03-29T08:41:28.001Z</time></trkpt><trkpt lat="47.3098672740602" lon="-1.5428908634945218"><ele>14.833333333333334</ele><time>2026-03-29T08:41:29.001Z</time></trkpt><trkpt lat="47.30994438756938" lon="-1.5428632032140557"><ele>14.666666666666668</ele><time>2026-03-29T08:41:30.001Z</time></trkpt><trkpt lat="47.310020537159694" lon="-1.54286194592858"><ele>14.5</ele><time>2026-03-29T08:41:31.001Z</time></trkpt><trkpt lat="47.31009999760176" lon="-1.542858425529248"><ele>14.333333333333334</ele><time>2026-03-29T08:41:32.001Z</time></trkpt><trkpt lat="47.31017891322012" lon="-1.542895808817393"><ele>14.166666666666668</ele><time>2026-03-29T08:41:33.001Z</time></trkpt><trkpt lat="47.31025476944382" lon="-1.5428916178658072"><ele>14.0</ele><time>2026-03-29T08:41:34.001Z</time></trkpt><trkpt lat="47.3103363672712" lon="-1.5428933780654732"><ele>14.0</ele><time>2026-03-29T08:41:35.001Z</time></trkpt><trkpt lat="47.310425844087554" lon="-1.5429269056781594"><ele>14.0</ele><time>2026-03-29T08:41:36.001Z</time></trkpt><trkpt lat="47.31049323458905" lon="-1.5429157577469412"><ele>14.0</ele><time>2026-03-29T08:41:37.001Z</time></trkpt><trkpt lat="47.31056733061309" lon="-1.5429110638811652"><ele>14.0</ele><time>2026-03-29T08:41:38.001Z</time></trkpt><trkpt lat="47.31063560121442" lon="-1.5429101418718163"><ele>14.0</ele><time>2026-03-29T08:41:39.001Z</time></trkpt><trkpt lat="47.310706386386705" lon="-1.5429058671011988"><ele>14.0</ele><time>2026-03-29T08:41:40.001Z</time></trkpt><trkpt lat="47.31077624954964" lon="-1.5429251454784934"><ele>14.0</ele><time>2026-03-29T08:41:41.001Z</time></trkpt><trkpt lat="47.3108490882882" lon="-1.5429433342083756"><ele>13.833333333333334</ele><time>2026-03-29T08:41:42.001Z</time></trkpt><trkpt lat="47.310921088836444" lon="-1.5429603494718138"><ele>13.666666666666668</ele><time>2026-03-29T08:41:43.001Z</time></trkpt><trkpt lat="47.310985629490865" lon="-1.5429826453342501"><ele>13.5</ele><time>2026-03-29T08:41:44.001Z</time></trkpt><trkpt lat="47.3110642098331" lon="-1.5430008340641326"><ele>13.333333333333332</ele><time>2026-03-29T08:41:45.001Z</time></trkpt><trkpt lat="47.31118855536665" lon="-1.5429875906571213"><ele>13.166666666666666</ele><time>2026-03-29T08:41:47.001Z</time></trkpt><trkpt lat="47.31125724506314" lon="-1.5429887641235656"><ele>13.0</ele><time>2026-03-29T08:41:48.001Z</time></trkpt><trkpt lat="47.31133729223843" lon="-1.542976526544935"><ele>12.666666666666666</ele><time>2026-03-29T08:41:49.001Z</time></trkpt><trkpt lat="47.31141365137632" lon="-1.5429563261582915"><ele>12.333333333333332</ele><time>2026-03-29T08:41:50.001Z</time></trkpt><trkpt lat="47.31148213152523" lon="-1.5429660491659705"><ele>12.0</ele><time>2026-03-29T08:41:51.001Z</time></trkpt><trkpt lat="47.31160748288716" lon="-1.5429663844420973"><ele>11.666666666666666</ele><time>2026-03-29T08:41:53.001Z</time></trkpt><trkpt lat="47.31167244263674" lon="-1.5429745148881737"><ele>11.333333333333332</ele><time>2026-03-29T08:41:54.001Z</time></trkpt><trkpt lat="47.31177922808315" lon="-1.5430158376708096"><ele>11.0</ele><time>2026-03-29T08:41:56.001Z</time></trkpt><trkpt lat="47.31184263718064" lon="-1.5430337749435967"><ele>11.0</ele><time>2026-03-29T08:41:57.001Z</time></trkpt><trkpt lat="47.31195675679232" lon="-1.5431113913669652"><ele>11.0</ele><time>2026-03-29T08:41:59.001Z</time></trkpt><trkpt lat="47.312050382650746" lon="-1.5432023350163764"><ele>11.0</ele><time>2026-03-29T08:42:01.001Z</time></trkpt><trkpt lat="47.31214220639999" lon="-1.5432954579606124"><ele>11.0</ele><time>2026-03-29T08:42:03.001Z</time></trkpt><trkpt lat="47.31225175787444" lon="-1.5433189272894927"><ele>10.200000000000001</ele><time>2026-03-29T08:42:05.001Z</time></trkpt><trkpt lat="47.31232602153654" lon="-1.5433037560447522"><ele>9.4</ele><time>2026-03-29T08:42:06.001Z</time></trkpt><trkpt lat="47.31242123995657" lon="-1.5432227030410832"><ele>8.6</ele><time>2026-03-29T08:42:08.001Z</time></trkpt><trkpt lat="47.31252060741867" lon="-1.5431286580874986"><ele>7.8</ele><time>2026-03-29T08:42:10.001Z</time></trkpt><trkpt lat="47.31261674784805" lon="-1.543078450487501"><ele>7.0</ele><time>2026-03-29T08:42:12.001Z</time></trkpt><trkpt lat="47.31273455549712" lon="-1.543066380546934"><ele>7.0</ele><time>2026-03-29T08:42:14.001Z</time></trkpt><trkpt lat="47.31282210447575" lon="-1.5430828090771502"><ele>6.999999999999999</ele><time>2026-03-29T08:42:15.001Z</time></trkpt><trkpt lat="47.312933248511804" lon="-1.5430661290898389"><ele>6.999999999999999</ele><time>2026-03-29T08:42:17.001Z</time></trkpt><trkpt lat="47.31304430872883" lon="-1.543078785763628"><ele>7.0</ele><time>2026-03-29T08:42:19.001Z</time></trkpt><trkpt lat="47.31317146219994" lon="-1.5430754330023593"><ele>7.0</ele><time>2026-03-29T08:42:21.001Z</time></trkpt><trkpt lat="47.31327766091312" lon="-1.5430873353048629"><ele>7.3999999999999995</ele><time>2026-03-29T08:42:23.001Z</time></trkpt><trkpt lat="47.313362108587576" lon="-1.5431182645275658"><ele>7.799999999999999</ele><time>2026-03-29T08:42:25.002Z</time></trkpt><trkpt lat="47.313437000892414" lon="-1.5431515406831569"><ele>8.2</ele><time>2026-03-29T08:42:26.002Z</time></trkpt><trkpt lat="47.3135569459268" lon="-1.543171824888832"><ele>8.6</ele><time>2026-03-29T08:42:28.002Z</time></trkpt><trkpt lat="47.31366607830609" lon="-1.5432139858617848"><ele>9.0</ele><time>2026-03-29T08:42:30.002Z</time></trkpt><trkpt lat="47.3137683794343" lon="-1.5432231221362418"><ele>9.0</ele><time>2026-03-29T08:42:32.002Z</time></trkpt><trkpt lat="47.313873153223945" lon="-1.5432474296554395"><ele>9.0</ele><time>2026-03-29T08:42:34.002Z</time></trkpt><trkpt lat="47.31400131252344" lon="-1.5432452503606149"><ele>9.0</ele><time>2026-03-29T08:42:36.002Z</time></trkpt><trkpt lat="47.31406715237285" lon="-1.5432311687632867"><ele>9.0</ele><time>2026-03-29T08:42:37.002Z</time></trkpt><trkpt lat="47.31417259671475" lon="-1.5432329289629527"><ele>9.0</ele><time>2026-03-29T08:42:39.002Z</time></trkpt><trkpt lat="47.314248578667" lon="-1.5432186797275609"><ele>8.75</ele><time>2026-03-29T08:42:40.002Z</time></trkpt><trkpt lat="47.31442916677083" lon="-1.543291183189995"><ele>8.5</ele><time>2026-03-29T08:42:42.002Z</time></trkpt><trkpt lat="47.31454077181156" lon="-1.5433092042818137"><ele>8.25</ele><time>2026-03-29T08:42:44.002Z</time></trkpt><trkpt lat="47.31465761554177" lon="-1.5433282312020131"><ele>8.0</ele><time>2026-03-29T08:42:46.002Z</time></trkpt><trkpt lat="47.31476088058884" lon="-1.5433470066651174"><ele>7.6000000000000005</ele><time>2026-03-29T08:42:48.002Z</time></trkpt><trkpt lat="47.314831162846936" lon="-1.543367709965951"><ele>7.200000000000001</ele><time>2026-03-29T08:42:49.002Z</time></trkpt><trkpt lat="47.314894110939754" lon="-1.5433701407178708"><ele>6.8</ele><time>2026-03-29T08:42:50.002Z</time></trkpt><trkpt lat="47.31500290804292" lon="-1.5433719847365686"><ele>6.4</ele><time>2026-03-29T08:42:52.002Z</time></trkpt><trkpt lat="47.315114052078975" lon="-1.543313814328558"><ele>6.0</ele><time>2026-03-29T08:42:54.002Z</time></trkpt><trkpt lat="47.31523005761887" lon="-1.543281460182316"><ele>6.0</ele><time>2026-03-29T08:42:56.002Z</time></trkpt><trkpt lat="47.3153371783414" lon="-1.5433036722257205"><ele>6.0</ele><time>2026-03-29T08:42:58.002Z</time></trkpt><trkpt lat="47.31540247336711" lon="-1.543309120462782"><ele>6.0</ele><time>2026-03-29T08:42:59.002Z</time></trkpt><trkpt lat="47.31550351720984" lon="-1.5433016605689593"><ele>6.0</ele><time>2026-03-29T08:43:01.002Z</time></trkpt><trkpt lat="47.31561663099315" lon="-1.5433051809682914"><ele>6.0</ele><time>2026-03-29T08:43:03.002Z</time></trkpt><trkpt lat="47.31572727211501" lon="-1.5432837232961722"><ele>6.4</ele><time>2026-03-29T08:43:05.002Z</time></trkpt><trkpt lat="47.31584294237878" lon="-1.5432857349529334"><ele>6.8</ele><time>2026-03-29T08:43:07.002Z</time></trkpt><trkpt lat="47.315908866047224" lon="-1.5432879980667897"><ele>7.200000000000001</ele><time>2026-03-29T08:43:08.002Z</time></trkpt><trkpt lat="47.3160031624579" lon="-1.5432951226844855"><ele>7.6000000000000005</ele><time>2026-03-29T08:43:10.002Z</time></trkpt><trkpt lat="47.31611317493703" lon="-1.5432482678457566"><ele>8.0</ele><time>2026-03-29T08:43:12.002Z</time></trkpt><trkpt lat="47.31623194650497" lon="-1.5431991498931712"><ele>8.0</ele><time>2026-03-29T08:43:14.002Z</time></trkpt><trkpt lat="47.316322554878255" lon="-1.5431278198971814"><ele>8.0</ele><time>2026-03-29T08:43:16.002Z</time></trkpt><trkpt lat="47.316349963701626" lon="-1.5430378820761508"><ele>8.0</ele><time>2026-03-29T08:43:17.002Z</time></trkpt><trkpt lat="47.31643814132299" lon="-1.5429504588260714"><ele>8.0</ele><time>2026-03-29T08:43:19.002Z</time></trkpt><trkpt lat="47.31652585793968" lon="-1.5428912825896803"><ele>8.0</ele><time>2026-03-29T08:43:21.002Z</time></trkpt><trkpt lat="47.3166207829931" lon="-1.5428247302784983"><ele>8.4</ele><time>2026-03-29T08:43:23.002Z</time></trkpt><trkpt lat="47.31671361257072" lon="-1.542757675053126"><ele>8.8</ele><time>2026-03-29T08:43:25.002Z</time></trkpt><trkpt lat="47.31680199973967" lon="-1.5426860097810091"><ele>9.2</ele><time>2026-03-29T08:43:27.002Z</time></trkpt><trkpt lat="47.31690245684918" lon="-1.542626246811396"><ele>9.6</ele><time>2026-03-29T08:43:29.002Z</time></trkpt><trkpt lat="47.3169876169854" lon="-1.5425447747125687"><ele>10.0</ele><time>2026-03-29T08:43:31.002Z</time></trkpt><trkpt lat="47.31706250929024" lon="-1.5424779709442913"><ele>10.0</ele><time>2026-03-29T08:43:33.002Z</time></trkpt><trkpt lat="47.31713564139541" lon="-1.5423833392574846"><ele>10.0</ele><time>2026-03-29T08:43:35.002Z</time></trkpt><trkpt lat="47.317230901724955" lon="-1.5423201397075712"><ele>10.0</ele><time>2026-03-29T08:43:37.002Z</time></trkpt><trkpt lat="47.31730189644482" lon="-1.542235314847475"><ele>10.0</ele><time>2026-03-29T08:43:39.002Z</time></trkpt><trkpt lat="47.317382949448486" lon="-1.5421243384494838"><ele>10.0</ele><time>2026-03-29T08:43:40.999Z</time></trkpt><trkpt lat="47.31746396054264" lon="-1.5420435369029102"><ele>10.6</ele><time>2026-03-29T08:43:42.999Z</time></trkpt><trkpt lat="47.31754107405182" lon="-1.541936919094568"><ele>11.2</ele><time>2026-03-29T08:43:44.999Z</time></trkpt><trkpt lat="47.317616972185036" lon="-1.5418439637883956"><ele>11.8</ele><time>2026-03-29T08:43:46.999Z</time></trkpt><trkpt lat="47.317661815367" lon="-1.5417252760394864"><ele>12.4</ele><time>2026-03-29T08:43:48.999Z</time></trkpt><trkpt lat="47.317740521437784" lon="-1.5416080970331483"><ele>13.0</ele><time>2026-03-29T08:43:50.999Z</time></trkpt><trkpt lat="47.31780916922476" lon="-1.5414671972408345"><ele>13.0</ele><time>2026-03-29T08:43:52.999Z</time></trkpt><trkpt lat="47.317852419845124" lon="-1.541354544462209"><ele>13.0</ele><time>2026-03-29T08:43:55Z</time></trkpt><trkpt lat="47.317925551950296" lon="-1.541227810086255"><ele>13.0</ele><time>2026-03-29T08:43:57Z</time></trkpt><trkpt lat="47.31797437653627" lon="-1.5411690529450226"><ele>13.0</ele><time>2026-03-29T08:43:58Z</time></trkpt><trkpt lat="47.31806343425747" lon="-1.5410291589810894"><ele>13.0</ele><time>2026-03-29T08:44:00Z</time></trkpt><trkpt lat="47.31813321360137" lon="-1.5408978145583914"><ele>13.2</ele><time>2026-03-29T08:44:02Z</time></trkpt><trkpt lat="47.31819754470821" lon="-1.5407458506538911"><ele>13.4</ele><time>2026-03-29T08:44:04Z</time></trkpt><trkpt lat="47.31822855774995" lon="-1.5406484529390378"><ele>13.599999999999998</ele><time>2026-03-29T08:44:05Z</time></trkpt><trkpt lat="47.31830265377398" lon="-1.540490202607159"><ele>13.799999999999999</ele><time>2026-03-29T08:44:07Z</time></trkpt><trkpt lat="47.31833576229151" lon="-1.540410071612839"><ele>14.0</ele><time>2026-03-29T08:44:08Z</time></trkpt><trkpt lat="47.31837574396964" lon="-1.5403246600195208"><ele>14.000000000000002</ele><time>2026-03-29T08:44:09Z</time></trkpt><trkpt lat="47.318432740911206" lon="-1.5401957463487426"><ele>14.0</ele><time>2026-03-29T08:44:11Z</time></trkpt><trkpt lat="47.31847066902306" lon="-1.540113100783471"><ele>14.0</ele><time>2026-03-29T08:44:12Z</time></trkpt><trkpt lat="47.31853114445444" lon="-1.5399959217771328"><ele>14.0</ele><time>2026-03-29T08:44:14Z</time></trkpt><trkpt lat="47.31856324714359" lon="-1.5398891363307274"><ele>14.000000000000002</ele><time>2026-03-29T08:44:15Z</time></trkpt><trkpt lat="47.31861362238165" lon="-1.539817051963452"><ele>14.0</ele><time>2026-03-29T08:44:16Z</time></trkpt><trkpt lat="47.318648868284484" lon="-1.5397318080081974"><ele>14.0</ele><time>2026-03-29T08:44:18Z</time></trkpt><trkpt lat="47.31870301537897" lon="-1.5396634116783177"><ele>13.999999999999998</ele><time>2026-03-29T08:44:19Z</time></trkpt><trkpt lat="47.31878662486311" lon="-1.5395449753865036"><ele>13.999999999999998</ele><time>2026-03-29T08:44:21Z</time></trkpt><trkpt lat="47.31883729346778" lon="-1.5394890680923494"><ele>14.0</ele><time>2026-03-29T08:44:22Z</time></trkpt><trkpt lat="47.31890879110183" lon="-1.5393323265030414"><ele>14.0</ele><time>2026-03-29T08:44:24Z</time></trkpt><trkpt lat="47.31898276139732" lon="-1.5391858946546346"><ele>13.6</ele><time>2026-03-29T08:44:26Z</time></trkpt><trkpt lat="47.31905212164607" lon="-1.539039043711069"><ele>13.2</ele><time>2026-03-29T08:44:28Z</time></trkpt><trkpt lat="47.31908267368313" lon="-1.5389545541271"><ele>12.799999999999999</ele><time>2026-03-29T08:44:29Z</time></trkpt><trkpt lat="47.31915974528279" lon="-1.5388261433705117"><ele>12.399999999999999</ele><time>2026-03-29T08:44:31Z</time></trkpt><trkpt lat="47.31923099145975" lon="-1.5386948827668452"><ele>12.0</ele><time>2026-03-29T08:44:33Z</time></trkpt><trkpt lat="47.31929146689113" lon="-1.5385751053705239"><ele>12.0</ele><time>2026-03-29T08:44:35Z</time></trkpt><trkpt lat="47.31936581437226" lon="-1.538433367387893"><ele>12.0</ele><time>2026-03-29T08:44:37Z</time></trkpt><trkpt lat="47.319429013922175" lon="-1.538294311614277"><ele>12.0</ele><time>2026-03-29T08:44:39Z</time></trkpt><trkpt lat="47.3195028165796" lon="-1.5381494723274727"><ele>12.0</ele><time>2026-03-29T08:44:41Z</time></trkpt><trkpt lat="47.31955562256958" lon="-1.5380226541324873"><ele>11.8</ele><time>2026-03-29T08:44:43Z</time></trkpt><trkpt lat="47.31960503388878" lon="-1.5378823410733955"><ele>11.6</ele><time>2026-03-29T08:44:45Z</time></trkpt><trkpt lat="47.31969153512951" lon="-1.5378051437451856"><ele>11.4</ele><time>2026-03-29T08:44:47Z</time></trkpt><trkpt lat="47.319792034148534" lon="-1.5377159602954402"><ele>11.200000000000001</ele><time>2026-03-29T08:44:49Z</time></trkpt><trkpt lat="47.31987727810379" lon="-1.5376040618881002"><ele>11.0</ele><time>2026-03-29T08:44:51Z</time></trkpt><trkpt lat="47.31995707382198" lon="-1.53747506439829"><ele>11.0</ele><time>2026-03-29T08:44:53Z</time></trkpt><trkpt lat="47.320019225634" lon="-1.537424102427007"><ele>11.0</ele><time>2026-03-29T08:44:54Z</time></trkpt><trkpt lat="47.32011687480595" lon="-1.5373633336290133"><ele>11.0</ele><time>2026-03-29T08:44:56Z</time></trkpt><trkpt lat="47.32021335051145" lon="-1.5372858010246766"><ele>11.0</ele><time>2026-03-29T08:44:58Z</time></trkpt><trkpt lat="47.3203308228844" lon="-1.5372265409692536"><ele>11.0</ele><time>2026-03-29T08:45:00Z</time></trkpt><trkpt lat="47.32039222032513" lon="-1.5372051671161662"><ele>11.0</ele><time>2026-03-29T08:45:01Z</time></trkpt><trkpt lat="47.32048312206503" lon="-1.537110954524518"><ele>11.0</ele><time>2026-03-29T08:45:03Z</time></trkpt><trkpt lat="47.320543848953506" lon="-1.5370067674680956"><ele>11.0</ele><time>2026-03-29T08:45:05Z</time></trkpt><trkpt lat="47.32055906210776" lon="-1.5368631016477354"><ele>11.0</ele><time>2026-03-29T08:45:07Z</time></trkpt><trkpt lat="47.32059816368606" lon="-1.5367274824544197"><ele>11.0</ele><time>2026-03-29T08:45:09Z</time></trkpt><trkpt lat="47.32061794497754" lon="-1.5366167575135237"><ele>11.5</ele><time>2026-03-29T08:45:11Z</time></trkpt><trkpt lat="47.32063332576986" lon="-1.5364657156183723"><ele>12.0</ele><time>2026-03-29T08:45:13Z</time></trkpt><trkpt lat="47.320694094567855" lon="-1.536321211607695"><ele>12.5</ele><time>2026-03-29T08:45:15Z</time></trkpt><trkpt lat="47.32076261662628" lon="-1.5362130012377502"><ele>13.0</ele><time>2026-03-29T08:45:17Z</time></trkpt><trkpt lat="47.320880256637295" lon="-1.5361101552858354"><ele>13.4</ele><time>2026-03-29T08:45:19Z</time></trkpt><trkpt lat="47.32097493023362" lon="-1.5360388252898454"><ele>13.8</ele><time>2026-03-29T08:45:21Z</time></trkpt><trkpt lat="47.321067634082695" lon="-1.5359457023456096"><ele>14.2</ele><time>2026-03-29T08:45:23Z</time></trkpt><trkpt lat="47.32117525771942" lon="-1.5359385777279138"><ele>14.6</ele><time>2026-03-29T08:45:25Z</time></trkpt><trkpt lat="47.32129310727801" lon="-1.5359107498093842"><ele>15.0</ele><time>2026-03-29T08:45:27Z</time></trkpt><trkpt lat="47.321367203302046" lon="-1.5359133481993674"><ele>15.0</ele><time>2026-03-29T08:45:29Z</time></trkpt><trkpt lat="47.32145965569403" lon="-1.5359045472010373"><ele>15.0</ele><time>2026-03-29T08:45:31Z</time></trkpt><trkpt lat="47.32157599651005" lon="-1.535885520280838"><ele>15.0</ele><time>2026-03-29T08:45:33Z</time></trkpt><trkpt lat="47.32164066289302" lon="-1.5358804073199033"><ele>15.0</ele><time>2026-03-29T08:45:34Z</time></trkpt><trkpt lat="47.321704030080994" lon="-1.5358889568611382"><ele>15.0</ele><time>2026-03-29T08:45:35Z</time></trkpt><trkpt lat="47.32181027070369" lon="-1.5358364023282527"><ele>15.0</ele><time>2026-03-29T08:45:37Z</time></trkpt><trkpt lat="47.32193708889868" lon="-1.5358080714955327"><ele>15.0</ele><time>2026-03-29T08:45:39Z</time></trkpt><trkpt lat="47.322013615674635" lon="-1.5357310418053862"><ele>15.0</ele><time>2026-03-29T08:45:41Z</time></trkpt><trkpt lat="47.32208993290301" lon="-1.5357397589846846"><ele>15.0</ele><time>2026-03-29T08:45:42Z</time></trkpt><trkpt lat="47.32218355876144" lon="-1.5357540082200762"><ele>15.0</ele><time>2026-03-29T08:45:44Z</time></trkpt><trkpt lat="47.32223674193706" lon="-1.5358169563128945"><ele>14.8</ele><time>2026-03-29T08:45:45Z</time></trkpt><trkpt lat="47.322355597324034" lon="-1.5358040481820103"><ele>14.6</ele><time>2026-03-29T08:45:47Z</time></trkpt><trkpt lat="47.322417204312345" lon="-1.5357021242394444"><ele>14.399999999999999</ele><time>2026-03-29T08:45:49Z</time></trkpt><trkpt lat="47.32245940719481" lon="-1.5356322191669938"><ele>14.2</ele><time>2026-03-29T08:45:50Z</time></trkpt><trkpt lat="47.32249800585892" lon="-1.535445051269173"><ele>14.0</ele><time>2026-03-29T08:45:52Z</time></trkpt><trkpt lat="47.32251870915975" lon="-1.535345474259495"><ele>14.333333333333334</ele><time>2026-03-29T08:45:53Z</time></trkpt><trkpt lat="47.322490462146064" lon="-1.5351759921773664"><ele>14.666666666666668</ele><time>2026-03-29T08:45:56.001Z</time></trkpt><trkpt lat="47.32249201279815" lon="-1.535080606119274"><ele>15.0</ele><time>2026-03-29T08:45:58.001Z</time></trkpt><trkpt lat="47.322558439380785" lon="-1.5351034048959007"><ele>15.333333333333332</ele><time>2026-03-29T08:46:00.001Z</time></trkpt><trkpt lat="47.32263769027527" lon="-1.5351630840464823"><ele>15.666666666666666</ele><time>2026-03-29T08:46:02.001Z</time></trkpt><trkpt lat="47.32271882709797" lon="-1.5352289658054106"><ele>16.0</ele><time>2026-03-29T08:46:04.001Z</time></trkpt><trkpt lat="47.32279242020782" lon="-1.5352773293867104"><ele>15.999999999999998</ele><time>2026-03-29T08:46:06.001Z</time></trkpt><trkpt lat="47.32284979433503" lon="-1.535322507844805"><ele>16.0</ele><time>2026-03-29T08:46:07.001Z</time></trkpt><trkpt lat="47.32293088924821" lon="-1.5353506710394613"><ele>16.0</ele><time>2026-03-29T08:46:09.001Z</time></trkpt><trkpt lat="47.32302174907859" lon="-1.5353935025646681"><ele>16.0</ele><time>2026-03-29T08:46:11.001Z</time></trkpt><trkpt lat="47.32308419425722" lon="-1.535440944136619"><ele>15.999999999999998</ele><time>2026-03-29T08:46:13.001Z</time></trkpt><trkpt lat="47.32315430887725" lon="-1.535481596367001"><ele>16.0</ele><time>2026-03-29T08:46:15.001Z</time></trkpt><trkpt lat="47.323223669125994" lon="-1.535541946069836"><ele>16.333333333333332</ele><time>2026-03-29T08:46:17.001Z</time></trkpt><trkpt lat="47.32330593750563" lon="-1.5356054808958766"><ele>16.666666666666664</ele><time>2026-03-29T08:46:19.001Z</time></trkpt><trkpt lat="47.32338141654369" lon="-1.5356217417880293"><ele>17.0</ele><time>2026-03-29T08:46:21.001Z</time></trkpt><trkpt lat="47.323478981896606" lon="-1.5356902219369408"><ele>17.333333333333332</ele><time>2026-03-29T08:46:23.001Z</time></trkpt><trkpt lat="47.32356393248525" lon="-1.535703716801047"><ele>17.666666666666668</ele><time>2026-03-29T08:46:25.001Z</time></trkpt><trkpt lat="47.32363262218174" lon="-1.5357292816057202"><ele>18.0</ele><time>2026-03-29T08:46:27.001Z</time></trkpt><trkpt lat="47.323707304939" lon="-1.5357423573746678"><ele>18.0</ele><time>2026-03-29T08:46:29.001Z</time></trkpt><trkpt lat="47.32378559191462" lon="-1.535785021261811"><ele>18.0</ele><time>2026-03-29T08:46:31.001Z</time></trkpt><trkpt lat="47.32386312451896" lon="-1.5358246676638123"><ele>18.0</ele><time>2026-03-29T08:46:33.001Z</time></trkpt><trkpt lat="47.323937513909605" lon="-1.5358511544778346"><ele>18.0</ele><time>2026-03-29T08:46:35.001Z</time></trkpt><trkpt lat="47.324015004604426" lon="-1.5358799882247447"><ele>18.0</ele><time>2026-03-29T08:46:37.001Z</time></trkpt><trkpt lat="47.32409295630392" lon="-1.535904631020069"><ele>18.0</ele><time>2026-03-29T08:46:39.001Z</time></trkpt><trkpt lat="47.32417505704549" lon="-1.5359329618527888"><ele>19.166666666666668</ele><time>2026-03-29T08:46:41.001Z</time></trkpt><trkpt lat="47.324258247434464" lon="-1.535971183331251"><ele>20.333333333333336</ele><time>2026-03-29T08:46:43.001Z</time></trkpt><trkpt lat="47.324340096718934" lon="-1.5360039565726518"><ele>21.5</ele><time>2026-03-29T08:46:45.001Z</time></trkpt><trkpt lat="47.32441762932327" lon="-1.5360328741385936"><ele>22.666666666666668</ele><time>2026-03-29T08:46:47.001Z</time></trkpt><trkpt lat="47.324492144442466" lon="-1.536065144465804"><ele>23.833333333333336</ele><time>2026-03-29T08:46:49.001Z</time></trkpt><trkpt lat="47.32456242670056" lon="-1.5361000131829978"><ele>25.0</ele><time>2026-03-29T08:46:51.001Z</time></trkpt><trkpt lat="47.32463597790089" lon="-1.5361466165646316"><ele>25.000000000000004</ele><time>2026-03-29T08:46:53.001Z</time></trkpt><trkpt lat="47.32470864900139" lon="-1.5361857600524427"><ele>25.0</ele><time>2026-03-29T08:46:55.001Z</time></trkpt><trkpt lat="47.32478052382108" lon="-1.5362244006260635"><ele>25.0</ele><time>2026-03-29T08:46:57.001Z</time></trkpt><trkpt lat="47.32485541612592" lon="-1.536268740893841"><ele>25.0</ele><time>2026-03-29T08:46:59.001Z</time></trkpt><trkpt lat="47.32493475083944" lon="-1.536314422266126"><ele>25.000000000000004</ele><time>2026-03-29T08:47:01.001Z</time></trkpt><trkpt lat="47.32501509138134" lon="-1.5363622829332355"><ele>25.0</ele><time>2026-03-29T08:47:03.001Z</time></trkpt><trkpt lat="47.32508956459102" lon="-1.5364003367736343"><ele>25.666666666666668</ele><time>2026-03-29T08:47:05.001Z</time></trkpt><trkpt lat="47.32516936030921" lon="-1.5364349540337328"><ele>26.333333333333336</ele><time>2026-03-29T08:47:07.001Z</time></trkpt><trkpt lat="47.325237924277154" lon="-1.5364621952190403"><ele>27.0</ele><time>2026-03-29T08:47:09.001Z</time></trkpt><trkpt lat="47.32531051155862" lon="-1.536500584335566"><ele>27.666666666666664</ele><time>2026-03-29T08:47:11.001Z</time></trkpt><trkpt lat="47.32540966947314" lon="-1.5365357045098547"><ele>28.333333333333332</ele><time>2026-03-29T08:47:13.001Z</time></trkpt><trkpt lat="47.325495919256774" lon="-1.5366196911796337"><ele>29.0</ele><time>2026-03-29T08:47:15.001Z</time></trkpt><trkpt lat="47.32556687206712" lon="-1.5366694796844727"><ele>29.0</ele><time>2026-03-29T08:47:17.001Z</time></trkpt><trkpt lat="47.32564633250919" lon="-1.5367166697993284"><ele>29.0</ele><time>2026-03-29T08:47:19.001Z</time></trkpt><trkpt lat="47.32574695725676" lon="-1.5367613453432327"><ele>29.0</ele><time>2026-03-29T08:47:21.001Z</time></trkpt><trkpt lat="47.325841630853084" lon="-1.536815827713848"><ele>29.0</ele><time>2026-03-29T08:47:23.001Z</time></trkpt><trkpt lat="47.325906674421695" lon="-1.5368138160570868"><ele>29.0</ele><time>2026-03-29T08:47:25.001Z</time></trkpt><trkpt lat="47.32601245403972" lon="-1.5368615929051646"><ele>29.0</ele><time>2026-03-29T08:47:27.001Z</time></trkpt><trkpt lat="47.32614011042502" lon="-1.5369193442180165"><ele>29.0</ele><time>2026-03-29T08:47:29.001Z</time></trkpt><trkpt lat="47.326240148439375" lon="-1.536956895144225"><ele>29.0</ele><time>2026-03-29T08:47:31.001Z</time></trkpt><trkpt lat="47.3263020487943" lon="-1.5370226092650898"><ele>29.0</ele><time>2026-03-29T08:47:32.001Z</time></trkpt><trkpt lat="47.32636244040665" lon="-1.5370573103442202"><ele>29.0</ele><time>2026-03-29T08:47:33.001Z</time></trkpt><trkpt lat="47.32645740736958" lon="-1.5370925143375407"><ele>28.4</ele><time>2026-03-29T08:47:35.001Z</time></trkpt><trkpt lat="47.326523247218994" lon="-1.537054711954237"><ele>27.799999999999997</ele><time>2026-03-29T08:47:37.001Z</time></trkpt><trkpt lat="47.32658841651615" lon="-1.537078600378276"><ele>27.200000000000003</ele><time>2026-03-29T08:47:38.001Z</time></trkpt><trkpt lat="47.32669922527608" lon="-1.5370516106500636"><ele>26.6</ele><time>2026-03-29T08:47:40.001Z</time></trkpt><trkpt lat="47.32679674871948" lon="-1.5370525326594124"><ele>26.0</ele><time>2026-03-29T08:47:42.001Z</time></trkpt><trkpt lat="47.32691158079293" lon="-1.5370887424811135"><ele>26.0</ele><time>2026-03-29T08:47:44.001Z</time></trkpt><trkpt lat="47.32702955608007" lon="-1.5371086914106618"><ele>26.0</ele><time>2026-03-29T08:47:46.001Z</time></trkpt><trkpt lat="47.327161738693086" lon="-1.5371285565211783"><ele>26.0</ele><time>2026-03-29T08:47:48.001Z</time></trkpt><trkpt lat="47.327225273519126" lon="-1.5371452365084897"><ele>26.0</ele><time>2026-03-29T08:47:49.001Z</time></trkpt><trkpt lat="47.327299537181226" lon="-1.5371661074473868"><ele>26.0</ele><time>2026-03-29T08:47:50.001Z</time></trkpt><trkpt lat="47.32740833428439" lon="-1.5371133852764378"><ele>25.333333333333332</ele><time>2026-03-29T08:47:52.001Z</time></trkpt><trkpt lat="47.32748494487938" lon="-1.5370599087342034"><ele>24.666666666666664</ele><time>2026-03-29T08:47:53.001Z</time></trkpt><trkpt lat="47.32755195819524" lon="-1.5370155684664257"><ele>24.0</ele><time>2026-03-29T08:47:54.001Z</time></trkpt><trkpt lat="47.327621486082045" lon="-1.536974580959917"><ele>23.333333333333332</ele><time>2026-03-29T08:47:55.001Z</time></trkpt><trkpt lat="47.3276972165772" lon="-1.5369478426887997"><ele>22.666666666666664</ele><time>2026-03-29T08:47:56.001Z</time></trkpt><trkpt lat="47.32775941029873" lon="-1.536922110246063"><ele>22.0</ele><time>2026-03-29T08:47:57.001Z</time></trkpt><trkpt lat="47.3278388707408" lon="-1.5369134768857964"><ele>21.666666666666664</ele><time>2026-03-29T08:47:58.001Z</time></trkpt><trkpt lat="47.327914391688374" lon="-1.5368959587081679"><ele>21.333333333333332</ele><time>2026-03-29T08:47:59.001Z</time></trkpt><trkpt lat="47.3279908346453" lon="-1.536876764149905"><ele>21.0</ele><time>2026-03-29T08:48:00.001Z</time></trkpt><trkpt lat="47.3280606139892" lon="-1.5368648618474015"><ele>20.666666666666668</ele><time>2026-03-29T08:48:01.001Z</time></trkpt><trkpt lat="47.32813609302726" lon="-1.5368589945151814"><ele>20.333333333333336</ele><time>2026-03-29T08:48:02.001Z</time></trkpt><trkpt lat="47.328237723603216" lon="-1.536856144668103"><ele>20.0</ele><time>2026-03-29T08:48:03.001Z</time></trkpt><trkpt lat="47.32831173580822" lon="-1.5368540491923102"><ele>19.4</ele><time>2026-03-29T08:48:04.001Z</time></trkpt><trkpt lat="47.328381808518735" lon="-1.5368341840817936"><ele>18.8</ele><time>2026-03-29T08:48:05.001Z</time></trkpt><trkpt lat="47.328453641428915" lon="-1.5368353575482376"><ele>18.2</ele><time>2026-03-29T08:48:06.001Z</time></trkpt><trkpt lat="47.328571407168475" lon="-1.536854971201659"><ele>17.6</ele><time>2026-03-29T08:48:08.001Z</time></trkpt><trkpt lat="47.32864814349201" lon="-1.5368707291796215"><ele>17.0</ele><time>2026-03-29T08:48:09.001Z</time></trkpt><trkpt lat="47.32876481958416" lon="-1.5368722379221924"><ele>17.0</ele><time>2026-03-29T08:48:11.001Z</time></trkpt><trkpt lat="47.32882801913407" lon="-1.5368537139161833"><ele>17.0</ele><time>2026-03-29T08:48:12.001Z</time></trkpt><trkpt lat="47.3289438570359" lon="-1.5368306636824616"><ele>17.0</ele><time>2026-03-29T08:48:14.001Z</time></trkpt><trkpt lat="47.32900718231436" lon="-1.5367887541666037"><ele>17.0</ele><time>2026-03-29T08:48:15.001Z</time></trkpt><trkpt lat="47.32907218397346" lon="-1.5367646981045013"><ele>17.0</ele><time>2026-03-29T08:48:16.001Z</time></trkpt><trkpt lat="47.32914510653105" lon="-1.536757741124869"><ele>17.0</ele><time>2026-03-29T08:48:17.001Z</time></trkpt><trkpt lat="47.32922096275475" lon="-1.5367257222547537"><ele>16.5</ele><time>2026-03-29T08:48:18.001Z</time></trkpt><trkpt lat="47.329303314953414" lon="-1.5367314219489103"><ele>16.0</ele><time>2026-03-29T08:48:19.001Z</time></trkpt><trkpt lat="47.329386966347066" lon="-1.5367178432657724"><ele>15.5</ele><time>2026-03-29T08:48:20.001Z</time></trkpt><trkpt lat="47.329460727094975" lon="-1.536690266804338"><ele>15.0</ele><time>2026-03-29T08:48:21.001Z</time></trkpt><trkpt lat="47.32953658331868" lon="-1.5366804599776274"><ele>14.500000000000002</ele><time>2026-03-29T08:48:22.001Z</time></trkpt><trkpt lat="47.32963750143286" lon="-1.536637293176294"><ele>14.0</ele><time>2026-03-29T08:48:23.001Z</time></trkpt><trkpt lat="47.32971038208094" lon="-1.5366227924838072"><ele>13.833333333333334</ele><time>2026-03-29T08:48:24.001Z</time></trkpt><trkpt lat="47.329777395396796" lon="-1.5366018377258783"><ele>13.666666666666668</ele><time>2026-03-29T08:48:25.001Z</time></trkpt><trkpt lat="47.32984696519312" lon="-1.5365840680911547"><ele>13.5</ele><time>2026-03-29T08:48:26.001Z</time></trkpt><trkpt lat="47.3299272638255" lon="-1.53656185604775"><ele>13.333333333333332</ele><time>2026-03-29T08:48:27.001Z</time></trkpt><trkpt lat="47.330003120049206" lon="-1.5365342795863155"><ele>13.166666666666666</ele><time>2026-03-29T08:48:28.001Z</time></trkpt><trkpt lat="47.33008241285321" lon="-1.5364983212217096"><ele>13.0</ele><time>2026-03-29T08:48:29.001Z</time></trkpt><trkpt lat="47.330147414512304" lon="-1.5364592615529302"><ele>12.999999999999998</ele><time>2026-03-29T08:48:31.001Z</time></trkpt><trkpt lat="47.330208099491266" lon="-1.5364300087108616"><ele>13.0</ele><time>2026-03-29T08:48:32.001Z</time></trkpt><trkpt lat="47.330287518023816" lon="-1.5364108979716304"><ele>13.0</ele><time>2026-03-29T08:48:33.001Z</time></trkpt><trkpt lat="47.33040888798174" lon="-1.5363622829332355"><ele>13.0</ele><time>2026-03-29T08:48:35.001Z</time></trkpt><trkpt lat="47.3304695729607" lon="-1.5363364666714672"><ele>12.999999999999998</ele><time>2026-03-29T08:48:36.001Z</time></trkpt><trkpt lat="47.33053356879142" lon="-1.5363198705031875"><ele>13.0</ele><time>2026-03-29T08:48:37.001Z</time></trkpt><trkpt lat="47.33065208890226" lon="-1.5362813137485982"><ele>13.8</ele><time>2026-03-29T08:48:39.001Z</time></trkpt><trkpt lat="47.330765286504594" lon="-1.536239823327899"><ele>14.600000000000001</ele><time>2026-03-29T08:48:41.001Z</time></trkpt><trkpt lat="47.33086830009457" lon="-1.53619539924109"><ele>15.399999999999999</ele><time>2026-03-29T08:48:43.001Z</time></trkpt><trkpt lat="47.33093170919207" lon="-1.5361785516157151"><ele>16.2</ele><time>2026-03-29T08:48:44.001Z</time></trkpt><trkpt lat="47.33099671085117" lon="-1.5361620392664672"><ele>17.0</ele><time>2026-03-29T08:48:45.001Z</time></trkpt><trkpt lat="47.331097084141646" lon="-1.5361187048270704"><ele>17.0</ele><time>2026-03-29T08:48:47.001Z</time></trkpt><trkpt lat="47.33118718960074" lon="-1.5360977500691415"><ele>17.0</ele><time>2026-03-29T08:48:49.001Z</time></trkpt><trkpt lat="47.33129506469456" lon="-1.5360612049713134"><ele>17.0</ele><time>2026-03-29T08:48:51.001Z</time></trkpt><trkpt lat="47.331392210952316" lon="-1.5360347181572913"><ele>17.0</ele><time>2026-03-29T08:48:53.001Z</time></trkpt><trkpt lat="47.33149266806183" lon="-1.5359990950688123"><ele>17.0</ele><time>2026-03-29T08:48:55.001Z</time></trkpt><trkpt lat="47.33158256397334" lon="-1.5359799005105494"><ele>17.666666666666668</ele><time>2026-03-29T08:48:57.001Z</time></trkpt><trkpt lat="47.331657707735275" lon="-1.5359433554127215"><ele>18.333333333333336</ele><time>2026-03-29T08:48:59.001Z</time></trkpt><trkpt lat="47.331735407977675" lon="-1.5359168685986995"><ele>19.0</ele><time>2026-03-29T08:49:01.001Z</time></trkpt><trkpt lat="47.33182199303744" lon="-1.5358889568611382"><ele>19.666666666666668</ele><time>2026-03-29T08:49:03.001Z</time></trkpt><trkpt lat="47.33190635689286" lon="-1.535852244125247"><ele>20.333333333333332</ele><time>2026-03-29T08:49:05.001Z</time></trkpt><trkpt lat="47.33199642044244" lon="-1.5358160343035456"><ele>21.0</ele><time>2026-03-29T08:49:07.001Z</time></trkpt><trkpt lat="47.33207994610754" lon="-1.5357806626721617"><ele>21.0</ele><time>2026-03-29T08:49:09.001Z</time></trkpt><trkpt lat="47.33216078956363" lon="-1.535736406223416"><ele>21.0</ele><time>2026-03-29T08:49:11.001Z</time></trkpt><trkpt lat="47.332246955528234" lon="-1.5357073210194108"><ele>21.0</ele><time>2026-03-29T08:49:13.001Z</time></trkpt><trkpt lat="47.33232155446646" lon="-1.5356611367329356"><ele>21.0</ele><time>2026-03-29T08:49:15.001Z</time></trkpt><trkpt lat="47.3324239394137" lon="-1.5356108453139063"><ele>21.0</ele><time>2026-03-29T08:49:17.001Z</time></trkpt><trkpt lat="47.33250591442672" lon="-1.5355799999102349"><ele>21.0</ele><time>2026-03-29T08:49:19.001Z</time></trkpt><trkpt lat="47.332596606619035" lon="-1.5355547703816885"><ele>21.0</ele><time>2026-03-29T08:49:21.001Z</time></trkpt><trkpt lat="47.33269874010918" lon="-1.53553725220406"><ele>21.0</ele><time>2026-03-29T08:49:23.001Z</time></trkpt><trkpt lat="47.33278385833589" lon="-1.5354968514307732"><ele>21.0</ele><time>2026-03-29T08:49:25.001Z</time></trkpt><trkpt lat="47.33288196851251" lon="-1.5354589652284378"><ele>21.0</ele><time>2026-03-29T08:49:27.001Z</time></trkpt><trkpt lat="47.332996842495476" lon="-1.5354370884611601"><ele>21.0</ele><time>2026-03-29T08:49:29.001Z</time></trkpt><trkpt lat="47.33307714112786" lon="-1.5354119427516455"><ele>21.200000000000003</ele><time>2026-03-29T08:49:31.001Z</time></trkpt><trkpt lat="47.33315987051216" lon="-1.5353706199690098"><ele>21.400000000000002</ele><time>2026-03-29T08:49:33.001Z</time></trkpt><trkpt lat="47.33325165235189" lon="-1.5353359188898794"><ele>21.6</ele><time>2026-03-29T08:49:35.001Z</time></trkpt><trkpt lat="47.333355713679765" lon="-1.5353117790087454"><ele>21.8</ele><time>2026-03-29T08:49:37.001Z</time></trkpt><trkpt lat="47.333474904342864" lon="-1.5352614037706844"><ele>22.0</ele><time>2026-03-29T08:49:39.001Z</time></trkpt><trkpt lat="47.33358106114653" lon="-1.5352070052191011"><ele>22.0</ele><time>2026-03-29T08:49:41.001Z</time></trkpt><trkpt lat="47.33368600257424" lon="-1.535166688264846"><ele>22.0</ele><time>2026-03-29T08:49:43.001Z</time></trkpt><trkpt lat="47.33374865730045" lon="-1.5351417940124266"><ele>22.0</ele><time>2026-03-29T08:49:44.001Z</time></trkpt><trkpt lat="47.33381114438859" lon="-1.5351244434728615"><ele>22.0</ele><time>2026-03-29T08:49:45.001Z</time></trkpt><trkpt lat="47.33387455348608" lon="-1.5351007226868858"><ele>22.0</ele><time>2026-03-29T08:49:46.001Z</time></trkpt><trkpt lat="47.33399889901963" lon="-1.5350630041226139"><ele>22.0</ele><time>2026-03-29T08:49:48.001Z</time></trkpt><trkpt lat="47.33407077383933" lon="-1.5350430551930656"><ele>21.666666666666664</ele><time>2026-03-29T08:49:49.001Z</time></trkpt><trkpt lat="47.3341351887652" lon="-1.5350210107877245"><ele>21.333333333333332</ele><time>2026-03-29T08:49:50.001Z</time></trkpt><trkpt lat="47.334260414398585" lon="-1.534994943068861"><ele>21.0</ele><time>2026-03-29T08:49:52.001Z</time></trkpt><trkpt lat="47.33433354650376" lon="-1.5349885728224506"><ele>20.666666666666668</ele><time>2026-03-29T08:49:53.001Z</time></trkpt><trkpt lat="47.334398506253336" lon="-1.5349810291095962"><ele>20.333333333333336</ele><time>2026-03-29T08:49:54.001Z</time></trkpt><trkpt lat="47.334467405497406" lon="-1.5349665284171095"><ele>20.0</ele><time>2026-03-29T08:49:55.001Z</time></trkpt><trkpt lat="47.334544016092394" lon="-1.53495873324716"><ele>20.0</ele><time>2026-03-29T08:49:56.001Z</time></trkpt><trkpt lat="47.334618992216264" lon="-1.5349421370788803"><ele>20.0</ele><time>2026-03-29T08:49:57.001Z</time></trkpt><trkpt lat="47.33470188923863" lon="-1.5349226072444906"><ele>20.0</ele><time>2026-03-29T08:49:58.001Z</time></trkpt><trkpt lat="47.334780050485705" lon="-1.5349038317813863"><ele>20.0</ele><time>2026-03-29T08:49:59.001Z</time></trkpt><trkpt lat="47.33485850509939" lon="-1.5348982997252931"><ele>20.0</ele><time>2026-03-29T08:50:00.001Z</time></trkpt><trkpt lat="47.334928158714746" lon="-1.5348839666708698"><ele>20.0</ele><time>2026-03-29T08:50:01.001Z</time></trkpt><trkpt lat="47.33500057835815" lon="-1.5348754171296346"><ele>19.5</ele><time>2026-03-29T08:50:02.001Z</time></trkpt><trkpt lat="47.335077105134104" lon="-1.5348607487990844"><ele>19.0</ele><time>2026-03-29T08:50:03.001Z</time></trkpt><trkpt lat="47.33515618839053" lon="-1.5348509419723737"><ele>18.5</ele><time>2026-03-29T08:50:04.001Z</time></trkpt><trkpt lat="47.335232505618904" lon="-1.5348470862969148"><ele>18.0</ele><time>2026-03-29T08:50:05.001Z</time></trkpt><trkpt lat="47.33532361690638" lon="-1.5348651912077653"><ele>17.5</ele><time>2026-03-29T08:50:06.001Z</time></trkpt><trkpt lat="47.33541070488033" lon="-1.5348299033954131"><ele>17.0</ele><time>2026-03-29T08:50:07.001Z</time></trkpt><trkpt lat="47.33548174150971" lon="-1.5348392911269653"><ele>16.333333333333336</ele><time>2026-03-29T08:50:08.001Z</time></trkpt><trkpt lat="47.335573355711375" lon="-1.534843482078551"><ele>15.666666666666668</ele><time>2026-03-29T08:50:09.001Z</time></trkpt><trkpt lat="47.33564271596012" lon="-1.534843482078551"><ele>15.0</ele><time>2026-03-29T08:50:10.001Z</time></trkpt><trkpt lat="47.33572490052072" lon="-1.5348445717259633"><ele>14.333333333333332</ele><time>2026-03-29T08:50:11.001Z</time></trkpt><trkpt lat="47.33579719443557" lon="-1.5348419733359802"><ele>13.666666666666666</ele><time>2026-03-29T08:50:12.001Z</time></trkpt><trkpt lat="47.33586588413206" lon="-1.5348548814668643"><ele>13.0</ele><time>2026-03-29T08:50:13.001Z</time></trkpt><trkpt lat="47.33593432237146" lon="-1.5348560549333083"><ele>12.999999999999998</ele><time>2026-03-29T08:50:14.001Z</time></trkpt><trkpt lat="47.336016590751086" lon="-1.5348610002561796"><ele>13.0</ele><time>2026-03-29T08:50:15.001Z</time></trkpt><trkpt lat="47.336089052304004" lon="-1.5348615031703698"><ele>13.0</ele><time>2026-03-29T08:50:16.001Z</time></trkpt><trkpt lat="47.3361566942626" lon="-1.5348733216538417"><ele>13.0</ele><time>2026-03-29T08:50:17.001Z</time></trkpt><trkpt lat="47.33625614554373" lon="-1.5348719805493343"><ele>12.999999999999998</ele><time>2026-03-29T08:50:18.001Z</time></trkpt><trkpt lat="47.33634599954573" lon="-1.534858485685228"><ele>13.0</ele><time>2026-03-29T08:50:19.001Z</time></trkpt><trkpt lat="47.336422819688295" lon="-1.5348562225713718"><ele>12.999999999999998</ele><time>2026-03-29T08:50:20.001Z</time></trkpt><trkpt lat="47.33649511360315" lon="-1.534853791819452"><ele>13.0</ele><time>2026-03-29T08:50:21.001Z</time></trkpt><trkpt lat="47.33656552158979" lon="-1.5348439011737096"><ele>13.0</ele><time>2026-03-29T08:50:22.001Z</time></trkpt><trkpt lat="47.33662955933002" lon="-1.5348282270147788"><ele>13.0</ele><time>2026-03-29T08:50:23.001Z</time></trkpt><trkpt lat="47.3367653461614" lon="-1.5347897540792215"><ele>12.999999999999998</ele><time>2026-03-29T08:50:25.001Z</time></trkpt><trkpt lat="47.33682431285021" lon="-1.5347513649626958"><ele>13.0</ele><time>2026-03-29T08:50:26.001Z</time></trkpt><trkpt lat="47.336892667270575" lon="-1.534725716338991"><ele>13.0</ele><time>2026-03-29T08:50:27.001Z</time></trkpt><trkpt lat="47.33697263062683" lon="-1.5347019117339837"><ele>13.0</ele><time>2026-03-29T08:50:28.001Z</time></trkpt><trkpt lat="47.3370433738896" lon="-1.5346692223116147"><ele>13.0</ele><time>2026-03-29T08:50:29.001Z</time></trkpt><trkpt lat="47.337103430225824" lon="-1.5346134826555238"><ele>13.0</ele><time>2026-03-29T08:50:30.001Z</time></trkpt><trkpt lat="47.33717442494569" lon="-1.534576015548347"><ele>13.0</ele><time>2026-03-29T08:50:31.001Z</time></trkpt><trkpt lat="47.33723846268592" lon="-1.5345425717546926"><ele>13.0</ele><time>2026-03-29T08:50:32.002Z</time></trkpt><trkpt lat="47.33730463781146" lon="-1.534493872897266"><ele>13.0</ele><time>2026-03-29T08:50:33.002Z</time></trkpt><trkpt lat="47.33741133943883" lon="-1.534401336686252"><ele>13.0</ele><time>2026-03-29T08:50:35.002Z</time></trkpt><trkpt lat="47.33749520038006" lon="-1.5343039389713986"><ele>13.0</ele><time>2026-03-29T08:50:37.002Z</time></trkpt><trkpt lat="47.337538870095585" lon="-1.5342324413373454"><ele>13.0</ele><time>2026-03-29T08:50:39.002Z</time></trkpt><trkpt lat="47.33803700660107" lon="-1.5338302776231745"><ele>12.999999999999998</ele><time>2026-03-29T08:54:51.001Z</time></trkpt><trkpt lat="47.33807564717469" lon="-1.533743524925349"><ele>13.0</ele><time>2026-03-29T08:55:04.001Z</time></trkpt><trkpt lat="47.33814169657168" lon="-1.5337071474655846"><ele>13.0</ele><time>2026-03-29T08:55:06.001Z</time></trkpt><trkpt lat="47.33819634658036" lon="-1.5336479712291933"><ele>13.0</ele><time>2026-03-29T08:55:08.001Z</time></trkpt><trkpt lat="47.33826537155298" lon="-1.5335755515857912"><ele>12.999999999999998</ele><time>2026-03-29T08:55:10.001Z</time></trkpt><trkpt lat="47.33833938375798" lon="-1.5335047245039917"><ele>13.0</ele><time>2026-03-29T08:55:12.001Z</time></trkpt><trkpt lat="47.33842865102676" lon="-1.533405315132377"><ele>13.0</ele><time>2026-03-29T08:55:14.001Z</time></trkpt><trkpt lat="47.338507692373675" lon="-1.5332988649620984"><ele>13.0</ele><time>2026-03-29T08:55:16.001Z</time></trkpt><trkpt lat="47.338559785901886" lon="-1.5331986174001666"><ele>13.0</ele><time>2026-03-29T08:55:18.001Z</time></trkpt><trkpt lat="47.33862256635664" lon="-1.5330784209086867"><ele>13.0</ele><time>2026-03-29T08:55:20.001Z</time></trkpt><trkpt lat="47.338715102567654" lon="-1.5329660195871562"><ele>13.0</ele><time>2026-03-29T08:55:22.001Z</time></trkpt><trkpt lat="47.338765268258136" lon="-1.5329073462649554"><ele>13.0</ele><time>2026-03-29T08:55:23.001Z</time></trkpt><trkpt lat="47.33888378836898" lon="-1.5327947773053616"><ele>13.0</ele><time>2026-03-29T08:55:25.001Z</time></trkpt><trkpt lat="47.33895340007482" lon="-1.532694194467303"><ele>13.0</ele><time>2026-03-29T08:55:27.001Z</time></trkpt><trkpt lat="47.3390262807229" lon="-1.5326356887831656"><ele>13.0</ele><time>2026-03-29T08:55:28.001Z</time></trkpt><trkpt lat="47.33913168315528" lon="-1.5325281489654747"><ele>13.0</ele><time>2026-03-29T08:55:30.001Z</time></trkpt><trkpt lat="47.33917690352289" lon="-1.532461177559134"><ele>13.0</ele><time>2026-03-29T08:55:31.001Z</time></trkpt><trkpt lat="47.339276606261116" lon="-1.5323434956386055"><ele>13.0</ele><time>2026-03-29T08:55:33.001Z</time></trkpt><trkpt lat="47.3393299570748" lon="-1.5322839841260876"><ele>13.0</ele><time>2026-03-29T08:55:34.001Z</time></trkpt><trkpt lat="47.33943297066478" lon="-1.5321761090322696"><ele>13.0</ele><time>2026-03-29T08:55:36.001Z</time></trkpt><trkpt lat="47.33952060346244" lon="-1.5320497937514745"><ele>13.0</ele><time>2026-03-29T08:55:38.001Z</time></trkpt><trkpt lat="47.33957919296561" lon="-1.5319857560112438"><ele>12.833333333333332</ele><time>2026-03-29T08:55:39.001Z</time></trkpt><trkpt lat="47.33966343109248" lon="-1.5318760368987283"><ele>12.666666666666666</ele><time>2026-03-29T08:55:41.001Z</time></trkpt><trkpt lat="47.33969762925742" lon="-1.5317967440947255"><ele>12.5</ele><time>2026-03-29T08:55:42.001Z</time></trkpt><trkpt lat="47.33973476108847" lon="-1.531721139328118"><ele>12.333333333333332</ele><time>2026-03-29T08:55:43.001Z</time></trkpt><trkpt lat="47.33977143191485" lon="-1.531634302811261"><ele>12.166666666666666</ele><time>2026-03-29T08:55:44.001Z</time></trkpt><trkpt lat="47.33979762536226" lon="-1.531531121583219"><ele>12.0</ele><time>2026-03-29T08:55:45.001Z</time></trkpt><trkpt lat="47.33983220071284" lon="-1.531386198477383"><ele>12.0</ele><time>2026-03-29T08:55:47.001Z</time></trkpt><trkpt lat="47.33984686904339" lon="-1.5312656667097762"><ele>12.0</ele><time>2026-03-29T08:55:50.001Z</time></trkpt><trkpt lat="47.33986430340199" lon="-1.5311465598657086"><ele>12.0</ele><time>2026-03-29T08:55:52.001Z</time></trkpt><trkpt lat="47.33991237361668" lon="-1.5310112759485197"><ele>12.0</ele><time>2026-03-29T08:55:54.001Z</time></trkpt><trkpt lat="47.340004658370596" lon="-1.5309389401241493"><ele>12.0</ele><time>2026-03-29T08:55:56.001Z</time></trkpt><trkpt lat="47.340079634494465" lon="-1.530877500773902"><ele>11.6</ele><time>2026-03-29T08:55:58.001Z</time></trkpt><trkpt lat="47.34014886901466" lon="-1.530842464418645"><ele>11.2</ele><time>2026-03-29T08:56:17.001Z</time></trkpt><trkpt lat="47.34021818735389" lon="-1.5308407042189789"><ele>10.8</ele><time>2026-03-29T08:56:20.001Z</time></trkpt><trkpt lat="47.34031717763035" lon="-1.530824694783921"><ele>10.4</ele><time>2026-03-29T08:56:23.001Z</time></trkpt><trkpt lat="47.34042354398159" lon="-1.5308583062156391"><ele>10.0</ele><time>2026-03-29T08:56:25.001Z</time></trkpt><trkpt lat="47.34052043878226" lon="-1.5308928396567059"><ele>10.8</ele><time>2026-03-29T08:56:27.001Z</time></trkpt><trkpt lat="47.34062286563901" lon="-1.5309248585268211"><ele>11.6</ele><time>2026-03-29T08:56:29.001Z</time></trkpt><trkpt lat="47.34073438686071" lon="-1.530950507150526"><ele>12.399999999999999</ele><time>2026-03-29T08:56:31.001Z</time></trkpt><trkpt lat="47.340823863677066" lon="-1.5309846214964342"><ele>13.2</ele><time>2026-03-29T08:56:33.001Z</time></trkpt><trkpt lat="47.34091832772581" lon="-1.5310189034804058"><ele>14.0</ele><time>2026-03-29T08:56:35.001Z</time></trkpt><trkpt lat="47.340979473709446" lon="-1.5310441330089521"><ele>14.0</ele><time>2026-03-29T08:56:36.001Z</time></trkpt><trkpt lat="47.3410440981829" lon="-1.5310508385314894"><ele>13.999999999999998</ele><time>2026-03-29T08:56:37.001Z</time></trkpt><trkpt lat="47.34115331438122" lon="-1.531059220434661"><ele>13.999999999999998</ele><time>2026-03-29T08:56:39.001Z</time></trkpt><trkpt lat="47.34126060274182" lon="-1.5310783311738922"><ele>14.0</ele><time>2026-03-29T08:56:41.001Z</time></trkpt><trkpt lat="47.3413800029525" lon="-1.5310723800226405"><ele>14.0</ele><time>2026-03-29T08:56:43.001Z</time></trkpt><trkpt lat="47.3414344434136" lon="-1.5310025587692213"><ele>14.500000000000002</ele><time>2026-03-29T08:56:45.001Z</time></trkpt><trkpt lat="47.34152098656384" lon="-1.5309639181956005"><ele>15.0</ele><time>2026-03-29T08:56:47.001Z</time></trkpt><trkpt lat="47.34158292882828" lon="-1.5309151355191422"><ele>15.5</ele><time>2026-03-29T08:56:48.001Z</time></trkpt><trkpt lat="47.34166951388804" lon="-1.5308529417976093"><ele>16.0</ele><time>2026-03-29T08:56:50.001Z</time></trkpt><trkpt lat="47.341747591316086" lon="-1.5307647641762445"><ele>16.5</ele><time>2026-03-29T08:56:52.001Z</time></trkpt><trkpt lat="47.34181724493144" lon="-1.530688907952542"><ele>17.0</ele><time>2026-03-29T08:56:54.001Z</time></trkpt><trkpt lat="47.34187432569204" lon="-1.5306053403779218"><ele>17.0</ele><time>2026-03-29T08:56:56.001Z</time></trkpt><trkpt lat="47.34193555549471" lon="-1.5305267181261726"><ele>17.0</ele><time>2026-03-29T08:56:58.001Z</time></trkpt><trkpt lat="47.34200726267634" lon="-1.5304400492473789"><ele>17.0</ele><time>2026-03-29T08:57:00.001Z</time></trkpt><trkpt lat="47.34207452744929" lon="-1.5303843095912881"><ele>17.0</ele><time>2026-03-29T08:57:02.001Z</time></trkpt><trkpt lat="47.34214807864962" lon="-1.5302987303599065"><ele>17.0</ele><time>2026-03-29T08:57:04.001Z</time></trkpt><trkpt lat="47.342236675366145" lon="-1.5302215330316966"><ele>17.0</ele><time>2026-03-29T08:57:06.001Z</time></trkpt><trkpt lat="47.342351297892016" lon="-1.5301688108607476"><ele>17.5</ele><time>2026-03-29T08:57:08.001Z</time></trkpt><trkpt lat="47.34244069088934" lon="-1.530071161688799"><ele>18.0</ele><time>2026-03-29T08:57:10.001Z</time></trkpt><trkpt lat="47.34248792291371" lon="-1.5299733448787871"><ele>18.5</ele><time>2026-03-29T08:57:12.001Z</time></trkpt><trkpt lat="47.34257002365528" lon="-1.5298855025335494"><ele>19.0</ele><time>2026-03-29T08:57:14.001Z</time></trkpt><trkpt lat="47.34262199145494" lon="-1.5298308525248707"><ele>19.5</ele><time>2026-03-29T08:57:15.001Z</time></trkpt><trkpt lat="47.342691142156106" lon="-1.5297591034337223"><ele>20.0</ele><time>2026-03-29T08:57:17.001Z</time></trkpt><trkpt lat="47.34276012521921" lon="-1.529663801194662"><ele>20.0</ele><time>2026-03-29T08:57:19.001Z</time></trkpt><trkpt lat="47.34285492454408" lon="-1.5295624639853178"><ele>20.0</ele><time>2026-03-29T08:57:21.001Z</time></trkpt><trkpt lat="47.34295580074875" lon="-1.5294866077616154"><ele>20.0</ele><time>2026-03-29T08:57:23.001Z</time></trkpt><trkpt lat="47.3430291424015" lon="-1.529381247238749"><ele>20.0</ele><time>2026-03-29T08:57:25.001Z</time></trkpt><trkpt lat="47.34312779740183" lon="-1.5293277706965145"><ele>20.0</ele><time>2026-03-29T08:57:27.001Z</time></trkpt><trkpt lat="47.34322611712603" lon="-1.5292474720641311"><ele>20.0</ele><time>2026-03-29T08:57:29.001Z</time></trkpt><trkpt lat="47.34328977768062" lon="-1.5292103402330812"><ele>20.0</ele><time>2026-03-29T08:57:30.001Z</time></trkpt><trkpt lat="47.34339245599447" lon="-1.5291297063245708"><ele>20.0</ele><time>2026-03-29T08:57:32.001Z</time></trkpt><trkpt lat="47.34348402828662" lon="-1.5290696918978626"><ele>20.0</ele><time>2026-03-29T08:57:34.001Z</time></trkpt><trkpt lat="47.343587544790786" lon="-1.5290063247098857"><ele>20.0</ele><time>2026-03-29T08:57:36.001Z</time></trkpt><trkpt lat="47.34370434661148" lon="-1.5289505012347633"><ele>20.0</ele><time>2026-03-29T08:57:38.001Z</time></trkpt><trkpt lat="47.343780496201795" lon="-1.528848325835102"><ele>20.0</ele><time>2026-03-29T08:57:40.001Z</time></trkpt><trkpt lat="47.34382869214503" lon="-1.5287810191526345"><ele>20.0</ele><time>2026-03-29T08:57:41.001Z</time></trkpt><trkpt lat="47.34390693721114" lon="-1.528691668064826"><ele>20.0</ele><time>2026-03-29T08:57:43.001Z</time></trkpt><trkpt lat="47.343966658271235" lon="-1.5286479145302703"><ele>20.0</ele><time>2026-03-29T08:57:44.001Z</time></trkpt><trkpt lat="47.34402185310362" lon="-1.5285421349122454"><ele>20.0</ele><time>2026-03-29T08:57:46.001Z</time></trkpt><trkpt lat="47.34411179092465" lon="-1.528497794644468"><ele>20.0</ele><time>2026-03-29T08:57:48.001Z</time></trkpt><trkpt lat="47.34418911398141" lon="-1.5285293944194247"><ele>20.0</ele><time>2026-03-29T08:57:50.001Z</time></trkpt><trkpt lat="47.344278465069216" lon="-1.528592593969338"><ele>20.0</ele><time>2026-03-29T08:57:52.001Z</time></trkpt><trkpt lat="47.34437825162647" lon="-1.5286599006518056"><ele>20.0</ele><time>2026-03-29T08:57:54.002Z</time></trkpt><trkpt lat="47.3444459774041" lon="-1.528716059403055"><ele>20.0</ele><time>2026-03-29T08:57:56.002Z</time></trkpt><trkpt lat="47.34453038316904" lon="-1.5288045723005466"><ele>20.2</ele><time>2026-03-29T08:57:58.002Z</time></trkpt><trkpt lat="47.344609634063524" lon="-1.528886631132596"><ele>20.4</ele><time>2026-03-29T08:58:00.002Z</time></trkpt><trkpt lat="47.34470770233063" lon="-1.5289225056781703"><ele>20.6</ele><time>2026-03-29T08:58:02.002Z</time></trkpt><trkpt lat="47.344786785587054" lon="-1.5290131140514547"><ele>20.8</ele><time>2026-03-29T08:58:04.002Z</time></trkpt><trkpt lat="47.344854762821775" lon="-1.5291095059379274"><ele>21.0</ele><time>2026-03-29T08:58:06.002Z</time></trkpt><trkpt lat="47.34493740838705" lon="-1.5292061492814955"><ele>21.4</ele><time>2026-03-29T08:58:08.002Z</time></trkpt><trkpt lat="47.34502508309422" lon="-1.529251663015717"><ele>21.8</ele><time>2026-03-29T08:58:10.002Z</time></trkpt><trkpt lat="47.34509159349589" lon="-1.5293711051359113"><ele>22.2</ele><time>2026-03-29T08:58:12.002Z</time></trkpt><trkpt lat="47.345147165513914" lon="-1.529478477315539"><ele>22.599999999999998</ele><time>2026-03-29T08:58:14.002Z</time></trkpt><trkpt lat="47.34520164788453" lon="-1.5295998472734629"><ele>23.0</ele><time>2026-03-29T08:58:16.002Z</time></trkpt><trkpt lat="47.34527457044212" lon="-1.5296863485141934"><ele>23.0</ele><time>2026-03-29T08:58:18.002Z</time></trkpt><trkpt lat="47.34535792846916" lon="-1.529736556114191"><ele>23.0</ele><time>2026-03-29T08:58:20.002Z</time></trkpt><trkpt lat="47.34542976137934" lon="-1.529779806734556"><ele>23.0</ele><time>2026-03-29T08:58:22.002Z</time></trkpt><trkpt lat="47.34550306112258" lon="-1.52986111119532"><ele>23.0</ele><time>2026-03-29T08:58:24.002Z</time></trkpt><trkpt lat="47.345575438856464" lon="-1.529925065116519"><ele>23.0</ele><time>2026-03-29T08:58:26.002Z</time></trkpt><trkpt lat="47.34566784933893" lon="-1.5299611073001567"><ele>23.0</ele><time>2026-03-29T08:58:28.002Z</time></trkpt><trkpt lat="47.34574404083876" lon="-1.5300109796240273"><ele>23.5</ele><time>2026-03-29T08:58:30.002Z</time></trkpt><trkpt lat="47.345822914547604" lon="-1.5300839021816197"><ele>24.0</ele><time>2026-03-29T08:58:32.002Z</time></trkpt><trkpt lat="47.345885736911875" lon="-1.5301795396968072"><ele>24.5</ele><time>2026-03-29T08:58:34.002Z</time></trkpt><trkpt lat="47.34597085513858" lon="-1.53024466708445"><ele>25.0</ele><time>2026-03-29T08:58:36.002Z</time></trkpt><trkpt lat="47.34604587317197" lon="-1.5302989818170016"><ele>25.499999999999996</ele><time>2026-03-29T08:58:38.002Z</time></trkpt><trkpt lat="47.346119047186654" lon="-1.5303383767619079"><ele>26.0</ele><time>2026-03-29T08:58:40.002Z</time></trkpt><trkpt lat="47.34621292450218" lon="-1.530373748393292"><ele>26.166666666666664</ele><time>2026-03-29T08:58:42.002Z</time></trkpt><trkpt lat="47.34627750706612" lon="-1.5304234530790992"><ele>26.333333333333332</ele><time>2026-03-29T08:58:44.002Z</time></trkpt><trkpt lat="47.346351183995" lon="-1.5304771810784288"><ele>26.5</ele><time>2026-03-29T08:58:46.002Z</time></trkpt><trkpt lat="47.34642490283339" lon="-1.5305217728033014"><ele>26.666666666666664</ele><time>2026-03-29T08:58:48.002Z</time></trkpt><trkpt lat="47.34650562056093" lon="-1.5305912587805937"><ele>26.833333333333332</ele><time>2026-03-29T08:58:50.002Z</time></trkpt><trkpt lat="47.34660062943338" lon="-1.5306243672981212"><ele>27.0</ele><time>2026-03-29T08:58:52.002Z</time></trkpt><trkpt lat="47.34669727277695" lon="-1.5306596551104734"><ele>27.8</ele><time>2026-03-29T08:58:54.002Z</time></trkpt><trkpt lat="47.34679760415791" lon="-1.5306926798089693"><ele>28.6</ele><time>2026-03-29T08:58:56.002Z</time></trkpt><trkpt lat="47.34687999826609" lon="-1.5307469945415209"><ele>29.400000000000002</ele><time>2026-03-29T08:58:58.002Z</time></trkpt><trkpt lat="47.3469434492731" lon="-1.5307620819672296"><ele>30.200000000000003</ele><time>2026-03-29T08:58:59.002Z</time></trkpt><trkpt lat="47.34705450949012" lon="-1.5307748224600504"><ele>31.0</ele><time>2026-03-29T08:59:01.002Z</time></trkpt><trkpt lat="47.34714281284003" lon="-1.5308371838196468"><ele>31.0</ele><time>2026-03-29T08:59:03.002Z</time></trkpt><trkpt lat="47.34723744452684" lon="-1.530850678683753"><ele>31.0</ele><time>2026-03-29T08:59:04.002Z</time></trkpt><trkpt lat="47.3473562580043" lon="-1.5308094397201488"><ele>31.0</ele><time>2026-03-29T08:59:07.002Z</time></trkpt><trkpt lat="47.34744213060229" lon="-1.5307969506844232"><ele>31.0</ele><time>2026-03-29T08:59:08.002Z</time></trkpt><trkpt lat="47.34750738371848" lon="-1.5307933464660595"><ele>31.0</ele><time>2026-03-29T08:59:09.002Z</time></trkpt><trkpt lat="47.347652097276736" lon="-1.5307718049749086"><ele>31.0</ele><time>2026-03-29T08:59:11.002Z</time></trkpt><trkpt lat="47.347785453356195" lon="-1.5307463239892671"><ele>31.0</ele><time>2026-03-29T08:59:13.002Z</time></trkpt><trkpt lat="47.34785146084367" lon="-1.5307215135558794"><ele>31.0</ele><time>2026-03-29T08:59:14.002Z</time></trkpt><trkpt lat="47.347978991500426" lon="-1.5307079348727415"><ele>31.0</ele><time>2026-03-29T08:59:16.002Z</time></trkpt><trkpt lat="47.3480415624076" lon="-1.5306926798089693"><ele>31.0</ele><time>2026-03-29T08:59:17.002Z</time></trkpt><trkpt lat="47.348110838837314" lon="-1.5306758321835945"><ele>30.0</ele><time>2026-03-29T08:59:18.002Z</time></trkpt><trkpt lat="47.34823753130375" lon="-1.5306475013508747"><ele>29.0</ele><time>2026-03-29T08:59:20.002Z</time></trkpt><trkpt lat="47.34831242360859" lon="-1.5306548774256656"><ele>28.0</ele><time>2026-03-29T08:59:21.002Z</time></trkpt><trkpt lat="47.34837453351109" lon="-1.530674239621992"><ele>27.0</ele><time>2026-03-29T08:59:22.002Z</time></trkpt><trkpt lat="47.34851530757486" lon="-1.5306679531946132"><ele>26.0</ele><time>2026-03-29T08:59:24.002Z</time></trkpt><trkpt lat="47.34863173220991" lon="-1.5306765027358482"><ele>26.0</ele><time>2026-03-29T08:59:26.002Z</time></trkpt><trkpt lat="47.34869610522627" lon="-1.53068538755321"><ele>26.0</ele><time>2026-03-29T08:59:27.002Z</time></trkpt><trkpt lat="47.34877141662626" lon="-1.5307051688446949"><ele>26.0</ele><time>2026-03-29T08:59:28.002Z</time></trkpt><trkpt lat="47.3488523858109" lon="-1.5307148918523739"><ele>26.0</ele><time>2026-03-29T08:59:29.002Z</time></trkpt><trkpt lat="47.34891675882726" lon="-1.5307360980673979"><ele>26.0</ele><time>2026-03-29T08:59:30.002Z</time></trkpt><trkpt lat="47.34898997475146" lon="-1.5307503473027895"><ele>26.0</ele><time>2026-03-29T08:59:31.002Z</time></trkpt><trkpt lat="47.34906231057583" lon="-1.5307541191592167"><ele>26.0</ele><time>2026-03-29T08:59:32.002Z</time></trkpt><trkpt lat="47.349134520671655" lon="-1.5307667758330057"><ele>25.71428571428571</ele><time>2026-03-29T08:59:33.002Z</time></trkpt><trkpt lat="47.34921389729469" lon="-1.5307982917889307"><ele>25.42857142857143</ele><time>2026-03-29T08:59:34.002Z</time></trkpt><trkpt lat="47.34928288035779" lon="-1.5308121219291637"><ele>25.142857142857142</ele><time>2026-03-29T08:59:35.002Z</time></trkpt><trkpt lat="47.349351444325734" lon="-1.53083978220963"><ele>24.857142857142854</ele><time>2026-03-29T08:59:36.002Z</time></trkpt><trkpt lat="47.34942252286463" lon="-1.5308531094356728"><ele>24.57142857142857</ele><time>2026-03-29T08:59:37.002Z</time></trkpt><trkpt lat="47.349486602514375" lon="-1.5308697894229841"><ele>24.285714285714285</ele><time>2026-03-29T08:59:38.002Z</time></trkpt><trkpt lat="47.349552065178145" lon="-1.5308785904213142"><ele>24.0</ele><time>2026-03-29T08:59:39.002Z</time></trkpt><trkpt lat="47.349616019099344" lon="-1.5308964438750696"><ele>24.0</ele><time>2026-03-29T08:59:40.002Z</time></trkpt><trkpt lat="47.34968294859617" lon="-1.5308994613602114"><ele>24.0</ele><time>2026-03-29T08:59:41.002Z</time></trkpt><trkpt lat="47.3497607326576" lon="-1.5308926720186424"><ele>24.0</ele><time>2026-03-29T08:59:42.002Z</time></trkpt><trkpt lat="47.349834744862605" lon="-1.5308868046864224"><ele>24.0</ele><time>2026-03-29T08:59:43.002Z</time></trkpt><trkpt lat="47.34990410511135" lon="-1.53088864870512"><ele>24.0</ele><time>2026-03-29T08:59:44.002Z</time></trkpt><trkpt lat="47.34999919780283" lon="-1.5308850444867563"><ele>24.0</ele><time>2026-03-29T08:59:45.002Z</time></trkpt><trkpt lat="47.35007970598279" lon="-1.5309015568360043"><ele>23.333333333333332</ele><time>2026-03-29T08:59:46.002Z</time></trkpt><trkpt lat="47.35016448893337" lon="-1.5309245232506943"><ele>22.666666666666668</ele><time>2026-03-29T08:59:47.002Z</time></trkpt><trkpt lat="47.350235399834204" lon="-1.5309231821461868"><ele>22.0</ele><time>2026-03-29T08:59:48.002Z</time></trkpt><trkpt lat="47.35032194298445" lon="-1.5308915823712301"><ele>21.333333333333336</ele><time>2026-03-29T08:59:49.002Z</time></trkpt><trkpt lat="47.35039054886191" lon="-1.5309145487859201"><ele>20.666666666666668</ele><time>2026-03-29T08:59:50.002Z</time></trkpt><trkpt lat="47.350462423681606" lon="-1.5309101063772392"><ele>20.0</ele><time>2026-03-29T08:59:51.002Z</time></trkpt><trkpt lat="47.3505707597801" lon="-1.530891330914135"><ele>20.0</ele><time>2026-03-29T08:59:53.002Z</time></trkpt><trkpt lat="47.35063752163886" lon="-1.530896360056038"><ele>20.0</ele><time>2026-03-29T08:59:54.002Z</time></trkpt><trkpt lat="47.35071643725722" lon="-1.5308971144273233"><ele>20.0</ele><time>2026-03-29T08:59:55.002Z</time></trkpt><trkpt lat="47.35079564624219" lon="-1.5309035684927654"><ele>20.0</ele><time>2026-03-29T08:59:56.002Z</time></trkpt><trkpt lat="47.35086768869995" lon="-1.5309024788453531"><ele>20.0</ele><time>2026-03-29T08:59:57.002Z</time></trkpt><trkpt lat="47.35100443945019" lon="-1.5309311449541998"><ele>20.0</ele><time>2026-03-29T08:59:59.002Z</time></trkpt><trkpt lat="47.35113901090561" lon="-1.5309484954937649"><ele>20.0</ele><time>2026-03-29T09:00:01.002Z</time></trkpt><trkpt lat="47.35125874639242" lon="-1.5309622418149662"><ele>20.0</ele><time>2026-03-29T09:00:03.002Z</time></trkpt><trkpt lat="47.351366914852846" lon="-1.5309510100647163"><ele>20.0</ele><time>2026-03-29T09:00:05.002Z</time></trkpt><trkpt lat="47.35146267809658" lon="-1.5309868846102905"><ele>20.0</ele><time>2026-03-29T09:00:07.002Z</time></trkpt><trkpt lat="47.351591633676875" lon="-1.530979676173563"><ele>20.0</ele><time>2026-03-29T09:00:09.002Z</time></trkpt><trkpt lat="47.35170705248355" lon="-1.5310009662076187"><ele>20.0</ele><time>2026-03-29T09:00:11.002Z</time></trkpt><trkpt lat="47.35183479268788" lon="-1.5309756528600407"><ele>20.0</ele><time>2026-03-29T09:00:13.002Z</time></trkpt><trkpt lat="47.35192108438103" lon="-1.5309685282423449"><ele>20.0</ele><time>2026-03-29T09:00:14.002Z</time></trkpt><trkpt lat="47.351993294476856" lon="-1.5309628285481882"><ele>20.0</ele><time>2026-03-29T09:00:15.002Z</time></trkpt><trkpt lat="47.352086878425766" lon="-1.5309443883612108"><ele>20.0</ele><time>2026-03-29T09:00:16.002Z</time></trkpt><trkpt lat="47.352205272808064" lon="-1.5309315640493584"><ele>20.0</ele><time>2026-03-29T09:00:18.002Z</time></trkpt><trkpt lat="47.3523338092932" lon="-1.5308997128173065"><ele>20.0</ele><time>2026-03-29T09:00:20.002Z</time></trkpt><trkpt lat="47.352457274726916" lon="-1.5308640059097958"><ele>20.0</ele><time>2026-03-29T09:00:22.002Z</time></trkpt><trkpt lat="47.352523952766646" lon="-1.5308535285308313"><ele>20.0</ele><time>2026-03-29T09:00:23.002Z</time></trkpt><trkpt lat="47.352614812597025" lon="-1.53081731870913"><ele>19.8</ele><time>2026-03-29T09:00:25.002Z</time></trkpt><trkpt lat="47.35274649229585" lon="-1.5308080147966097"><ele>19.6</ele><time>2026-03-29T09:00:27.002Z</time></trkpt><trkpt lat="47.35286828134893" lon="-1.530794687570567"><ele>19.4</ele><time>2026-03-29T09:00:29.002Z</time></trkpt><trkpt lat="47.35296584670185" lon="-1.530760824681754"><ele>19.2</ele><time>2026-03-29T09:00:30.002Z</time></trkpt><trkpt lat="47.35304757025777" lon="-1.530747832731838"><ele>19.0</ele><time>2026-03-29T09:00:31.002Z</time></trkpt><trkpt lat="47.35311085362672" lon="-1.5307361818864296"><ele>19.6</ele><time>2026-03-29T09:00:32.002Z</time></trkpt><trkpt lat="47.35318013005643" lon="-1.5307051688446949"><ele>20.2</ele><time>2026-03-29T09:00:34.002Z</time></trkpt><trkpt lat="47.353298650167275" lon="-1.5306310728206585"><ele>20.8</ele><time>2026-03-29T09:00:36.002Z</time></trkpt><trkpt lat="47.35338075090884" lon="-1.53061648830914"><ele>21.400000000000002</ele><time>2026-03-29T09:00:38.002Z</time></trkpt><trkpt lat="47.35345673286109" lon="-1.5306068491204927"><ele>22.0</ele><time>2026-03-29T09:00:40.002Z</time></trkpt><trkpt lat="47.353593986525524" lon="-1.5305573958917804"><ele>22.0</ele><time>2026-03-29T09:00:42.002Z</time></trkpt><trkpt lat="47.35369825740098" lon="-1.530549265445704"><ele>22.0</ele><time>2026-03-29T09:00:44.002Z</time></trkpt><trkpt lat="47.353823608762916" lon="-1.5305268019452043"><ele>22.0</ele><time>2026-03-29T09:00:46.002Z</time></trkpt><trkpt lat="47.35394166786909" lon="-1.5304709784700818"><ele>22.0</ele><time>2026-03-29T09:00:48.002Z</time></trkpt><trkpt lat="47.354068066968914" lon="-1.5304755885168262"><ele>22.0</ele><time>2026-03-29T09:00:50.002Z</time></trkpt><trkpt lat="47.35414354600697" lon="-1.5304687153562255"><ele>22.0</ele><time>2026-03-29T09:00:51.002Z</time></trkpt><trkpt lat="47.35420926012784" lon="-1.5304631833001323"><ele>22.0</ele><time>2026-03-29T09:00:52.002Z</time></trkpt><trkpt lat="47.35427375887274" lon="-1.5304527897401996"><ele>22.0</ele><time>2026-03-29T09:00:53.002Z</time></trkpt><trkpt lat="47.35434701670646" lon="-1.5304575674250074"><ele>22.0</ele><time>2026-03-29T09:00:54.002Z</time></trkpt><trkpt lat="47.35441889152616" lon="-1.5304619260146566"><ele>22.0</ele><time>2026-03-29T09:00:55.002Z</time></trkpt><trkpt lat="47.354498645334836" lon="-1.5304293204113193"><ele>22.0</ele><time>2026-03-29T09:00:57.002Z</time></trkpt><trkpt lat="47.354572615630325" lon="-1.530358744786615"><ele>21.75</ele><time>2026-03-29T09:00:59.002Z</time></trkpt><trkpt lat="47.35470986929476" lon="-1.5303755924119897"><ele>21.5</ele><time>2026-03-29T09:01:00.002Z</time></trkpt><trkpt lat="47.35479121566504" lon="-1.5303795319064804"><ele>21.25</ele><time>2026-03-29T09:01:01.002Z</time></trkpt><trkpt lat="47.35490424562931" lon="-1.5303546376540609"><ele>21.0</ele><time>2026-03-29T09:01:03.002Z</time></trkpt><trkpt lat="47.355020921721454" lon="-1.530326558278436"><ele>21.0</ele><time>2026-03-29T09:01:05.002Z</time></trkpt><trkpt lat="47.35513202384799" lon="-1.5302942041321939"><ele>21.0</ele><time>2026-03-29T09:01:07.002Z</time></trkpt><trkpt lat="47.35524044376552" lon="-1.530277356506819"><ele>21.0</ele><time>2026-03-29T09:01:09.002Z</time></trkpt><trkpt lat="47.355305026329454" lon="-1.530258245767588"><ele>21.0</ele><time>2026-03-29T09:01:10.002Z</time></trkpt><trkpt lat="47.35542111568838" lon="-1.530242320151562"><ele>21.0</ele><time>2026-03-29T09:01:12.002Z</time></trkpt><trkpt lat="47.35552228525966" lon="-1.5302183479084914"><ele>21.6</ele><time>2026-03-29T09:01:14.002Z</time></trkpt><trkpt lat="47.35562085644096" lon="-1.5302056912347024"><ele>22.200000000000003</ele><time>2026-03-29T09:01:16.002Z</time></trkpt><trkpt lat="47.35572475013077" lon="-1.5301932860180085"><ele>22.799999999999997</ele><time>2026-03-29T09:01:18.002Z</time></trkpt><trkpt lat="47.355812005742784" lon="-1.5301559865488952"><ele>23.4</ele><time>2026-03-29T09:01:20.002Z</time></trkpt><trkpt lat="47.35591895882725" lon="-1.530149281026358"><ele>24.0</ele><time>2026-03-29T09:01:22.002Z</time></trkpt><trkpt lat="47.35603320416748" lon="-1.5301316790296977"><ele>24.0</ele><time>2026-03-29T09:01:24.002Z</time></trkpt><trkpt lat="47.35610072039753" lon="-1.530128074811334"><ele>24.0</ele><time>2026-03-29T09:01:25.002Z</time></trkpt><trkpt lat="47.35619057439953" lon="-1.5300858300193492"><ele>24.0</ele><time>2026-03-29T09:01:27.002Z</time></trkpt><trkpt lat="47.35625084028333" lon="-1.530002849177951"><ele>24.0</ele><time>2026-03-29T09:01:29.002Z</time></trkpt><trkpt lat="47.35632045198917" lon="-1.5299949701889697"><ele>24.0</ele><time>2026-03-29T09:01:30.002Z</time></trkpt><trkpt lat="47.35640795905828" lon="-1.529963957147235"><ele>24.0</ele><time>2026-03-29T09:01:32.002Z</time></trkpt><trkpt lat="47.35647375699818" lon="-1.529958928005332"><ele>24.2</ele><time>2026-03-29T09:01:33.002Z</time></trkpt><trkpt lat="47.356547140560444" lon="-1.5299098938717786"><ele>24.4</ele><time>2026-03-29T09:01:35.002Z</time></trkpt><trkpt lat="47.35663812611937" lon="-1.5298569202437342"><ele>24.6</ele><time>2026-03-29T09:01:38.002Z</time></trkpt><trkpt lat="47.35673103951603" lon="-1.5298302657916487"><ele>24.8</ele><time>2026-03-29T09:01:40.002Z</time></trkpt><trkpt lat="47.356843273199495" lon="-1.5298047848060072"><ele>25.0</ele><time>2026-03-29T09:01:42.002Z</time></trkpt><trkpt lat="47.35694750216543" lon="-1.5297661442323864"><ele>25.0</ele><time>2026-03-29T09:01:44.002Z</time></trkpt><trkpt lat="47.35705386851668" lon="-1.5297249890878142"><ele>25.0</ele><time>2026-03-29T09:01:46.002Z</time></trkpt><trkpt lat="47.35717662148863" lon="-1.52967494912588"><ele>25.0</ele><time>2026-03-29T09:01:48.002Z</time></trkpt><trkpt lat="47.35726073388695" lon="-1.5296347998096882"><ele>25.0</ele><time>2026-03-29T09:01:50.002Z</time></trkpt><trkpt lat="47.357380511283274" lon="-1.529615437613362"><ele>25.0</ele><time>2026-03-29T09:01:52.002Z</time></trkpt><trkpt lat="47.35748352487325" lon="-1.5295612905188738"><ele>25.000000000000004</ele><time>2026-03-29T09:01:54.002Z</time></trkpt><trkpt lat="47.35756118320614" lon="-1.529530277477139"><ele>25.0</ele><time>2026-03-29T09:01:55.002Z</time></trkpt><trkpt lat="47.35762375411331" lon="-1.529507059605354"><ele>25.0</ele><time>2026-03-29T09:01:56.002Z</time></trkpt><trkpt lat="47.357709920077916" lon="-1.5294560138150393"><ele>25.0</ele><time>2026-03-29T09:01:58.002Z</time></trkpt><trkpt lat="47.35779072162449" lon="-1.529430449010366"><ele>25.000000000000004</ele><time>2026-03-29T09:01:59.002Z</time></trkpt><trkpt lat="47.35786460810095" lon="-1.529361214490169"><ele>25.0</ele><time>2026-03-29T09:02:01.002Z</time></trkpt><trkpt lat="47.357944655276235" lon="-1.52929432690286"><ele>25.0</ele><time>2026-03-29T09:02:03.002Z</time></trkpt><trkpt lat="47.35801937994301" lon="-1.5292708575739797"><ele>25.0</ele><time>2026-03-29T09:02:04.002Z</time></trkpt><trkpt lat="47.358119376047846" lon="-1.5292220748975214"><ele>25.0</ele><time>2026-03-29T09:02:06.002Z</time></trkpt><trkpt lat="47.35818722755402" lon="-1.52920832857632"><ele>25.0</ele><time>2026-03-29T09:02:07.002Z</time></trkpt><trkpt lat="47.358279931403096" lon="-1.5291400160654718"><ele>25.0</ele><time>2026-03-29T09:02:09.002Z</time></trkpt><trkpt lat="47.35836823475301" lon="-1.5290790796294147"><ele>24.8</ele><time>2026-03-29T09:02:11.002Z</time></trkpt><trkpt lat="47.35844631218105" lon="-1.529021831230753"><ele>24.6</ele><time>2026-03-29T09:02:13.002Z</time></trkpt><trkpt lat="47.35853252005517" lon="-1.5289391856654817"><ele>24.4</ele><time>2026-03-29T09:02:15.002Z</time></trkpt><trkpt lat="47.35865741041243" lon="-1.528878668324583"><ele>24.2</ele><time>2026-03-29T09:02:18.002Z</time></trkpt><trkpt lat="47.3587279022181" lon="-1.5288818534477882"><ele>24.0</ele><time>2026-03-29T09:02:19.002Z</time></trkpt><trkpt lat="47.35883594494998" lon="-1.5287997946157388"><ele>23.6</ele><time>2026-03-29T09:02:21.002Z</time></trkpt><trkpt lat="47.35893258829355" lon="-1.5287728048875264"><ele>23.2</ele><time>2026-03-29T09:02:22.002Z</time></trkpt><trkpt lat="47.35899599739104" lon="-1.5287312306477956"><ele>22.8</ele><time>2026-03-29T09:02:23.002Z</time></trkpt><trkpt lat="47.35906045422643" lon="-1.528701977805727"><ele>22.400000000000002</ele><time>2026-03-29T09:02:24.002Z</time></trkpt><trkpt lat="47.35916807786315" lon="-1.5286579728140761"><ele>22.0</ele><time>2026-03-29T09:02:26.002Z</time></trkpt><trkpt lat="47.35929192048251" lon="-1.5285926777883698"><ele>21.75</ele><time>2026-03-29T09:02:28.002Z</time></trkpt><trkpt lat="47.35941119496464" lon="-1.5285285562291075"><ele>21.5</ele><time>2026-03-29T09:02:30.003Z</time></trkpt><trkpt lat="47.35948084858" lon="-1.5284859761609961"><ele>21.25</ele><time>2026-03-29T09:02:31.003Z</time></trkpt><trkpt lat="47.35957967121839" lon="-1.5284266322865414"><ele>21.0</ele><time>2026-03-29T09:02:33.003Z</time></trkpt><trkpt lat="47.35972203784376" lon="-1.528380196542971"><ele>21.0</ele><time>2026-03-29T09:02:35.003Z</time></trkpt><trkpt lat="47.35985082578599" lon="-1.5283169969930577"><ele>21.0</ele><time>2026-03-29T09:02:37.003Z</time></trkpt><trkpt lat="47.35992257487714" lon="-1.528267124669187"><ele>21.0</ele><time>2026-03-29T09:02:38.003Z</time></trkpt><trkpt lat="47.360001532405015" lon="-1.528233848513596"><ele>21.0</ele><time>2026-03-29T09:02:39.003Z</time></trkpt><trkpt lat="47.36008614771753" lon="-1.5282056853189394"><ele>21.0</ele><time>2026-03-29T09:02:40.003Z</time></trkpt><trkpt lat="47.360170679211016" lon="-1.52813779190325"><ele>21.0</ele><time>2026-03-29T09:02:41.003Z</time></trkpt><trkpt lat="47.360239704183634" lon="-1.528105102480881"><ele>21.0</ele><time>2026-03-29T09:02:42.003Z</time></trkpt><trkpt lat="47.36031430312186" lon="-1.5280493628247902"><ele>21.0</ele><time>2026-03-29T09:02:43.003Z</time></trkpt><trkpt lat="47.3604055820474" lon="-1.5279941260828898"><ele>21.0</ele><time>2026-03-29T09:02:44.003Z</time></trkpt><trkpt lat="47.360488688617345" lon="-1.52794333174967"><ele>21.0</ele><time>2026-03-29T09:02:45.003Z</time></trkpt><trkpt lat="47.3606146267125" lon="-1.527860015632145"><ele>21.0</ele><time>2026-03-29T09:02:47.003Z</time></trkpt><trkpt lat="47.36072874632418" lon="-1.5278367977603597"><ele>21.0</ele><time>2026-03-29T09:02:48.003Z</time></trkpt><trkpt lat="47.360809799327846" lon="-1.527790194378726"><ele>21.0</ele><time>2026-03-29T09:02:49.003Z</time></trkpt><trkpt lat="47.36089638438761" lon="-1.527758678422801"><ele>21.0</ele><time>2026-03-29T09:02:50.003Z</time></trkpt><trkpt lat="47.36097567719161" lon="-1.5277069620802324"><ele>21.0</ele><time>2026-03-29T09:02:51.003Z</time></trkpt><trkpt lat="47.36106343571782" lon="-1.5276710037156265"><ele>21.0</ele><time>2026-03-29T09:02:52.003Z</time></trkpt><trkpt lat="47.36113531053751" lon="-1.5276193711920898"><ele>21.0</ele><time>2026-03-29T09:02:53.003Z</time></trkpt><trkpt lat="47.361220386854704" lon="-1.5275664813830774"><ele>21.0</ele><time>2026-03-29T09:02:54.003Z</time></trkpt><trkpt lat="47.36130014066338" lon="-1.5275119151934307"><ele>21.0</ele><time>2026-03-29T09:02:55.003Z</time></trkpt><trkpt lat="47.36140646510512" lon="-1.5274287667139688"><ele>21.0</ele><time>2026-03-29T09:02:57.003Z</time></trkpt><trkpt lat="47.36148403961897" lon="-1.527384258808128"><ele>20.5</ele><time>2026-03-29T09:02:58.003Z</time></trkpt><trkpt lat="47.36156442207039" lon="-1.527351234109632"><ele>20.0</ele><time>2026-03-29T09:02:59.003Z</time></trkpt><trkpt lat="47.361643253869715" lon="-1.5273108333363452"><ele>19.5</ele><time>2026-03-29T09:03:00.003Z</time></trkpt><trkpt lat="47.36171877481729" lon="-1.5272721089436927"><ele>19.0</ele><time>2026-03-29T09:03:01.003Z</time></trkpt><trkpt lat="47.36181336459458" lon="-1.5272436104729092"><ele>18.5</ele><time>2026-03-29T09:03:02.003Z</time></trkpt><trkpt lat="47.36188062936753" lon="-1.527197426186434"><ele>18.0</ele><time>2026-03-29T09:03:03.003Z</time></trkpt><trkpt lat="47.36193527937621" lon="-1.5271313767894423"><ele>18.0</ele><time>2026-03-29T09:03:04.003Z</time></trkpt><trkpt lat="47.36201239288539" lon="-1.5271175466492093"><ele>18.0</ele><time>2026-03-29T09:03:05.003Z</time></trkpt><trkpt lat="47.36210513864398" lon="-1.527082594112984"><ele>18.0</ele><time>2026-03-29T09:03:06.003Z</time></trkpt><trkpt lat="47.3621852696383" lon="-1.52705845423185"><ele>18.0</ele><time>2026-03-29T09:03:07.003Z</time></trkpt><trkpt lat="47.362267412289384" lon="-1.5270376671119845"><ele>18.0</ele><time>2026-03-29T09:03:08.003Z</time></trkpt><trkpt lat="47.36235894267202" lon="-1.5270132757737551"><ele>18.0</ele><time>2026-03-29T09:03:09.003Z</time></trkpt><trkpt lat="47.36244150441826" lon="-1.5269957575961266"><ele>17.5</ele><time>2026-03-29T09:03:10.003Z</time></trkpt><trkpt lat="47.36255390573979" lon="-1.526970611886612"><ele>17.0</ele><time>2026-03-29T09:03:11.003Z</time></trkpt><trkpt lat="47.36264899843127" lon="-1.5269588772221718"><ele>16.5</ele><time>2026-03-29T09:03:13.003Z</time></trkpt><trkpt lat="47.36272200480789" lon="-1.5269390121116553"><ele>16.0</ele><time>2026-03-29T09:03:14.003Z</time></trkpt><trkpt lat="47.36279245470405" lon="-1.5269059874131594"><ele>15.5</ele><time>2026-03-29T09:03:15.003Z</time></trkpt><trkpt lat="47.362867975651625" lon="-1.526900790633193"><ele>15.0</ele><time>2026-03-29T09:03:16.003Z</time></trkpt><trkpt lat="47.36294743609369" lon="-1.5268743876382027"><ele>15.0</ele><time>2026-03-29T09:03:17.003Z</time></trkpt><trkpt lat="47.363026812716726" lon="-1.5268627367927943"><ele>15.0</ele><time>2026-03-29T09:03:18.003Z</time></trkpt><trkpt lat="47.36310882963926" lon="-1.5268387645497237"><ele>15.0</ele><time>2026-03-29T09:03:19.003Z</time></trkpt><trkpt lat="47.363192732490006" lon="-1.5268199052675877"><ele>15.0</ele><time>2026-03-29T09:03:20.003Z</time></trkpt><trkpt lat="47.36326364339084" lon="-1.5268168039634142"><ele>15.0</ele><time>2026-03-29T09:03:21.003Z</time></trkpt><trkpt lat="47.36339285042823" lon="-1.5267807617797766"><ele>14.166666666666666</ele><time>2026-03-29T09:03:23.003Z</time></trkpt><trkpt lat="47.36347449016512" lon="-1.5267580468221815"><ele>13.333333333333334</ele><time>2026-03-29T09:03:24.003Z</time></trkpt><trkpt lat="47.363560907586816" lon="-1.526745222510329"><ele>12.5</ele><time>2026-03-29T09:03:25.003Z</time></trkpt><trkpt lat="47.363646822094324" lon="-1.5267213340862902"><ele>11.666666666666668</ele><time>2026-03-29T09:03:26.003Z</time></trkpt><trkpt lat="47.363730473487976" lon="-1.5267042350038202"><ele>10.833333333333334</ele><time>2026-03-29T09:03:27.003Z</time></trkpt><trkpt lat="47.36383394808263" lon="-1.5266858786358746"><ele>10.0</ele><time>2026-03-29T09:03:28.003Z</time></trkpt><trkpt lat="47.363973003856245" lon="-1.5266413707300337"><ele>9.666666666666668</ele><time>2026-03-29T09:03:30.003Z</time></trkpt><trkpt lat="47.36407019202352" lon="-1.5266232658191832"><ele>9.333333333333334</ele><time>2026-03-29T09:03:31.003Z</time></trkpt><trkpt lat="47.36416335687727" lon="-1.526606837288967"><ele>9.0</ele><time>2026-03-29T09:03:32.003Z</time></trkpt><trkpt lat="47.36423590224922" lon="-1.5265854634358795"><ele>8.666666666666666</ele><time>2026-03-29T09:03:33.003Z</time></trkpt><trkpt lat="47.36431590751499" lon="-1.5265640057637604"><ele>8.333333333333332</ele><time>2026-03-29T09:03:34.003Z</time></trkpt><trkpt lat="47.36438216645956" lon="-1.5265319868936449"><ele>8.0</ele><time>2026-03-29T09:03:35.003Z</time></trkpt><trkpt lat="47.36445324499846" lon="-1.5264935977771192"><ele>8.0</ele><time>2026-03-29T09:03:36.003Z</time></trkpt><trkpt lat="47.36452428162784" lon="-1.5264707990004927"><ele>7.999999999999999</ele><time>2026-03-29T09:03:37.003Z</time></trkpt><trkpt lat="47.36460076649428" lon="-1.5264472458525806"><ele>8.0</ele><time>2026-03-29T09:03:38.003Z</time></trkpt><trkpt lat="47.364663002125326" lon="-1.5264224354191929"><ele>8.0</ele><time>2026-03-29T09:03:39.003Z</time></trkpt><trkpt lat="47.36473014116973" lon="-1.5264214295908123"><ele>7.999999999999999</ele><time>2026-03-29T09:03:40.003Z</time></trkpt><trkpt lat="47.36479996242315" lon="-1.5263980440809637"><ele>8.0</ele><time>2026-03-29T09:03:41.003Z</time></trkpt><trkpt lat="47.36487443563283" lon="-1.5263795200749546"><ele>8.0</ele><time>2026-03-29T09:03:42.003Z</time></trkpt><trkpt lat="47.36496139787823" lon="-1.5263576433076769"><ele>8.0</ele><time>2026-03-29T09:03:44.003Z</time></trkpt><trkpt lat="47.365028956017795" lon="-1.5263447351767927"><ele>8.0</ele><time>2026-03-29T09:03:45.003Z</time></trkpt><trkpt lat="47.365116169720295" lon="-1.5262862294926551"><ele>8.0</ele><time>2026-03-29T09:03:47.003Z</time></trkpt><trkpt lat="47.36523984470159" lon="-1.5262233652188686"><ele>8.0</ele><time>2026-03-29T09:03:49.003Z</time></trkpt><trkpt lat="47.365320143333975" lon="-1.5261320024742988"><ele>8.0</ele><time>2026-03-29T09:03:51.003Z</time></trkpt><trkpt lat="47.3654111288929" lon="-1.526059163735738"><ele>8.0</ele><time>2026-03-29T09:03:53.003Z</time></trkpt><trkpt lat="47.365451026752" lon="-1.5259353630258943"><ele>8.0</ele><time>2026-03-29T09:03:55.003Z</time></trkpt><trkpt lat="47.36554477833897" lon="-1.5258539747460986"><ele>8.0</ele><time>2026-03-29T09:03:57.003Z</time></trkpt><trkpt lat="47.36559314192027" lon="-1.5257042739554547"><ele>8.0</ele><time>2026-03-29T09:03:59.003Z</time></trkpt><trkpt lat="47.36568349883646" lon="-1.5256327763214015"><ele>8.0</ele><time>2026-03-29T09:04:01.003Z</time></trkpt><trkpt lat="47.36577226319105" lon="-1.5255089756115576"><ele>8.333333333333332</ele><time>2026-03-29T09:04:03.003Z</time></trkpt><trkpt lat="47.3658567108655" lon="-1.5254174452289244"><ele>8.666666666666666</ele><time>2026-03-29T09:04:05.003Z</time></trkpt><trkpt lat="47.36591027122677" lon="-1.5253622923060557"><ele>9.0</ele><time>2026-03-29T09:04:06.003Z</time></trkpt><trkpt lat="47.36596739389688" lon="-1.5252476278706688"><ele>9.333333333333334</ele><time>2026-03-29T09:04:08.003Z</time></trkpt><trkpt lat="47.3660242651099" lon="-1.5251063928022282"><ele>9.666666666666668</ele><time>2026-03-29T09:04:10.003Z</time></trkpt><trkpt lat="47.366078537932935" lon="-1.5250421036049024"><ele>10.0</ele><time>2026-03-29T09:04:11.003Z</time></trkpt><trkpt lat="47.36612727869988" lon="-1.52497211471342"><ele>10.0</ele><time>2026-03-29T09:04:12.003Z</time></trkpt><trkpt lat="47.36617635474295" lon="-1.5248049795641794"><ele>10.0</ele><time>2026-03-29T09:04:14.003Z</time></trkpt><trkpt lat="47.366202925376" lon="-1.5246448013945713"><ele>10.0</ele><time>2026-03-29T09:04:16.003Z</time></trkpt><trkpt lat="47.36624512825847" lon="-1.5244808513685357"><ele>10.0</ele><time>2026-03-29T09:04:18.003Z</time></trkpt><trkpt lat="47.36627840441406" lon="-1.524333162234653"><ele>9.666666666666668</ele><time>2026-03-29T09:04:20.003Z</time></trkpt><trkpt lat="47.36632576216698" lon="-1.5241735707982669"><ele>9.333333333333334</ele><time>2026-03-29T09:04:22.003Z</time></trkpt><trkpt lat="47.3663525004381" lon="-1.5240119677051194"><ele>9.0</ele><time>2026-03-29T09:04:24.003Z</time></trkpt><trkpt lat="47.366373874291185" lon="-1.5239144861712344"><ele>8.666666666666666</ele><time>2026-03-29T09:04:25.003Z</time></trkpt><trkpt lat="47.366377352781" lon="-1.5238211117699032"><ele>8.333333333333332</ele><time>2026-03-29T09:04:26.003Z</time></trkpt><trkpt lat="47.366384603127244" lon="-1.5237249713405256"><ele>8.0</ele><time>2026-03-29T09:04:27.003Z</time></trkpt><trkpt lat="47.366408282003704" lon="-1.5235423296704176"><ele>8.666666666666666</ele><time>2026-03-29T09:04:29.003Z</time></trkpt><trkpt lat="47.36643250570387" lon="-1.5233587659909607"><ele>9.333333333333332</ele><time>2026-03-29T09:04:31.003Z</time></trkpt><trkpt lat="47.36644076187849" lon="-1.5232556685819507"><ele>10.0</ele><time>2026-03-29T09:04:32.003Z</time></trkpt><trkpt lat="47.36645517875195" lon="-1.5230806544437288"><ele>10.666666666666666</ele><time>2026-03-29T09:04:34.003Z</time></trkpt><trkpt lat="47.3664740799436" lon="-1.5229908004417299"><ele>11.333333333333334</ele><time>2026-03-29T09:04:35.003Z</time></trkpt><trkpt lat="47.36646045935095" lon="-1.5228949114694472"><ele>12.0</ele><time>2026-03-29T09:04:36.003Z</time></trkpt><trkpt lat="47.366466033316556" lon="-1.5227949153646108"><ele>12.0</ele><time>2026-03-29T09:04:37.003Z</time></trkpt><trkpt lat="47.366454717747274" lon="-1.522701121868121"><ele>12.0</ele><time>2026-03-29T09:04:38.003Z</time></trkpt><trkpt lat="47.36645903442741" lon="-1.5226017963155383"><ele>12.0</ele><time>2026-03-29T09:04:39.003Z</time></trkpt><trkpt lat="47.366456519856456" lon="-1.5225046500577801"><ele>12.0</ele><time>2026-03-29T09:04:40.003Z</time></trkpt><trkpt lat="47.36648811963141" lon="-1.5224010497345797"><ele>12.0</ele><time>2026-03-29T09:04:41.003Z</time></trkpt><trkpt lat="47.36653912351221" lon="-1.5222246944918503"><ele>12.0</ele><time>2026-03-29T09:04:43.003Z</time></trkpt><trkpt lat="47.3665863974461" lon="-1.5221265424057115"><ele>11.8</ele><time>2026-03-29T09:04:44.003Z</time></trkpt><trkpt lat="47.36661460255027" lon="-1.522036856041776"><ele>11.6</ele><time>2026-03-29T09:04:45.003Z</time></trkpt><trkpt lat="47.366669210649434" lon="-1.5218883287175762"><ele>11.4</ele><time>2026-03-29T09:04:47.003Z</time></trkpt><trkpt lat="47.36676748846412" lon="-1.5217387955649957"><ele>11.200000000000001</ele><time>2026-03-29T09:04:49.003Z</time></trkpt><trkpt lat="47.366797076582316" lon="-1.5216392185553178"><ele>11.0</ele><time>2026-03-29T09:04:50.003Z</time></trkpt><trkpt lat="47.3668522714147" lon="-1.5215652901693448"><ele>11.0</ele><time>2026-03-29T09:04:51.003Z</time></trkpt><trkpt lat="47.366891163445416" lon="-1.5214859135463101"><ele>11.0</ele><time>2026-03-29T09:04:52.003Z</time></trkpt><trkpt lat="47.366915345236066" lon="-1.5213483665152652"><ele>11.0</ele><time>2026-03-29T09:04:54.003Z</time></trkpt><trkpt lat="47.36693671908915" lon="-1.5212466102107625"><ele>11.0</ele><time>2026-03-29T09:04:55.003Z</time></trkpt><trkpt lat="47.36698583704174" lon="-1.5211629588171105"><ele>11.0</ele><time>2026-03-29T09:04:56.003Z</time></trkpt><trkpt lat="47.36701052174658" lon="-1.5210712607964139"><ele>11.0</ele><time>2026-03-29T09:04:57.003Z</time></trkpt><trkpt lat="47.36704174433589" lon="-1.520982244984732"><ele>11.0</ele><time>2026-03-29T09:04:58.003Z</time></trkpt><trkpt lat="47.36710402187646" lon="-1.5208860207363226"><ele>11.200000000000001</ele><time>2026-03-29T09:04:59.003Z</time></trkpt><trkpt lat="47.36715397801936" lon="-1.5207128506167984"><ele>11.4</ele><time>2026-03-29T09:05:01.003Z</time></trkpt><trkpt lat="47.36718955919832" lon="-1.5205753035857532"><ele>11.6</ele><time>2026-03-29T09:05:02.003Z</time></trkpt><trkpt lat="47.36721994359732" lon="-1.520479330794439"><ele>11.8</ele><time>2026-03-29T09:05:03.003Z</time></trkpt><trkpt lat="47.367286370179954" lon="-1.5203518420472"><ele>12.0</ele><time>2026-03-29T09:05:05.003Z</time></trkpt><trkpt lat="47.367308833680454" lon="-1.5202035661800952"><ele>11.2</ele><time>2026-03-29T09:05:07.003Z</time></trkpt><trkpt lat="47.36739839431584" lon="-1.5200252830996364"><ele>10.399999999999999</ele><time>2026-03-29T09:05:09.003Z</time></trkpt><trkpt lat="47.36742877871484" lon="-1.5198665298535674"><ele>9.600000000000001</ele><time>2026-03-29T09:05:11.003Z</time></trkpt><trkpt lat="47.36748409927577" lon="-1.5197678748532382"><ele>8.8</ele><time>2026-03-29T09:05:12.003Z</time></trkpt><trkpt lat="47.3675454967165" lon="-1.5196663700058308"><ele>8.0</ele><time>2026-03-29T09:05:13.003Z</time></trkpt><trkpt lat="47.36763790719897" lon="-1.5194902662201966"><ele>8.0</ele><time>2026-03-29T09:05:15.003Z</time></trkpt><trkpt lat="47.36768526495189" lon="-1.5193324349834763"><ele>8.0</ele><time>2026-03-29T09:05:17.003Z</time></trkpt><trkpt lat="47.36771711618394" lon="-1.5192511305227123"><ele>8.0</ele><time>2026-03-29T09:05:18.003Z</time></trkpt><trkpt lat="47.3677495122397" lon="-1.5191095601781448"><ele>8.0</ele><time>2026-03-29T09:05:20.003Z</time></trkpt><trkpt lat="47.36778639261365" lon="-1.5190007630749782"><ele>8.0</ele><time>2026-03-29T09:05:21.003Z</time></trkpt><trkpt lat="47.3678512685442" lon="-1.5188666526242334"><ele>8.0</ele><time>2026-03-29T09:05:23.003Z</time></trkpt><trkpt lat="47.367905457548204" lon="-1.518702702598198"><ele>8.0</ele><time>2026-03-29T09:05:25.003Z</time></trkpt><trkpt lat="47.36797498543501" lon="-1.5185326337828473"><ele>8.0</ele><time>2026-03-29T09:05:27.003Z</time></trkpt><trkpt lat="47.36801534429878" lon="-1.5184336435063914"><ele>8.0</ele><time>2026-03-29T09:05:28.003Z</time></trkpt><trkpt lat="47.36804057382733" lon="-1.5183407720192506"><ele>8.0</ele><time>2026-03-29T09:05:29.003Z</time></trkpt><trkpt lat="47.36806932375521" lon="-1.518172714860661"><ele>8.200000000000001</ele><time>2026-03-29T09:05:31.003Z</time></trkpt><trkpt lat="47.36806022939027" lon="-1.5179713815464806"><ele>8.4</ele><time>2026-03-29T09:05:33.003Z</time></trkpt><trkpt lat="47.36805851110012" lon="-1.517873983831627"><ele>8.600000000000001</ele><time>2026-03-29T09:05:34.003Z</time></trkpt><trkpt lat="47.36807661601097" lon="-1.5177480876459906"><ele>8.8</ele><time>2026-03-29T09:05:35.003Z</time></trkpt><trkpt lat="47.36806421079427" lon="-1.5176502708359785"><ele>9.0</ele><time>2026-03-29T09:05:36.003Z</time></trkpt><trkpt lat="47.36806961712182" lon="-1.51743829250477"><ele>9.0</ele><time>2026-03-29T09:05:38.003Z</time></trkpt><trkpt lat="47.36805553552449" lon="-1.5173418167992656"><ele>9.0</ele><time>2026-03-29T09:05:39.003Z</time></trkpt><trkpt lat="47.3680402385512" lon="-1.5172479394837444"><ele>9.0</ele><time>2026-03-29T09:05:40.003Z</time></trkpt><trkpt lat="47.367996904111806" lon="-1.5170932095511975"><ele>9.0</ele><time>2026-03-29T09:05:42.003Z</time></trkpt><trkpt lat="47.36793290828109" lon="-1.516931019724828"><ele>9.0</ele><time>2026-03-29T09:05:44.003Z</time></trkpt><trkpt lat="47.367878635458055" lon="-1.516781738029343"><ele>9.2</ele><time>2026-03-29T09:05:46.003Z</time></trkpt><trkpt lat="47.36783157107175" lon="-1.5166527405395327"><ele>9.4</ele><time>2026-03-29T09:05:48.003Z</time></trkpt><trkpt lat="47.36778689552784" lon="-1.51651385240398"><ele>9.6</ele><time>2026-03-29T09:05:50.003Z</time></trkpt><trkpt lat="47.36771950502634" lon="-1.5163614694043215"><ele>9.8</ele><time>2026-03-29T09:05:52.003Z</time></trkpt><trkpt lat="47.36768928826541" lon="-1.516269352288466"><ele>10.0</ele><time>2026-03-29T09:05:53.003Z</time></trkpt><trkpt lat="47.36764540900231" lon="-1.5161217469736152"><ele>10.2</ele><time>2026-03-29T09:05:55.003Z</time></trkpt><trkpt lat="47.367622861682776" lon="-1.5160308871432355"><ele>10.4</ele><time>2026-03-29T09:05:56.003Z</time></trkpt><trkpt lat="47.367592016279104" lon="-1.5158862993135265"><ele>10.600000000000001</ele><time>2026-03-29T09:05:58.003Z</time></trkpt><trkpt lat="47.367576132572594" lon="-1.5157820284380723"><ele>10.8</ele><time>2026-03-29T09:06:00.003Z</time></trkpt><trkpt lat="47.3675343906948" lon="-1.5156382787986804"><ele>11.0</ele><time>2026-03-29T09:06:02.003Z</time></trkpt><trkpt lat="47.36748317726642" lon="-1.5154889132841634"><ele>11.0</ele><time>2026-03-29T09:06:04.003Z</time></trkpt><trkpt lat="47.367451577491465" lon="-1.5153796970858382"><ele>11.0</ele><time>2026-03-29T09:06:06.003Z</time></trkpt><trkpt lat="47.36742236655891" lon="-1.5152722410871788"><ele>11.0</ele><time>2026-03-29T09:06:08.003Z</time></trkpt><trkpt lat="47.367399274415675" lon="-1.5151789505048796"><ele>11.0</ele><time>2026-03-29T09:06:09.003Z</time></trkpt><trkpt lat="47.367368219464424" lon="-1.515089515598039"><ele>11.0</ele><time>2026-03-29T09:06:10.003Z</time></trkpt><trkpt lat="47.367321867539886" lon="-1.5149310138090653"><ele>11.0</ele><time>2026-03-29T09:06:12.003Z</time></trkpt><trkpt lat="47.367271282754245" lon="-1.5147632919266025"><ele>11.0</ele><time>2026-03-29T09:06:14.003Z</time></trkpt><trkpt lat="47.36723410901368" lon="-1.5146080590798654"><ele>11.0</ele><time>2026-03-29T09:06:16.003Z</time></trkpt><trkpt lat="47.36720493999064" lon="-1.5145108290030755"><ele>11.0</ele><time>2026-03-29T09:06:17.003Z</time></trkpt><trkpt lat="47.36718260221869" lon="-1.5144160296782054"><ele>11.0</ele><time>2026-03-29T09:06:18.003Z</time></trkpt><trkpt lat="47.36713650175125" lon="-1.514244368301252"><ele>11.0</ele><time>2026-03-29T09:06:20.003Z</time></trkpt><trkpt lat="47.3670932930404" lon="-1.5141022950424943"><ele>10.666666666666666</ele><time>2026-03-29T09:06:22.003Z</time></trkpt><trkpt lat="47.3670594720611" lon="-1.5140126924975905"><ele>10.333333333333332</ele><time>2026-03-29T09:06:23.003Z</time></trkpt><trkpt lat="47.36703021921903" lon="-1.5139105170979295"><ele>10.0</ele><time>2026-03-29T09:06:24.003Z</time></trkpt><trkpt lat="47.36699937381536" lon="-1.5136974491193087"><ele>9.666666666666666</ele><time>2026-03-29T09:06:26.003Z</time></trkpt><trkpt lat="47.3669825680995" lon="-1.5135929267867594"><ele>9.333333333333334</ele><time>2026-03-29T09:06:27.003Z</time></trkpt><trkpt lat="47.36698835161269" lon="-1.5134723950191526"><ele>9.0</ele><time>2026-03-29T09:06:28.003Z</time></trkpt><trkpt lat="47.366980011619034" lon="-1.513367369772413"><ele>8.666666666666666</ele><time>2026-03-29T09:06:29.003Z</time></trkpt><trkpt lat="47.366987303874794" lon="-1.5132364444448736"><ele>8.333333333333334</ele><time>2026-03-29T09:06:30.003Z</time></trkpt><trkpt lat="47.36699698497296" lon="-1.5131324250265146"><ele>8.0</ele><time>2026-03-29T09:06:31.003Z</time></trkpt><trkpt lat="47.367006624161604" lon="-1.5130272321417118"><ele>7.666666666666667</ele><time>2026-03-29T09:06:32.003Z</time></trkpt><trkpt lat="47.36702292696327" lon="-1.512901335956075"><ele>7.333333333333334</ele><time>2026-03-29T09:06:33.003Z</time></trkpt><trkpt lat="47.36704371408314" lon="-1.5127996634706042"><ele>7.0</ele><time>2026-03-29T09:06:34.003Z</time></trkpt><trkpt lat="47.36705624502838" lon="-1.512697739528038"><ele>6.833333333333334</ele><time>2026-03-29T09:06:35.003Z</time></trkpt><trkpt lat="47.36705666412354" lon="-1.5125828236355563"><ele>6.666666666666667</ele><time>2026-03-29T09:06:36.003Z</time></trkpt><trkpt lat="47.367070661901835" lon="-1.5124737750752946"><ele>6.5</ele><time>2026-03-29T09:06:37.003Z</time></trkpt><trkpt lat="47.36709308349282" lon="-1.5123554226025122"><ele>6.333333333333334</ele><time>2026-03-29T09:06:38.003Z</time></trkpt><trkpt lat="47.367111942774955" lon="-1.5122575219734686"><ele>6.166666666666667</ele><time>2026-03-29T09:06:39.003Z</time></trkpt><trkpt lat="47.367130341052416" lon="-1.5121520776315704"><ele>6.0</ele><time>2026-03-29T09:06:40.003Z</time></trkpt><trkpt lat="47.36718080010951" lon="-1.5119725372656359"><ele>6.166666666666667</ele><time>2026-03-29T09:06:42.003Z</time></trkpt><trkpt lat="47.367215249731544" lon="-1.5118758101030363"><ele>6.333333333333334</ele><time>2026-03-29T09:06:43.003Z</time></trkpt><trkpt lat="47.36724596940667" lon="-1.5117779932930244"><ele>6.5</ele><time>2026-03-29T09:06:44.003Z</time></trkpt><trkpt lat="47.36727174375892" lon="-1.5116104390486251"><ele>6.666666666666667</ele><time>2026-03-29T09:06:46.003Z</time></trkpt><trkpt lat="47.367291105955246" lon="-1.5115152206285962"><ele>6.833333333333334</ele><time>2026-03-29T09:06:47.003Z</time></trkpt><trkpt lat="47.36731411427945" lon="-1.5114265400930413"><ele>7.0</ele><time>2026-03-29T09:06:48.003Z</time></trkpt><trkpt lat="47.367351623296145" lon="-1.511268122123099"><ele>7.000000000000001</ele><time>2026-03-29T09:06:50.003Z</time></trkpt><trkpt lat="47.36740136989147" lon="-1.5111625101431376"><ele>7.0</ele><time>2026-03-29T09:06:51.003Z</time></trkpt><trkpt lat="47.36745585226208" lon="-1.5111050941064126"><ele>7.0</ele><time>2026-03-29T09:06:52.003Z</time></trkpt><trkpt lat="47.36754755028278" lon="-1.5109900105758671"><ele>7.0</ele><time>2026-03-29T09:06:54.003Z</time></trkpt><trkpt lat="47.36761259385139" lon="-1.5109439101084237"><ele>7.000000000000001</ele><time>2026-03-29T09:06:55.003Z</time></trkpt><trkpt lat="47.36768694133252" lon="-1.5108571574105982"><ele>7.0</ele><time>2026-03-29T09:06:57.003Z</time></trkpt><trkpt lat="47.36775487665773" lon="-1.5107590053244593"><ele>7.000000000000001</ele><time>2026-03-29T09:06:59.003Z</time></trkpt><trkpt lat="47.367806299633685" lon="-1.5106844063862326"><ele>7.0</ele><time>2026-03-29T09:07:00.003Z</time></trkpt><trkpt lat="47.36786866099328" lon="-1.5106388088329794"><ele>7.0</ele><time>2026-03-29T09:07:01.003Z</time></trkpt><trkpt lat="47.3679548688674" lon="-1.5105171035989284"><ele>7.0</ele><time>2026-03-29T09:07:03.003Z</time></trkpt><trkpt lat="47.368018864698115" lon="-1.5104718413218021"><ele>7.000000000000001</ele><time>2026-03-29T09:07:04.003Z</time></trkpt><trkpt lat="47.36810096543968" lon="-1.5104331169291496"><ele>7.0</ele><time>2026-03-29T09:07:05.004Z</time></trkpt><trkpt lat="47.36819953662098" lon="-1.5103228949024436"><ele>7.0</ele><time>2026-03-29T09:07:07.004Z</time></trkpt><trkpt lat="47.36826101788074" lon="-1.5102293528630493"><ele>6.999999999999999</ele><time>2026-03-29T09:07:09.004Z</time></trkpt><trkpt lat="47.36834077168942" lon="-1.5101342182620523"><ele>6.999999999999999</ele><time>2026-03-29T09:07:11.004Z</time></trkpt><trkpt lat="47.36840112139225" lon="-1.5100829210146423"><ele>7.0</ele><time>2026-03-29T09:07:12.004Z</time></trkpt><trkpt lat="47.3684644047612" lon="-1.5099556837244983"><ele>7.0</ele><time>2026-03-29T09:07:14.004Z</time></trkpt><trkpt lat="47.368570058650675" lon="-1.5098525024964566"><ele>7.000000000000001</ele><time>2026-03-29T09:07:16.004Z</time></trkpt><trkpt lat="47.368607483848336" lon="-1.5097776521011346"><ele>7.0</ele><time>2026-03-29T09:07:17.004Z</time></trkpt><trkpt lat="47.368706055029634" lon="-1.5096559468670838"><ele>7.0</ele><time>2026-03-29T09:07:19.004Z</time></trkpt><trkpt lat="47.368756639815274" lon="-1.5095965191735974"><ele>7.0</ele><time>2026-03-29T09:07:20.004Z</time></trkpt><trkpt lat="47.36881133173347" lon="-1.5095349121852866"><ele>7.000000000000001</ele><time>2026-03-29T09:07:21.004Z</time></trkpt><trkpt lat="47.36886304807604" lon="-1.5093903243555775"><ele>7.0</ele><time>2026-03-29T09:07:23.004Z</time></trkpt><trkpt lat="47.368938652842644" lon="-1.5092296432717789"><ele>7.0</ele><time>2026-03-29T09:07:25.004Z</time></trkpt><trkpt lat="47.36903701447637" lon="-1.5091298148050056"><ele>6.999999999999999</ele><time>2026-03-29T09:07:27.004Z</time></trkpt><trkpt lat="47.36915134363563" lon="-1.5090527012958275"><ele>6.999999999999999</ele><time>2026-03-29T09:07:29.004Z</time></trkpt><trkpt lat="47.36922246408404" lon="-1.5090380329652773"><ele>7.0</ele><time>2026-03-29T09:07:30.004Z</time></trkpt><trkpt lat="47.369291698604236" lon="-1.5090119652464138"><ele>7.0</ele><time>2026-03-29T09:07:31.004Z</time></trkpt><trkpt lat="47.36936256759555" lon="-1.5089848916991697"><ele>7.0</ele><time>2026-03-29T09:07:32.004Z</time></trkpt><trkpt lat="47.36946646128536" lon="-1.5089708939208732"><ele>6.999999999999999</ele><time>2026-03-29T09:07:34.004Z</time></trkpt><trkpt lat="47.36958690923394" lon="-1.5089449938400732"><ele>6.999999999999999</ele><time>2026-03-29T09:07:36.004Z</time></trkpt><trkpt lat="47.369692353575836" lon="-1.5089313313379036"><ele>7.0</ele><time>2026-03-29T09:07:38.004Z</time></trkpt><trkpt lat="47.36976749733777" lon="-1.508914735169624"><ele>7.0</ele><time>2026-03-29T09:07:39.004Z</time></trkpt><trkpt lat="47.36987176821322" lon="-1.508897636087154"><ele>7.000000000000001</ele><time>2026-03-29T09:07:41.004Z</time></trkpt><trkpt lat="47.36997222532273" lon="-1.5088702272637828"><ele>7.0</ele><time>2026-03-29T09:07:43.004Z</time></trkpt><trkpt lat="47.37008416563959" lon="-1.508869305254434"><ele>7.0</ele><time>2026-03-29T09:07:45.004Z</time></trkpt><trkpt lat="47.37014954448433" lon="-1.508858995513533"><ele>7.0</ele><time>2026-03-29T09:07:46.004Z</time></trkpt><trkpt lat="47.37021232493908" lon="-1.5088418126120313"><ele>7.000000000000001</ele><time>2026-03-29T09:07:47.004Z</time></trkpt><trkpt lat="47.37027678177447" lon="-1.508819516749595"><ele>7.0</ele><time>2026-03-29T09:07:48.004Z</time></trkpt><trkpt lat="47.3703426635334" lon="-1.5088060218854888"><ele>7.0</ele><time>2026-03-29T09:07:49.004Z</time></trkpt><trkpt lat="47.37046135128231" lon="-1.5087790321572765"><ele>6.999999999999999</ele><time>2026-03-29T09:07:51.004Z</time></trkpt><trkpt lat="47.370547475337396" lon="-1.5087652858360752"><ele>6.999999999999999</ele><time>2026-03-29T09:07:52.004Z</time></trkpt><trkpt lat="47.37063406039716" lon="-1.5087203588350757"><ele>7.0</ele><time>2026-03-29T09:07:54.004Z</time></trkpt><trkpt lat="47.370707234411846" lon="-1.5087260585292324"><ele>7.0</ele><time>2026-03-29T09:07:55.004Z</time></trkpt><trkpt lat="47.370814397043894" lon="-1.5087123960270628"><ele>6.500000000000001</ele><time>2026-03-29T09:07:57.004Z</time></trkpt><trkpt lat="47.370918793647895" lon="-1.508693788202022"><ele>6.0</ele><time>2026-03-29T09:08:00.004Z</time></trkpt><trkpt lat="47.37098299902619" lon="-1.5086911898120388"><ele>5.5</ele><time>2026-03-29T09:08:01.004Z</time></trkpt><trkpt lat="47.37105784942151" lon="-1.5086647868170484"><ele>5.0</ele><time>2026-03-29T09:08:02.004Z</time></trkpt><trkpt lat="47.37112456937076" lon="-1.5086626075222238"><ele>4.5</ele><time>2026-03-29T09:08:03.004Z</time></trkpt><trkpt lat="47.371236886873255" lon="-1.5086600929512723"><ele>4.0</ele><time>2026-03-29T09:08:05.004Z</time></trkpt><trkpt lat="47.37134903673769" lon="-1.5086866635843261"><ele>4.2</ele><time>2026-03-29T09:08:07.004Z</time></trkpt><trkpt lat="47.371466048105965" lon="-1.508705522866462"><ele>4.4</ele><time>2026-03-29T09:08:09.004Z</time></trkpt><trkpt lat="47.371585951230834" lon="-1.5087222866728052"><ele>4.6</ele><time>2026-03-29T09:08:11.004Z</time></trkpt><trkpt lat="47.37170660872699" lon="-1.5087372902794822"><ele>4.8</ele><time>2026-03-29T09:08:13.004Z</time></trkpt><trkpt lat="47.371773202947686" lon="-1.5087304171188816"><ele>5.0</ele><time>2026-03-29T09:08:14.004Z</time></trkpt><trkpt lat="47.371864481873224" lon="-1.5087517071529373"><ele>5.0</ele><time>2026-03-29T09:08:16.004Z</time></trkpt><trkpt lat="47.371932962022136" lon="-1.508754724638079"><ele>5.0</ele><time>2026-03-29T09:08:17.004Z</time></trkpt><trkpt lat="47.37203341913165" lon="-1.5087565686567768"><ele>5.0</ele><time>2026-03-29T09:08:19.004Z</time></trkpt><trkpt lat="47.3721318645844" lon="-1.5087744221105321"><ele>5.0</ele><time>2026-03-29T09:08:21.004Z</time></trkpt><trkpt lat="47.37220193729491" lon="-1.5087913535549387"><ele>5.0</ele><time>2026-03-29T09:08:22.004Z</time></trkpt><trkpt lat="47.37230046656669" lon="-1.5088155772551044"><ele>5.0</ele><time>2026-03-29T09:08:24.004Z</time></trkpt><trkpt lat="47.372426614209424" lon="-1.5088290721192106"><ele>5.0</ele><time>2026-03-29T09:08:26.004Z</time></trkpt><trkpt lat="47.372546810700904" lon="-1.5088509488864883"><ele>5.0</ele><time>2026-03-29T09:08:28.004Z</time></trkpt><trkpt lat="47.372610848441134" lon="-1.5088587440564378"><ele>5.0</ele><time>2026-03-29T09:08:29.004Z</time></trkpt><trkpt lat="47.372679747685204" lon="-1.5088508650674566"><ele>5.0</ele><time>2026-03-29T09:08:30.004Z</time></trkpt><trkpt lat="47.37274516843946" lon="-1.5088548045619472"><ele>5.0</ele><time>2026-03-29T09:08:32.004Z</time></trkpt><trkpt lat="47.37285471991391" lon="-1.508865449578975"><ele>5.0</ele><time>2026-03-29T09:08:34.004Z</time></trkpt><trkpt lat="47.3729736172104" lon="-1.5089051798000084"><ele>5.2</ele><time>2026-03-29T09:08:36.004Z</time></trkpt><trkpt lat="47.37306544095964" lon="-1.5089552197619425"><ele>5.4</ele><time>2026-03-29T09:08:37.004Z</time></trkpt><trkpt lat="47.373182075142275" lon="-1.5089983027442442"><ele>5.6</ele><time>2026-03-29T09:08:39.004Z</time></trkpt><trkpt lat="47.37329581756831" lon="-1.5089857298894869"><ele>5.8</ele><time>2026-03-29T09:08:41.004Z</time></trkpt><trkpt lat="47.37336119641305" lon="-1.5089948661639438"><ele>6.0</ele><time>2026-03-29T09:08:42.004Z</time></trkpt><trkpt lat="47.373474268286834" lon="-1.509008947761272"><ele>6.0</ele><time>2026-03-29T09:08:44.004Z</time></trkpt><trkpt lat="47.37355251335294" lon="-1.5090141445412384"><ele>6.0</ele><time>2026-03-29T09:08:45.004Z</time></trkpt><trkpt lat="47.37361906566412" lon="-1.5090303216143595"><ele>6.0</ele><time>2026-03-29T09:08:46.004Z</time></trkpt><trkpt lat="47.37373653803707" lon="-1.5089895855649458"><ele>6.0</ele><time>2026-03-29T09:08:49.004Z</time></trkpt><trkpt lat="47.3738515796581" lon="-1.5090032480671154"><ele>6.0</ele><time>2026-03-29T09:08:51.004Z</time></trkpt><trkpt lat="47.373966579369615" lon="-1.5090234484537588"><ele>6.0</ele><time>2026-03-29T09:08:53.004Z</time></trkpt><trkpt lat="47.37406422854156" lon="-1.5089967101826416"><ele>6.0</ele><time>2026-03-29T09:08:55.004Z</time></trkpt><trkpt lat="47.374168206050406" lon="-1.5090105403228746"><ele>6.0</ele><time>2026-03-29T09:08:57.004Z</time></trkpt><trkpt lat="47.374227717562924" lon="-1.5089755877866493"><ele>6.0</ele><time>2026-03-29T09:08:58.004Z</time></trkpt><trkpt lat="47.37434904561133" lon="-1.5089234523489223"><ele>6.0</ele><time>2026-03-29T09:09:00.004Z</time></trkpt><trkpt lat="47.3744181963125" lon="-1.5089047607048498"><ele>6.0</ele><time>2026-03-29T09:09:01.004Z</time></trkpt><trkpt lat="47.37448223405273" lon="-1.5088868234320625"><ele>6.0</ele><time>2026-03-29T09:09:02.004Z</time></trkpt><trkpt lat="47.37459593456925" lon="-1.5088232886060222"><ele>6.0</ele><time>2026-03-29T09:09:04.004Z</time></trkpt><trkpt lat="47.37471231729479" lon="-1.5087501145913347"><ele>6.0</ele><time>2026-03-29T09:09:06.004Z</time></trkpt><trkpt lat="47.37482790373952" lon="-1.5086848195656284"><ele>6.0</ele><time>2026-03-29T09:09:08.004Z</time></trkpt><trkpt lat="47.37490007192583" lon="-1.5086666308357461"><ele>6.0</ele><time>2026-03-29T09:09:09.004Z</time></trkpt><trkpt lat="47.375015155456374" lon="-1.5086636133506044"><ele>6.0</ele><time>2026-03-29T09:09:11.004Z</time></trkpt><trkpt lat="47.37512650904001" lon="-1.5086821373566135"><ele>6.0</ele><time>2026-03-29T09:09:13.004Z</time></trkpt><trkpt lat="47.375278095758866" lon="-1.5086610149606212"><ele>6.0</ele><time>2026-03-29T09:09:14.004Z</time></trkpt><trkpt lat="47.37539732833148" lon="-1.5086917765452608"><ele>6.0</ele><time>2026-03-29T09:09:16.004Z</time></trkpt><trkpt lat="47.375496234788905" lon="-1.5086921118213876"><ele>6.0</ele><time>2026-03-29T09:09:18.004Z</time></trkpt><trkpt lat="47.375607714101086" lon="-1.5086912736310705"><ele>6.0</ele><time>2026-03-29T09:09:20.004Z</time></trkpt><trkpt lat="47.37570196860225" lon="-1.5086653735502704"><ele>6.0</ele><time>2026-03-29T09:09:22.004Z</time></trkpt><trkpt lat="47.37579517536552" lon="-1.5086031798287374"><ele>6.0</ele><time>2026-03-29T09:09:24.004Z</time></trkpt><trkpt lat="47.37585443542094" lon="-1.5084958914681417"><ele>6.0</ele><time>2026-03-29T09:09:26.004Z</time></trkpt><trkpt lat="47.37591101326735" lon="-1.5083589311703185"><ele>6.0</ele><time>2026-03-29T09:09:28.004Z</time></trkpt><trkpt lat="47.37596381925733" lon="-1.5082437638207415"><ele>6.0</ele><time>2026-03-29T09:09:30.004Z</time></trkpt><trkpt lat="47.376046925827275" lon="-1.5081281773760058"><ele>6.0</ele><time>2026-03-29T09:09:32.004Z</time></trkpt><trkpt lat="47.37611125693412" lon="-1.5080168657018878"><ele>6.0</ele><time>2026-03-29T09:09:34.004Z</time></trkpt><trkpt lat="47.37618526913912" lon="-1.5079004410668349"><ele>6.0</ele><time>2026-03-29T09:09:36.004Z</time></trkpt><trkpt lat="47.37622642428369" lon="-1.5077585354461407"><ele>6.0</ele><time>2026-03-29T09:09:38.004Z</time></trkpt><trkpt lat="47.37626695078553" lon="-1.5076173003777"><ele>6.0</ele><time>2026-03-29T09:09:40.004Z</time></trkpt><trkpt lat="47.37629058775247" lon="-1.5075114369406435"><ele>6.0</ele><time>2026-03-29T09:09:42.004Z</time></trkpt><trkpt lat="47.376332832544456" lon="-1.50738813914499"><ele>6.0</ele><time>2026-03-29T09:09:44.004Z</time></trkpt><trkpt lat="47.37635475122125" lon="-1.507250005380723"><ele>6.0</ele><time>2026-03-29T09:09:46.004Z</time></trkpt><trkpt lat="47.37635181755514" lon="-1.5071458183243005"><ele>6.0</ele><time>2026-03-29T09:09:48.004Z</time></trkpt><trkpt lat="47.37635211092175" lon="-1.5069769229753938"><ele>6.0</ele><time>2026-03-29T09:09:50.004Z</time></trkpt><trkpt lat="47.37637465824128" lon="-1.506846416743013"><ele>6.0</ele><time>2026-03-29T09:09:52.004Z</time></trkpt><trkpt lat="47.37643228382559" lon="-1.5067773498608794"><ele>6.0</ele><time>2026-03-29T09:09:54.004Z</time></trkpt><trkpt lat="47.376515055119405" lon="-1.5067422296865904"><ele>6.0</ele><time>2026-03-29T09:09:56.004Z</time></trkpt><trkpt lat="47.37659321636648" lon="-1.506742062048527"><ele>6.6</ele><time>2026-03-29T09:09:58.004Z</time></trkpt><trkpt lat="47.37668726132007" lon="-1.5067601669593778"><ele>7.199999999999999</ele><time>2026-03-29T09:10:00.004Z</time></trkpt><trkpt lat="47.37678625159653" lon="-1.5067439898862565"><ele>7.800000000000001</ele><time>2026-03-29T09:10:02.004Z</time></trkpt><trkpt lat="47.3768860800633" lon="-1.5067009907229865"><ele>8.4</ele><time>2026-03-29T09:10:04.004Z</time></trkpt><trkpt lat="47.37698410642089" lon="-1.5066966321333373"><ele>9.0</ele><time>2026-03-29T09:10:06.004Z</time></trkpt><trkpt lat="47.37706608143391" lon="-1.5067148208632195"><ele>9.0</ele><time>2026-03-29T09:10:08.004Z</time></trkpt><trkpt lat="47.37715836618783" lon="-1.5067228674902642"><ele>9.0</ele><time>2026-03-29T09:10:10.004Z</time></trkpt><trkpt lat="47.37726246942522" lon="-1.506722364576074"><ele>9.0</ele><time>2026-03-29T09:10:12.004Z</time></trkpt><trkpt lat="47.37734599509032" lon="-1.5067092049880946"><ele>9.0</ele><time>2026-03-29T09:10:14.004Z</time></trkpt><trkpt lat="47.377421641766446" lon="-1.5067127253874266"><ele>9.0</ele><time>2026-03-29T09:10:16.004Z</time></trkpt><trkpt lat="47.37749062482955" lon="-1.5066938661052907"><ele>9.0</ele><time>2026-03-29T09:10:18.004Z</time></trkpt><trkpt lat="47.377556129402834" lon="-1.50668112561247"><ele>9.285714285714286</ele><time>2026-03-29T09:10:20.004Z</time></trkpt><trkpt lat="47.37762347799482" lon="-1.5066668763770783"><ele>9.571428571428571</ele><time>2026-03-29T09:10:22.004Z</time></trkpt><trkpt lat="47.37768780910166" lon="-1.5066548064365113"><ele>9.857142857142858</ele><time>2026-03-29T09:10:24.004Z</time></trkpt><trkpt lat="47.37775813326927" lon="-1.5066380426301682"><ele>10.142857142857142</ele><time>2026-03-29T09:10:26.004Z</time></trkpt><trkpt lat="47.37782531422319" lon="-1.5066159144057953"><ele>10.428571428571429</ele><time>2026-03-29T09:10:28.004Z</time></trkpt><trkpt lat="47.37788910050632" lon="-1.5066004917039597"><ele>10.714285714285715</ele><time>2026-03-29T09:10:30.004Z</time></trkpt><trkpt lat="47.37794945020916" lon="-1.5065704844906056"><ele>11.0</ele><time>2026-03-29T09:10:33.004Z</time></trkpt><trkpt lat="47.37801386513503" lon="-1.5065595880164826"><ele>11.571428571428571</ele><time>2026-03-29T09:10:35.004Z</time></trkpt><trkpt lat="47.378091230101305" lon="-1.5065566543503726"><ele>12.142857142857142</ele><time>2026-03-29T09:10:37.004Z</time></trkpt><trkpt lat="47.3781710258195" lon="-1.5065457578762496"><ele>12.714285714285715</ele><time>2026-03-29T09:10:40.004Z</time></trkpt><trkpt lat="47.37823506355973" lon="-1.5065372921540463"><ele>13.285714285714285</ele><time>2026-03-29T09:10:42.004Z</time></trkpt><trkpt lat="47.378299227028506" lon="-1.506525892765733"><ele>13.857142857142856</ele><time>2026-03-29T09:10:44.004Z</time></trkpt><trkpt lat="47.378382710784095" lon="-1.506509380416485"><ele>14.428571428571429</ele><time>2026-03-29T09:10:47.004Z</time></trkpt><trkpt lat="47.37844863445254" lon="-1.506502842532011"><ele>15.0</ele><time>2026-03-29T09:10:49.004Z</time></trkpt><trkpt lat="47.37853664443584" lon="-1.506493706257554"><ele>15.0</ele><time>2026-03-29T09:10:51.004Z</time></trkpt><trkpt lat="47.378642130687254" lon="-1.5064823906882725"><ele>15.0</ele><time>2026-03-29T09:10:53.004Z</time></trkpt><trkpt lat="47.37875176598074" lon="-1.506461938844534"><ele>15.0</ele><time>2026-03-29T09:10:55.001Z</time></trkpt><trkpt lat="47.378815636082905" lon="-1.506452802570077"><ele>15.0</ele><time>2026-03-29T09:10:56.001Z</time></trkpt><trkpt lat="47.37888298467489" lon="-1.5064453426762543"><ele>15.0</ele><time>2026-03-29T09:10:57.001Z</time></trkpt><trkpt lat="47.37899660137238" lon="-1.506471913309308"><ele>14.8</ele><time>2026-03-29T09:10:59.001Z</time></trkpt><trkpt lat="47.37910099797638" lon="-1.5065510384752476"><ele>14.6</ele><time>2026-03-29T09:11:01.001Z</time></trkpt><trkpt lat="47.3791750520909" lon="-1.5066429879530394"><ele>14.399999999999999</ele><time>2026-03-29T09:11:03.001Z</time></trkpt><trkpt lat="47.37925861966552" lon="-1.506693782286259"><ele>14.2</ele><time>2026-03-29T09:11:05.001Z</time></trkpt><trkpt lat="47.3793634772742" lon="-1.506671067328664"><ele>14.0</ele><time>2026-03-29T09:11:07.001Z</time></trkpt><trkpt lat="47.37947411839606" lon="-1.5065257251276696"><ele>14.000000000000002</ele><time>2026-03-29T09:11:09.001Z</time></trkpt><trkpt lat="47.37955290828587" lon="-1.5064729191376887"><ele>14.0</ele><time>2026-03-29T09:11:11Z</time></trkpt><trkpt lat="47.37960009840073" lon="-1.5065621864064658"><ele>14.0</ele><time>2026-03-29T09:11:12Z</time></trkpt><trkpt lat="47.37965068318637" lon="-1.5066683851196492"><ele>14.0</ele><time>2026-03-29T09:11:13Z</time></trkpt><trkpt lat="47.3797033634478" lon="-1.506737954915973"><ele>14.000000000000002</ele><time>2026-03-29T09:11:14Z</time></trkpt><trkpt lat="47.379775489724594" lon="-1.5068646892919269"><ele>14.0</ele><time>2026-03-29T09:11:15Z</time></trkpt><trkpt lat="47.37983005591424" lon="-1.506925290451857"><ele>12.75</ele><time>2026-03-29T09:11:16Z</time></trkpt><trkpt lat="47.37990796570422" lon="-1.5070241969092815"><ele>11.5</ele><time>2026-03-29T09:11:18Z</time></trkpt><trkpt lat="47.380003938495534" lon="-1.507136262954685"><ele>10.25</ele><time>2026-03-29T09:11:20Z</time></trkpt><trkpt lat="47.380127068653124" lon="-1.507144225762698"><ele>9.0</ele><time>2026-03-29T09:11:22Z</time></trkpt><trkpt lat="47.3802467203209" lon="-1.5071394480778901"><ele>9.0</ele><time>2026-03-29T09:11:24Z</time></trkpt><trkpt lat="47.38033175472857" lon="-1.5071790944798915"><ele>9.0</ele><time>2026-03-29T09:11:26Z</time></trkpt><trkpt lat="47.38045237031521" lon="-1.507166018710944"><ele>9.0</ele><time>2026-03-29T09:11:28Z</time></trkpt><trkpt lat="47.38055253405811" lon="-1.50715067982814"><ele>9.0</ele><time>2026-03-29T09:11:30Z</time></trkpt><trkpt lat="47.380648297301846" lon="-1.5071440581246345"><ele>9.0</ele><time>2026-03-29T09:11:32Z</time></trkpt><trkpt lat="47.38076530867012" lon="-1.5072319842889041"><ele>8.2</ele><time>2026-03-29T09:11:34Z</time></trkpt><trkpt lat="47.380853402472454" lon="-1.5073102712645263"><ele>7.4</ele><time>2026-03-29T09:11:36Z</time></trkpt><trkpt lat="47.380927540406006" lon="-1.5074263606234521"><ele>6.6</ele><time>2026-03-29T09:11:38Z</time></trkpt><trkpt lat="47.38098160368146" lon="-1.5074846148504946"><ele>5.8</ele><time>2026-03-29T09:11:39Z</time></trkpt><trkpt lat="47.38109056842269" lon="-1.5075909812017414"><ele>5.0</ele><time>2026-03-29T09:11:41Z</time></trkpt><trkpt lat="47.38114282958897" lon="-1.507643787191722"><ele>5.0</ele><time>2026-03-29T09:11:42Z</time></trkpt><trkpt lat="47.3812095076287" lon="-1.5076634846641752"><ele>5.0</ele><time>2026-03-29T09:11:43Z</time></trkpt><trkpt lat="47.38133100331517" lon="-1.5077064000084137"><ele>5.0</ele><time>2026-03-29T09:11:45Z</time></trkpt><trkpt lat="47.38143770494254" lon="-1.5077432803823685"><ele>5.0</ele><time>2026-03-29T09:11:47Z</time></trkpt><trkpt lat="47.38150279042067" lon="-1.5077385865165924"><ele>5.0</ele><time>2026-03-29T09:11:48Z</time></trkpt><trkpt lat="47.38159406934621" lon="-1.507766414435122"><ele>5.2</ele><time>2026-03-29T09:11:50Z</time></trkpt><trkpt lat="47.381666614718156" lon="-1.5078107547028994"><ele>5.4</ele><time>2026-03-29T09:11:51Z</time></trkpt><trkpt lat="47.38176329997124" lon="-1.5078896284117436"><ele>5.6</ele><time>2026-03-29T09:11:53Z</time></trkpt><trkpt lat="47.38185457889678" lon="-1.5079859364791848"><ele>5.8</ele><time>2026-03-29T09:11:55Z</time></trkpt><trkpt lat="47.38197934352549" lon="-1.5080964099629857"><ele>6.0</ele><time>2026-03-29T09:11:57Z</time></trkpt><trkpt lat="47.38207732797356" lon="-1.5081932209446172"><ele>6.0</ele><time>2026-03-29T09:11:59Z</time></trkpt><trkpt lat="47.382140234156864" lon="-1.508285170422409"><ele>6.0</ele><time>2026-03-29T09:12:01Z</time></trkpt><trkpt lat="47.38220309843065" lon="-1.5083197038634757"><ele>6.0</ele><time>2026-03-29T09:12:02Z</time></trkpt><trkpt lat="47.38225489859225" lon="-1.508379131556962"><ele>6.0</ele><time>2026-03-29T09:12:03Z</time></trkpt><trkpt lat="47.382322540550845" lon="-1.5085001662387592"><ele>6.0</ele><time>2026-03-29T09:12:05Z</time></trkpt><trkpt lat="47.38238737457188" lon="-1.5086424071355802"><ele>6.0</ele><time>2026-03-29T09:12:07Z</time></trkpt><trkpt lat="47.382447891912776" lon="-1.5088199358447536"><ele>6.0</ele><time>2026-03-29T09:12:09Z</time></trkpt><trkpt lat="47.38249902152212" lon="-1.5089988894774662"><ele>6.0</ele><time>2026-03-29T09:12:11Z</time></trkpt><trkpt lat="47.382537243000584" lon="-1.509165102617358"><ele>6.0</ele><time>2026-03-29T09:12:13Z</time></trkpt><trkpt lat="47.38257391382696" lon="-1.5093133784844626"><ele>6.0</ele><time>2026-03-29T09:12:15Z</time></trkpt><trkpt lat="47.38260781862529" lon="-1.5094539430006495"><ele>6.0</ele><time>2026-03-29T09:12:17Z</time></trkpt><trkpt lat="47.38263807729574" lon="-1.5095419529839507"><ele>6.0</ele><time>2026-03-29T09:12:18Z</time></trkpt><trkpt lat="47.38268367484899" lon="-1.5096891392036431"><ele>6.0</ele><time>2026-03-29T09:12:20Z</time></trkpt><trkpt lat="47.38272780556919" lon="-1.5098530892296786"><ele>6.0</ele><time>2026-03-29T09:12:22Z</time></trkpt><trkpt lat="47.38276330292912" lon="-1.509998179973578"><ele>6.0</ele><time>2026-03-29T09:12:24Z</time></trkpt><trkpt lat="47.38283769231977" lon="-1.510096332059717"><ele>6.199999999999999</ele><time>2026-03-29T09:12:26Z</time></trkpt><trkpt lat="47.38293814942928" lon="-1.5101439412697313"><ele>6.3999999999999995</ele><time>2026-03-29T09:12:28Z</time></trkpt><trkpt lat="47.383020962632614" lon="-1.510245613755202"><ele>6.6</ele><time>2026-03-29T09:12:30Z</time></trkpt><trkpt lat="47.3830795940453" lon="-1.5103973262026071"><ele>6.8</ele><time>2026-03-29T09:12:32Z</time></trkpt><trkpt lat="47.38315092404129" lon="-1.510461866857028"><ele>7.0</ele><time>2026-03-29T09:12:34Z</time></trkpt><trkpt lat="47.3832548177311" lon="-1.5104816481485128"><ele>7.25</ele><time>2026-03-29T09:12:36Z</time></trkpt><trkpt lat="47.38337178718986" lon="-1.5104865096523523"><ele>7.5</ele><time>2026-03-29T09:12:38Z</time></trkpt><trkpt lat="47.38347375304194" lon="-1.5105289220824003"><ele>7.75</ele><time>2026-03-29T09:12:40Z</time></trkpt><trkpt lat="47.38357622180821" lon="-1.5106051974012615"><ele>8.0</ele><time>2026-03-29T09:12:42Z</time></trkpt><trkpt lat="47.383638625077324" lon="-1.5107577480389836"><ele>7.999999999999999</ele><time>2026-03-29T09:12:44Z</time></trkpt><trkpt lat="47.38368832976313" lon="-1.5109059400870566"><ele>8.0</ele><time>2026-03-29T09:12:46Z</time></trkpt><trkpt lat="47.38372122873308" lon="-1.5109936147942309"><ele>8.0</ele><time>2026-03-29T09:12:47Z</time></trkpt><trkpt lat="47.3837614618683" lon="-1.5110942814513213"><ele>8.0</ele><time>2026-03-29T09:12:48Z</time></trkpt><trkpt lat="47.38379322928132" lon="-1.511186230929113"><ele>7.999999999999999</ele><time>2026-03-29T09:12:49Z</time></trkpt><trkpt lat="47.383820847652274" lon="-1.5112700499608285"><ele>8.0</ele><time>2026-03-29T09:12:50Z</time></trkpt><trkpt lat="47.38386854068132" lon="-1.511407513172842"><ele>7.4</ele><time>2026-03-29T09:12:52Z</time></trkpt><trkpt lat="47.38390240357013" lon="-1.5114926733090648"><ele>6.800000000000001</ele><time>2026-03-29T09:12:53Z</time></trkpt><trkpt lat="47.38402048301762" lon="-1.5115911590249178"><ele>6.2</ele><time>2026-03-29T09:12:55Z</time></trkpt><trkpt lat="47.384005165703016" lon="-1.5117122791721593"><ele>5.6</ele><time>2026-03-29T09:12:56Z</time></trkpt><trkpt lat="47.384041585072296" lon="-1.5118545200689806"><ele>5.0</ele><time>2026-03-29T09:12:58Z</time></trkpt><trkpt lat="47.3841137532586" lon="-1.5119343157871736"><ele>5.0</ele><time>2026-03-29T09:13:00Z</time></trkpt><trkpt lat="47.3841486219758" lon="-1.5120492316796557"><ele>5.0</ele><time>2026-03-29T09:13:02Z</time></trkpt><trkpt lat="47.38421974242421" lon="-1.5121385827674643"><ele>5.0</ele><time>2026-03-29T09:13:04Z</time></trkpt><trkpt lat="47.38429383844825" lon="-1.51224536821387"><ele>5.0</ele><time>2026-03-29T09:13:06Z</time></trkpt><trkpt lat="47.384349242828215" lon="-1.5123949851854819"><ele>5.0</ele><time>2026-03-29T09:13:08Z</time></trkpt><trkpt lat="47.38439752259048" lon="-1.512554325164773"><ele>5.25</ele><time>2026-03-29T09:13:10Z</time></trkpt><trkpt lat="47.38446344625893" lon="-1.5126925427480717"><ele>5.5</ele><time>2026-03-29T09:13:12Z</time></trkpt><trkpt lat="47.38453008238914" lon="-1.5128360409303687"><ele>5.75</ele><time>2026-03-29T09:13:14Z</time></trkpt><trkpt lat="47.38461247649732" lon="-1.512967636810162"><ele>6.0</ele><time>2026-03-29T09:13:16Z</time></trkpt><trkpt lat="47.384692230305994" lon="-1.5130709018572355"><ele>6.199999999999999</ele><time>2026-03-29T09:13:18Z</time></trkpt><trkpt lat="47.38479092721584" lon="-1.5131286531700874"><ele>6.3999999999999995</ele><time>2026-03-29T09:13:20Z</time></trkpt><trkpt lat="47.38485475540849" lon="-1.513226637618163"><ele>6.6</ele><time>2026-03-29T09:13:22Z</time></trkpt><trkpt lat="47.38492453475239" lon="-1.5133339259787586"><ele>6.8</ele><time>2026-03-29T09:13:24Z</time></trkpt><trkpt lat="47.384987357116664" lon="-1.5134368557497053"><ele>7.0</ele><time>2026-03-29T09:13:26Z</time></trkpt><trkpt lat="47.385052191137696" lon="-1.5135317388936071"><ele>7.0</ele><time>2026-03-29T09:13:28Z</time></trkpt><trkpt lat="47.38512142565789" lon="-1.5136185754104643"><ele>6.999999999999999</ele><time>2026-03-29T09:13:30Z</time></trkpt><trkpt lat="47.385145984634185" lon="-1.51374832727156"><ele>6.999999999999999</ele><time>2026-03-29T09:13:32Z</time></trkpt><trkpt lat="47.385173393457556" lon="-1.5138676855727227"><ele>7.0</ele><time>2026-03-29T09:13:34Z</time></trkpt><trkpt lat="47.3852263670856" lon="-1.5139846131219659"><ele>7.0</ele><time>2026-03-29T09:13:36Z</time></trkpt><trkpt lat="47.38528667487892" lon="-1.5140878781690392"><ele>7.0</ele><time>2026-03-29T09:13:38Z</time></trkpt><trkpt lat="47.38529819999578" lon="-1.5141859464361465"><ele>6.999999999999999</ele><time>2026-03-29T09:13:39Z</time></trkpt><trkpt lat="47.38538197711798" lon="-1.5142543427660262"><ele>6.999999999999999</ele><time>2026-03-29T09:13:41Z</time></trkpt><trkpt lat="47.38541860603484" lon="-1.5144133474691905"><ele>7.0</ele><time>2026-03-29T09:13:43Z</time></trkpt><trkpt lat="47.3854681849921" lon="-1.514542512597064"><ele>7.0</ele><time>2026-03-29T09:13:45Z</time></trkpt><trkpt lat="47.3855191888729" lon="-1.5146928001209299"><ele>6.8</ele><time>2026-03-29T09:13:47Z</time></trkpt><trkpt lat="47.385571617677236" lon="-1.514827916400055"><ele>6.6</ele><time>2026-03-29T09:13:49Z</time></trkpt><trkpt lat="47.38559990660044" lon="-1.5149313490851921"><ele>6.3999999999999995</ele><time>2026-03-29T09:13:50Z</time></trkpt><trkpt lat="47.38565786746087" lon="-1.5150751825436157"><ele>6.199999999999999</ele><time>2026-03-29T09:13:52Z</time></trkpt><trkpt lat="47.38570099235269" lon="-1.5152201894684836"><ele>6.0</ele><time>2026-03-29T09:13:54Z</time></trkpt><trkpt lat="47.38575803120377" lon="-1.5153446607305812"><ele>6.199999999999999</ele><time>2026-03-29T09:13:56Z</time></trkpt><trkpt lat="47.38577777058574" lon="-1.5154418069883393"><ele>6.3999999999999995</ele><time>2026-03-29T09:13:57Z</time></trkpt><trkpt lat="47.38582856491896" lon="-1.5155946090831567"><ele>6.6</ele><time>2026-03-29T09:13:59Z</time></trkpt><trkpt lat="47.38586448137405" lon="-1.5157197508975078"><ele>6.8</ele><time>2026-03-29T09:14:01Z</time></trkpt><trkpt lat="47.38592172977271" lon="-1.5158344153328946"><ele>7.0</ele><time>2026-03-29T09:14:03Z</time></trkpt><trkpt lat="47.38597830761912" lon="-1.5159570425762943"><ele>7.0</ele><time>2026-03-29T09:14:05Z</time></trkpt><trkpt lat="47.38602604255768" lon="-1.516089392827373"><ele>6.999999999999999</ele><time>2026-03-29T09:14:07Z</time></trkpt><trkpt lat="47.38607964482846" lon="-1.5162237547352129"><ele>6.999999999999999</ele><time>2026-03-29T09:14:09Z</time></trkpt><trkpt lat="47.386111789427126" lon="-1.5163149498417194"><ele>7.0</ele><time>2026-03-29T09:14:10Z</time></trkpt><trkpt lat="47.386174737519944" lon="-1.516460878775936"><ele>7.0</ele><time>2026-03-29T09:14:12Z</time></trkpt><trkpt lat="47.3862280045146" lon="-1.5165765490397034"><ele>7.199999999999999</ele><time>2026-03-29T09:14:14Z</time></trkpt><trkpt lat="47.38628282216134" lon="-1.5167420078083096"><ele>7.3999999999999995</ele><time>2026-03-29T09:14:16Z</time></trkpt><trkpt lat="47.38634120211693" lon="-1.516883326695782"><ele>7.6000000000000005</ele><time>2026-03-29T09:14:18Z</time></trkpt><trkpt lat="47.38638700921776" lon="-1.517034787686092"><ele>7.800000000000001</ele><time>2026-03-29T09:14:20Z</time></trkpt><trkpt lat="47.386435205161" lon="-1.517162276433331"><ele>8.0</ele><time>2026-03-29T09:14:22Z</time></trkpt><trkpt lat="47.38649287265482" lon="-1.5173113066717212"><ele>8.0</ele><time>2026-03-29T09:14:24Z</time></trkpt><trkpt lat="47.38654232588353" lon="-1.517457151786906"><ele>8.0</ele><time>2026-03-29T09:14:26Z</time></trkpt><trkpt lat="47.386599071368" lon="-1.5175551362349815"><ele>8.0</ele><time>2026-03-29T09:14:28Z</time></trkpt><trkpt lat="47.38664328590723" lon="-1.517703998835308"><ele>8.0</ele><time>2026-03-29T09:14:30Z</time></trkpt><trkpt lat="47.386704389981354" lon="-1.5178215131177732"><ele>8.0</ele><time>2026-03-29T09:14:32Z</time></trkpt><trkpt lat="47.38675074190589" lon="-1.5179798472686838"><ele>7.999999999999999</ele><time>2026-03-29T09:14:34Z</time></trkpt><trkpt lat="47.38678699363711" lon="-1.5181460604085755"><ele>8.0</ele><time>2026-03-29T09:14:36Z</time></trkpt><trkpt lat="47.38685161811056" lon="-1.5182478167130782"><ele>8.0</ele><time>2026-03-29T09:14:38Z</time></trkpt><trkpt lat="47.38687299196365" lon="-1.518336245791538"><ele>8.0</ele><time>2026-03-29T09:14:39Z</time></trkpt><trkpt lat="47.386899227320576" lon="-1.5184211544706656"><ele>7.999999999999999</ele><time>2026-03-29T09:14:40Z</time></trkpt><trkpt lat="47.38694985401573" lon="-1.5185426920666532"><ele>8.0</ele><time>2026-03-29T09:14:42Z</time></trkpt><trkpt lat="47.3869946971977" lon="-1.518693314866646"><ele>8.0</ele><time>2026-03-29T09:14:44Z</time></trkpt><trkpt lat="47.38705219705346" lon="-1.5188442729427654"><ele>8.0</ele><time>2026-03-29T09:14:46Z</time></trkpt><trkpt lat="47.387118372178996" lon="-1.5190068818642934"><ele>8.0</ele><time>2026-03-29T09:14:48Z</time></trkpt><trkpt lat="47.387151774063135" lon="-1.5190954785808166"><ele>8.0</ele><time>2026-03-29T09:14:49Z</time></trkpt><trkpt lat="47.38719519232156" lon="-1.5192572493120275"><ele>8.0</ele><time>2026-03-29T09:14:51Z</time></trkpt><trkpt lat="47.38725432664844" lon="-1.519411476330384"><ele>7.800000000000001</ele><time>2026-03-29T09:14:53Z</time></trkpt><trkpt lat="47.38729661334994" lon="-1.5195823833360518"><ele>7.6000000000000005</ele><time>2026-03-29T09:14:55Z</time></trkpt><trkpt lat="47.38735520285311" lon="-1.5196889173253623"><ele>7.3999999999999995</ele><time>2026-03-29T09:14:57Z</time></trkpt><trkpt lat="47.38741328944209" lon="-1.5198297332986441"><ele>7.199999999999999</ele><time>2026-03-29T09:14:59Z</time></trkpt><trkpt lat="47.38743856088015" lon="-1.5199646819397061"><ele>7.0</ele><time>2026-03-29T09:15:01Z</time></trkpt><trkpt lat="47.38748793028983" lon="-1.5201189927770944"><ele>7.0</ele><time>2026-03-29T09:15:03Z</time></trkpt><trkpt lat="47.3875393951753" lon="-1.5202603116645665"><ele>6.999999999999999</ele><time>2026-03-29T09:15:05Z</time></trkpt><trkpt lat="47.38758071795794" lon="-1.5204031392946098"><ele>6.999999999999999</ele><time>2026-03-29T09:15:07Z</time></trkpt><trkpt lat="47.38760879733356" lon="-1.5205470565720651"><ele>7.0</ele><time>2026-03-29T09:15:09Z</time></trkpt><trkpt lat="47.38763616424742" lon="-1.5206912253066158"><ele>7.0</ele><time>2026-03-29T09:15:11Z</time></trkpt><trkpt lat="47.387676020197" lon="-1.5208447817727186"><ele>7.199999999999999</ele><time>2026-03-29T09:15:13Z</time></trkpt><trkpt lat="47.38768943124207" lon="-1.5209891181453326"><ele>7.3999999999999995</ele><time>2026-03-29T09:15:15.001Z</time></trkpt><trkpt lat="47.38771537323239" lon="-1.521141333506928"><ele>7.6000000000000005</ele><time>2026-03-29T09:15:17.001Z</time></trkpt><trkpt lat="47.38774408125075" lon="-1.5212675649686913"><ele>7.800000000000001</ele><time>2026-03-29T09:15:19.001Z</time></trkpt><trkpt lat="47.387758917219365" lon="-1.521420283244477"><ele>8.0</ele><time>2026-03-29T09:15:21.001Z</time></trkpt><trkpt lat="47.387809292457426" lon="-1.5215350314988956"><ele>8.0</ele><time>2026-03-29T09:15:23.001Z</time></trkpt><trkpt lat="47.38783695273789" lon="-1.521686576308237"><ele>8.0</ele><time>2026-03-29T09:15:25.001Z</time></trkpt><trkpt lat="47.387867672413016" lon="-1.5218304097666608"><ele>8.0</ele><time>2026-03-29T09:15:27.001Z</time></trkpt><trkpt lat="47.387879616625035" lon="-1.5219220239683258"><ele>8.0</ele><time>2026-03-29T09:15:28.001Z</time></trkpt><trkpt lat="47.38790052947345" lon="-1.5220490098013748"><ele>8.0</ele><time>2026-03-29T09:15:30.001Z</time></trkpt><trkpt lat="47.38792031076493" lon="-1.5222122054561247"><ele>8.0</ele><time>2026-03-29T09:15:32.001Z</time></trkpt><trkpt lat="47.38793288361969" lon="-1.5223720483496062"><ele>8.0</ele><time>2026-03-29T09:15:34.001Z</time></trkpt><trkpt lat="47.387958951338554" lon="-1.5225460566594475"><ele>8.0</ele><time>2026-03-29T09:15:36.001Z</time></trkpt><trkpt lat="47.387998891107166" lon="-1.522684358061778"><ele>8.0</ele><time>2026-03-29T09:15:38.001Z</time></trkpt><trkpt lat="47.388028940230036" lon="-1.522833723576295"><ele>8.0</ele><time>2026-03-29T09:15:40.001Z</time></trkpt><trkpt lat="47.38805098463538" lon="-1.5230029542013286"><ele>8.200000000000001</ele><time>2026-03-29T09:15:42.001Z</time></trkpt><trkpt lat="47.38806271929982" lon="-1.5231653116657613"><ele>8.4</ele><time>2026-03-29T09:15:44.001Z</time></trkpt><trkpt lat="47.3880930617893" lon="-1.5233146771802784"><ele>8.600000000000001</ele><time>2026-03-29T09:15:46.001Z</time></trkpt><trkpt lat="47.38809695937427" lon="-1.5234783757492187"><ele>8.8</ele><time>2026-03-29T09:15:48.001Z</time></trkpt><trkpt lat="47.38812139262202" lon="-1.5236203651889446"><ele>9.0</ele><time>2026-03-29T09:15:50.001Z</time></trkpt><trkpt lat="47.38816703208479" lon="-1.5237433277084713"><ele>9.2</ele><time>2026-03-29T09:15:52.001Z</time></trkpt><trkpt lat="47.38818086222502" lon="-1.5239133965238219"><ele>9.4</ele><time>2026-03-29T09:15:54.001Z</time></trkpt><trkpt lat="47.38819196824672" lon="-1.5240816213204749"><ele>9.6</ele><time>2026-03-29T09:15:56.001Z</time></trkpt><trkpt lat="47.38820718140098" lon="-1.5241981297745595"><ele>9.8</ele><time>2026-03-29T09:15:58.001Z</time></trkpt><trkpt lat="47.38822319083604" lon="-1.5243565477445016"><ele>10.0</ele><time>2026-03-29T09:16:00.001Z</time></trkpt><trkpt lat="47.38824372649881" lon="-1.5245398599668634"><ele>10.2</ele><time>2026-03-29T09:16:02.001Z</time></trkpt><trkpt lat="47.388260448395634" lon="-1.524686124177207"><ele>10.4</ele><time>2026-03-29T09:16:04.001Z</time></trkpt><trkpt lat="47.38828383390548" lon="-1.5248349029585018"><ele>10.600000000000001</ele><time>2026-03-29T09:16:06.001Z</time></trkpt><trkpt lat="47.38830206454488" lon="-1.5250075701638357"><ele>10.8</ele><time>2026-03-29T09:16:08.001Z</time></trkpt><trkpt lat="47.388323522217" lon="-1.5251552592977184"><ele>11.0</ele><time>2026-03-29T09:16:10.001Z</time></trkpt><trkpt lat="47.38834569235089" lon="-1.5252845920636553"><ele>10.833333333333332</ele><time>2026-03-29T09:16:12.001Z</time></trkpt><trkpt lat="47.38837473564538" lon="-1.525415517391195"><ele>10.666666666666666</ele><time>2026-03-29T09:16:14.001Z</time></trkpt><trkpt lat="47.388385296843374" lon="-1.5255247335895201"><ele>10.5</ele><time>2026-03-29T09:16:16.001Z</time></trkpt><trkpt lat="47.38841823772284" lon="-1.5256192814572953"><ele>10.333333333333334</ele><time>2026-03-29T09:16:19.001Z</time></trkpt><trkpt lat="47.38843613308611" lon="-1.5257383044823312"><ele>10.166666666666668</ele><time>2026-03-29T09:16:25.001Z</time></trkpt><trkpt lat="47.38845243588778" lon="-1.5258561540409232"><ele>10.0</ele><time>2026-03-29T09:16:27.001Z</time></trkpt><trkpt lat="47.388468361503804" lon="-1.5259817149504329"><ele>10.0</ele><time>2026-03-29T09:16:29.001Z</time></trkpt><trkpt lat="47.38849639896991" lon="-1.5261306613697914"><ele>10.0</ele><time>2026-03-29T09:16:31.001Z</time></trkpt><trkpt lat="47.38851953302267" lon="-1.5262439847006706"><ele>10.0</ele><time>2026-03-29T09:16:33.001Z</time></trkpt><trkpt lat="47.388563957109476" lon="-1.5263806935413986"><ele>10.0</ele><time>2026-03-29T09:16:35.001Z</time></trkpt><trkpt lat="47.38860553134921" lon="-1.52651220560216"><ele>10.0</ele><time>2026-03-29T09:16:37.001Z</time></trkpt><trkpt lat="47.38866386939528" lon="-1.5266210865243586"><ele>10.4</ele><time>2026-03-29T09:16:39.001Z</time></trkpt><trkpt lat="47.38871910613718" lon="-1.5267536044135006"><ele>10.8</ele><time>2026-03-29T09:16:41.001Z</time></trkpt><trkpt lat="47.3887595907295" lon="-1.5269023831947957"><ele>11.2</ele><time>2026-03-29T09:16:43.001Z</time></trkpt><trkpt lat="47.38879324407073" lon="-1.5270179696395314"><ele>11.6</ele><time>2026-03-29T09:16:45.001Z</time></trkpt><trkpt lat="47.38881080415788" lon="-1.527185104788772"><ele>12.0</ele><time>2026-03-29T09:16:47.001Z</time></trkpt><trkpt lat="47.38881474365237" lon="-1.5273358114077964"><ele>12.5</ele><time>2026-03-29T09:16:49.001Z</time></trkpt><trkpt lat="47.38883213610145" lon="-1.5274299401804128"><ele>13.0</ele><time>2026-03-29T09:16:51.001Z</time></trkpt><trkpt lat="47.38882656213584" lon="-1.5275362227126281"><ele>13.5</ele><time>2026-03-29T09:16:52.001Z</time></trkpt><trkpt lat="47.38881432455721" lon="-1.5276798047139566"><ele>14.0</ele><time>2026-03-29T09:16:54.001Z</time></trkpt><trkpt lat="47.38879743502232" lon="-1.5277824830278082"><ele>14.5</ele><time>2026-03-29T09:16:55.001Z</time></trkpt><trkpt lat="47.38877262458893" lon="-1.527933608741991"><ele>15.0</ele><time>2026-03-29T09:16:57.001Z</time></trkpt><trkpt lat="47.388765290423656" lon="-1.5280757658197806"><ele>15.0</ele><time>2026-03-29T09:16:59.001Z</time></trkpt><trkpt lat="47.388745383403624" lon="-1.5281746722772047"><ele>15.0</ele><time>2026-03-29T09:17:00.001Z</time></trkpt><trkpt lat="47.38870896403434" lon="-1.5283543802812027"><ele>15.0</ele><time>2026-03-29T09:17:02.001Z</time></trkpt><trkpt lat="47.38867702898326" lon="-1.5284745767726828"><ele>15.0</ele><time>2026-03-29T09:17:04.001Z</time></trkpt><trkpt lat="47.38863968760463" lon="-1.5286340005710055"><ele>15.0</ele><time>2026-03-29T09:17:06.001Z</time></trkpt><trkpt lat="47.388631640977586" lon="-1.5287530235960416"><ele>14.8</ele><time>2026-03-29T09:17:08.001Z</time></trkpt><trkpt lat="47.38861248832884" lon="-1.528851259501212"><ele>14.6</ele><time>2026-03-29T09:17:09.001Z</time></trkpt><trkpt lat="47.38858315166774" lon="-1.5289623197182352"><ele>14.399999999999999</ele><time>2026-03-29T09:17:11.001Z</time></trkpt><trkpt lat="47.388557503044034" lon="-1.5291651617749866"><ele>14.2</ele><time>2026-03-29T09:17:14.001Z</time></trkpt><trkpt lat="47.38854233179929" lon="-1.5293269325061973"><ele>14.0</ele><time>2026-03-29T09:17:16.001Z</time></trkpt><trkpt lat="47.38852586135956" lon="-1.5294939838364063"><ele>14.0</ele><time>2026-03-29T09:17:18.001Z</time></trkpt><trkpt lat="47.388562699824" lon="-1.5296082291766344"><ele>13.999999999999998</ele><time>2026-03-29T09:17:20.001Z</time></trkpt><trkpt lat="47.38863151524904" lon="-1.5296583529576004"><ele>13.999999999999998</ele><time>2026-03-29T09:17:22.001Z</time></trkpt><trkpt lat="47.38872820050212" lon="-1.5296881925328911"><ele>14.0</ele><time>2026-03-29T09:17:24.001Z</time></trkpt><trkpt lat="47.388851707845355" lon="-1.5297224745168627"><ele>14.0</ele><time>2026-03-29T09:17:26.001Z</time></trkpt><trkpt lat="47.388920690908456" lon="-1.5297364722951592"><ele>13.6</ele><time>2026-03-29T09:17:27.001Z</time></trkpt><trkpt lat="47.38902990710678" lon="-1.529756840319866"><ele>13.2</ele><time>2026-03-29T09:17:29.001Z</time></trkpt><trkpt lat="47.3891430627996" lon="-1.529800426216358"><ele>12.799999999999999</ele><time>2026-03-29T09:17:31.001Z</time></trkpt><trkpt lat="47.38924691457989" lon="-1.529831942172283"><ele>12.399999999999999</ele><time>2026-03-29T09:17:33.001Z</time></trkpt><trkpt lat="47.389359190172875" lon="-1.529831355439061"><ele>12.0</ele><time>2026-03-29T09:17:35.001Z</time></trkpt><trkpt lat="47.389442967295075" lon="-1.5298932138844672"><ele>12.0</ele><time>2026-03-29T09:17:37.001Z</time></trkpt><trkpt lat="47.38955339886936" lon="-1.5299626998617593"><ele>12.0</ele><time>2026-03-29T09:17:39.001Z</time></trkpt><trkpt lat="47.38964061257186" lon="-1.5300704073175135"><ele>12.0</ele><time>2026-03-29T09:17:41.001Z</time></trkpt><trkpt lat="47.38969325092378" lon="-1.5302110556527322"><ele>12.0</ele><time>2026-03-29T09:17:43.001Z</time></trkpt><trkpt lat="47.38971575633379" lon="-1.5303767658784337"><ele>12.2</ele><time>2026-03-29T09:17:45.001Z</time></trkpt><trkpt lat="47.38973754928204" lon="-1.530509199948544"><ele>12.399999999999999</ele><time>2026-03-29T09:17:47.001Z</time></trkpt><trkpt lat="47.389737800739134" lon="-1.5306673664613912"><ele>12.600000000000001</ele><time>2026-03-29T09:17:49.001Z</time></trkpt><trkpt lat="47.38974614073279" lon="-1.5308153908714006"><ele>12.8</ele><time>2026-03-29T09:17:51.001Z</time></trkpt><trkpt lat="47.3897414049575" lon="-1.5309560392066193"><ele>13.0</ele><time>2026-03-29T09:17:53.001Z</time></trkpt><trkpt lat="47.389736166268015" lon="-1.5310858748867466"><ele>13.4</ele><time>2026-03-29T09:17:55.001Z</time></trkpt><trkpt lat="47.389728371098066" lon="-1.531244209037657"><ele>13.8</ele><time>2026-03-29T09:17:57.001Z</time></trkpt><trkpt lat="47.38972912546935" lon="-1.5313708595945792"><ele>14.2</ele><time>2026-03-29T09:17:59.001Z</time></trkpt><trkpt lat="47.38973419652077" lon="-1.5314882062389807"><ele>14.6</ele><time>2026-03-29T09:18:01.001Z</time></trkpt><trkpt lat="47.389720575928116" lon="-1.5316297765835483"><ele>15.0</ele><time>2026-03-29T09:18:03.001Z</time></trkpt><trkpt lat="47.389708757444645" lon="-1.531776543708082"><ele>15.0</ele><time>2026-03-29T09:18:05.001Z</time></trkpt><trkpt lat="47.38969790288004" lon="-1.5318975783898792"><ele>15.0</ele><time>2026-03-29T09:18:07.001Z</time></trkpt><trkpt lat="47.38967925314548" lon="-1.5320389810963833"><ele>15.0</ele><time>2026-03-29T09:18:09.001Z</time></trkpt><trkpt lat="47.38970456649306" lon="-1.532150376589533"><ele>15.0</ele><time>2026-03-29T09:18:11.001Z</time></trkpt><trkpt lat="47.389770154885376" lon="-1.5321585908546411"><ele>15.0</ele><time>2026-03-29T09:18:13.001Z</time></trkpt><trkpt lat="47.38982740328404" lon="-1.5321021806462967"><ele>15.0</ele><time>2026-03-29T09:18:15.001Z</time></trkpt><trkpt lat="47.389872162646974" lon="-1.531986007468339"><ele>15.0</ele><time>2026-03-29T09:18:17.001Z</time></trkpt><trkpt lat="47.38993054260256" lon="-1.5318442694857082"><ele>15.0</ele><time>2026-03-29T09:18:19.001Z</time></trkpt><trkpt lat="47.38998075020256" lon="-1.5317474585040767"><ele>15.0</ele><time>2026-03-29T09:18:21.001Z</time></trkpt><trkpt lat="47.390021276704395" lon="-1.5316755417748649"><ele>15.0</ele><time>2026-03-29T09:18:22.001Z</time></trkpt><trkpt lat="47.39008787092509" lon="-1.5315490588560063"><ele>15.0</ele><time>2026-03-29T09:18:24.001Z</time></trkpt><trkpt lat="47.390140760734106" lon="-1.5314080752446608"><ele>15.0</ele><time>2026-03-29T09:18:26.001Z</time></trkpt><trkpt lat="47.3902136832917" lon="-1.53125510551178"><ele>15.0</ele><time>2026-03-29T09:18:28.001Z</time></trkpt><trkpt lat="47.390291215896035" lon="-1.5311100985869124"><ele>15.0</ele><time>2026-03-29T09:18:30.001Z</time></trkpt><trkpt lat="47.39035227806064" lon="-1.5309587214156342"><ele>15.0</ele><time>2026-03-29T09:18:32.001Z</time></trkpt><trkpt lat="47.390423859513724" lon="-1.5308308135732365"><ele>15.0</ele><time>2026-03-29T09:18:34.001Z</time></trkpt><trkpt lat="47.39046367355379" lon="-1.5307573881014536"><ele>15.0</ele><time>2026-03-29T09:18:35.001Z</time></trkpt><trkpt lat="47.39054740876647" lon="-1.5306218527271698"><ele>15.0</ele><time>2026-03-29T09:18:37.001Z</time></trkpt><trkpt lat="47.39059183285328" lon="-1.530533339829678"><ele>15.0</ele><time>2026-03-29T09:18:38.001Z</time></trkpt><trkpt lat="47.39065620586964" lon="-1.5303724911078163"><ele>15.0</ele><time>2026-03-29T09:18:40.001Z</time></trkpt><trkpt lat="47.39074756861421" lon="-1.5302413981422132"><ele>14.5</ele><time>2026-03-29T09:18:42.001Z</time></trkpt><trkpt lat="47.390832603021884" lon="-1.5301110595478955"><ele>14.0</ele><time>2026-03-29T09:18:44.001Z</time></trkpt><trkpt lat="47.390928408175135" lon="-1.5300035197302047"><ele>13.5</ele><time>2026-03-29T09:18:46.001Z</time></trkpt><trkpt lat="47.39102555443289" lon="-1.529928920791978"><ele>13.0</ele><time>2026-03-29T09:18:48.001Z</time></trkpt><trkpt lat="47.39113397435042" lon="-1.5298619493856371"><ele>12.999999999999998</ele><time>2026-03-29T09:18:50.001Z</time></trkpt><trkpt lat="47.391261463097656" lon="-1.5298052039011658"><ele>13.0</ele><time>2026-03-29T09:18:52.001Z</time></trkpt><trkpt lat="47.391338157511676" lon="-1.5297761186971606"><ele>13.0</ele><time>2026-03-29T09:18:53.001Z</time></trkpt><trkpt lat="47.39139800430032" lon="-1.5297445189222039"><ele>13.0</ele><time>2026-03-29T09:18:54.001Z</time></trkpt><trkpt lat="47.391452989585126" lon="-1.5296981669976653"><ele>12.999999999999998</ele><time>2026-03-29T09:18:55.001Z</time></trkpt><trkpt lat="47.391511998183454" lon="-1.5296560898437441"><ele>13.0</ele><time>2026-03-29T09:18:56.001Z</time></trkpt><trkpt lat="47.391577963761414" lon="-1.5296206343933283"><ele>12.999999999999998</ele><time>2026-03-29T09:18:57.001Z</time></trkpt><trkpt lat="47.39164195959213" lon="-1.5295766294016777"><ele>13.0</ele><time>2026-03-29T09:18:58.001Z</time></trkpt><trkpt lat="47.3917098110983" lon="-1.5295306965722977"><ele>13.0</ele><time>2026-03-29T09:18:59.001Z</time></trkpt><trkpt lat="47.39178084772768" lon="-1.5294919721796452"><ele>13.0</ele><time>2026-03-29T09:19:00.001Z</time></trkpt><trkpt lat="47.39184492737743" lon="-1.5294541697963415"><ele>12.999999999999998</ele><time>2026-03-29T09:19:01.001Z</time></trkpt><trkpt lat="47.39194823433402" lon="-1.5293546766056951"><ele>13.0</ele><time>2026-03-29T09:19:03.001Z</time></trkpt><trkpt lat="47.39202991598043" lon="-1.5293189696981844"><ele>12.600000000000001</ele><time>2026-03-29T09:19:04.001Z</time></trkpt><trkpt lat="47.39213779107425" lon="-1.5292285289629635"><ele>12.200000000000001</ele><time>2026-03-29T09:19:06.001Z</time></trkpt><trkpt lat="47.392196799672575" lon="-1.529181841762298"><ele>11.8</ele><time>2026-03-29T09:19:07.001Z</time></trkpt><trkpt lat="47.39226310052666" lon="-1.5291479788734847"><ele>11.4</ele><time>2026-03-29T09:19:08.001Z</time></trkpt><trkpt lat="47.39237583712432" lon="-1.5290773194297487"><ele>11.0</ele><time>2026-03-29T09:19:10.001Z</time></trkpt><trkpt lat="47.39244414963517" lon="-1.5290432050838405"><ele>10.8</ele><time>2026-03-29T09:19:11.001Z</time></trkpt><trkpt lat="47.39251141440812" lon="-1.5290007926537925"><ele>10.600000000000001</ele><time>2026-03-29T09:19:12.001Z</time></trkpt><trkpt lat="47.39257545214835" lon="-1.5289765689536268"><ele>10.4</ele><time>2026-03-29T09:19:13.001Z</time></trkpt><trkpt lat="47.39266903609726" lon="-1.5289601404234106"><ele>10.2</ele><time>2026-03-29T09:19:14.001Z</time></trkpt><trkpt lat="47.39278156314734" lon="-1.5289139561369351"><ele>10.0</ele><time>2026-03-29T09:19:16.001Z</time></trkpt><trkpt lat="47.392894509292574" lon="-1.5288799256100587"><ele>10.0</ele><time>2026-03-29T09:19:18.001Z</time></trkpt><trkpt lat="47.39296701275501" lon="-1.5288713760688237"><ele>10.0</ele><time>2026-03-29T09:19:19.001Z</time></trkpt><trkpt lat="47.39302970939073" lon="-1.5288507565870217"><ele>10.0</ele><time>2026-03-29T09:19:20.001Z</time></trkpt><trkpt lat="47.39314768467787" lon="-1.5288230963065557"><ele>10.0</ele><time>2026-03-29T09:19:22.001Z</time></trkpt><trkpt lat="47.393255601681204" lon="-1.5287683624788455"><ele>10.0</ele><time>2026-03-29T09:19:24.001Z</time></trkpt><trkpt lat="47.393367709636124" lon="-1.528713125736945"><ele>9.8</ele><time>2026-03-29T09:19:26.001Z</time></trkpt><trkpt lat="47.39345861137602" lon="-1.5286629181369473"><ele>9.6</ele><time>2026-03-29T09:19:28.001Z</time></trkpt><trkpt lat="47.393560116223426" lon="-1.5286007244154145"><ele>9.4</ele><time>2026-03-29T09:19:30.001Z</time></trkpt><trkpt lat="47.393630356572004" lon="-1.5285780094578196"><ele>9.2</ele><time>2026-03-29T09:19:31.001Z</time></trkpt><trkpt lat="47.393747200302215" lon="-1.528511960060828"><ele>9.0</ele><time>2026-03-29T09:19:33.001Z</time></trkpt><trkpt lat="47.39386836071256" lon="-1.528437361122601"><ele>8.8</ele><time>2026-03-29T09:19:35.001Z</time></trkpt><trkpt lat="47.393975649073155" lon="-1.5283786039813685"><ele>8.600000000000001</ele><time>2026-03-29T09:19:37.001Z</time></trkpt><trkpt lat="47.39407912366781" lon="-1.5283261332675147"><ele>8.4</ele><time>2026-03-29T09:19:39.001Z</time></trkpt><trkpt lat="47.39416239787582" lon="-1.5282662026598381"><ele>8.200000000000001</ele><time>2026-03-29T09:19:41.001Z</time></trkpt><trkpt lat="47.394231129481824" lon="-1.5282318368568348"><ele>8.0</ele><time>2026-03-29T09:19:42.001Z</time></trkpt><trkpt lat="47.394353547177644" lon="-1.5281610935940668"><ele>8.0</ele><time>2026-03-29T09:19:44.001Z</time></trkpt><trkpt lat="47.394474456130894" lon="-1.5281025879099295"><ele>8.0</ele><time>2026-03-29T09:19:46.001Z</time></trkpt><trkpt lat="47.39458861765209" lon="-1.5280403941883967"><ele>8.0</ele><time>2026-03-29T09:19:48.001Z</time></trkpt><trkpt lat="47.39464976363573" lon="-1.5280106384321377"><ele>8.0</ele><time>2026-03-29T09:19:49.001Z</time></trkpt><trkpt lat="47.394723440564604" lon="-1.5279826428755447"><ele>8.0</ele><time>2026-03-29T09:19:50.001Z</time></trkpt><trkpt lat="47.3948333692247" lon="-1.5279200300588531"><ele>8.600000000000001</ele><time>2026-03-29T09:19:52.001Z</time></trkpt><trkpt lat="47.39493361678663" lon="-1.5278839878752155"><ele>9.200000000000001</ele><time>2026-03-29T09:19:54.001Z</time></trkpt><trkpt lat="47.39503269088212" lon="-1.5278528071954174"><ele>9.8</ele><time>2026-03-29T09:19:56.001Z</time></trkpt><trkpt lat="47.395159383348556" lon="-1.5278319362565203"><ele>10.4</ele><time>2026-03-29T09:19:58.001Z</time></trkpt><trkpt lat="47.395263612314494" lon="-1.5277896914645357"><ele>11.0</ele><time>2026-03-29T09:20:00.001Z</time></trkpt><trkpt lat="47.395370146303804" lon="-1.5278313495232982"><ele>10.600000000000001</ele><time>2026-03-29T09:20:02.001Z</time></trkpt><trkpt lat="47.395453001416655" lon="-1.5279139950885696"><ele>10.200000000000001</ele><time>2026-03-29T09:20:04.001Z</time></trkpt><trkpt lat="47.395510165996285" lon="-1.5280480217202828"><ele>9.8</ele><time>2026-03-29T09:20:06.001Z</time></trkpt><trkpt lat="47.39556443881932" lon="-1.5281785279526636"><ele>9.4</ele><time>2026-03-29T09:20:08.001Z</time></trkpt><trkpt lat="47.39564528227541" lon="-1.5282892528935599"><ele>9.0</ele><time>2026-03-29T09:20:10.001Z</time></trkpt><trkpt lat="47.39571468443367" lon="-1.528414981441133"><ele>9.0</ele><time>2026-03-29T09:20:12.001Z</time></trkpt><trkpt lat="47.39578542769644" lon="-1.5285288915052344"><ele>9.0</ele><time>2026-03-29T09:20:14.001Z</time></trkpt><trkpt lat="47.395864175676735" lon="-1.5286749042584826"><ele>9.0</ele><time>2026-03-29T09:20:16.001Z</time></trkpt><trkpt lat="47.395920334427984" lon="-1.5288289636387757"><ele>9.0</ele><time>2026-03-29T09:20:18.001Z</time></trkpt><trkpt lat="47.39594837189409" lon="-1.5289266128107244"><ele>9.0</ele><time>2026-03-29T09:20:19.001Z</time></trkpt><trkpt lat="47.39601173908207" lon="-1.529066590593689"><ele>9.0</ele><time>2026-03-29T09:20:21.001Z</time></trkpt><trkpt lat="47.396046984984906" lon="-1.5291453804835016"><ele>9.0</ele><time>2026-03-29T09:20:22.001Z</time></trkpt><trkpt lat="47.39613235466871" lon="-1.5292349830284055"><ele>9.0</ele><time>2026-03-29T09:20:25.001Z</time></trkpt><trkpt lat="47.39617216870877" lon="-1.5293112583472666"><ele>9.0</ele><time>2026-03-29T09:20:26.001Z</time></trkpt><trkpt lat="47.396248737394245" lon="-1.5294809080674587"><ele>9.0</ele><time>2026-03-29T09:20:28.001Z</time></trkpt><trkpt lat="47.396283941387566" lon="-1.529563302175635"><ele>9.0</ele><time>2026-03-29T09:20:29.001Z</time></trkpt><trkpt lat="47.39634437490943" lon="-1.5296860970570982"><ele>9.0</ele><time>2026-03-29T09:20:31.001Z</time></trkpt><trkpt lat="47.39641717173848" lon="-1.5298532322063387"><ele>9.0</ele><time>2026-03-29T09:20:33.001Z</time></trkpt><trkpt lat="47.39649009429607" lon="-1.5299616940333787"><ele>9.0</ele><time>2026-03-29T09:20:35.001Z</time></trkpt><trkpt lat="47.39649960775617" lon="-1.530062612147564"><ele>9.0</ele><time>2026-03-29T09:20:36.001Z</time></trkpt><trkpt lat="47.396603166169854" lon="-1.530160177500481"><ele>9.0</ele><time>2026-03-29T09:20:38.001Z</time></trkpt><trkpt lat="47.39666473124865" lon="-1.5303152427091544"><ele>9.0</ele><time>2026-03-29T09:20:40.001Z</time></trkpt><trkpt lat="47.39671338819656" lon="-1.5303765144213386"><ele>9.0</ele><time>2026-03-29T09:20:41.001Z</time></trkpt><trkpt lat="47.39673685752544" lon="-1.5304716490223356"><ele>9.0</ele><time>2026-03-29T09:20:42.001Z</time></trkpt><trkpt lat="47.396811875558825" lon="-1.5306087769582222"><ele>9.0</ele><time>2026-03-29T09:20:44.001Z</time></trkpt><trkpt lat="47.396846576637955" lon="-1.5307306498303364"><ele>9.0</ele><time>2026-03-29T09:20:45.001Z</time></trkpt><trkpt lat="47.39691849336717" lon="-1.53087984770679"><ele>9.0</ele><time>2026-03-29T09:20:47.001Z</time></trkpt><trkpt lat="47.39696811423394" lon="-1.530982358382578"><ele>9.0</ele><time>2026-03-29T09:20:49.001Z</time></trkpt><trkpt lat="47.39702159077618" lon="-1.5310348290964317"><ele>9.0</ele><time>2026-03-29T09:20:50.001Z</time></trkpt><trkpt lat="47.397063416473" lon="-1.531111691148515"><ele>9.0</ele><time>2026-03-29T09:20:51.001Z</time></trkpt><trkpt lat="47.397106792821916" lon="-1.5311863739057734"><ele>9.0</ele><time>2026-03-29T09:20:52.001Z</time></trkpt><trkpt lat="47.39717183639053" lon="-1.5313289500787215"><ele>9.0</ele><time>2026-03-29T09:20:54.001Z</time></trkpt><trkpt lat="47.397196940190526" lon="-1.5314294490977483"><ele>8.8</ele><time>2026-03-29T09:20:55.001Z</time></trkpt><trkpt lat="47.397268228277" lon="-1.5315585304065902"><ele>8.600000000000001</ele><time>2026-03-29T09:20:57.001Z</time></trkpt><trkpt lat="47.39730062433276" lon="-1.5316420979812104"><ele>8.4</ele><time>2026-03-29T09:20:58.001Z</time></trkpt><trkpt lat="47.397372624881" lon="-1.5317908767625055"><ele>8.200000000000001</ele><time>2026-03-29T09:21:00.001Z</time></trkpt><trkpt lat="47.39744852301422" lon="-1.531921466813918"><ele>8.0</ele><time>2026-03-29T09:21:02.001Z</time></trkpt><trkpt lat="47.39748846278283" lon="-1.5320554096265995"><ele>8.200000000000001</ele><time>2026-03-29T09:21:04.001Z</time></trkpt><trkpt lat="47.3975488963047" lon="-1.53217661194646"><ele>8.4</ele><time>2026-03-29T09:21:06.001Z</time></trkpt><trkpt lat="47.397609748921724" lon="-1.5323103033020462"><ele>8.600000000000001</ele><time>2026-03-29T09:21:08.001Z</time></trkpt><trkpt lat="47.397655556022556" lon="-1.5324548073127235"><ele>8.8</ele><time>2026-03-29T09:21:10.001Z</time></trkpt><trkpt lat="47.39772520963791" lon="-1.5324591659023727"><ele>9.0</ele><time>2026-03-29T09:21:12.001Z</time></trkpt><trkpt lat="47.39776590377781" lon="-1.532564274968144"><ele>9.0</ele><time>2026-03-29T09:21:14.001Z</time></trkpt><trkpt lat="47.397826756394835" lon="-1.5326863154783217"><ele>9.0</ele><time>2026-03-29T09:21:16.001Z</time></trkpt><trkpt lat="47.39786355294976" lon="-1.532805841417548"><ele>9.0</ele><time>2026-03-29T09:21:18.001Z</time></trkpt><trkpt lat="47.39791451492104" lon="-1.5329281333848208"><ele>9.0</ele><time>2026-03-29T09:21:20.001Z</time></trkpt><trkpt lat="47.39796292041186" lon="-1.5330355893834802"><ele>9.0</ele><time>2026-03-29T09:21:22.001Z</time></trkpt><trkpt lat="47.39799787294808" lon="-1.5331691969200345"><ele>9.4</ele><time>2026-03-29T09:21:24.001Z</time></trkpt><trkpt lat="47.398053277328046" lon="-1.5333064086749528"><ele>9.8</ele><time>2026-03-29T09:21:26.001Z</time></trkpt><trkpt lat="47.39812523596677" lon="-1.5333305485560869"><ele>10.200000000000001</ele><time>2026-03-29T09:21:27.001Z</time></trkpt><trkpt lat="47.39818059843722" lon="-1.533444793896315"><ele>10.600000000000001</ele><time>2026-03-29T09:21:30.001Z</time></trkpt><trkpt lat="47.39823302724156" lon="-1.5335557702943063"><ele>11.0</ele><time>2026-03-29T09:21:32.001Z</time></trkpt><trkpt lat="47.398284785493644" lon="-1.53365953825557"><ele>11.600000000000001</ele><time>2026-03-29T09:21:34.001Z</time></trkpt><trkpt lat="47.39836562894973" lon="-1.533757941798804"><ele>12.2</ele><time>2026-03-29T09:21:36.001Z</time></trkpt><trkpt lat="47.398421242877276" lon="-1.5339018590762594"><ele>12.799999999999999</ele><time>2026-03-29T09:21:38.001Z</time></trkpt><trkpt lat="47.39846248184088" lon="-1.53398836031699"><ele>13.399999999999999</ele><time>2026-03-29T09:21:39.001Z</time></trkpt><trkpt lat="47.39848243077043" lon="-1.5340896975263338"><ele>14.0</ele><time>2026-03-29T09:21:40.001Z</time></trkpt><trkpt lat="47.39852639385256" lon="-1.5342250652625544"><ele>14.000000000000002</ele><time>2026-03-29T09:21:42.001Z</time></trkpt><trkpt lat="47.398592443249555" lon="-1.5342388115837557"><ele>14.0</ele><time>2026-03-29T09:21:44.001Z</time></trkpt><trkpt lat="47.398631293370755" lon="-1.5343554876759036"><ele>14.0</ele><time>2026-03-29T09:21:46.001Z</time></trkpt><trkpt lat="47.39865337968561" lon="-1.5344507060959325"><ele>14.0</ele><time>2026-03-29T09:21:47.001Z</time></trkpt><trkpt lat="47.398697761862906" lon="-1.5345605090274796"><ele>14.000000000000002</ele><time>2026-03-29T09:21:49.001Z</time></trkpt><trkpt lat="47.39874377851132" lon="-1.53467240743482"><ele>14.0</ele><time>2026-03-29T09:21:51.001Z</time></trkpt><trkpt lat="47.398818167901965" lon="-1.534719178454517"><ele>13.799999999999999</ele><time>2026-03-29T09:21:53.001Z</time></trkpt><trkpt lat="47.398876338309975" lon="-1.5348457451924074"><ele>13.599999999999998</ele><time>2026-03-29T09:21:55.001Z</time></trkpt><trkpt lat="47.398930569223495" lon="-1.534950183705925"><ele>13.4</ele><time>2026-03-29T09:21:57.001Z</time></trkpt><trkpt lat="47.3989734007487" lon="-1.5350811090334644"><ele>13.2</ele><time>2026-03-29T09:21:59.001Z</time></trkpt><trkpt lat="47.399059063799115" lon="-1.5351586416378014"><ele>13.0</ele><time>2026-03-29T09:22:01.001Z</time></trkpt><trkpt lat="47.399108139842184" lon="-1.535283615814089"><ele>13.0</ele><time>2026-03-29T09:22:03.001Z</time></trkpt><trkpt lat="47.399200801781745" lon="-1.5353807620718474"><ele>13.0</ele><time>2026-03-29T09:22:05.001Z</time></trkpt><trkpt lat="47.39925809208992" lon="-1.5355117712184185"><ele>13.0</ele><time>2026-03-29T09:22:07.001Z</time></trkpt><trkpt lat="47.39930524029526" lon="-1.5356487315162417"><ele>13.0</ele><time>2026-03-29T09:22:09.001Z</time></trkpt><trkpt lat="47.399369864768715" lon="-1.5357457101359364"><ele>13.0</ele><time>2026-03-29T09:22:11.001Z</time></trkpt><trkpt lat="47.39944035657439" lon="-1.535856602714896"><ele>13.499999999999998</ele><time>2026-03-29T09:22:13.001Z</time></trkpt><trkpt lat="47.39951315340343" lon="-1.5359266754254102"><ele>14.0</ele><time>2026-03-29T09:22:15.001Z</time></trkpt><trkpt lat="47.39956382200811" lon="-1.536028347910881"><ele>14.5</ele><time>2026-03-29T09:22:17.001Z</time></trkpt><trkpt lat="47.39960351031963" lon="-1.536118537189007"><ele>15.0</ele><time>2026-03-29T09:22:18.001Z</time></trkpt><trkpt lat="47.39966826052163" lon="-1.5362260770066978"><ele>15.499999999999998</ele><time>2026-03-29T09:22:20.001Z</time></trkpt><trkpt lat="47.39971507345084" lon="-1.5363075491055251"><ele>16.0</ele><time>2026-03-29T09:22:22.001Z</time></trkpt><trkpt lat="47.3997585755283" lon="-1.5364147536470893"><ele>15.999999999999998</ele><time>2026-03-29T09:22:24.001Z</time></trkpt><trkpt lat="47.39980320916269" lon="-1.5365199465318922"><ele>16.0</ele><time>2026-03-29T09:22:26.001Z</time></trkpt><trkpt lat="47.399880574128964" lon="-1.5364798810347322"><ele>16.0</ele><time>2026-03-29T09:22:29.001Z</time></trkpt><trkpt lat="47.39987386860643" lon="-1.5363579243435863"><ele>16.0</ele><time>2026-03-29T09:22:31.001Z</time></trkpt><trkpt lat="47.39990877923314" lon="-1.536230435596347"><ele>15.999999999999998</ele><time>2026-03-29T09:22:33.001Z</time></trkpt><trkpt lat="47.399936607151666" lon="-1.5360938105746509"><ele>16.0</ele><time>2026-03-29T09:22:35.001Z</time></trkpt><trkpt lat="47.399957561909595" lon="-1.5359446126981973"><ele>15.999999999999998</ele><time>2026-03-29T09:22:37.001Z</time></trkpt><trkpt lat="47.399979019581714" lon="-1.535846292973995"><ele>16.0</ele><time>2026-03-29T09:22:39.001Z</time></trkpt><trkpt lat="47.40002440758739" lon="-1.5357769746347663"><ele>16.0</ele><time>2026-03-29T09:22:41.001Z</time></trkpt><trkpt lat="47.40004464988355" lon="-1.5356390923275944"><ele>16.0</ele><time>2026-03-29T09:22:44.001Z</time></trkpt><trkpt lat="47.400027257434466" lon="-1.535515459255814"><ele>15.999999999999998</ele><time>2026-03-29T09:22:46.001Z</time></trkpt><trkpt lat="47.40002784416769" lon="-1.5353464800878756"><ele>16.0</ele><time>2026-03-29T09:22:48.001Z</time></trkpt><trkpt lat="47.400027466982046" lon="-1.5351915825172655"><ele>15.666666666666666</ele><time>2026-03-29T09:22:50.001Z</time></trkpt><trkpt lat="47.4000429315934" lon="-1.5350411273553362"><ele>15.333333333333332</ele><time>2026-03-29T09:22:52.001Z</time></trkpt><trkpt lat="47.400067448660174" lon="-1.534875920043825"><ele>15.0</ele><time>2026-03-29T09:22:54.001Z</time></trkpt><trkpt lat="47.40009422884081" lon="-1.534786066041826"><ele>14.666666666666668</ele><time>2026-03-29T09:22:55.001Z</time></trkpt><trkpt lat="47.400127630724946" lon="-1.5347043424859035"><ele>14.333333333333334</ele><time>2026-03-29T09:22:56.001Z</time></trkpt><trkpt lat="47.40015964959506" lon="-1.5346242114915833"><ele>14.0</ele><time>2026-03-29T09:22:57.001Z</time></trkpt><trkpt lat="47.40021907728855" lon="-1.5344621054842458"><ele>13.5</ele><time>2026-03-29T09:22:59.001Z</time></trkpt><trkpt lat="47.400298202454486" lon="-1.5342785418047888"><ele>13.0</ele><time>2026-03-29T09:23:01.001Z</time></trkpt><trkpt lat="47.400375525511244" lon="-1.5341306850328427"><ele>12.5</ele><time>2026-03-29T09:23:03.001Z</time></trkpt><trkpt lat="47.40044224546049" lon="-1.53397419490063"><ele>12.0</ele><time>2026-03-29T09:23:05.001Z</time></trkpt><trkpt lat="47.4005183950508" lon="-1.5338515676572302"><ele>11.833333333333334</ele><time>2026-03-29T09:23:07.001Z</time></trkpt><trkpt lat="47.40055774808619" lon="-1.53377680108094"><ele>11.666666666666666</ele><time>2026-03-29T09:23:08.001Z</time></trkpt><trkpt lat="47.40063347858135" lon="-1.5336452890201784"><ele>11.5</ele><time>2026-03-29T09:23:10.001Z</time></trkpt><trkpt lat="47.400674885183015" lon="-1.533569097520349"><ele>11.333333333333332</ele><time>2026-03-29T09:23:11.001Z</time></trkpt><trkpt lat="47.40072178193126" lon="-1.5334971807911373"><ele>11.166666666666666</ele><time>2026-03-29T09:23:12.001Z</time></trkpt><trkpt lat="47.40076805003677" lon="-1.5334245935096715"><ele>11.0</ele><time>2026-03-29T09:23:13.002Z</time></trkpt><trkpt lat="47.400834225162306" lon="-1.533311689273951"><ele>11.0</ele><time>2026-03-29T09:23:15.002Z</time></trkpt><trkpt lat="47.400904758877495" lon="-1.5332511719330524"><ele>11.0</ele><time>2026-03-29T09:23:17.002Z</time></trkpt><trkpt lat="47.40097529259268" lon="-1.5333208255484079"><ele>11.0</ele><time>2026-03-29T09:23:19.002Z</time></trkpt><trkpt lat="47.40100630563442" lon="-1.5334603004171825"><ele>11.0</ele><time>2026-03-29T09:23:21.002Z</time></trkpt><trkpt lat="47.40102730230186" lon="-1.533631542698977"><ele>11.0</ele><time>2026-03-29T09:23:23.002Z</time></trkpt><trkpt lat="47.40106594287548" lon="-1.5337882004692533"><ele>11.0</ele><time>2026-03-29T09:23:25.002Z</time></trkpt><trkpt lat="47.401082916229406" lon="-1.5339419245734196"><ele>11.0</ele><time>2026-03-29T09:23:27.002Z</time></trkpt><trkpt lat="47.40109494426046" lon="-1.534076118843196"><ele>11.0</ele><time>2026-03-29T09:23:29.002Z</time></trkpt><trkpt lat="47.40112616684977" lon="-1.5342079661800845"><ele>11.0</ele><time>2026-03-29T09:23:31.002Z</time></trkpt><trkpt lat="47.40115043245945" lon="-1.5343549847617133"><ele>11.0</ele><time>2026-03-29T09:23:33.002Z</time></trkpt><trkpt lat="47.40118383434359" lon="-1.534496806563376"><ele>11.25</ele><time>2026-03-29T09:23:35.002Z</time></trkpt><trkpt lat="47.40122096617464" lon="-1.534658828751682"><ele>11.5</ele><time>2026-03-29T09:23:37.002Z</time></trkpt><trkpt lat="47.40126920402739" lon="-1.5348015725626933"><ele>11.75</ele><time>2026-03-29T09:23:39.002Z</time></trkpt><trkpt lat="47.401331900663116" lon="-1.5349617507323017"><ele>12.0</ele><time>2026-03-29T09:23:41.002Z</time></trkpt><trkpt lat="47.401429843201676" lon="-1.5350526105626812"><ele>11.5</ele><time>2026-03-29T09:23:43.002Z</time></trkpt><trkpt lat="47.401533569253424" lon="-1.5351350046708576"><ele>11.0</ele><time>2026-03-29T09:23:45.002Z</time></trkpt><trkpt lat="47.40163486455325" lon="-1.5352121181800358"><ele>10.5</ele><time>2026-03-29T09:23:47.002Z</time></trkpt><trkpt lat="47.40173050206844" lon="-1.5353245195015661"><ele>10.0</ele><time>2026-03-29T09:23:49.002Z</time></trkpt><trkpt lat="47.401815620295146" lon="-1.535446224735617"><ele>10.0</ele><time>2026-03-29T09:23:51.002Z</time></trkpt><trkpt lat="47.40187374879364" lon="-1.535623921082854"><ele>10.0</ele><time>2026-03-29T09:23:53.002Z</time></trkpt><trkpt lat="47.40190916233454" lon="-1.5357905533179042"><ele>10.0</ele><time>2026-03-29T09:23:55.002Z</time></trkpt><trkpt lat="47.40195568189714" lon="-1.535932626576662"><ele>10.0</ele><time>2026-03-29T09:23:57.002Z</time></trkpt><trkpt lat="47.40198862277661" lon="-1.5361307747676374"><ele>10.166666666666668</ele><time>2026-03-29T09:23:59.002Z</time></trkpt><trkpt lat="47.401995118751564" lon="-1.536223646254778"><ele>10.333333333333334</ele><time>2026-03-29T09:24:00.002Z</time></trkpt><trkpt lat="47.40198749121968" lon="-1.5363820642247203"><ele>10.5</ele><time>2026-03-29T09:24:02.002Z</time></trkpt><trkpt lat="47.402014941952565" lon="-1.5365147497519258"><ele>10.666666666666666</ele><time>2026-03-29T09:24:04.002Z</time></trkpt><trkpt lat="47.402073824822345" lon="-1.5364660508944992"><ele>10.833333333333332</ele><time>2026-03-29T09:24:06.002Z</time></trkpt><trkpt lat="47.40215420727376" lon="-1.5364450123175386"><ele>11.0</ele><time>2026-03-29T09:24:08.002Z</time></trkpt><trkpt lat="47.40220734853987" lon="-1.5363944694414142"><ele>10.666666666666666</ele><time>2026-03-29T09:24:10.002Z</time></trkpt><trkpt lat="47.40223970268611" lon="-1.5362985804691316"><ele>10.333333333333332</ele><time>2026-03-29T09:24:12.002Z</time></trkpt><trkpt lat="47.40226447120998" lon="-1.5361477900310756"><ele>10.0</ele><time>2026-03-29T09:24:14.002Z</time></trkpt><trkpt lat="47.40228546787743" lon="-1.536010662095189"><ele>9.666666666666666</ele><time>2026-03-29T09:24:16.002Z</time></trkpt><trkpt lat="47.40228928164337" lon="-1.5359156951322555"><ele>9.333333333333334</ele><time>2026-03-29T09:24:18.002Z</time></trkpt><trkpt lat="47.402314427352884" lon="-1.5358275175108906"><ele>9.0</ele><time>2026-03-29T09:24:20.002Z</time></trkpt><trkpt lat="47.4023282155836" lon="-1.5356723684831854"><ele>9.0</ele><time>2026-03-29T09:24:22.002Z</time></trkpt><trkpt lat="47.40234439265672" lon="-1.5355427842601532"><ele>9.0</ele><time>2026-03-29T09:24:24.002Z</time></trkpt><trkpt lat="47.40235876762066" lon="-1.5353898983463043"><ele>9.0</ele><time>2026-03-29T09:24:26.002Z</time></trkpt><trkpt lat="47.402383117049375" lon="-1.535235922785043"><ele>9.0</ele><time>2026-03-29T09:24:28.002Z</time></trkpt><trkpt lat="47.40241329190079" lon="-1.5350625012084236"><ele>9.0</ele><time>2026-03-29T09:24:30.002Z</time></trkpt><trkpt lat="47.4024405330861" lon="-1.534920427949666"><ele>9.0</ele><time>2026-03-29T09:24:32.002Z</time></trkpt><trkpt lat="47.40249325525705" lon="-1.5348413866027582"><ele>9.0</ele><time>2026-03-29T09:24:33.002Z</time></trkpt><trkpt lat="47.40258306734953" lon="-1.534707443790077"><ele>9.0</ele><time>2026-03-29T09:24:35.002Z</time></trkpt><trkpt lat="47.40264299795721" lon="-1.5345932822688804"><ele>9.0</ele><time>2026-03-29T09:24:37.002Z</time></trkpt><trkpt lat="47.402668227485755" lon="-1.53448381461346"><ele>9.0</ele><time>2026-03-29T09:24:39.002Z</time></trkpt><trkpt lat="47.40273859356288" lon="-1.5343340300037844"><ele>9.0</ele><time>2026-03-29T09:24:41.002Z</time></trkpt><trkpt lat="47.40279952999894" lon="-1.53421165421748"><ele>9.0</ele><time>2026-03-29T09:24:43.002Z</time></trkpt><trkpt lat="47.40284848031346" lon="-1.5341253206148129"><ele>9.0</ele><time>2026-03-29T09:24:45.002Z</time></trkpt><trkpt lat="47.40292161241863" lon="-1.5340352151557188"><ele>9.0</ele><time>2026-03-29T09:24:47.002Z</time></trkpt><trkpt lat="47.40296247419659" lon="-1.5339486300959568"><ele>9.0</ele><time>2026-03-29T09:24:48.002Z</time></trkpt><trkpt lat="47.40309210032914" lon="-1.5338167827590683"><ele>8.8</ele><time>2026-03-29T09:24:50.002Z</time></trkpt><trkpt lat="47.40320198707972" lon="-1.5336804930134988"><ele>8.600000000000001</ele><time>2026-03-29T09:24:52.002Z</time></trkpt><trkpt lat="47.40326837175284" lon="-1.533577395604489"><ele>8.4</ele><time>2026-03-29T09:24:54.002Z</time></trkpt><trkpt lat="47.40332469814215" lon="-1.5334898047163463"><ele>8.200000000000001</ele><time>2026-03-29T09:24:56.002Z</time></trkpt><trkpt lat="47.403376540213266" lon="-1.533362315969107"><ele>8.0</ele><time>2026-03-29T09:24:58.002Z</time></trkpt><trkpt lat="47.40343144167904" lon="-1.533295176924703"><ele>8.0</ele><time>2026-03-29T09:24:59.002Z</time></trkpt><trkpt lat="47.403498664542475" lon="-1.5331858769073459"><ele>8.0</ele><time>2026-03-29T09:25:01.002Z</time></trkpt><trkpt lat="47.40355029706601" lon="-1.5330889821066829"><ele>8.0</ele><time>2026-03-29T09:25:03.002Z</time></trkpt><trkpt lat="47.40359522406701" lon="-1.5329920034869882"><ele>8.0</ele><time>2026-03-29T09:25:05.002Z</time></trkpt><trkpt lat="47.40363508001659" lon="-1.5328689571484297"><ele>8.0</ele><time>2026-03-29T09:25:07.002Z</time></trkpt><trkpt lat="47.40372455683295" lon="-1.5327375289067"><ele>8.0</ele><time>2026-03-29T09:25:09.002Z</time></trkpt><trkpt lat="47.403800161599555" lon="-1.5326330903931824"><ele>8.0</ele><time>2026-03-29T09:25:11.002Z</time></trkpt><trkpt lat="47.40386918657217" lon="-1.532528651879665"><ele>8.0</ele><time>2026-03-29T09:25:13.002Z</time></trkpt><trkpt lat="47.4039134011114" lon="-1.532436702401873"><ele>8.0</ele><time>2026-03-29T09:25:16.002Z</time></trkpt><trkpt lat="47.403995837129095" lon="-1.5323400590583052"><ele>8.0</ele><time>2026-03-29T09:25:19.002Z</time></trkpt><trkpt lat="47.40402793981824" lon="-1.5322429966195785"><ele>8.4</ele><time>2026-03-29T09:25:21.002Z</time></trkpt><trkpt lat="47.4040880799735" lon="-1.5321540646269285"><ele>8.8</ele><time>2026-03-29T09:25:22.002Z</time></trkpt><trkpt lat="47.40414004777316" lon="-1.5320090577020606"><ele>9.2</ele><time>2026-03-29T09:25:24.002Z</time></trkpt><trkpt lat="47.404182292565146" lon="-1.5318924654289445"><ele>9.6</ele><time>2026-03-29T09:25:26.002Z</time></trkpt><trkpt lat="47.40423891232107" lon="-1.5318353846683463"><ele>10.0</ele><time>2026-03-29T09:25:27.002Z</time></trkpt><trkpt lat="47.4043166963825" lon="-1.5317180380239446"><ele>10.0</ele><time>2026-03-29T09:25:29.002Z</time></trkpt><trkpt lat="47.40438379351739" lon="-1.5316158626242835"><ele>10.0</ele><time>2026-03-29T09:25:31.002Z</time></trkpt><trkpt lat="47.404465475163796" lon="-1.5315257571651892"><ele>10.0</ele><time>2026-03-29T09:25:33.002Z</time></trkpt><trkpt lat="47.40453806244526" lon="-1.5314664971097665"><ele>10.0</ele><time>2026-03-29T09:25:35.002Z</time></trkpt><trkpt lat="47.40462946709935" lon="-1.531424252317782"><ele>10.0</ele><time>2026-03-29T09:25:37.002Z</time></trkpt><trkpt lat="47.404727619185486" lon="-1.5313564427211241"><ele>9.8</ele><time>2026-03-29T09:25:39.002Z</time></trkpt><trkpt lat="47.404821915596166" lon="-1.531294248999591"><ele>9.6</ele><time>2026-03-29T09:25:41.002Z</time></trkpt><trkpt lat="47.40492811430935" lon="-1.5312530938550188"><ele>9.4</ele><time>2026-03-29T09:25:43.002Z</time></trkpt><trkpt lat="47.40501239434574" lon="-1.5311857033535197"><ele>9.2</ele><time>2026-03-29T09:25:45.002Z</time></trkpt><trkpt lat="47.40508678373639" lon="-1.5311218332513525"><ele>9.0</ele><time>2026-03-29T09:25:47.002Z</time></trkpt><trkpt lat="47.40519926887695" lon="-1.5310768224313214"><ele>9.0</ele><time>2026-03-29T09:25:49.002Z</time></trkpt><trkpt lat="47.40528241735641" lon="-1.5310375951244783"><ele>9.0</ele><time>2026-03-29T09:25:51.002Z</time></trkpt><trkpt lat="47.405384341298976" lon="-1.5309799276306582"><ele>9.0</ele><time>2026-03-29T09:25:53.002Z</time></trkpt><trkpt lat="47.405514554164746" lon="-1.5309192426516962"><ele>9.0</ele><time>2026-03-29T09:25:55.002Z</time></trkpt><trkpt lat="47.405577795624176" lon="-1.5308950189515305"><ele>9.0</ele><time>2026-03-29T09:25:56.002Z</time></trkpt><trkpt lat="47.405636385127345" lon="-1.5308588091298294"><ele>8.8</ele><time>2026-03-29T09:25:57.002Z</time></trkpt><trkpt lat="47.405694974630514" lon="-1.5308224316700647"><ele>8.600000000000001</ele><time>2026-03-29T09:25:58.002Z</time></trkpt><trkpt lat="47.405788851946035" lon="-1.530756382273073"><ele>8.4</ele><time>2026-03-29T09:26:00.002Z</time></trkpt><trkpt lat="47.405886165841856" lon="-1.530687734486098"><ele>8.200000000000001</ele><time>2026-03-29T09:26:02.002Z</time></trkpt><trkpt lat="47.40597199653033" lon="-1.5306449867799232"><ele>8.0</ele><time>2026-03-29T09:26:04.002Z</time></trkpt><trkpt lat="47.40607827906255" lon="-1.5306185837849329"><ele>7.999999999999999</ele><time>2026-03-29T09:26:06.002Z</time></trkpt><trkpt lat="47.40615698513333" lon="-1.530599975959892"><ele>8.0</ele><time>2026-03-29T09:26:08.002Z</time></trkpt><trkpt lat="47.40626121409927" lon="-1.5306082740440319"><ele>8.0</ele><time>2026-03-29T09:26:10.002Z</time></trkpt><trkpt lat="47.4063353101233" lon="-1.5306636784239958"><ele>8.0</ele><time>2026-03-29T09:26:12.002Z</time></trkpt><trkpt lat="47.406403580724636" lon="-1.5305969584747503"><ele>7.999999999999999</ele><time>2026-03-29T09:26:15.002Z</time></trkpt><trkpt lat="47.40643396512363" lon="-1.5304908435805984"><ele>8.0</ele><time>2026-03-29T09:26:18.002Z</time></trkpt><trkpt lat="47.406467031731644" lon="-1.5304054319872804"><ele>8.4</ele><time>2026-03-29T09:26:20.002Z</time></trkpt><trkpt lat="47.40651644305084" lon="-1.530269142241711"><ele>8.8</ele><time>2026-03-29T09:26:22.002Z</time></trkpt><trkpt lat="47.40655877166186" lon="-1.530107958243722"><ele>9.2</ele><time>2026-03-29T09:26:24.002Z</time></trkpt><trkpt lat="47.40659242500309" lon="-1.5299464389696065"><ele>9.6</ele><time>2026-03-29T09:26:26.002Z</time></trkpt><trkpt lat="47.40661195483748" lon="-1.5298202075078429"><ele>10.0</ele><time>2026-03-29T09:26:28.002Z</time></trkpt><trkpt lat="47.40664066285584" lon="-1.5296635497375668"><ele>10.0</ele><time>2026-03-29T09:26:30.002Z</time></trkpt><trkpt lat="47.406669370874205" lon="-1.5294930618270575"><ele>10.0</ele><time>2026-03-29T09:26:32.002Z</time></trkpt><trkpt lat="47.4066902418131" lon="-1.5293560177102026"><ele>10.0</ele><time>2026-03-29T09:26:34.002Z</time></trkpt><trkpt lat="47.4067232665116" lon="-1.5292046405389246"><ele>10.0</ele><time>2026-03-29T09:26:36.002Z</time></trkpt><trkpt lat="47.406750507696906" lon="-1.5290874615325862"><ele>10.0</ele><time>2026-03-29T09:26:38.002Z</time></trkpt><trkpt lat="47.4067671457747" lon="-1.5289451368167335"><ele>10.0</ele><time>2026-03-29T09:26:40.002Z</time></trkpt><trkpt lat="47.40677758124415" lon="-1.5287981182351045"><ele>10.0</ele><time>2026-03-29T09:26:42.002Z</time></trkpt><trkpt lat="47.40680033811126" lon="-1.528645064683192"><ele>10.0</ele><time>2026-03-29T09:26:44.002Z</time></trkpt><trkpt lat="47.40682137668822" lon="-1.5285008959486415"><ele>10.0</ele><time>2026-03-29T09:26:46.002Z</time></trkpt><trkpt lat="47.40685440138672" lon="-1.528348680587046"><ele>10.0</ele><time>2026-03-29T09:26:48.002Z</time></trkpt><trkpt lat="47.4068527669156" lon="-1.5281994827105925"><ele>10.0</ele><time>2026-03-29T09:26:50.002Z</time></trkpt><trkpt lat="47.40685662259106" lon="-1.52805472724282"><ele>10.0</ele><time>2026-03-29T09:26:52.002Z</time></trkpt><trkpt lat="47.40688059483413" lon="-1.5279566589757128"><ele>10.0</ele><time>2026-03-29T09:26:53.002Z</time></trkpt><trkpt lat="47.406873428306916" lon="-1.527805197985403"><ele>10.0</ele><time>2026-03-29T09:26:55.002Z</time></trkpt><trkpt lat="47.406881642572024" lon="-1.5276530664428394"><ele>10.0</ele><time>2026-03-29T09:26:57.002Z</time></trkpt><trkpt lat="47.40685071334932" lon="-1.5275008510812442"><ele>10.0</ele><time>2026-03-29T09:26:59.002Z</time></trkpt><trkpt lat="47.40683608692829" lon="-1.5273659024401822"><ele>10.0</ele><time>2026-03-29T09:27:01.002Z</time></trkpt><trkpt lat="47.406802810772696" lon="-1.5272194705917752"><ele>10.0</ele><time>2026-03-29T09:27:03.002Z</time></trkpt><trkpt lat="47.40679447077904" lon="-1.5270742960288441"><ele>10.0</ele><time>2026-03-29T09:27:05.002Z</time></trkpt><trkpt lat="47.40675767422412" lon="-1.5269359108074818"><ele>10.0</ele><time>2026-03-29T09:27:07.002Z</time></trkpt><trkpt lat="47.40671656098906" lon="-1.5268075000508938"><ele>10.0</ele><time>2026-03-29T09:27:09.002Z</time></trkpt><trkpt lat="47.40671299868021" lon="-1.526703396813503"><ele>10.0</ele><time>2026-03-29T09:27:11.002Z</time></trkpt><trkpt lat="47.40671027456168" lon="-1.5265696216388853"><ele>10.0</ele><time>2026-03-29T09:27:13.002Z</time></trkpt><trkpt lat="47.40669543859307" lon="-1.5264269616469055"><ele>10.0</ele><time>2026-03-29T09:27:15.002Z</time></trkpt><trkpt lat="47.406667359217444" lon="-1.5262813679888156"><ele>10.0</ele><time>2026-03-29T09:27:17.002Z</time></trkpt><trkpt lat="47.40662381523047" lon="-1.5261480119093565"><ele>10.0</ele><time>2026-03-29T09:27:19.002Z</time></trkpt><trkpt lat="47.406599465801754" lon="-1.526032928378811"><ele>10.0</ele><time>2026-03-29T09:27:20.002Z</time></trkpt><trkpt lat="47.40655349106286" lon="-1.525889514015546"><ele>10.0</ele><time>2026-03-29T09:27:22.002Z</time></trkpt><trkpt lat="47.406503534919956" lon="-1.5257677249624633"><ele>10.0</ele><time>2026-03-29T09:27:24.002Z</time></trkpt><trkpt lat="47.40645940419976" lon="-1.5256305132075452"><ele>10.0</ele><time>2026-03-29T09:27:26.002Z</time></trkpt><trkpt lat="47.40639415108357" lon="-1.5254883561297556"><ele>10.0</ele><time>2026-03-29T09:27:28.002Z</time></trkpt><trkpt lat="47.406343692026475" lon="-1.5253627114012143"><ele>10.0</ele><time>2026-03-29T09:27:30.002Z</time></trkpt><trkpt lat="47.40628355187122" lon="-1.5252294391407866"><ele>10.0</ele><time>2026-03-29T09:27:32.002Z</time></trkpt><trkpt lat="47.4062414747173" lon="-1.5250977594419615"><ele>10.0</ele><time>2026-03-29T09:27:34.002Z</time></trkpt><trkpt lat="47.406179574362376" lon="-1.525015700609912"><ele>10.0</ele><time>2026-03-29T09:27:36.002Z</time></trkpt><trkpt lat="47.40609684497807" lon="-1.524884942920436"><ele>10.0</ele><time>2026-03-29T09:27:38.002Z</time></trkpt><trkpt lat="47.40605577365253" lon="-1.5248113498105897"><ele>10.0</ele><time>2026-03-29T09:27:39.002Z</time></trkpt><trkpt lat="47.4059851142088" lon="-1.52469702065133"><ele>10.0</ele><time>2026-03-29T09:27:41.002Z</time></trkpt><trkpt lat="47.40590879698042" lon="-1.5246197395040881"><ele>10.0</ele><time>2026-03-29T09:27:43.002Z</time></trkpt><trkpt lat="47.40582388830129" lon="-1.5245106909438264"><ele>10.0</ele><time>2026-03-29T09:27:45.002Z</time></trkpt><trkpt lat="47.405746565244534" lon="-1.524410359562863"><ele>10.0</ele><time>2026-03-29T09:27:47.002Z</time></trkpt><trkpt lat="47.40567536097709" lon="-1.5243210084750543"><ele>10.0</ele><time>2026-03-29T09:27:49.002Z</time></trkpt><trkpt lat="47.40560235460047" lon="-1.5241902507855782"><ele>10.0</ele><time>2026-03-29T09:27:51.002Z</time></trkpt><trkpt lat="47.40554204680715" lon="-1.524103078992594"><ele>10.0</ele><time>2026-03-29T09:27:53.002Z</time></trkpt><trkpt lat="47.405457808680275" lon="-1.5239874087288268"><ele>10.0</ele><time>2026-03-29T09:27:55.002Z</time></trkpt><trkpt lat="47.405408648818174" lon="-1.523922532798279"><ele>9.6</ele><time>2026-03-29T09:27:56.002Z</time></trkpt><trkpt lat="47.4053624645317" lon="-1.5238573215916043"><ele>9.2</ele><time>2026-03-29T09:27:57.002Z</time></trkpt><trkpt lat="47.405282878361085" lon="-1.5237471833839302"><ele>8.8</ele><time>2026-03-29T09:27:59.002Z</time></trkpt><trkpt lat="47.40523166493271" lon="-1.5236701536937836"><ele>8.4</ele><time>2026-03-29T09:28:00.002Z</time></trkpt><trkpt lat="47.4051544676045" lon="-1.5235756058260086"><ele>8.0</ele><time>2026-03-29T09:28:02.002Z</time></trkpt><trkpt lat="47.40507831801418" lon="-1.5234581753625753"><ele>8.0</ele><time>2026-03-29T09:28:04.002Z</time></trkpt><trkpt lat="47.40500770047996" lon="-1.5233504679068208"><ele>8.0</ele><time>2026-03-29T09:28:06.002Z</time></trkpt><trkpt lat="47.404928365766445" lon="-1.5232354681953073"><ele>8.0</ele><time>2026-03-29T09:28:08.002Z</time></trkpt><trkpt lat="47.404874428219536" lon="-1.523156007753241"><ele>8.0</ele><time>2026-03-29T09:28:10Z</time></trkpt><trkpt lat="47.40481412042622" lon="-1.5230612084283708"><ele>8.0</ele><time>2026-03-29T09:28:12Z</time></trkpt><trkpt lat="47.404750082685986" lon="-1.5229737851782916"><ele>8.0</ele><time>2026-03-29T09:28:13Z</time></trkpt><trkpt lat="47.40466781430636" lon="-1.5228690952076789"><ele>8.0</ele><time>2026-03-29T09:28:15Z</time></trkpt><trkpt lat="47.40459355064426" lon="-1.5227867010995026"><ele>8.0</ele><time>2026-03-29T09:28:17Z</time></trkpt><trkpt lat="47.404512330002525" lon="-1.5226706955596083"><ele>8.0</ele><time>2026-03-29T09:28:19Z</time></trkpt><trkpt lat="47.40445206411872" lon="-1.5226009581252211"><ele>8.0</ele><time>2026-03-29T09:28:21Z</time></trkpt><trkpt lat="47.40439322315846" lon="-1.5225204080357426"><ele>8.0</ele><time>2026-03-29T09:28:22Z</time></trkpt><trkpt lat="47.4043174926633" lon="-1.5223861299469343"><ele>8.0</ele><time>2026-03-29T09:28:24Z</time></trkpt><trkpt lat="47.40424192980621" lon="-1.5222888998701445"><ele>8.0</ele><time>2026-03-29T09:28:26Z</time></trkpt><trkpt lat="47.40419256039653" lon="-1.5222139656557907"><ele>8.0</ele><time>2026-03-29T09:28:28Z</time></trkpt><trkpt lat="47.40411909301523" lon="-1.5221157297506203"><ele>8.0</ele><time>2026-03-29T09:28:30Z</time></trkpt><trkpt lat="47.40406146743093" lon="-1.5219998080297577"><ele>8.0</ele><time>2026-03-29T09:28:32Z</time></trkpt><trkpt lat="47.40398506638352" lon="-1.52188899926983"><ele>8.0</ele><time>2026-03-29T09:28:34Z</time></trkpt><trkpt lat="47.40390665367935" lon="-1.5217799507095682"><ele>8.0</ele><time>2026-03-29T09:28:36Z</time></trkpt><trkpt lat="47.40379907195214" lon="-1.5216825529947147"><ele>8.0</ele><time>2026-03-29T09:28:38Z</time></trkpt><trkpt lat="47.40370892458353" lon="-1.5215700678541526"><ele>8.5</ele><time>2026-03-29T09:28:40Z</time></trkpt><trkpt lat="47.40365762733612" lon="-1.5214859135463101"><ele>9.0</ele><time>2026-03-29T09:28:41Z</time></trkpt><trkpt lat="47.40356316328738" lon="-1.5213758591576678"><ele>9.5</ele><time>2026-03-29T09:28:43Z</time></trkpt><trkpt lat="47.403522133871355" lon="-1.5213032718762023"><ele>10.0</ele><time>2026-03-29T09:28:44Z</time></trkpt><trkpt lat="47.40344351161961" lon="-1.5211996715530018"><ele>10.5</ele><time>2026-03-29T09:28:46Z</time></trkpt><trkpt lat="47.403391208543816" lon="-1.5211349632605176"><ele>11.0</ele><time>2026-03-29T09:28:48Z</time></trkpt><trkpt lat="47.40330965262596" lon="-1.521020801739321"><ele>11.200000000000001</ele><time>2026-03-29T09:28:50Z</time></trkpt><trkpt lat="47.4032600736687" lon="-1.5209463704391577"><ele>11.4</ele><time>2026-03-29T09:28:51Z</time></trkpt><trkpt lat="47.40320412446503" lon="-1.520874453709946"><ele>11.6</ele><time>2026-03-29T09:28:52Z</time></trkpt><trkpt lat="47.403136272958854" lon="-1.5207611303790665"><ele>11.8</ele><time>2026-03-29T09:28:54Z</time></trkpt><trkpt lat="47.403059662363866" lon="-1.5206654090448475"><ele>12.0</ele><time>2026-03-29T09:28:56Z</time></trkpt><trkpt lat="47.402985817796925" lon="-1.5205504931523655"><ele>11.2</ele><time>2026-03-29T09:28:58Z</time></trkpt><trkpt lat="47.40292102568541" lon="-1.520465835930333"><ele>10.399999999999999</ele><time>2026-03-29T09:29:00Z</time></trkpt><trkpt lat="47.40284655247573" lon="-1.5203578770174835"><ele>9.600000000000001</ele><time>2026-03-29T09:29:02Z</time></trkpt><trkpt lat="47.402775683484414" lon="-1.5202697832151504"><ele>8.8</ele><time>2026-03-29T09:29:04Z</time></trkpt><trkpt lat="47.40271177147273" lon="-1.5201355051263423"><ele>8.0</ele><time>2026-03-29T09:29:06Z</time></trkpt><trkpt lat="47.402624934955874" lon="-1.5200076811029761"><ele>8.0</ele><time>2026-03-29T09:29:08Z</time></trkpt><trkpt lat="47.40255880173985" lon="-1.519899638371095"><ele>8.0</ele><time>2026-03-29T09:29:10Z</time></trkpt><trkpt lat="47.40247045648042" lon="-1.519784135745391"><ele>8.0</ele><time>2026-03-29T09:29:12Z</time></trkpt><trkpt lat="47.40242301490847" lon="-1.5197220258428898"><ele>8.0</ele><time>2026-03-29T09:29:13Z</time></trkpt><trkpt lat="47.40235218782667" lon="-1.5196213591857994"><ele>8.0</ele><time>2026-03-29T09:29:15Z</time></trkpt><trkpt lat="47.40227947481666" lon="-1.5195342712118471"><ele>7.833333333333333</ele><time>2026-03-29T09:29:17Z</time></trkpt><trkpt lat="47.402207977182606" lon="-1.5194351132973278"><ele>7.666666666666666</ele><time>2026-03-29T09:29:19Z</time></trkpt><trkpt lat="47.40215005823169" lon="-1.5193352848305546"><ele>7.5</ele><time>2026-03-29T09:29:21Z</time></trkpt><trkpt lat="47.40210592751149" lon="-1.519256830216869"><ele>7.333333333333334</ele><time>2026-03-29T09:29:24Z</time></trkpt><trkpt lat="47.40209037908111" lon="-1.5191456023617824"><ele>7.166666666666667</ele><time>2026-03-29T09:29:27Z</time></trkpt><trkpt lat="47.40212202076558" lon="-1.5190544910743078"><ele>7.0</ele><time>2026-03-29T09:29:29Z</time></trkpt><trkpt lat="47.40218383730147" lon="-1.5189886931344112"><ele>7.0</ele><time>2026-03-29T09:29:32Z</time></trkpt><trkpt lat="47.402217700190285" lon="-1.518867323176487"><ele>6.999999999999999</ele><time>2026-03-29T09:29:35Z</time></trkpt><trkpt lat="47.4021167820761" lon="-1.5187502279891807"><ele>6.999999999999999</ele><time>2026-03-29T09:29:37Z</time></trkpt><trkpt lat="47.402034178420344" lon="-1.5186506509795026"><ele>7.0</ele><time>2026-03-29T09:29:39Z</time></trkpt><trkpt lat="47.40198271353487" lon="-1.5185913909240798"><ele>7.0</ele><time>2026-03-29T09:29:40Z</time></trkpt><trkpt lat="47.40189985842202" lon="-1.5184423606856898"><ele>7.5</ele><time>2026-03-29T09:29:42Z</time></trkpt><trkpt lat="47.40181880541835" lon="-1.518302047626598"><ele>8.0</ele><time>2026-03-29T09:29:44Z</time></trkpt><trkpt lat="47.4017507443646" lon="-1.518167685718758"><ele>8.5</ele><time>2026-03-29T09:29:46Z</time></trkpt><trkpt lat="47.40167275075559" lon="-1.5180292166783642"><ele>9.0</ele><time>2026-03-29T09:29:48Z</time></trkpt><trkpt lat="47.40160808437262" lon="-1.5178759116693565"><ele>9.0</ele><time>2026-03-29T09:29:50Z</time></trkpt><trkpt lat="47.40156143908147" lon="-1.5177963674082586"><ele>9.0</ele><time>2026-03-29T09:29:51Z</time></trkpt><trkpt lat="47.401520200117865" lon="-1.517709614710433"><ele>9.0</ele><time>2026-03-29T09:29:52Z</time></trkpt><trkpt lat="47.4014787935162" lon="-1.517627723516447"><ele>9.0</ele><time>2026-03-29T09:29:53Z</time></trkpt><trkpt lat="47.40144446962271" lon="-1.5175384562476701"><ele>9.0</ele><time>2026-03-29T09:29:54Z</time></trkpt><trkpt lat="47.4014277896354" lon="-1.5174346044673745"><ele>9.0</ele><time>2026-03-29T09:29:55Z</time></trkpt><trkpt lat="47.4013638357142" lon="-1.5172876697047775"><ele>9.0</ele><time>2026-03-29T09:29:57Z</time></trkpt><trkpt lat="47.401334960057774" lon="-1.5172043535872521"><ele>9.0</ele><time>2026-03-29T09:29:58Z</time></trkpt><trkpt lat="47.40127771165911" lon="-1.5170497074737372"><ele>9.0</ele><time>2026-03-29T09:30:00Z</time></trkpt><trkpt lat="47.401249674193004" lon="-1.5169538185014546"><ele>9.0</ele><time>2026-03-29T09:30:01Z</time></trkpt><trkpt lat="47.40120550156329" lon="-1.5167838335051358"><ele>9.0</ele><time>2026-03-29T09:30:03Z</time></trkpt><trkpt lat="47.40117683545444" lon="-1.5166884474470435"><ele>9.0</ele><time>2026-03-29T09:30:04Z</time></trkpt><trkpt lat="47.401136141314545" lon="-1.5165169537081535"><ele>9.0</ele><time>2026-03-29T09:30:06Z</time></trkpt><trkpt lat="47.40110131450687" lon="-1.5163407661034878"><ele>9.0</ele><time>2026-03-29T09:30:08Z</time></trkpt><trkpt lat="47.40106686488483" lon="-1.5161508321776205"><ele>9.0</ele><time>2026-03-29T09:30:10Z</time></trkpt><trkpt lat="47.40103388209585" lon="-1.5159752313061765"><ele>9.0</ele><time>2026-03-29T09:30:12Z</time></trkpt><trkpt lat="47.40101116713826" lon="-1.5158873889609388"><ele>9.0</ele><time>2026-03-29T09:30:13Z</time></trkpt><trkpt lat="47.400969089984336" lon="-1.5157178230597783"><ele>9.0</ele><time>2026-03-29T09:30:15Z</time></trkpt><trkpt lat="47.40094650075529" lon="-1.5155678708120393"><ele>9.0</ele><time>2026-03-29T09:30:17Z</time></trkpt><trkpt lat="47.400929653129914" lon="-1.5154600795372533"><ele>9.0</ele><time>2026-03-29T09:30:18Z</time></trkpt><trkpt lat="47.40091167394761" lon="-1.5153646934791611"><ele>9.0</ele><time>2026-03-29T09:30:19Z</time></trkpt><trkpt lat="47.400874290659466" lon="-1.5151972230537936"><ele>9.0</ele><time>2026-03-29T09:30:21Z</time></trkpt><trkpt lat="47.400839799127915" lon="-1.5150295849903626"><ele>9.0</ele><time>2026-03-29T09:30:23Z</time></trkpt><trkpt lat="47.400801954835096" lon="-1.514857755975346"><ele>9.0</ele><time>2026-03-29T09:30:25Z</time></trkpt><trkpt lat="47.40076566119436" lon="-1.5146953146918813"><ele>9.0</ele><time>2026-03-29T09:30:27Z</time></trkpt><trkpt lat="47.40073414523844" lon="-1.514541003854493"><ele>9.0</ele><time>2026-03-29T09:30:29Z</time></trkpt><trkpt lat="47.40071503449921" lon="-1.514450646938304"><ele>9.0</ele><time>2026-03-29T09:30:30Z</time></trkpt><trkpt lat="47.40068691321407" lon="-1.514287116007427"><ele>9.0</ele><time>2026-03-29T09:30:32Z</time></trkpt><trkpt lat="47.400667090013066" lon="-1.5141930710538423"><ele>9.0</ele><time>2026-03-29T09:30:33Z</time></trkpt><trkpt lat="47.40064085465614" lon="-1.5140344016268048"><ele>9.0</ele><time>2026-03-29T09:30:35Z</time></trkpt><trkpt lat="47.40060028624479" lon="-1.5138653386398346"><ele>9.0</ele><time>2026-03-29T09:30:37Z</time></trkpt><trkpt lat="47.40054907281641" lon="-1.5136942639961035"><ele>9.0</ele><time>2026-03-29T09:30:39Z</time></trkpt><trkpt lat="47.40052623213027" lon="-1.513603907079914"><ele>9.0</ele><time>2026-03-29T09:30:40Z</time></trkpt><trkpt lat="47.40048855547551" lon="-1.513453451917985"><ele>9.0</ele><time>2026-03-29T09:30:42Z</time></trkpt><trkpt lat="47.40046571478937" lon="-1.513357395307639"><ele>9.0</ele><time>2026-03-29T09:30:43Z</time></trkpt><trkpt lat="47.40044065289889" lon="-1.5132666192962911"><ele>9.0</ele><time>2026-03-29T09:30:44Z</time></trkpt><trkpt lat="47.400430049791375" lon="-1.5131741669043088"><ele>9.0</ele><time>2026-03-29T09:30:45Z</time></trkpt><trkpt lat="47.4003838655049" lon="-1.5130296628936315"><ele>9.0</ele><time>2026-03-29T09:30:47Z</time></trkpt><trkpt lat="47.40034057297502" lon="-1.5128709096475623"><ele>9.0</ele><time>2026-03-29T09:30:49Z</time></trkpt><trkpt lat="47.40030486606751" lon="-1.5127257350846313"><ele>9.0</ele><time>2026-03-29T09:30:51Z</time></trkpt><trkpt lat="47.40025113806818" lon="-1.5125980786993285"><ele>9.0</ele><time>2026-03-29T09:30:53Z</time></trkpt><trkpt lat="47.40019619469289" lon="-1.5124422591193694"><ele>9.0</ele><time>2026-03-29T09:30:55Z</time></trkpt><trkpt lat="47.40017419219706" lon="-1.5123053826405781"><ele>9.0</ele><time>2026-03-29T09:30:57Z</time></trkpt><trkpt lat="47.40013638981376" lon="-1.5122301131500975"><ele>9.0</ele><time>2026-03-29T09:30:58Z</time></trkpt><trkpt lat="47.40007197488789" lon="-1.5120897162719742"><ele>9.0</ele><time>2026-03-29T09:31:00Z</time></trkpt><trkpt lat="47.39999335263614" lon="-1.5119516663267387"><ele>9.0</ele><time>2026-03-29T09:31:02Z</time></trkpt><trkpt lat="47.39989834376369" lon="-1.5118063241257442"><ele>9.0</ele><time>2026-03-29T09:31:04Z</time></trkpt><trkpt lat="47.39981452473197" lon="-1.5116827748729955"><ele>9.166666666666666</ele><time>2026-03-29T09:31:06Z</time></trkpt><trkpt lat="47.39972291053031" lon="-1.5115450602038871"><ele>9.333333333333334</ele><time>2026-03-29T09:31:08Z</time></trkpt><trkpt lat="47.39963008095268" lon="-1.5114206727608213"><ele>9.5</ele><time>2026-03-29T09:31:10Z</time></trkpt><trkpt lat="47.39958636932764" lon="-1.5113510191454658"><ele>9.666666666666668</ele><time>2026-03-29T09:31:11Z</time></trkpt><trkpt lat="47.399542741521635" lon="-1.5112832933678397"><ele>9.833333333333334</ele><time>2026-03-29T09:31:12Z</time></trkpt><trkpt lat="47.39949626386854" lon="-1.5112147293998963"><ele>10.0</ele><time>2026-03-29T09:31:13Z</time></trkpt><trkpt lat="47.39942719698641" lon="-1.5110871568336255"><ele>10.4</ele><time>2026-03-29T09:31:15Z</time></trkpt><trkpt lat="47.39933269102815" lon="-1.5109762642546658"><ele>10.8</ele><time>2026-03-29T09:31:17Z</time></trkpt><trkpt lat="47.39928319588992" lon="-1.5109178423895602"><ele>11.2</ele><time>2026-03-29T09:31:18Z</time></trkpt><trkpt lat="47.399192210330995" lon="-1.5108244679882292"><ele>11.6</ele><time>2026-03-29T09:31:20Z</time></trkpt><trkpt lat="47.39913814705554" lon="-1.510754395277715"><ele>12.0</ele><time>2026-03-29T09:31:21Z</time></trkpt><trkpt lat="47.399064721583755" lon="-1.5106383059187891"><ele>12.0</ele><time>2026-03-29T09:31:23Z</time></trkpt><trkpt lat="47.39901895639244" lon="-1.5105715859695437"><ele>12.0</ele><time>2026-03-29T09:31:24Z</time></trkpt><trkpt lat="47.39893828057441" lon="-1.5104741044356584"><ele>12.0</ele><time>2026-03-29T09:31:26Z</time></trkpt><trkpt lat="47.39889461085889" lon="-1.5103980805738926"><ele>12.0</ele><time>2026-03-29T09:31:27Z</time></trkpt><trkpt lat="47.39881100137475" lon="-1.510286265985584"><ele>12.0</ele><time>2026-03-29T09:31:29Z</time></trkpt><trkpt lat="47.398759578398796" lon="-1.5102316997959373"><ele>12.0</ele><time>2026-03-29T09:31:30Z</time></trkpt><trkpt lat="47.398664695254894" lon="-1.5101143531515357"><ele>11.666666666666666</ele><time>2026-03-29T09:31:32Z</time></trkpt><trkpt lat="47.39858770747426" lon="-1.5100110881044622"><ele>11.333333333333334</ele><time>2026-03-29T09:31:34Z</time></trkpt><trkpt lat="47.39853108771834" lon="-1.5099253412350173"><ele>11.0</ele><time>2026-03-29T09:31:35Z</time></trkpt><trkpt lat="47.39847995810899" lon="-1.509853592143869"><ele>10.666666666666668</ele><time>2026-03-29T09:31:36Z</time></trkpt><trkpt lat="47.3984310916135" lon="-1.5097783226533883"><ele>10.333333333333334</ele><time>2026-03-29T09:31:37Z</time></trkpt><trkpt lat="47.39836122845057" lon="-1.5096669271602385"><ele>10.0</ele><time>2026-03-29T09:31:39Z</time></trkpt><trkpt lat="47.39831579853538" lon="-1.5095984470113268"><ele>9.8</ele><time>2026-03-29T09:31:40Z</time></trkpt><trkpt lat="47.3982585082272" lon="-1.5095582138761034"><ele>9.6</ele><time>2026-03-29T09:31:41Z</time></trkpt><trkpt lat="47.3981559556419" lon="-1.5094717126353732"><ele>9.4</ele><time>2026-03-29T09:31:43Z</time></trkpt><trkpt lat="47.398053486875625" lon="-1.5093484986587513"><ele>9.2</ele><time>2026-03-29T09:31:45Z</time></trkpt><trkpt lat="47.397999968423875" lon="-1.5092850476517428"><ele>9.0</ele><time>2026-03-29T09:31:46Z</time></trkpt><trkpt lat="47.39792214245293" lon="-1.5091734007014979"><ele>9.0</ele><time>2026-03-29T09:31:48Z</time></trkpt><trkpt lat="47.39787294068131" lon="-1.509102908895825"><ele>9.0</ele><time>2026-03-29T09:31:49Z</time></trkpt><trkpt lat="47.39777105864826" lon="-1.5090049244477497"><ele>9.0</ele><time>2026-03-29T09:31:51Z</time></trkpt><trkpt lat="47.39772361707631" lon="-1.5089166630073534"><ele>9.0</ele><time>2026-03-29T09:31:52Z</time></trkpt><trkpt lat="47.39762881775144" lon="-1.5088667906834825"><ele>9.0</ele><time>2026-03-29T09:31:54Z</time></trkpt><trkpt lat="47.397586363411875" lon="-1.5087620168938383"><ele>9.2</ele><time>2026-03-29T09:31:55Z</time></trkpt><trkpt lat="47.39750103563759" lon="-1.508653052152608"><ele>9.4</ele><time>2026-03-29T09:31:57Z</time></trkpt><trkpt lat="47.397411139726074" lon="-1.5085338614895087"><ele>9.6</ele><time>2026-03-29T09:31:59Z</time></trkpt><trkpt lat="47.39737153523359" lon="-1.5084476117058736"><ele>9.8</ele><time>2026-03-29T09:32:00Z</time></trkpt><trkpt lat="47.397259888283344" lon="-1.5083228889866809"><ele>10.0</ele><time>2026-03-29T09:32:02Z</time></trkpt><trkpt lat="47.397157293788524" lon="-1.5081958193346003"><ele>10.166666666666668</ele><time>2026-03-29T09:32:04Z</time></trkpt><trkpt lat="47.39710918166432" lon="-1.508124573157642"><ele>10.333333333333334</ele><time>2026-03-29T09:32:05Z</time></trkpt><trkpt lat="47.397057130045624" lon="-1.5080593619509675"><ele>10.5</ele><time>2026-03-29T09:32:06Z</time></trkpt><trkpt lat="47.39700851500723" lon="-1.5079803206040598"><ele>10.666666666666666</ele><time>2026-03-29T09:32:07Z</time></trkpt><trkpt lat="47.39692800682727" lon="-1.5079122595503067"><ele>10.833333333333332</ele><time>2026-03-29T09:32:09Z</time></trkpt><trkpt lat="47.39687775731775" lon="-1.5078297816230988"><ele>11.0</ele><time>2026-03-29T09:32:10Z</time></trkpt><trkpt lat="47.39681765907201" lon="-1.5077245049192642"><ele>11.0</ele><time>2026-03-29T09:32:12Z</time></trkpt><trkpt lat="47.39671703432444" lon="-1.5076255984618399"><ele>11.0</ele><time>2026-03-29T09:32:14Z</time></trkpt><trkpt lat="47.39662948534581" lon="-1.5074867103262874"><ele>11.0</ele><time>2026-03-29T09:32:16Z</time></trkpt><trkpt lat="47.39657919392678" lon="-1.5074197389199466"><ele>11.0</ele><time>2026-03-29T09:32:17Z</time></trkpt><trkpt lat="47.396495793990226" lon="-1.5073051583035917"><ele>11.0</ele><time>2026-03-29T09:32:19Z</time></trkpt><trkpt lat="47.396411933048995" lon="-1.5071820281460016"><ele>11.200000000000001</ele><time>2026-03-29T09:32:21Z</time></trkpt><trkpt lat="47.396328658840986" lon="-1.5070754941566913"><ele>11.4</ele><time>2026-03-29T09:32:23Z</time></trkpt><trkpt lat="47.396240858405264" lon="-1.5069728996618714"><ele>11.6</ele><time>2026-03-29T09:32:25Z</time></trkpt><trkpt lat="47.396190357438655" lon="-1.5068735741092887"><ele>11.8</ele><time>2026-03-29T09:32:27Z</time></trkpt><trkpt lat="47.39608478736821" lon="-1.5067781042321648"><ele>12.0</ele><time>2026-03-29T09:32:29Z</time></trkpt><trkpt lat="47.39603256811145" lon="-1.5067206043764079"><ele>12.0</ele><time>2026-03-29T09:32:30Z</time></trkpt><trkpt lat="47.39594057672414" lon="-1.5065988991423571"><ele>12.0</ele><time>2026-03-29T09:32:32Z</time></trkpt><trkpt lat="47.39583840132448" lon="-1.5064468514188252"><ele>12.0</ele><time>2026-03-29T09:32:34Z</time></trkpt><trkpt lat="47.39577763252649" lon="-1.5063569974168263"><ele>12.0</ele><time>2026-03-29T09:32:35Z</time></trkpt><trkpt lat="47.39567981571648" lon="-1.5062360465540607"><ele>11.2</ele><time>2026-03-29T09:32:37Z</time></trkpt><trkpt lat="47.39560458813551" lon="-1.5061288420124967"><ele>10.399999999999999</ele><time>2026-03-29T09:32:39Z</time></trkpt><trkpt lat="47.39550241273585" lon="-1.505956677721353"><ele>9.600000000000001</ele><time>2026-03-29T09:32:41Z</time></trkpt><trkpt lat="47.395447427451046" lon="-1.5059094876064973"><ele>8.8</ele><time>2026-03-29T09:32:42Z</time></trkpt><trkpt lat="47.39539302889946" lon="-1.5058497246368843"><ele>8.0</ele><time>2026-03-29T09:32:43Z</time></trkpt><trkpt lat="47.395333098291786" lon="-1.5057194698615983"><ele>7.999999999999999</ele><time>2026-03-29T09:32:45Z</time></trkpt><trkpt lat="47.395250410817" lon="-1.5056162886335567"><ele>8.0</ele><time>2026-03-29T09:32:47Z</time></trkpt><trkpt lat="47.39520011939797" lon="-1.5055490657701207"><ele>8.0</ele><time>2026-03-29T09:32:48Z</time></trkpt><trkpt lat="47.395146139941545" lon="-1.505487123505683"><ele>8.0</ele><time>2026-03-29T09:32:49Z</time></trkpt><trkpt lat="47.395085538781615" lon="-1.50542442686996"><ele>7.999999999999999</ele><time>2026-03-29T09:32:50Z</time></trkpt><trkpt lat="47.39503155932519" lon="-1.5053624846055222"><ele>8.0</ele><time>2026-03-29T09:32:51Z</time></trkpt><trkpt lat="47.394939232661756" lon="-1.5052574593587826"><ele>7.800000000000001</ele><time>2026-03-29T09:32:53Z</time></trkpt><trkpt lat="47.39485289905909" lon="-1.5051487460746478"><ele>7.6000000000000005</ele><time>2026-03-29T09:32:55Z</time></trkpt><trkpt lat="47.39479229789916" lon="-1.5050789248212288"><ele>7.3999999999999995</ele><time>2026-03-29T09:32:56Z</time></trkpt><trkpt lat="47.394703910730215" lon="-1.5049680322422692"><ele>7.199999999999999</ele><time>2026-03-29T09:32:58Z</time></trkpt><trkpt lat="47.39461757712755" lon="-1.504833418877334"><ele>7.0</ele><time>2026-03-29T09:33:00Z</time></trkpt><trkpt lat="47.394562675661774" lon="-1.5047603286816782"><ele>7.000000000000001</ele><time>2026-03-29T09:33:01Z</time></trkpt><trkpt lat="47.39447122909817" lon="-1.504641138018579"><ele>7.0</ele><time>2026-03-29T09:33:03Z</time></trkpt><trkpt lat="47.39442755938265" lon="-1.5045717358603183"><ele>7.0</ele><time>2026-03-29T09:33:04Z</time></trkpt><trkpt lat="47.394372951283486" lon="-1.5045189298703376"><ele>7.0</ele><time>2026-03-29T09:33:05Z</time></trkpt><trkpt lat="47.39432345614526" lon="-1.5044521261020605"><ele>7.000000000000001</ele><time>2026-03-29T09:33:06Z</time></trkpt><trkpt lat="47.39427165598366" lon="-1.504378365354151"><ele>7.0</ele><time>2026-03-29T09:33:07Z</time></trkpt><trkpt lat="47.39421738316062" lon="-1.5043191891177596"><ele>7.166666666666667</ele><time>2026-03-29T09:33:08Z</time></trkpt><trkpt lat="47.39417362962607" lon="-1.5042517147972287"><ele>7.333333333333334</ele><time>2026-03-29T09:33:09Z</time></trkpt><trkpt lat="47.3940968094835" lon="-1.5041621960713567"><ele>7.5</ele><time>2026-03-29T09:33:11Z</time></trkpt><trkpt lat="47.39405774981472" lon="-1.5040865074857175"><ele>7.666666666666666</ele><time>2026-03-29T09:33:12Z</time></trkpt><trkpt lat="47.39401558884177" lon="-1.5040134172900617"><ele>7.833333333333333</ele><time>2026-03-29T09:33:13Z</time></trkpt><trkpt lat="47.393970703750284" lon="-1.5039353817715346"><ele>8.0</ele><time>2026-03-29T09:33:14Z</time></trkpt><trkpt lat="47.393910102590354" lon="-1.503810659052342"><ele>7.6000000000000005</ele><time>2026-03-29T09:33:16Z</time></trkpt><trkpt lat="47.39382624164912" lon="-1.5036749560399947"><ele>7.200000000000001</ele><time>2026-03-29T09:33:18Z</time></trkpt><trkpt lat="47.39375566602442" lon="-1.503521651030987"><ele>6.8</ele><time>2026-03-29T09:33:20Z</time></trkpt><trkpt lat="47.39371761218402" lon="-1.5034036338343315"><ele>6.4</ele><time>2026-03-29T09:33:22Z</time></trkpt><trkpt lat="47.393689239441784" lon="-1.503318976612299"><ele>6.0</ele><time>2026-03-29T09:33:23Z</time></trkpt><trkpt lat="47.393651981882186" lon="-1.5032362472279959"><ele>6.0</ele><time>2026-03-29T09:33:24Z</time></trkpt><trkpt lat="47.39356372044179" lon="-1.503041200341194"><ele>6.0</ele><time>2026-03-29T09:33:26Z</time></trkpt><trkpt lat="47.39353153393361" lon="-1.502953441814988"><ele>6.0</ele><time>2026-03-29T09:33:27Z</time></trkpt><trkpt lat="47.393493354364665" lon="-1.5028521046056438"><ele>6.0</ele><time>2026-03-29T09:33:28Z</time></trkpt><trkpt lat="47.393460078209074" lon="-1.5027541201575685"><ele>6.0</ele><time>2026-03-29T09:33:29Z</time></trkpt><trkpt lat="47.39341326527986" lon="-1.5025931876166747"><ele>6.166666666666667</ele><time>2026-03-29T09:33:31Z</time></trkpt><trkpt lat="47.393376636363" lon="-1.5024312492474003"><ele>6.333333333333334</ele><time>2026-03-29T09:33:33Z</time></trkpt><trkpt lat="47.39334457558337" lon="-1.5023354440941497"><ele>6.5</ele><time>2026-03-29T09:33:34Z</time></trkpt><trkpt lat="47.39331159279439" lon="-1.502240225674121"><ele>6.666666666666667</ele><time>2026-03-29T09:33:35Z</time></trkpt><trkpt lat="47.39328024447653" lon="-1.5021569933756274"><ele>6.833333333333334</ele><time>2026-03-29T09:33:36.001Z</time></trkpt><trkpt lat="47.39324550148788" lon="-1.502001592890827"><ele>7.0</ele><time>2026-03-29T09:33:38Z</time></trkpt><trkpt lat="47.39320212513897" lon="-1.501857843251435"><ele>7.0</ele><time>2026-03-29T09:33:40Z</time></trkpt><trkpt lat="47.393166879236134" lon="-1.5017236489816583"><ele>6.999999999999999</ele><time>2026-03-29T09:33:42Z</time></trkpt><trkpt lat="47.39312987313363" lon="-1.5016187075539507"><ele>6.999999999999999</ele><time>2026-03-29T09:33:44Z</time></trkpt><trkpt lat="47.39308963999841" lon="-1.5014903806163942"><ele>7.0</ele><time>2026-03-29T09:33:46Z</time></trkpt><trkpt lat="47.393048694401415" lon="-1.5013600420220767"><ele>7.0</ele><time>2026-03-29T09:33:48Z</time></trkpt><trkpt lat="47.39300502468589" lon="-1.501252669842449"><ele>7.000000000000001</ele><time>2026-03-29T09:33:50Z</time></trkpt><trkpt lat="47.392962276979716" lon="-1.5011496562524709"><ele>7.0</ele><time>2026-03-29T09:33:52Z</time></trkpt><trkpt lat="47.3929321021283" lon="-1.501035327093211"><ele>7.0</ele><time>2026-03-29T09:33:54Z</time></trkpt><trkpt lat="47.392912907570036" lon="-1.500912783668843"><ele>7.0</ele><time>2026-03-29T09:33:56Z</time></trkpt><trkpt lat="47.39289991562012" lon="-1.500800549985376"><ele>7.000000000000001</ele><time>2026-03-29T09:33:58Z</time></trkpt><trkpt lat="47.39286487926486" lon="-1.5006728936000733"><ele>7.0</ele><time>2026-03-29T09:34:00Z</time></trkpt><trkpt lat="47.39285540771428" lon="-1.5005252882852222"><ele>7.000000000000001</ele><time>2026-03-29T09:34:02Z</time></trkpt><trkpt lat="47.39282556813899" lon="-1.5004297345890667"><ele>7.0</ele><time>2026-03-29T09:34:03Z</time></trkpt><trkpt lat="47.392805158204766" lon="-1.5003334265216257"><ele>7.0</ele><time>2026-03-29T09:34:04Z</time></trkpt><trkpt lat="47.39277343270126" lon="-1.5002289041890764"><ele>7.0</ele><time>2026-03-29T09:34:05Z</time></trkpt><trkpt lat="47.39272511102948" lon="-1.5000588353737256"><ele>7.000000000000001</ele><time>2026-03-29T09:34:07Z</time></trkpt><trkpt lat="47.3926918767834" lon="-1.4999151695533655"><ele>7.0</ele><time>2026-03-29T09:34:09.001Z</time></trkpt><trkpt lat="47.392657259523304" lon="-1.499752644450869"><ele>7.000000000000001</ele><time>2026-03-29T09:34:11.001Z</time></trkpt><trkpt lat="47.392620840154024" lon="-1.4996172767146487"><ele>7.0</ele><time>2026-03-29T09:34:13.001Z</time></trkpt><trkpt lat="47.39258848600778" lon="-1.4994928892715829"><ele>7.0</ele><time>2026-03-29T09:34:15.001Z</time></trkpt><trkpt lat="47.39255013880077" lon="-1.4993769675507205"><ele>7.0</ele><time>2026-03-29T09:34:17.001Z</time></trkpt><trkpt lat="47.39252930977139" lon="-1.4992824196829453"><ele>7.000000000000001</ele><time>2026-03-29T09:34:19.001Z</time></trkpt><trkpt lat="47.39249934446755" lon="-1.4991960022612467"><ele>7.0</ele><time>2026-03-29T09:34:21.001Z</time></trkpt><trkpt lat="47.39296898250225" lon="-1.5011914819492969"><ele>6.714285714285714</ele><time>2026-03-29T09:43:28Z</time></trkpt><trkpt lat="47.393020154021116" lon="-1.5012561064227494"><ele>6.428571428571429</ele><time>2026-03-29T09:43:31Z</time></trkpt><trkpt lat="47.393061853989394" lon="-1.5013367403312599"><ele>6.142857142857142</ele><time>2026-03-29T09:43:33Z</time></trkpt><trkpt lat="47.393101500391396" lon="-1.50146037340304"><ele>5.857142857142858</ele><time>2026-03-29T09:43:36Z</time></trkpt><trkpt lat="47.393127819567354" lon="-1.5015545021756567"><ele>5.571428571428571</ele><time>2026-03-29T09:43:38Z</time></trkpt><trkpt lat="47.39315661140475" lon="-1.5016524028047002"><ele>5.285714285714286</ele><time>2026-03-29T09:43:40Z</time></trkpt><trkpt lat="47.39318008073363" lon="-1.5017604455365816"><ele>5.0</ele><time>2026-03-29T09:43:42Z</time></trkpt><trkpt lat="47.39321247678939" lon="-1.5018704161061922"><ele>5.0</ele><time>2026-03-29T09:43:44Z</time></trkpt><trkpt lat="47.39324277736935" lon="-1.5020103938891571"><ele>5.0</ele><time>2026-03-29T09:43:46Z</time></trkpt><trkpt lat="47.393267839259835" lon="-1.5021502040340584"><ele>5.0</ele><time>2026-03-29T09:43:48Z</time></trkpt><trkpt lat="47.39328263331893" lon="-1.5022818837328835"><ele>5.0</ele><time>2026-03-29T09:43:50Z</time></trkpt><trkpt lat="47.39330756948087" lon="-1.5023677982403918"><ele>5.0</ele><time>2026-03-29T09:43:51Z</time></trkpt><trkpt lat="47.393348263620766" lon="-1.502513559536545"><ele>5.2</ele><time>2026-03-29T09:43:53Z</time></trkpt><trkpt lat="47.393361423208745" lon="-1.502610789613335"><ele>5.4</ele><time>2026-03-29T09:43:54Z</time></trkpt><trkpt lat="47.39343019672427" lon="-1.5026772581054852"><ele>5.6</ele><time>2026-03-29T09:43:56Z</time></trkpt><trkpt lat="47.393491342707904" lon="-1.5027838759138274"><ele>5.8</ele><time>2026-03-29T09:43:58Z</time></trkpt><trkpt lat="47.39355085422042" lon="-1.5029237698777604"><ele>6.0</ele><time>2026-03-29T09:44:00Z</time></trkpt><trkpt lat="47.393586435399385" lon="-1.5030671842410257"><ele>6.0</ele><time>2026-03-29T09:44:02Z</time></trkpt><trkpt lat="47.39364519254062" lon="-1.5031984448446922"><ele>6.0</ele><time>2026-03-29T09:44:04Z</time></trkpt><trkpt lat="47.39367239181641" lon="-1.5032861195518665"><ele>6.0</ele><time>2026-03-29T09:44:05Z</time></trkpt><trkpt lat="47.39375051115397" lon="-1.5034222416593725"><ele>6.0</ele><time>2026-03-29T09:44:07Z</time></trkpt><trkpt lat="47.39383579701874" lon="-1.503539923579901"><ele>6.0</ele><time>2026-03-29T09:44:09Z</time></trkpt><trkpt lat="47.39392129243109" lon="-1.503631789238661"><ele>6.333333333333333</ele><time>2026-03-29T09:44:11Z</time></trkpt><trkpt lat="47.393986377909215" lon="-1.5037524886443314"><ele>6.666666666666666</ele><time>2026-03-29T09:44:13Z</time></trkpt><trkpt lat="47.39401215226147" lon="-1.5038454439505038"><ele>7.0</ele><time>2026-03-29T09:44:14Z</time></trkpt><trkpt lat="47.39403721415195" lon="-1.5039394889040887"><ele>7.333333333333333</ele><time>2026-03-29T09:44:15Z</time></trkpt><trkpt lat="47.39407246005479" lon="-1.5040226373835504"><ele>7.666666666666666</ele><time>2026-03-29T09:44:16Z</time></trkpt><trkpt lat="47.39415359687749" lon="-1.5041431691511573"><ele>8.0</ele><time>2026-03-29T09:44:18Z</time></trkpt><trkpt lat="47.39422660325411" lon="-1.5042550675584974"><ele>8.0</ele><time>2026-03-29T09:44:20Z</time></trkpt><trkpt lat="47.39430602178666" lon="-1.5043838974102441"><ele>8.0</ele><time>2026-03-29T09:44:22Z</time></trkpt><trkpt lat="47.394379656806024" lon="-1.5044929459705059"><ele>8.0</ele><time>2026-03-29T09:44:24Z</time></trkpt><trkpt lat="47.394455219663115" lon="-1.5045779384686653"><ele>8.0</ele><time>2026-03-29T09:44:26Z</time></trkpt><trkpt lat="47.39449997902605" lon="-1.504654968158812"><ele>8.0</ele><time>2026-03-29T09:44:27Z</time></trkpt><trkpt lat="47.39458656408581" lon="-1.5047969575985378"><ele>7.800000000000001</ele><time>2026-03-29T09:44:29Z</time></trkpt><trkpt lat="47.39463467621002" lon="-1.5048653539284178"><ele>7.6000000000000005</ele><time>2026-03-29T09:44:30Z</time></trkpt><trkpt lat="47.3947192077035" lon="-1.5049744863077112"><ele>7.3999999999999995</ele><time>2026-03-29T09:44:32Z</time></trkpt><trkpt lat="47.394775324545236" lon="-1.5050227660699793"><ele>7.199999999999999</ele><time>2026-03-29T09:44:33Z</time></trkpt><trkpt lat="47.394827040887805" lon="-1.5051326528205584"><ele>7.0</ele><time>2026-03-29T09:44:34Z</time></trkpt><trkpt lat="47.39493303005341" lon="-1.5052151307477664"><ele>6.833333333333334</ele><time>2026-03-29T09:44:36Z</time></trkpt><trkpt lat="47.394972634545894" lon="-1.5053330641253901"><ele>6.666666666666667</ele><time>2026-03-29T09:44:37Z</time></trkpt><trkpt lat="47.39502326124105" lon="-1.5053926594569398"><ele>6.5</ele><time>2026-03-29T09:44:38Z</time></trkpt><trkpt lat="47.39505783659163" lon="-1.5054741315557671"><ele>6.333333333333334</ele><time>2026-03-29T09:44:39Z</time></trkpt><trkpt lat="47.39513503391984" lon="-1.5055841859444097"><ele>6.166666666666667</ele><time>2026-03-29T09:44:41Z</time></trkpt><trkpt lat="47.395185660615" lon="-1.505668591709347"><ele>6.0</ele><time>2026-03-29T09:44:42Z</time></trkpt><trkpt lat="47.39526709080431" lon="-1.5057380776866391"><ele>6.4</ele><time>2026-03-29T09:44:44Z</time></trkpt><trkpt lat="47.3953193938801" lon="-1.5057904645814613"><ele>6.8</ele><time>2026-03-29T09:44:45Z</time></trkpt><trkpt lat="47.39541804888043" lon="-1.5058809053166824"><ele>7.200000000000001</ele><time>2026-03-29T09:44:47Z</time></trkpt><trkpt lat="47.39550534640196" lon="-1.50600587949297"><ele>7.6000000000000005</ele><time>2026-03-29T09:44:49Z</time></trkpt><trkpt lat="47.39559750542733" lon="-1.5061133354916294"><ele>8.0</ele><time>2026-03-29T09:44:51Z</time></trkpt><trkpt lat="47.39567989953551" lon="-1.5061901137246807"><ele>8.8</ele><time>2026-03-29T09:44:53Z</time></trkpt><trkpt lat="47.395765436857374" lon="-1.5063097234829388"><ele>9.600000000000001</ele><time>2026-03-29T09:44:55Z</time></trkpt><trkpt lat="47.39581568636689" lon="-1.5063704922809324"><ele>10.399999999999999</ele><time>2026-03-29T09:44:56Z</time></trkpt><trkpt lat="47.39590520509276" lon="-1.5064307581647358"><ele>11.2</ele><time>2026-03-29T09:44:58Z</time></trkpt><trkpt lat="47.39598135468307" lon="-1.5065688081099713"><ele>12.0</ele><time>2026-03-29T09:45:00Z</time></trkpt><trkpt lat="47.396074100441666" lon="-1.5066755935563767"><ele>12.0</ele><time>2026-03-29T09:45:02Z</time></trkpt><trkpt lat="47.396164373538824" lon="-1.5067908447249856"><ele>12.0</ele><time>2026-03-29T09:45:04Z</time></trkpt><trkpt lat="47.39624463026169" lon="-1.506922943518969"><ele>12.0</ele><time>2026-03-29T09:45:06Z</time></trkpt><trkpt lat="47.39629806489441" lon="-1.5069822873934235"><ele>12.0</ele><time>2026-03-29T09:45:07Z</time></trkpt><trkpt lat="47.39638485950175" lon="-1.5071096085025995"><ele>12.0</ele><time>2026-03-29T09:45:09Z</time></trkpt><trkpt lat="47.39648087420258" lon="-1.5072320681079359"><ele>11.8</ele><time>2026-03-29T09:45:11Z</time></trkpt><trkpt lat="47.396572907499404" lon="-1.5073616523309679"><ele>11.6</ele><time>2026-03-29T09:45:13Z</time></trkpt><trkpt lat="47.39662202545199" lon="-1.5074215829386444"><ele>11.4</ele><time>2026-03-29T09:45:14Z</time></trkpt><trkpt lat="47.39671732769105" lon="-1.5074994508191082"><ele>11.200000000000001</ele><time>2026-03-29T09:45:16Z</time></trkpt><trkpt lat="47.396758566654654" lon="-1.5075750555857155"><ele>11.0</ele><time>2026-03-29T09:45:17Z</time></trkpt><trkpt lat="47.39683178257886" lon="-1.5077085793032383"><ele>11.0</ele><time>2026-03-29T09:45:19Z</time></trkpt><trkpt lat="47.39690600433144" lon="-1.5078229922815298"><ele>11.0</ele><time>2026-03-29T09:45:21Z</time></trkpt><trkpt lat="47.39695545756015" lon="-1.5078858565553164"><ele>11.0</ele><time>2026-03-29T09:45:22Z</time></trkpt><trkpt lat="47.39705637567434" lon="-1.5080104116364457"><ele>11.0</ele><time>2026-03-29T09:45:24Z</time></trkpt><trkpt lat="47.39717208784762" lon="-1.5080579370274283"><ele>11.0</ele><time>2026-03-29T09:45:26Z</time></trkpt><trkpt lat="47.39727204204294" lon="-1.5081529878093936"><ele>10.8</ele><time>2026-03-29T09:45:28Z</time></trkpt><trkpt lat="47.39732405175212" lon="-1.508243344725583"><ele>10.600000000000001</ele><time>2026-03-29T09:45:29Z</time></trkpt><trkpt lat="47.39741101399753" lon="-1.5083638764931897"><ele>10.4</ele><time>2026-03-29T09:45:31Z</time></trkpt><trkpt lat="47.39750409503225" lon="-1.5084629505886775"><ele>10.2</ele><time>2026-03-29T09:45:33Z</time></trkpt><trkpt lat="47.39758783024493" lon="-1.5085745975389224"><ele>10.0</ele><time>2026-03-29T09:45:35Z</time></trkpt><trkpt lat="47.39766817078683" lon="-1.5086888428791507"><ele>9.8</ele><time>2026-03-29T09:45:37Z</time></trkpt><trkpt lat="47.397755133032234" lon="-1.508799484001015"><ele>9.6</ele><time>2026-03-29T09:45:39Z</time></trkpt><trkpt lat="47.397842849648924" lon="-1.5089438203736292"><ele>9.4</ele><time>2026-03-29T09:45:41Z</time></trkpt><trkpt lat="47.39793253601286" lon="-1.509074661882137"><ele>9.2</ele><time>2026-03-29T09:45:43Z</time></trkpt><trkpt lat="47.39796614744458" lon="-1.5091568045332182"><ele>9.0</ele><time>2026-03-29T09:45:44Z</time></trkpt><trkpt lat="47.39803399895075" lon="-1.509188069032048"><ele>8.8</ele><time>2026-03-29T09:45:45Z</time></trkpt><trkpt lat="47.39808114715609" lon="-1.5092604886754502"><ele>8.600000000000001</ele><time>2026-03-29T09:45:46Z</time></trkpt><trkpt lat="47.39816718739215" lon="-1.5093874745084992"><ele>8.4</ele><time>2026-03-29T09:45:48Z</time></trkpt><trkpt lat="47.39826630339715" lon="-1.5094498358680954"><ele>8.200000000000001</ele><time>2026-03-29T09:45:50Z</time></trkpt><trkpt lat="47.39833679520282" lon="-1.5096054039909592"><ele>8.0</ele><time>2026-03-29T09:45:52Z</time></trkpt><trkpt lat="47.3984242184529" lon="-1.5097197331502192"><ele>8.4</ele><time>2026-03-29T09:45:54Z</time></trkpt><trkpt lat="47.398511306426855" lon="-1.5098406840129845"><ele>8.8</ele><time>2026-03-29T09:45:56Z</time></trkpt><trkpt lat="47.39859495782051" lon="-1.5099559351815934"><ele>9.2</ele><time>2026-03-29T09:45:58Z</time></trkpt><trkpt lat="47.398627982519" lon="-1.5100734494640584"><ele>9.6</ele><time>2026-03-29T09:45:59Z</time></trkpt><trkpt lat="47.398668928115995" lon="-1.5101545024677274"><ele>10.0</ele><time>2026-03-29T09:46:00Z</time></trkpt><trkpt lat="47.3987638112599" lon="-1.5102581866099594"><ele>10.4</ele><time>2026-03-29T09:46:02Z</time></trkpt><trkpt lat="47.39883572798911" lon="-1.5104105696096182"><ele>10.8</ele><time>2026-03-29T09:46:04Z</time></trkpt><trkpt lat="47.39890743517074" lon="-1.5105159301324844"><ele>11.2</ele><time>2026-03-29T09:46:06Z</time></trkpt><trkpt lat="47.39898882345054" lon="-1.5106083825244667"><ele>11.6</ele><time>2026-03-29T09:46:08Z</time></trkpt><trkpt lat="47.39907155283484" lon="-1.5106064546867373"><ele>12.0</ele><time>2026-03-29T09:46:09Z</time></trkpt><trkpt lat="47.39911786284986" lon="-1.5106756053879025"><ele>12.0</ele><time>2026-03-29T09:46:10Z</time></trkpt><trkpt lat="47.39921605684552" lon="-1.5107248071595194"><ele>12.0</ele><time>2026-03-29T09:46:12Z</time></trkpt><trkpt lat="47.399309473156364" lon="-1.51082304306469"><ele>12.0</ele><time>2026-03-29T09:46:14Z</time></trkpt><trkpt lat="47.39941298966053" lon="-1.5109088737531666"><ele>12.0</ele><time>2026-03-29T09:46:16Z</time></trkpt><trkpt lat="47.39947966770026" lon="-1.511078439654327"><ele>12.0</ele><time>2026-03-29T09:46:18Z</time></trkpt><trkpt lat="47.399591398469546" lon="-1.511173322798229"><ele>12.0</ele><time>2026-03-29T09:46:20Z</time></trkpt><trkpt lat="47.39967915699575" lon="-1.51129796169839"><ele>12.0</ele><time>2026-03-29T09:46:22Z</time></trkpt><trkpt lat="47.39971674983148" lon="-1.5113943535848626"><ele>12.0</ele><time>2026-03-29T09:46:23Z</time></trkpt><trkpt lat="47.3998037539864" lon="-1.5115087665631541"><ele>12.0</ele><time>2026-03-29T09:46:25Z</time></trkpt><trkpt lat="47.39989859522078" lon="-1.5116076730205785"><ele>11.6</ele><time>2026-03-29T09:46:27Z</time></trkpt><trkpt lat="47.399994484193066" lon="-1.5117479022606384"><ele>11.2</ele><time>2026-03-29T09:46:29Z</time></trkpt><trkpt lat="47.40003287330959" lon="-1.5118261892362608"><ele>10.8</ele><time>2026-03-29T09:46:30Z</time></trkpt><trkpt lat="47.40009259436969" lon="-1.511893831194855"><ele>10.4</ele><time>2026-03-29T09:46:31Z</time></trkpt><trkpt lat="47.40017607812528" lon="-1.512028779835917"><ele>10.0</ele><time>2026-03-29T09:46:33Z</time></trkpt><trkpt lat="47.40026677031759" lon="-1.512143947185494"><ele>9.833333333333334</ele><time>2026-03-29T09:46:35Z</time></trkpt><trkpt lat="47.40030494988654" lon="-1.51227713562689"><ele>9.666666666666668</ele><time>2026-03-29T09:46:37Z</time></trkpt><trkpt lat="47.40031739701275" lon="-1.5123767964555996"><ele>9.5</ele><time>2026-03-29T09:46:38Z</time></trkpt><trkpt lat="47.40032183942143" lon="-1.5124903712435742"><ele>9.333333333333334</ele><time>2026-03-29T09:46:39Z</time></trkpt><trkpt lat="47.400400796949306" lon="-1.5126193687333842"><ele>9.166666666666666</ele><time>2026-03-29T09:46:41Z</time></trkpt><trkpt lat="47.40041621965114" lon="-1.512732272969105"><ele>9.0</ele><time>2026-03-29T09:46:42Z</time></trkpt><trkpt lat="47.400449370078185" lon="-1.5128119848682664"><ele>9.2</ele><time>2026-03-29T09:46:43Z</time></trkpt><trkpt lat="47.400464960418084" lon="-1.5129082929357074"><ele>9.4</ele><time>2026-03-29T09:46:44Z</time></trkpt><trkpt lat="47.40050154742543" lon="-1.5130685549243474"><ele>9.6</ele><time>2026-03-29T09:46:46Z</time></trkpt><trkpt lat="47.4005247233877" lon="-1.5132465027286794"><ele>9.8</ele><time>2026-03-29T09:46:48Z</time></trkpt><trkpt lat="47.40055896346215" lon="-1.5134300664081364"><ele>10.0</ele><time>2026-03-29T09:46:50Z</time></trkpt><trkpt lat="47.40058607891891" lon="-1.5136084333076267"><ele>9.8</ele><time>2026-03-29T09:46:52Z</time></trkpt><trkpt lat="47.40060971588586" lon="-1.5136996284141333"><ele>9.6</ele><time>2026-03-29T09:46:53Z</time></trkpt><trkpt lat="47.40063020963911" lon="-1.513874642552355"><ele>9.4</ele><time>2026-03-29T09:46:55Z</time></trkpt><trkpt lat="47.40064001646582" lon="-1.5139736328288111"><ele>9.2</ele><time>2026-03-29T09:46:56Z</time></trkpt><trkpt lat="47.40068423100505" lon="-1.51415778324149"><ele>9.0</ele><time>2026-03-29T09:46:58Z</time></trkpt><trkpt lat="47.40069672004078" lon="-1.5142622217550075"><ele>9.0</ele><time>2026-03-29T09:46:59Z</time></trkpt><trkpt lat="47.400711095004716" lon="-1.5143573563560044"><ele>9.0</ele><time>2026-03-29T09:47:00Z</time></trkpt><trkpt lat="47.400730121924916" lon="-1.5145330410464801"><ele>9.0</ele><time>2026-03-29T09:47:02Z</time></trkpt><trkpt lat="47.40077001978401" lon="-1.51470746845148"><ele>9.0</ele><time>2026-03-29T09:47:04Z</time></trkpt><trkpt lat="47.4007929861987" lon="-1.5147978253676693"><ele>9.0</ele><time>2026-03-29T09:47:05Z</time></trkpt><trkpt lat="47.400810043371656" lon="-1.514892792330603"><ele>9.0</ele><time>2026-03-29T09:47:06Z</time></trkpt><trkpt lat="47.400817754722574" lon="-1.5149892680361075"><ele>9.0</ele><time>2026-03-29T09:47:07Z</time></trkpt><trkpt lat="47.40084591791723" lon="-1.5151606779559657"><ele>9.0</ele><time>2026-03-29T09:47:09Z</time></trkpt><trkpt lat="47.40086087961439" lon="-1.515255980195026"><ele>9.0</ele><time>2026-03-29T09:47:10Z</time></trkpt><trkpt lat="47.40087927789185" lon="-1.5153489355011986"><ele>9.0</ele><time>2026-03-29T09:47:11Z</time></trkpt><trkpt lat="47.40091661927048" lon="-1.515509365127902"><ele>9.0</ele><time>2026-03-29T09:47:13Z</time></trkpt><trkpt lat="47.40093355071489" lon="-1.5156020689769794"><ele>9.0</ele><time>2026-03-29T09:47:14Z</time></trkpt><trkpt lat="47.40097017963175" lon="-1.5157389454557706"><ele>9.0</ele><time>2026-03-29T09:47:16Z</time></trkpt><trkpt lat="47.400990673385" lon="-1.5158364269896558"><ele>9.0</ele><time>2026-03-29T09:47:17Z</time></trkpt><trkpt lat="47.40102684129719" lon="-1.5160130336894801"><ele>9.0</ele><time>2026-03-29T09:47:19Z</time></trkpt><trkpt lat="47.401056513234415" lon="-1.5161113534136825"><ele>9.0</ele><time>2026-03-29T09:47:20Z</time></trkpt><trkpt lat="47.40109217823241" lon="-1.5162660833462291"><ele>9.0</ele><time>2026-03-29T09:47:22Z</time></trkpt><trkpt lat="47.40113060925845" lon="-1.5164257586016472"><ele>9.0</ele><time>2026-03-29T09:47:24Z</time></trkpt><trkpt lat="47.40116623234693" lon="-1.5165982581689177"><ele>9.0</ele><time>2026-03-29T09:47:26Z</time></trkpt><trkpt lat="47.40119565282706" lon="-1.5166851785048066"><ele>9.0</ele><time>2026-03-29T09:47:27Z</time></trkpt><trkpt lat="47.40123542495761" lon="-1.5168558340533793"><ele>9.0</ele><time>2026-03-29T09:47:29Z</time></trkpt><trkpt lat="47.40128835667614" lon="-1.5170238073929372"><ele>9.0</ele><time>2026-03-29T09:47:31Z</time></trkpt><trkpt lat="47.40131052681003" lon="-1.5171150863184752"><ele>9.0</ele><time>2026-03-29T09:47:32Z</time></trkpt><trkpt lat="47.40136153069083" lon="-1.5172696486129587"><ele>9.0</ele><time>2026-03-29T09:47:34Z</time></trkpt><trkpt lat="47.40142707717363" lon="-1.5174096263959234"><ele>9.0</ele><time>2026-03-29T09:47:36Z</time></trkpt><trkpt lat="47.401485708586314" lon="-1.517553543673379"><ele>9.0</ele><time>2026-03-29T09:47:38Z</time></trkpt><trkpt lat="47.40156915043239" lon="-1.5176523663117714"><ele>9.0</ele><time>2026-03-29T09:47:40Z</time></trkpt><trkpt lat="47.40160825201068" lon="-1.5177316591157743"><ele>9.0</ele><time>2026-03-29T09:47:41Z</time></trkpt><trkpt lat="47.40165380765442" lon="-1.5178998000933954"><ele>9.0</ele><time>2026-03-29T09:47:43Z</time></trkpt><trkpt lat="47.401692615866104" lon="-1.5180465672179293"><ele>9.0</ele><time>2026-03-29T09:47:45Z</time></trkpt><trkpt lat="47.40176285621468" lon="-1.5181589685394596"><ele>9.0</ele><time>2026-03-29T09:47:47Z</time></trkpt><trkpt lat="47.40180556201134" lon="-1.5183013770743443"><ele>9.0</ele><time>2026-03-29T09:47:49Z</time></trkpt><trkpt lat="47.40187165331785" lon="-1.5184035524740054"><ele>9.0</ele><time>2026-03-29T09:47:51Z</time></trkpt><trkpt lat="47.40196251314823" lon="-1.5184851922108964"><ele>9.0</ele><time>2026-03-29T09:47:53Z</time></trkpt><trkpt lat="47.40203765691016" lon="-1.5186065621688203"><ele>9.0</ele><time>2026-03-29T09:47:55Z</time></trkpt><trkpt lat="47.402057228654066" lon="-1.5187068935497838"><ele>9.0</ele><time>2026-03-29T09:47:56Z</time></trkpt><trkpt lat="47.40211866800431" lon="-1.5188088174923497"><ele>9.0</ele><time>2026-03-29T09:47:58Z</time></trkpt><trkpt lat="47.40217482675556" lon="-1.5189117472632965"><ele>9.0</ele><time>2026-03-29T09:48:00Z</time></trkpt><trkpt lat="47.402124409607985" lon="-1.519041499124392"><ele>9.0</ele><time>2026-03-29T09:48:02Z</time></trkpt><trkpt lat="47.40208497275356" lon="-1.519128084184154"><ele>9.0</ele><time>2026-03-29T09:48:05Z</time></trkpt><trkpt lat="47.402105801782945" lon="-1.5192382223918282"><ele>9.0</ele><time>2026-03-29T09:48:09Z</time></trkpt><trkpt lat="47.40218756724838" lon="-1.5193414874389015"><ele>9.0</ele><time>2026-03-29T09:48:11Z</time></trkpt><trkpt lat="47.40229917228911" lon="-1.5194259770228709"><ele>8.857142857142858</ele><time>2026-03-29T09:48:13Z</time></trkpt><trkpt lat="47.40233944733385" lon="-1.519498396666273"><ele>8.714285714285715</ele><time>2026-03-29T09:48:14Z</time></trkpt><trkpt lat="47.40239610899929" lon="-1.5195586625500763"><ele>8.571428571428571</ele><time>2026-03-29T09:48:15Z</time></trkpt><trkpt lat="47.40245105237458" lon="-1.519615910948738"><ele>8.428571428571429</ele><time>2026-03-29T09:48:16Z</time></trkpt><trkpt lat="47.4025000026891" lon="-1.5196746680899706"><ele>8.285714285714285</ele><time>2026-03-29T09:48:17Z</time></trkpt><trkpt lat="47.40257590082232" lon="-1.5197646059110013"><ele>8.142857142857142</ele><time>2026-03-29T09:48:19Z</time></trkpt><trkpt lat="47.40262154028509" lon="-1.5198345948024836"><ele>8.0</ele><time>2026-03-29T09:48:20Z</time></trkpt><trkpt lat="47.40267870486472" lon="-1.5199028234943002"><ele>8.0</ele><time>2026-03-29T09:48:21Z</time></trkpt><trkpt lat="47.40275569264535" lon="-1.5200164821013062"><ele>8.0</ele><time>2026-03-29T09:48:23Z</time></trkpt><trkpt lat="47.402849947146514" lon="-1.520118489862904"><ele>8.0</ele><time>2026-03-29T09:48:25Z</time></trkpt><trkpt lat="47.402949021242" lon="-1.520243715496287"><ele>8.0</ele><time>2026-03-29T09:48:27Z</time></trkpt><trkpt lat="47.40299042784367" lon="-1.520360978321657"><ele>8.0</ele><time>2026-03-29T09:48:29Z</time></trkpt><trkpt lat="47.40306728989575" lon="-1.52042367495738"><ele>8.8</ele><time>2026-03-29T09:48:30Z</time></trkpt><trkpt lat="47.403140422000924" lon="-1.5205464698388431"><ele>9.600000000000001</ele><time>2026-03-29T09:48:32Z</time></trkpt><trkpt lat="47.403176841370204" lon="-1.520639928059206"><ele>10.399999999999999</ele><time>2026-03-29T09:48:33Z</time></trkpt><trkpt lat="47.40321418274883" lon="-1.5207564365132904"><ele>11.2</ele><time>2026-03-29T09:48:35Z</time></trkpt><trkpt lat="47.40329188299123" lon="-1.5208547562374928"><ele>12.0</ele><time>2026-03-29T09:48:37Z</time></trkpt><trkpt lat="47.40335441198889" lon="-1.5209459513439991"><ele>12.0</ele><time>2026-03-29T09:48:39Z</time></trkpt><trkpt lat="47.4034281727368" lon="-1.521067405120955"><ele>12.0</ele><time>2026-03-29T09:48:41Z</time></trkpt><trkpt lat="47.403502520217934" lon="-1.5211912058307986"><ele>12.0</ele><time>2026-03-29T09:48:43Z</time></trkpt><trkpt lat="47.40360586908404" lon="-1.521298326553331"><ele>12.0</ele><time>2026-03-29T09:48:45Z</time></trkpt><trkpt lat="47.40364442583863" lon="-1.521385498346315"><ele>12.0</ele><time>2026-03-29T09:48:46Z</time></trkpt><trkpt lat="47.403687047816256" lon="-1.5214565768852097"><ele>11.8</ele><time>2026-03-29T09:48:47Z</time></trkpt><trkpt lat="47.403755360327104" lon="-1.5216000750675067"><ele>11.6</ele><time>2026-03-29T09:48:49Z</time></trkpt><trkpt lat="47.40383934699688" lon="-1.5216961316778526"><ele>11.4</ele><time>2026-03-29T09:48:51Z</time></trkpt><trkpt lat="47.40391553849671" lon="-1.521779699252473"><ele>11.200000000000001</ele><time>2026-03-29T09:48:53Z</time></trkpt><trkpt lat="47.40398980215881" lon="-1.5218801982714998"><ele>11.0</ele><time>2026-03-29T09:48:55Z</time></trkpt><trkpt lat="47.40404415880088" lon="-1.5219509415342676"><ele>10.5</ele><time>2026-03-29T09:48:57Z</time></trkpt><trkpt lat="47.40407362119053" lon="-1.5220372751369347"><ele>10.0</ele><time>2026-03-29T09:48:59Z</time></trkpt><trkpt lat="47.40411393814478" lon="-1.5221595671042074"><ele>9.5</ele><time>2026-03-29T09:49:02Z</time></trkpt><trkpt lat="47.40417843688969" lon="-1.5222360938801636"><ele>9.0</ele><time>2026-03-29T09:49:04Z</time></trkpt><trkpt lat="47.404264141849616" lon="-1.5222980361446015"><ele>8.5</ele><time>2026-03-29T09:49:06Z</time></trkpt><trkpt lat="47.40434854761455" lon="-1.52239568531655"><ele>8.0</ele><time>2026-03-29T09:49:08Z</time></trkpt><trkpt lat="47.40442222454343" lon="-1.5225074160858267"><ele>8.0</ele><time>2026-03-29T09:49:10Z</time></trkpt><trkpt lat="47.40449527282957" lon="-1.5225990302874917"><ele>8.0</ele><time>2026-03-29T09:49:12Z</time></trkpt><trkpt lat="47.40458743185494" lon="-1.522699361668455"><ele>8.0</ele><time>2026-03-29T09:49:14Z</time></trkpt><trkpt lat="47.40467414264325" lon="-1.5227933228030082"><ele>8.0</ele><time>2026-03-29T09:49:16Z</time></trkpt><trkpt lat="47.40472326059584" lon="-1.522914692760932"><ele>8.0</ele><time>2026-03-29T09:49:18Z</time></trkpt><trkpt lat="47.404807875908354" lon="-1.5229886211469053"><ele>8.0</ele><time>2026-03-29T09:49:20Z</time></trkpt><trkpt lat="47.40488318730835" lon="-1.523104123772609"><ele>8.0</ele><time>2026-03-29T09:49:22Z</time></trkpt><trkpt lat="47.4049573252419" lon="-1.5232142619802833"><ele>8.0</ele><time>2026-03-29T09:49:24Z</time></trkpt><trkpt lat="47.40502723031435" lon="-1.523325070740211"><ele>8.0</ele><time>2026-03-29T09:49:26Z</time></trkpt><trkpt lat="47.405105810656586" lon="-1.5234038606300235"><ele>8.0</ele><time>2026-03-29T09:49:28Z</time></trkpt><trkpt lat="47.40517680537645" lon="-1.5234832372530582"><ele>8.0</ele><time>2026-03-29T09:49:30Z</time></trkpt><trkpt lat="47.40523661025558" lon="-1.5235911961659077"><ele>8.0</ele><time>2026-03-29T09:49:32Z</time></trkpt><trkpt lat="47.40529222418312" lon="-1.5236999932690745"><ele>8.0</ele><time>2026-03-29T09:49:34Z</time></trkpt><trkpt lat="47.4053632608125" lon="-1.5238030906780844"><ele>8.0</ele><time>2026-03-29T09:49:36Z</time></trkpt><trkpt lat="47.405439997136035" lon="-1.5239020809545403"><ele>8.0</ele><time>2026-03-29T09:49:38Z</time></trkpt><trkpt lat="47.40551673345957" lon="-1.5240206848844178"><ele>8.4</ele><time>2026-03-29T09:49:40Z</time></trkpt><trkpt lat="47.40552281033937" lon="-1.5241168253137953"><ele>8.8</ele><time>2026-03-29T09:49:41Z</time></trkpt><trkpt lat="47.405608263842204" lon="-1.5242467448129544"><ele>9.2</ele><time>2026-03-29T09:49:43Z</time></trkpt><trkpt lat="47.40568952639345" lon="-1.5243328269585261"><ele>9.6</ele><time>2026-03-29T09:49:45Z</time></trkpt><trkpt lat="47.40575897046123" lon="-1.5244312305017602"><ele>10.0</ele><time>2026-03-29T09:49:47Z</time></trkpt><trkpt lat="47.405822631015816" lon="-1.5245477389558446"><ele>9.8</ele><time>2026-03-29T09:49:49Z</time></trkpt><trkpt lat="47.40585205149595" lon="-1.5246313903494968"><ele>9.6</ele><time>2026-03-29T09:49:50Z</time></trkpt><trkpt lat="47.405950832224825" lon="-1.524714957924117"><ele>9.4</ele><time>2026-03-29T09:49:52Z</time></trkpt><trkpt lat="47.40602870010529" lon="-1.5248287841691865"><ele>9.2</ele><time>2026-03-29T09:49:54Z</time></trkpt><trkpt lat="47.406104011505285" lon="-1.52492618188404"><ele>9.0</ele><time>2026-03-29T09:49:56Z</time></trkpt><trkpt lat="47.40617236592565" lon="-1.525011342020263"><ele>9.0</ele><time>2026-03-29T09:49:58Z</time></trkpt><trkpt lat="47.40623020105753" lon="-1.5251446142806906"><ele>9.0</ele><time>2026-03-29T09:50:00Z</time></trkpt><trkpt lat="47.406306266828814" lon="-1.5252892021103996"><ele>9.0</ele><time>2026-03-29T09:50:02Z</time></trkpt><trkpt lat="47.40638681691829" lon="-1.525354832412233"><ele>9.0</ele><time>2026-03-29T09:50:04Z</time></trkpt><trkpt lat="47.40639997650627" lon="-1.5254547446980378"><ele>9.0</ele><time>2026-03-29T09:50:05Z</time></trkpt><trkpt lat="47.40646900147889" lon="-1.525566894562473"><ele>9.2</ele><time>2026-03-29T09:50:07Z</time></trkpt><trkpt lat="47.40655097649191" lon="-1.5256601851447724"><ele>9.4</ele><time>2026-03-29T09:50:09Z</time></trkpt><trkpt lat="47.40657846913431" lon="-1.5258144959821605"><ele>9.6</ele><time>2026-03-29T09:50:11Z</time></trkpt><trkpt lat="47.406624360054174" lon="-1.5259679686292316"><ele>9.8</ele><time>2026-03-29T09:50:13Z</time></trkpt><trkpt lat="47.406631819948" lon="-1.5260623488589433"><ele>10.0</ele><time>2026-03-29T09:50:14Z</time></trkpt><trkpt lat="47.40663483743314" lon="-1.5261718165143636"><ele>10.0</ele><time>2026-03-29T09:50:15Z</time></trkpt><trkpt lat="47.40665516354833" lon="-1.526360576973787"><ele>10.0</ele><time>2026-03-29T09:50:17Z</time></trkpt><trkpt lat="47.4067153456131" lon="-1.5264407079681068"><ele>10.0</ele><time>2026-03-29T09:50:19Z</time></trkpt><trkpt lat="47.40673127122913" lon="-1.5265681128963144"><ele>10.0</ele><time>2026-03-29T09:50:21Z</time></trkpt><trkpt lat="47.40676718768422" lon="-1.5267209988101633"><ele>10.0</ele><time>2026-03-29T09:50:23Z</time></trkpt><trkpt lat="47.40680419378672" lon="-1.5268743876382027"><ele>10.0</ele><time>2026-03-29T09:50:25Z</time></trkpt><trkpt lat="47.406784915409425" lon="-1.5270593762411988"><ele>10.0</ele><time>2026-03-29T09:50:27Z</time></trkpt><trkpt lat="47.40677657541577" lon="-1.5271576121463692"><ele>10.0</ele><time>2026-03-29T09:50:28Z</time></trkpt><trkpt lat="47.406810103028455" lon="-1.5273039601757445"><ele>10.0</ele><time>2026-03-29T09:50:30Z</time></trkpt><trkpt lat="47.406828124120274" lon="-1.527461120860211"><ele>10.0</ele><time>2026-03-29T09:50:32Z</time></trkpt><trkpt lat="47.40684706722144" lon="-1.5276008471860807"><ele>10.0</ele><time>2026-03-29T09:50:34Z</time></trkpt><trkpt lat="47.40683474582378" lon="-1.5277482010438366"><ele>10.0</ele><time>2026-03-29T09:50:36Z</time></trkpt><trkpt lat="47.40683093205784" lon="-1.5279018413289709"><ele>10.0</ele><time>2026-03-29T09:50:38Z</time></trkpt><trkpt lat="47.40683633838538" lon="-1.528061768041484"><ele>10.0</ele><time>2026-03-29T09:50:40Z</time></trkpt><trkpt lat="47.406841367527285" lon="-1.5282247960581707"><ele>10.0</ele><time>2026-03-29T09:50:42Z</time></trkpt><trkpt lat="47.40688600116167" lon="-1.5283098723753619"><ele>10.0</ele><time>2026-03-29T09:50:44Z</time></trkpt><trkpt lat="47.40689010829423" lon="-1.528457142414086"><ele>10.0</ele><time>2026-03-29T09:50:46Z</time></trkpt><trkpt lat="47.40686751906518" lon="-1.528625031934612"><ele>10.0</ele><time>2026-03-29T09:50:48Z</time></trkpt><trkpt lat="47.40683411718104" lon="-1.5287981182351045"><ele>10.0</ele><time>2026-03-29T09:50:50Z</time></trkpt><trkpt lat="47.40680700172428" lon="-1.528943795712226"><ele>10.0</ele><time>2026-03-29T09:50:52Z</time></trkpt><trkpt lat="47.40678851962779" lon="-1.5290783252581293"><ele>10.0</ele><time>2026-03-29T09:50:54Z</time></trkpt><trkpt lat="47.406769325069526" lon="-1.5291712805643018"><ele>10.0</ele><time>2026-03-29T09:50:55Z</time></trkpt><trkpt lat="47.406747280664185" lon="-1.52926255948984"><ele>10.0</ele><time>2026-03-29T09:50:56Z</time></trkpt><trkpt lat="47.406730391129294" lon="-1.5293556824340757"><ele>10.0</ele><time>2026-03-29T09:50:57Z</time></trkpt><trkpt lat="47.40671593234632" lon="-1.529513513670796"><ele>10.0</ele><time>2026-03-29T09:50:59Z</time></trkpt><trkpt lat="47.40666970615033" lon="-1.5296684112414063"><ele>10.0</ele><time>2026-03-29T09:51:01Z</time></trkpt><trkpt lat="47.406627084172705" lon="-1.5298178605749548"><ele>10.0</ele><time>2026-03-29T09:51:03Z</time></trkpt><trkpt lat="47.40657281134967" lon="-1.529968986289138"><ele>10.0</ele><time>2026-03-29T09:51:05Z</time></trkpt><trkpt lat="47.40653362595234" lon="-1.5301301702871268"><ele>10.0</ele><time>2026-03-29T09:51:07.001Z</time></trkpt><trkpt lat="47.406501732810774" lon="-1.5302737522884553"><ele>10.0</ele><time>2026-03-29T09:51:09Z</time></trkpt><trkpt lat="47.406455799981394" lon="-1.5303736645742603"><ele>10.0</ele><time>2026-03-29T09:51:11Z</time></trkpt><trkpt lat="47.406430905728975" lon="-1.5304724872126527"><ele>9.833333333333334</ele><time>2026-03-29T09:51:13Z</time></trkpt><trkpt lat="47.406417536593416" lon="-1.5305880736573882"><ele>9.666666666666668</ele><time>2026-03-29T09:51:15Z</time></trkpt><trkpt lat="47.406381620138326" lon="-1.5306703001275013"><ele>9.5</ele><time>2026-03-29T09:51:18Z</time></trkpt><trkpt lat="47.40631033205185" lon="-1.5306608285769174"><ele>9.333333333333334</ele><time>2026-03-29T09:51:21Z</time></trkpt><trkpt lat="47.40624206145052" lon="-1.530622104184265"><ele>9.166666666666666</ele><time>2026-03-29T09:51:23Z</time></trkpt><trkpt lat="47.406153171367386" lon="-1.5305920969709108"><ele>9.0</ele><time>2026-03-29T09:51:25Z</time></trkpt><trkpt lat="47.40606310781781" lon="-1.5306008141502092"><ele>8.8</ele><time>2026-03-29T09:51:26Z</time></trkpt><trkpt lat="47.4059504969487" lon="-1.5306276362403581"><ele>8.600000000000001</ele><time>2026-03-29T09:51:28Z</time></trkpt><trkpt lat="47.40585645199511" lon="-1.5306916739805887"><ele>8.4</ele><time>2026-03-29T09:51:30Z</time></trkpt><trkpt lat="47.40575926382784" lon="-1.5307423006757448"><ele>8.200000000000001</ele><time>2026-03-29T09:51:32Z</time></trkpt><trkpt lat="47.40565977063719" lon="-1.5307692065849254"><ele>8.0</ele><time>2026-03-29T09:51:34.001Z</time></trkpt><trkpt lat="47.40556744397376" lon="-1.5308384411051226"><ele>8.200000000000001</ele><time>2026-03-29T09:51:36.001Z</time></trkpt><trkpt lat="47.40546552003119" lon="-1.530890157447691"><ele>8.4</ele><time>2026-03-29T09:51:38.001Z</time></trkpt><trkpt lat="47.40537864160482" lon="-1.5309381019338322"><ele>8.600000000000001</ele><time>2026-03-29T09:51:40.001Z</time></trkpt><trkpt lat="47.40528535102252" lon="-1.5309995412840796"><ele>8.8</ele><time>2026-03-29T09:51:42.001Z</time></trkpt><trkpt lat="47.405202034904995" lon="-1.531084617601271"><ele>9.0</ele><time>2026-03-29T09:51:44.001Z</time></trkpt><trkpt lat="47.40511964079682" lon="-1.5311320591732218"><ele>9.0</ele><time>2026-03-29T09:51:46.001Z</time></trkpt><trkpt lat="47.405009209222534" lon="-1.5311884693815663"><ele>9.0</ele><time>2026-03-29T09:51:48.001Z</time></trkpt><trkpt lat="47.404912649698" lon="-1.531250663103099"><ele>9.0</ele><time>2026-03-29T09:51:50.001Z</time></trkpt><trkpt lat="47.40481500052605" lon="-1.5313011221601918"><ele>9.0</ele><time>2026-03-29T09:51:52.001Z</time></trkpt><trkpt lat="47.404718399092" lon="-1.531379744411941"><ele>9.0</ele><time>2026-03-29T09:51:54.001Z</time></trkpt><trkpt lat="47.40460013043825" lon="-1.5314305387451606"><ele>9.2</ele><time>2026-03-29T09:51:56.001Z</time></trkpt><trkpt lat="47.40452222064827" lon="-1.5315012820079283"><ele>9.4</ele><time>2026-03-29T09:51:58.001Z</time></trkpt><trkpt lat="47.40444317930136" lon="-1.5315689239665229"><ele>9.6</ele><time>2026-03-29T09:52:00.001Z</time></trkpt><trkpt lat="47.40435382821355" lon="-1.53166992589974"><ele>9.8</ele><time>2026-03-29T09:52:02.001Z</time></trkpt><trkpt lat="47.40427575078551" lon="-1.5317987557514867"><ele>10.0</ele><time>2026-03-29T09:52:04.001Z</time></trkpt><trkpt lat="47.40422948268" lon="-1.5318742766990623"><ele>10.0</ele><time>2026-03-29T09:52:05.001Z</time></trkpt><trkpt lat="47.404194152958134" lon="-1.5319517254843673"><ele>10.0</ele><time>2026-03-29T09:52:06.001Z</time></trkpt><trkpt lat="47.40413489290271" lon="-1.5320906974389517"><ele>10.0</ele><time>2026-03-29T09:52:08.001Z</time></trkpt><trkpt lat="47.40407001697216" lon="-1.532203685493704"><ele>10.0</ele><time>2026-03-29T09:52:10.001Z</time></trkpt><trkpt lat="47.40402777218018" lon="-1.5322854090496267"><ele>10.0</ele><time>2026-03-29T09:52:12.001Z</time></trkpt><trkpt lat="47.40396637473945" lon="-1.5323761012419428"><ele>10.0</ele><time>2026-03-29T09:52:15.001Z</time></trkpt><trkpt lat="47.40391822070573" lon="-1.532453801484343"><ele>10.0</ele><time>2026-03-29T09:52:17.001Z</time></trkpt><trkpt lat="47.403854392513075" lon="-1.5325877442970244"><ele>10.0</ele><time>2026-03-29T09:52:19.001Z</time></trkpt><trkpt lat="47.40378092513178" lon="-1.5327278897180525"><ele>10.0</ele><time>2026-03-29T09:52:21.001Z</time></trkpt><trkpt lat="47.40373939280156" lon="-1.5327977947905034"><ele>10.0</ele><time>2026-03-29T09:52:22.001Z</time></trkpt><trkpt lat="47.40367933646534" lon="-1.5329278819277257"><ele>10.0</ele><time>2026-03-29T09:52:24.001Z</time></trkpt><trkpt lat="47.403605408079365" lon="-1.5330454800292226"><ele>9.6</ele><time>2026-03-29T09:52:26.001Z</time></trkpt><trkpt lat="47.403544094457665" lon="-1.5331742260619374"><ele>9.2</ele><time>2026-03-29T09:52:28.001Z</time></trkpt><trkpt lat="47.40344309252445" lon="-1.5332947578295444"><ele>8.8</ele><time>2026-03-29T09:52:30.001Z</time></trkpt><trkpt lat="47.403392633467355" lon="-1.5333577059223626"><ele>8.4</ele><time>2026-03-29T09:52:31.001Z</time></trkpt><trkpt lat="47.40334921520893" lon="-1.5334346517934774"><ele>8.0</ele><time>2026-03-29T09:52:32.001Z</time></trkpt><trkpt lat="47.4032677431101" lon="-1.5335658285781122"><ele>8.0</ele><time>2026-03-29T09:52:34.001Z</time></trkpt><trkpt lat="47.40322562404666" lon="-1.5336388349547363"><ele>8.0</ele><time>2026-03-29T09:52:35.001Z</time></trkpt><trkpt lat="47.403185935735145" lon="-1.5337687544538954"><ele>8.0</ele><time>2026-03-29T09:52:37.001Z</time></trkpt><trkpt lat="47.403086484454015" lon="-1.5338923037066439"><ele>8.0</ele><time>2026-03-29T09:52:39.001Z</time></trkpt><trkpt lat="47.40304239564333" lon="-1.5339651424452048"><ele>8.0</ele><time>2026-03-29T09:52:40.001Z</time></trkpt><trkpt lat="47.40295032043699" lon="-1.5340793877854328"><ele>8.166666666666666</ele><time>2026-03-29T09:52:42.001Z</time></trkpt><trkpt lat="47.40290748891179" lon="-1.534147951753376"><ele>8.333333333333332</ele><time>2026-03-29T09:52:43.001Z</time></trkpt><trkpt lat="47.40283125550244" lon="-1.5342662204071267"><ele>8.5</ele><time>2026-03-29T09:52:45.001Z</time></trkpt><trkpt lat="47.402778407602945" lon="-1.534322965891598"><ele>8.666666666666666</ele><time>2026-03-29T09:52:46.001Z</time></trkpt><trkpt lat="47.402713238305786" lon="-1.534441737459539"><ele>8.833333333333334</ele><time>2026-03-29T09:52:48.001Z</time></trkpt><trkpt lat="47.40266562909577" lon="-1.5345055237426743"><ele>9.0</ele><time>2026-03-29T09:52:49.001Z</time></trkpt><trkpt lat="47.402591952166894" lon="-1.5346190985306487"><ele>9.166666666666666</ele><time>2026-03-29T09:52:51.001Z</time></trkpt><trkpt lat="47.402552389583924" lon="-1.5346926078214633"><ele>9.333333333333334</ele><time>2026-03-29T09:52:52.001Z</time></trkpt><trkpt lat="47.40250377454553" lon="-1.5347774326815593"><ele>9.5</ele><time>2026-03-29T09:52:53.001Z</time></trkpt><trkpt lat="47.402457674078086" lon="-1.5349207632257929"><ele>9.666666666666668</ele><time>2026-03-29T09:52:55.001Z</time></trkpt><trkpt lat="47.40243030716423" lon="-1.5350703801974048"><ele>9.833333333333334</ele><time>2026-03-29T09:52:57.001Z</time></trkpt><trkpt lat="47.402413962453046" lon="-1.535161407665848"><ele>10.0</ele><time>2026-03-29T09:52:58.001Z</time></trkpt><trkpt lat="47.40239418116156" lon="-1.5353132039322845"><ele>9.8</ele><time>2026-03-29T09:53:00.001Z</time></trkpt><trkpt lat="47.402379177554884" lon="-1.5354728791877026"><ele>9.6</ele><time>2026-03-29T09:53:02.001Z</time></trkpt><trkpt lat="47.40234242290948" lon="-1.5356392599656579"><ele>9.4</ele><time>2026-03-29T09:53:04.001Z</time></trkpt><trkpt lat="47.402333957187274" lon="-1.5358077362194058"><ele>9.2</ele><time>2026-03-29T09:53:06.001Z</time></trkpt><trkpt lat="47.40230872765873" lon="-1.535950312392354"><ele>9.0</ele><time>2026-03-29T09:53:08.001Z</time></trkpt><trkpt lat="47.402308560020664" lon="-1.5360855963095428"><ele>8.833333333333334</ele><time>2026-03-29T09:53:10.001Z</time></trkpt><trkpt lat="47.402293682142535" lon="-1.5362376440330745"><ele>8.666666666666666</ele><time>2026-03-29T09:53:12.001Z</time></trkpt><trkpt lat="47.4022740265796" lon="-1.5363604389145378"><ele>8.5</ele><time>2026-03-29T09:53:14.001Z</time></trkpt><trkpt lat="47.40220395386908" lon="-1.5364079643055204"><ele>8.333333333333332</ele><time>2026-03-29T09:53:16.001Z</time></trkpt><trkpt lat="47.40213911984805" lon="-1.5364141669138673"><ele>8.166666666666666</ele><time>2026-03-29T09:53:18.001Z</time></trkpt><trkpt lat="47.40206347317193" lon="-1.536387763918877"><ele>8.0</ele><time>2026-03-29T09:53:20.001Z</time></trkpt><trkpt lat="47.40200018980298" lon="-1.5363203734173778"><ele>8.4</ele><time>2026-03-29T09:53:22.001Z</time></trkpt><trkpt lat="47.40196469244305" lon="-1.5362048707916738"><ele>8.8</ele><time>2026-03-29T09:53:24.001Z</time></trkpt><trkpt lat="47.4019545084307" lon="-1.536061875523567"><ele>9.2</ele><time>2026-03-29T09:53:26.001Z</time></trkpt><trkpt lat="47.401947467632034" lon="-1.535926423968315"><ele>9.6</ele><time>2026-03-29T09:53:28.001Z</time></trkpt><trkpt lat="47.40193246402536" lon="-1.5357883740230795"><ele>10.0</ele><time>2026-03-29T09:53:30.001Z</time></trkpt><trkpt lat="47.40189851731751" lon="-1.5356523357346055"><ele>10.0</ele><time>2026-03-29T09:53:32.001Z</time></trkpt><trkpt lat="47.401862684681454" lon="-1.5355286188437933"><ele>10.0</ele><time>2026-03-29T09:53:34.001Z</time></trkpt><trkpt lat="47.40182890561167" lon="-1.5353992860778565"><ele>10.0</ele><time>2026-03-29T09:53:36.001Z</time></trkpt><trkpt lat="47.401745631403664" lon="-1.5353085100665085"><ele>10.0</ele><time>2026-03-29T09:53:38.001Z</time></trkpt><trkpt lat="47.40164521620367" lon="-1.5352386888130896"><ele>10.0</ele><time>2026-03-29T09:53:40.001Z</time></trkpt><trkpt lat="47.40154413045142" lon="-1.5351978689446442"><ele>10.0</ele><time>2026-03-29T09:53:42.001Z</time></trkpt><trkpt lat="47.401450378864446" lon="-1.5351094398661842"><ele>10.0</ele><time>2026-03-29T09:53:44.001Z</time></trkpt><trkpt lat="47.40135830365811" lon="-1.5350089408471574"><ele>10.0</ele><time>2026-03-29T09:53:46.001Z</time></trkpt><trkpt lat="47.401301055259445" lon="-1.5348885767176141"><ele>10.0</ele><time>2026-03-29T09:53:48.001Z</time></trkpt><trkpt lat="47.401234796314874" lon="-1.5347484312965858"><ele>10.0</ele><time>2026-03-29T09:53:50.001Z</time></trkpt><trkpt lat="47.40120164588783" lon="-1.5346607565894115"><ele>10.25</ele><time>2026-03-29T09:53:51.001Z</time></trkpt><trkpt lat="47.40116480742339" lon="-1.5345048531904206"><ele>10.5</ele><time>2026-03-29T09:53:53.001Z</time></trkpt><trkpt lat="47.40113467448149" lon="-1.5343336109086259"><ele>10.75</ele><time>2026-03-29T09:53:55.001Z</time></trkpt><trkpt lat="47.401102446063796" lon="-1.5341693256064637"><ele>11.0</ele><time>2026-03-29T09:53:57.001Z</time></trkpt><trkpt lat="47.40108492788617" lon="-1.534003363923667"><ele>11.0</ele><time>2026-03-29T09:53:59.001Z</time></trkpt><trkpt lat="47.401063093028405" lon="-1.5339094866081455"><ele>11.0</ele><time>2026-03-29T09:54:00.001Z</time></trkpt><trkpt lat="47.401045700579324" lon="-1.5338166151210049"><ele>11.0</ele><time>2026-03-29T09:54:01.001Z</time></trkpt><trkpt lat="47.401029188230076" lon="-1.53371376916909"><ele>11.0</ele><time>2026-03-29T09:54:02.001Z</time></trkpt><trkpt lat="47.40098614715729" lon="-1.5335421077921367"><ele>11.0</ele><time>2026-03-29T09:54:04.001Z</time></trkpt><trkpt lat="47.40096355792824" lon="-1.533372625710008"><ele>11.0</ele><time>2026-03-29T09:54:06.001Z</time></trkpt><trkpt lat="47.4009071477199" lon="-1.5332896448686097"><ele>11.0</ele><time>2026-03-29T09:54:08.001Z</time></trkpt><trkpt lat="47.40081276749019" lon="-1.5333056543036674"><ele>11.0</ele><time>2026-03-29T09:54:10.001Z</time></trkpt><trkpt lat="47.400756524919906" lon="-1.5334336459650968"><ele>11.0</ele><time>2026-03-29T09:54:12.001Z</time></trkpt><trkpt lat="47.40068628457133" lon="-1.5335804969086624"><ele>11.0</ele><time>2026-03-29T09:54:14.001Z</time></trkpt><trkpt lat="47.40062061235998" lon="-1.5337122604265192"><ele>11.0</ele><time>2026-03-29T09:54:16.001Z</time></trkpt><trkpt lat="47.4005442951316" lon="-1.533847209067581"><ele>11.25</ele><time>2026-03-29T09:54:18.001Z</time></trkpt><trkpt lat="47.40046713971291" lon="-1.5339863486602288"><ele>11.5</ele><time>2026-03-29T09:54:20.001Z</time></trkpt><trkpt lat="47.40039375615064" lon="-1.5341259911670666"><ele>11.75</ele><time>2026-03-29T09:54:22.001Z</time></trkpt><trkpt lat="47.40031630736534" lon="-1.5342500433340056"><ele>12.0</ele><time>2026-03-29T09:54:24.001Z</time></trkpt><trkpt lat="47.40025235344414" lon="-1.5343884285553677"><ele>12.0</ele><time>2026-03-29T09:54:26.001Z</time></trkpt><trkpt lat="47.40019422494564" lon="-1.534534189851521"><ele>12.0</ele><time>2026-03-29T09:54:28.001Z</time></trkpt><trkpt lat="47.40013605453763" lon="-1.5346557274475086"><ele>12.0</ele><time>2026-03-29T09:54:30.001Z</time></trkpt><trkpt lat="47.40008597266618" lon="-1.5347786061480033"><ele>12.0</ele><time>2026-03-29T09:54:32.001Z</time></trkpt><trkpt lat="47.40005370233897" lon="-1.5349148958935728"><ele>12.0</ele><time>2026-03-29T09:54:34.001Z</time></trkpt><trkpt lat="47.400028179443815" lon="-1.53504766523981"><ele>12.399999999999999</ele><time>2026-03-29T09:54:36.001Z</time></trkpt><trkpt lat="47.40002118055467" lon="-1.5352075919523231"><ele>12.799999999999999</ele><time>2026-03-29T09:54:38.001Z</time></trkpt><trkpt lat="47.40002386276368" lon="-1.5353570412858717"><ele>13.2</ele><time>2026-03-29T09:54:40.001Z</time></trkpt><trkpt lat="47.400043350688556" lon="-1.5354834403856987"><ele>13.6</ele><time>2026-03-29T09:54:42.001Z</time></trkpt><trkpt lat="47.400022102564016" lon="-1.535643367098212"><ele>14.0</ele><time>2026-03-29T09:54:45.001Z</time></trkpt><trkpt lat="47.40000546448622" lon="-1.5357433632030484"><ele>14.333333333333334</ele><time>2026-03-29T09:54:47.001Z</time></trkpt><trkpt lat="47.39996183668021" lon="-1.5358517412110566"><ele>14.666666666666668</ele><time>2026-03-29T09:54:50.001Z</time></trkpt><trkpt lat="47.39994293548856" lon="-1.5359696745886802"><ele>15.0</ele><time>2026-03-29T09:54:53.001Z</time></trkpt><trkpt lat="47.39993078172896" lon="-1.536107053981662"><ele>15.333333333333332</ele><time>2026-03-29T09:54:56.001Z</time></trkpt><trkpt lat="47.39991460465584" lon="-1.5362198743983508"><ele>15.666666666666666</ele><time>2026-03-29T09:54:58.001Z</time></trkpt><trkpt lat="47.39989364989791" lon="-1.5363404061659578"><ele>16.0</ele><time>2026-03-29T09:55:00.001Z</time></trkpt><trkpt lat="47.3998735333303" lon="-1.5364556573345665"><ele>16.166666666666664</ele><time>2026-03-29T09:55:02.001Z</time></trkpt><trkpt lat="47.39984725606386" lon="-1.5365562401726252"><ele>16.333333333333332</ele><time>2026-03-29T09:55:04.001Z</time></trkpt><trkpt lat="47.39979746755902" lon="-1.5366154164090162"><ele>16.5</ele><time>2026-03-29T09:55:06.001Z</time></trkpt><trkpt lat="47.39973288499508" lon="-1.5366004966213709"><ele>16.666666666666668</ele><time>2026-03-29T09:55:07.001Z</time></trkpt><trkpt lat="47.39966461439375" lon="-1.5365248918547634"><ele>16.833333333333336</ele><time>2026-03-29T09:55:09.001Z</time></trkpt><trkpt lat="47.39962417171095" lon="-1.5363813936724666"><ele>17.0</ele><time>2026-03-29T09:55:11.001Z</time></trkpt><trkpt lat="47.39956830632631" lon="-1.5362656395896674"><ele>16.8</ele><time>2026-03-29T09:55:13.001Z</time></trkpt><trkpt lat="47.3995046038622" lon="-1.5361399110420944"><ele>16.6</ele><time>2026-03-29T09:55:15.001Z</time></trkpt><trkpt lat="47.39943691999409" lon="-1.536001525820732"><ele>16.400000000000002</ele><time>2026-03-29T09:55:17.001Z</time></trkpt><trkpt lat="47.39938344345185" lon="-1.5358871128424405"><ele>16.2</ele><time>2026-03-29T09:55:19.001Z</time></trkpt><trkpt lat="47.39932472822014" lon="-1.5357763879015442"><ele>16.0</ele><time>2026-03-29T09:55:21.001Z</time></trkpt><trkpt lat="47.399257882542344" lon="-1.5356499049826857"><ele>16.0</ele><time>2026-03-29T09:55:23.001Z</time></trkpt><trkpt lat="47.39919061776939" lon="-1.5355359949185843"><ele>16.0</ele><time>2026-03-29T09:55:25.001Z</time></trkpt><trkpt lat="47.39912440073434" lon="-1.5353861264898772"><ele>16.0</ele><time>2026-03-29T09:55:27.001Z</time></trkpt><trkpt lat="47.399049550339015" lon="-1.5352475736304514"><ele>16.0</ele><time>2026-03-29T09:55:29.001Z</time></trkpt><trkpt lat="47.39897847180012" lon="-1.535099800677537"><ele>15.8</ele><time>2026-03-29T09:55:31.001Z</time></trkpt><trkpt lat="47.39888694141749" lon="-1.5349625889226188"><ele>15.600000000000001</ele><time>2026-03-29T09:55:33.001Z</time></trkpt><trkpt lat="47.398828687190445" lon="-1.534834094346999"><ele>15.4</ele><time>2026-03-29T09:55:35.001Z</time></trkpt><trkpt lat="47.398789543702634" lon="-1.534748347477554"><ele>15.2</ele><time>2026-03-29T09:55:36.001Z</time></trkpt><trkpt lat="47.39875123840514" lon="-1.5346553921713817"><ele>15.0</ele><time>2026-03-29T09:55:37.001Z</time></trkpt><trkpt lat="47.39868028559479" lon="-1.5345266461386666"><ele>14.8</ele><time>2026-03-29T09:55:39.001Z</time></trkpt><trkpt lat="47.39862152845356" lon="-1.5343761071577056"><ele>14.6</ele><time>2026-03-29T09:55:41.001Z</time></trkpt><trkpt lat="47.39853473384622" lon="-1.5342460200204833"><ele>14.399999999999999</ele><time>2026-03-29T09:55:43.001Z</time></trkpt><trkpt lat="47.398493788249226" lon="-1.5341503825052958"><ele>14.2</ele><time>2026-03-29T09:55:44.001Z</time></trkpt><trkpt lat="47.39845661450866" lon="-1.534061701969741"><ele>14.0</ele><time>2026-03-29T09:55:45.001Z</time></trkpt><trkpt lat="47.3984147049928" lon="-1.533979224042533"><ele>14.000000000000002</ele><time>2026-03-29T09:55:46.001Z</time></trkpt><trkpt lat="47.398368436887296" lon="-1.5338799823089817"><ele>14.0</ele><time>2026-03-29T09:55:47.001Z</time></trkpt><trkpt lat="47.398326569280954" lon="-1.5337913017734268"><ele>14.0</ele><time>2026-03-29T09:55:48.001Z</time></trkpt><trkpt lat="47.3982775351474" lon="-1.5337063930942991"><ele>14.0</ele><time>2026-03-29T09:55:49.001Z</time></trkpt><trkpt lat="47.39823432643655" lon="-1.5336320456131673"><ele>14.000000000000002</ele><time>2026-03-29T09:55:50.001Z</time></trkpt><trkpt lat="47.39816027232203" lon="-1.5334671735777832"><ele>14.0</ele><time>2026-03-29T09:55:52.001Z</time></trkpt><trkpt lat="47.39811769225392" lon="-1.533378241585133"><ele>13.500000000000002</ele><time>2026-03-29T09:55:53.001Z</time></trkpt><trkpt lat="47.398076159923704" lon="-1.5332950092866395"><ele>13.0</ele><time>2026-03-29T09:55:54.001Z</time></trkpt><trkpt lat="47.39803483714107" lon="-1.5332069993033381"><ele>12.5</ele><time>2026-03-29T09:55:55.001Z</time></trkpt><trkpt lat="47.39798010331336" lon="-1.5331106912358972"><ele>12.0</ele><time>2026-03-29T09:55:56.001Z</time></trkpt><trkpt lat="47.39792474084291" lon="-1.532972222195503"><ele>11.5</ele><time>2026-03-29T09:55:58.001Z</time></trkpt><trkpt lat="47.397891799963446" lon="-1.5328826196505994"><ele>11.0</ele><time>2026-03-29T09:55:59.001Z</time></trkpt><trkpt lat="47.397848800800176" lon="-1.5328063443317383"><ele>10.600000000000001</ele><time>2026-03-29T09:56:00.001Z</time></trkpt><trkpt lat="47.39776405975911" lon="-1.5326522849514452"><ele>10.200000000000001</ele><time>2026-03-29T09:56:02.001Z</time></trkpt><trkpt lat="47.39768832926396" lon="-1.532485568897363"><ele>9.8</ele><time>2026-03-29T09:56:04.001Z</time></trkpt><trkpt lat="47.39763657101187" lon="-1.5324070304646458"><ele>9.4</ele><time>2026-03-29T09:56:05.001Z</time></trkpt><trkpt lat="47.3975851061264" lon="-1.532321283595201"><ele>9.0</ele><time>2026-03-29T09:56:06.001Z</time></trkpt><trkpt lat="47.39754344806764" lon="-1.5322360396399461"><ele>9.0</ele><time>2026-03-29T09:56:07.001Z</time></trkpt><trkpt lat="47.39749416247699" lon="-1.5321381390109026"><ele>9.0</ele><time>2026-03-29T09:56:08.001Z</time></trkpt><trkpt lat="47.39742526323292" lon="-1.5319917909815273"><ele>9.0</ele><time>2026-03-29T09:56:10.001Z</time></trkpt><trkpt lat="47.397388969592186" lon="-1.5318950638189277"><ele>9.0</ele><time>2026-03-29T09:56:11.001Z</time></trkpt><trkpt lat="47.397337169430585" lon="-1.531791295857664"><ele>9.0</ele><time>2026-03-29T09:56:12.001Z</time></trkpt><trkpt lat="47.39726885691974" lon="-1.5316288545741994"><ele>9.000000000000002</ele><time>2026-03-29T09:56:14.001Z</time></trkpt><trkpt lat="47.397227492227586" lon="-1.5315583627685267"><ele>9.0</ele><time>2026-03-29T09:56:15.001Z</time></trkpt><trkpt lat="47.39717946392241" lon="-1.531456606464024"><ele>9.0</ele><time>2026-03-29T09:56:16.001Z</time></trkpt><trkpt lat="47.397136255211564" lon="-1.5313802473261313"><ele>9.0</ele><time>2026-03-29T09:56:17.001Z</time></trkpt><trkpt lat="47.3970922083104" lon="-1.5313023794456675"><ele>9.0</ele><time>2026-03-29T09:56:18.001Z</time></trkpt><trkpt lat="47.39705101125631" lon="-1.5312220808132841"><ele>9.000000000000002</ele><time>2026-03-29T09:56:19.001Z</time></trkpt><trkpt lat="47.397010065659316" lon="-1.5311404410763934"><ele>9.0</ele><time>2026-03-29T09:56:20.001Z</time></trkpt><trkpt lat="47.39696912006232" lon="-1.5310579631491852"><ele>9.0</ele><time>2026-03-29T09:56:21.001Z</time></trkpt><trkpt lat="47.3969037831271" lon="-1.5309236850603771"><ele>9.0</ele><time>2026-03-29T09:56:23.001Z</time></trkpt><trkpt lat="47.39683371041659" lon="-1.5307998005315016"><ele>9.0</ele><time>2026-03-29T09:56:25.001Z</time></trkpt><trkpt lat="47.396753202236624" lon="-1.5306480880840967"><ele>9.0</ele><time>2026-03-29T09:56:27.001Z</time></trkpt><trkpt lat="47.396716363772185" lon="-1.5305714774891086"><ele>9.0</ele><time>2026-03-29T09:56:28.001Z</time></trkpt><trkpt lat="47.39666632381025" lon="-1.5304460842176624"><ele>9.0</ele><time>2026-03-29T09:56:30.001Z</time></trkpt><trkpt lat="47.39660232797954" lon="-1.530297724531526"><ele>9.0</ele><time>2026-03-29T09:56:32.001Z</time></trkpt><trkpt lat="47.39657588307503" lon="-1.530212312938208"><ele>9.0</ele><time>2026-03-29T09:56:33.001Z</time></trkpt><trkpt lat="47.39649047148171" lon="-1.530082058162922"><ele>9.0</ele><time>2026-03-29T09:56:35.001Z</time></trkpt><trkpt lat="47.3964521242747" lon="-1.5300076268627587"><ele>9.0</ele><time>2026-03-29T09:56:36.001Z</time></trkpt><trkpt lat="47.396385613873036" lon="-1.5298647154136837"><ele>9.166666666666666</ele><time>2026-03-29T09:56:38.001Z</time></trkpt><trkpt lat="47.39630720116887" lon="-1.5297411661609353"><ele>9.333333333333334</ele><time>2026-03-29T09:56:40.001Z</time></trkpt><trkpt lat="47.396272122904094" lon="-1.5296633820995034"><ele>9.5</ele><time>2026-03-29T09:56:41.001Z</time></trkpt><trkpt lat="47.396232644140156" lon="-1.5295905433609425"><ele>9.666666666666668</ele><time>2026-03-29T09:56:42.001Z</time></trkpt><trkpt lat="47.396190566986235" lon="-1.5295187104507624"><ele>9.833333333333334</ele><time>2026-03-29T09:56:43.001Z</time></trkpt><trkpt lat="47.39612053618524" lon="-1.5293816663339075"><ele>10.0</ele><time>2026-03-29T09:56:45.001Z</time></trkpt><trkpt lat="47.39605335523132" lon="-1.5292505733683046"><ele>10.2</ele><time>2026-03-29T09:56:47.001Z</time></trkpt><trkpt lat="47.39601186481062" lon="-1.5291714482023653"><ele>10.4</ele><time>2026-03-29T09:56:48.001Z</time></trkpt><trkpt lat="47.39594719842765" lon="-1.529034823180669"><ele>10.600000000000001</ele><time>2026-03-29T09:56:50.001Z</time></trkpt><trkpt lat="47.39587720953617" lon="-1.5288947615786723"><ele>10.8</ele><time>2026-03-29T09:56:52.001Z</time></trkpt><trkpt lat="47.395841418809624" lon="-1.5288170613362722"><ele>11.0</ele><time>2026-03-29T09:56:53.001Z</time></trkpt><trkpt lat="47.39577859644535" lon="-1.528676580639117"><ele>10.600000000000001</ele><time>2026-03-29T09:56:55.001Z</time></trkpt><trkpt lat="47.39571166694853" lon="-1.528545236216419"><ele>10.200000000000001</ele><time>2026-03-29T09:56:57.001Z</time></trkpt><trkpt lat="47.395671224265726" lon="-1.5284185856594967"><ele>9.8</ele><time>2026-03-29T09:56:59.001Z</time></trkpt><trkpt lat="47.395623573146196" lon="-1.528355805204742"><ele>9.4</ele><time>2026-03-29T09:57:00.001Z</time></trkpt><trkpt lat="47.39554847129378" lon="-1.5282387938364672"><ele>9.0</ele><time>2026-03-29T09:57:02.001Z</time></trkpt><trkpt lat="47.395482840991946" lon="-1.528132176028125"><ele>9.0</ele><time>2026-03-29T09:57:04.001Z</time></trkpt><trkpt lat="47.3954541748831" lon="-1.5280486922725365"><ele>9.0</ele><time>2026-03-29T09:57:05.001Z</time></trkpt><trkpt lat="47.39536863756123" lon="-1.5279196109636946"><ele>9.0</ele><time>2026-03-29T09:57:07.001Z</time></trkpt><trkpt lat="47.39530967087242" lon="-1.5278510469957514"><ele>9.0</ele><time>2026-03-29T09:57:09.001Z</time></trkpt><trkpt lat="47.39520854321066" lon="-1.5278283320381565"><ele>9.0</ele><time>2026-03-29T09:57:12.001Z</time></trkpt><trkpt lat="47.395108295648726" lon="-1.5278763603433294"><ele>9.0</ele><time>2026-03-29T09:57:14.001Z</time></trkpt><trkpt lat="47.395001258745225" lon="-1.5279067028328104"><ele>9.0</ele><time>2026-03-29T09:57:16.001Z</time></trkpt><trkpt lat="47.39493533507678" lon="-1.5279305074378176"><ele>9.0</ele><time>2026-03-29T09:57:17.001Z</time></trkpt><trkpt lat="47.39482850772086" lon="-1.5279560722424907"><ele>9.0</ele><time>2026-03-29T09:57:19.001Z</time></trkpt><trkpt lat="47.39470722158197" lon="-1.527980798856847"><ele>9.0</ele><time>2026-03-29T09:57:21.001Z</time></trkpt><trkpt lat="47.39459347915593" lon="-1.5280354488655254"><ele>8.8</ele><time>2026-03-29T09:57:23.001Z</time></trkpt><trkpt lat="47.394480197734566" lon="-1.5280914399787113"><ele>8.600000000000001</ele><time>2026-03-29T09:57:25.001Z</time></trkpt><trkpt lat="47.394384183033736" lon="-1.5281627699747011"><ele>8.4</ele><time>2026-03-29T09:57:27.001Z</time></trkpt><trkpt lat="47.39431981001738" lon="-1.5281941182925627"><ele>8.200000000000001</ele><time>2026-03-29T09:57:28.001Z</time></trkpt><trkpt lat="47.39425937649551" lon="-1.5282227005823779"><ele>8.0</ele><time>2026-03-29T09:57:29.001Z</time></trkpt><trkpt lat="47.39415062130186" lon="-1.5282845590277838"><ele>7.999999999999999</ele><time>2026-03-29T09:57:31Z</time></trkpt><trkpt lat="47.39408100959602" lon="-1.5283115487559962"><ele>8.0</ele><time>2026-03-29T09:57:32Z</time></trkpt><trkpt lat="47.393974224149616" lon="-1.5283826272948908"><ele>8.0</ele><time>2026-03-29T09:57:34Z</time></trkpt><trkpt lat="47.39391395826581" lon="-1.528412634508245"><ele>8.0</ele><time>2026-03-29T09:57:35Z</time></trkpt><trkpt lat="47.39385218363944" lon="-1.5284412167980599"><ele>7.999999999999999</ele><time>2026-03-29T09:57:36Z</time></trkpt><trkpt lat="47.39374623638335" lon="-1.5285203419639994"><ele>8.0</ele><time>2026-03-29T09:57:38Z</time></trkpt><trkpt lat="47.39362989556733" lon="-1.5285847149803569"><ele>8.166666666666666</ele><time>2026-03-29T09:57:40Z</time></trkpt><trkpt lat="47.393561541146966" lon="-1.5286074299379517"><ele>8.333333333333332</ele><time>2026-03-29T09:57:41Z</time></trkpt><trkpt lat="47.3935003113443" lon="-1.5286337491139104"><ele>8.5</ele><time>2026-03-29T09:57:42Z</time></trkpt><trkpt lat="47.393437111794384" lon="-1.5286610741182496"><ele>8.666666666666666</ele><time>2026-03-29T09:57:43Z</time></trkpt><trkpt lat="47.393331793181034" lon="-1.5287186577930383"><ele>8.833333333333334</ele><time>2026-03-29T09:57:45Z</time></trkpt><trkpt lat="47.39326918036434" lon="-1.5287384390845231"><ele>9.0</ele><time>2026-03-29T09:57:46Z</time></trkpt><trkpt lat="47.39314336799774" lon="-1.5287717990591458"><ele>9.2</ele><time>2026-03-29T09:57:48Z</time></trkpt><trkpt lat="47.3930182680929" lon="-1.5288054943098954"><ele>9.4</ele><time>2026-03-29T09:57:50Z</time></trkpt><trkpt lat="47.39295649346653" lon="-1.5288266167058877"><ele>9.6</ele><time>2026-03-29T09:57:51Z</time></trkpt><trkpt lat="47.3928438406879" lon="-1.5288631618037156"><ele>9.8</ele><time>2026-03-29T09:57:53Z</time></trkpt><trkpt lat="47.39277892284784" lon="-1.5288741420968703"><ele>10.0</ele><time>2026-03-29T09:57:54Z</time></trkpt><trkpt lat="47.392661492384406" lon="-1.5289137884988717"><ele>10.0</ele><time>2026-03-29T09:57:56Z</time></trkpt><trkpt lat="47.39254582212064" lon="-1.5289643313749963"><ele>10.0</ele><time>2026-03-29T09:57:58Z</time></trkpt><trkpt lat="47.39242663145754" lon="-1.529020657764309"><ele>10.0</ele><time>2026-03-29T09:58:00Z</time></trkpt><trkpt lat="47.39230827898476" lon="-1.5290836058571273"><ele>10.0</ele><time>2026-03-29T09:58:02Z</time></trkpt><trkpt lat="47.39220555876139" lon="-1.5291568636908466"><ele>10.2</ele><time>2026-03-29T09:58:04Z</time></trkpt><trkpt lat="47.392117171592446" lon="-1.5292354021235641"><ele>10.4</ele><time>2026-03-29T09:58:06Z</time></trkpt><trkpt lat="47.39201072142217" lon="-1.5293171256794866"><ele>10.600000000000001</ele><time>2026-03-29T09:58:08Z</time></trkpt><trkpt lat="47.391911018683935" lon="-1.5294003579779802"><ele>10.8</ele><time>2026-03-29T09:58:10Z</time></trkpt><trkpt lat="47.39182070367726" lon="-1.5294760465636192"><ele>11.0</ele><time>2026-03-29T09:58:12Z</time></trkpt><trkpt lat="47.39173633982184" lon="-1.529547711835736"><ele>11.4</ele><time>2026-03-29T09:58:14Z</time></trkpt><trkpt lat="47.391635715074266" lon="-1.5296090673669516"><ele>11.8</ele><time>2026-03-29T09:58:16Z</time></trkpt><trkpt lat="47.39154862710031" lon="-1.5296889469041766"><ele>12.200000000000001</ele><time>2026-03-29T09:58:18Z</time></trkpt><trkpt lat="47.39145139702352" lon="-1.5297296829535902"><ele>12.600000000000001</ele><time>2026-03-29T09:58:20Z</time></trkpt><trkpt lat="47.391345240219856" lon="-1.52978391386711"><ele>13.0</ele><time>2026-03-29T09:58:22Z</time></trkpt><trkpt lat="47.391237407035554" lon="-1.5298414975418986"><ele>13.0</ele><time>2026-03-29T09:58:24Z</time></trkpt><trkpt lat="47.39113787193539" lon="-1.5298926271512452"><ele>13.0</ele><time>2026-03-29T09:58:26Z</time></trkpt><trkpt lat="47.39103385251703" lon="-1.5299617778524104"><ele>13.0</ele><time>2026-03-29T09:58:28Z</time></trkpt><trkpt lat="47.3909277795324" lon="-1.5300309285535756"><ele>13.0</ele><time>2026-03-29T09:58:30Z</time></trkpt><trkpt lat="47.39083700352105" lon="-1.5301232133074945"><ele>13.0</ele><time>2026-03-29T09:58:32Z</time></trkpt><trkpt lat="47.39075825554075" lon="-1.5302303340300267"><ele>13.0</ele><time>2026-03-29T09:58:34Z</time></trkpt><trkpt lat="47.39068399187865" lon="-1.5303565654917903"><ele>13.0</ele><time>2026-03-29T09:58:36Z</time></trkpt><trkpt lat="47.39060926721188" lon="-1.5304778516306825"><ele>13.0</ele><time>2026-03-29T09:58:38Z</time></trkpt><trkpt lat="47.39052813038918" lon="-1.5306070167585561"><ele>13.0</ele><time>2026-03-29T09:58:40Z</time></trkpt><trkpt lat="47.39045315426531" lon="-1.5307436417802522"><ele>13.0</ele><time>2026-03-29T09:58:42Z</time></trkpt><trkpt lat="47.3903785972366" lon="-1.5308676101281595"><ele>13.0</ele><time>2026-03-29T09:58:44Z</time></trkpt><trkpt lat="47.39030450121256" lon="-1.5310066659017754"><ele>13.0</ele><time>2026-03-29T09:58:46Z</time></trkpt><trkpt lat="47.390243564776505" lon="-1.5311473980560257"><ele>13.0</ele><time>2026-03-29T09:58:48Z</time></trkpt><trkpt lat="47.39017747347" lon="-1.5312743000700428"><ele>13.4</ele><time>2026-03-29T09:58:50Z</time></trkpt><trkpt lat="47.39013137300255" lon="-1.531426850707765"><ele>13.8</ele><time>2026-03-29T09:58:52Z</time></trkpt><trkpt lat="47.390067921995545" lon="-1.5315472148373086"><ele>14.2</ele><time>2026-03-29T09:58:54Z</time></trkpt><trkpt lat="47.39001021259221" lon="-1.531686102972861"><ele>14.6</ele><time>2026-03-29T09:58:56Z</time></trkpt><trkpt lat="47.38994583957585" lon="-1.5318167768433055"><ele>15.0</ele><time>2026-03-29T09:58:58Z</time></trkpt><trkpt lat="47.38988896836283" lon="-1.5319087263210973"><ele>15.0</ele><time>2026-03-29T09:59:00Z</time></trkpt><trkpt lat="47.38983536609205" lon="-1.5320171043291053"><ele>15.0</ele><time>2026-03-29T09:59:02Z</time></trkpt><trkpt lat="47.389801419384206" lon="-1.5321373846396171"><ele>15.0</ele><time>2026-03-29T09:59:04Z</time></trkpt><trkpt lat="47.38972367723229" lon="-1.532172169537779"><ele>15.0</ele><time>2026-03-29T09:59:06Z</time></trkpt><trkpt lat="47.389676487117434" lon="-1.5320644620820247"><ele>15.0</ele><time>2026-03-29T09:59:08Z</time></trkpt><trkpt lat="47.389694885394896" lon="-1.5319284237935504"><ele>15.0</ele><time>2026-03-29T09:59:10Z</time></trkpt><trkpt lat="47.3896972742373" lon="-1.5317846741541585"><ele>15.0</ele><time>2026-03-29T09:59:12Z</time></trkpt><trkpt lat="47.389718773818934" lon="-1.5316334646209437"><ele>15.0</ele><time>2026-03-29T09:59:14Z</time></trkpt><trkpt lat="47.389727868183876" lon="-1.5314665809287982"><ele>15.0</ele><time>2026-03-29T09:59:16Z</time></trkpt><trkpt lat="47.38973469943496" lon="-1.5312940813615277"><ele>15.0</ele><time>2026-03-29T09:59:18Z</time></trkpt><trkpt lat="47.389743542342806" lon="-1.531198862941499"><ele>15.0</ele><time>2026-03-29T09:59:19Z</time></trkpt><trkpt lat="47.389758420220936" lon="-1.5310970228179648"><ele>14.666666666666666</ele><time>2026-03-29T09:59:20Z</time></trkpt><trkpt lat="47.38977212463262" lon="-1.5309179015471888"><ele>14.333333333333332</ele><time>2026-03-29T09:59:22Z</time></trkpt><trkpt lat="47.38977853678855" lon="-1.530807595701451"><ele>14.0</ele><time>2026-03-29T09:59:23Z</time></trkpt><trkpt lat="47.389757707759166" lon="-1.5306617505862663"><ele>13.666666666666666</ele><time>2026-03-29T09:59:25Z</time></trkpt><trkpt lat="47.38974433862361" lon="-1.5305620897575565"><ele>13.333333333333332</ele><time>2026-03-29T09:59:26Z</time></trkpt><trkpt lat="47.38973143049272" lon="-1.530461506919498"><ele>13.0</ele><time>2026-03-29T09:59:27Z</time></trkpt><trkpt lat="47.3897178937191" lon="-1.530368132518167"><ele>12.833333333333332</ele><time>2026-03-29T09:59:28Z</time></trkpt><trkpt lat="47.389684072739804" lon="-1.5302054397776073"><ele>12.666666666666666</ele><time>2026-03-29T09:59:30Z</time></trkpt><trkpt lat="47.38963688262495" lon="-1.530124805869097"><ele>12.5</ele><time>2026-03-29T09:59:31Z</time></trkpt><trkpt lat="47.389588058038974" lon="-1.5300599299385491"><ele>12.333333333333332</ele><time>2026-03-29T09:59:32Z</time></trkpt><trkpt lat="47.38947670445534" lon="-1.529991365970606"><ele>12.166666666666666</ele><time>2026-03-29T09:59:34Z</time></trkpt><trkpt lat="47.3894142173672" lon="-1.5299687348320428"><ele>12.0</ele><time>2026-03-29T09:59:35Z</time></trkpt><trkpt lat="47.389346030584896" lon="-1.5299636218711081"><ele>12.0</ele><time>2026-03-29T09:59:36Z</time></trkpt><trkpt lat="47.38928014882597" lon="-1.5299410745515767"><ele>12.0</ele><time>2026-03-29T09:59:37Z</time></trkpt><trkpt lat="47.389217033095086" lon="-1.5299062896534148"><ele>12.0</ele><time>2026-03-29T09:59:38Z</time></trkpt><trkpt lat="47.389099476903105" lon="-1.5298723429455698"><ele>12.0</ele><time>2026-03-29T09:59:40Z</time></trkpt><trkpt lat="47.389036947905446" lon="-1.5298452693983258"><ele>12.0</ele><time>2026-03-29T09:59:41Z</time></trkpt><trkpt lat="47.3889184277946" lon="-1.529812496156925"><ele>12.0</ele><time>2026-03-29T09:59:43Z</time></trkpt><trkpt lat="47.38884387076589" lon="-1.5298099815859736"><ele>12.399999999999999</ele><time>2026-03-29T09:59:44Z</time></trkpt><trkpt lat="47.38877463624569" lon="-1.529797492550248"><ele>12.799999999999999</ele><time>2026-03-29T09:59:45Z</time></trkpt><trkpt lat="47.388652889102126" lon="-1.5297407470657767"><ele>13.2</ele><time>2026-03-29T09:59:47Z</time></trkpt><trkpt lat="47.38851676699462" lon="-1.5297652222230376"><ele>13.6</ele><time>2026-03-29T09:59:49Z</time></trkpt><trkpt lat="47.38846433819028" lon="-1.5296819899245442"><ele>14.0</ele><time>2026-03-29T09:59:51Z</time></trkpt><trkpt lat="47.38847163044604" lon="-1.5295428503318964"><ele>14.0</ele><time>2026-03-29T09:59:53Z</time></trkpt><trkpt lat="47.388474731750215" lon="-1.5294026210918366"><ele>13.999999999999998</ele><time>2026-03-29T09:59:55Z</time></trkpt><trkpt lat="47.38850691825839" lon="-1.5292299538865026"><ele>13.999999999999998</ele><time>2026-03-29T09:59:57Z</time></trkpt><trkpt lat="47.388548073402966" lon="-1.5290728770210678"><ele>14.0</ele><time>2026-03-29T09:59:59Z</time></trkpt><trkpt lat="47.388581265739525" lon="-1.5289811790003711"><ele>14.0</ele><time>2026-03-29T10:00:00Z</time></trkpt><trkpt lat="47.38862036731782" lon="-1.5287854615613155"><ele>14.166666666666668</ele><time>2026-03-29T10:00:02Z</time></trkpt><trkpt lat="47.388634490824664" lon="-1.5286809392287661"><ele>14.333333333333334</ele><time>2026-03-29T10:00:03Z</time></trkpt><trkpt lat="47.38865708005371" lon="-1.5285749919726779"><ele>14.5</ele><time>2026-03-29T10:00:04Z</time></trkpt><trkpt lat="47.38868595571014" lon="-1.5283970441683459"><ele>14.666666666666668</ele><time>2026-03-29T10:00:06Z</time></trkpt><trkpt lat="47.388686081438685" lon="-1.5282954555019068"><ele>14.833333333333334</ele><time>2026-03-29T10:00:07Z</time></trkpt><trkpt lat="47.388710556595946" lon="-1.5281916037216112"><ele>15.0</ele><time>2026-03-29T10:00:08Z</time></trkpt><trkpt lat="47.38873498984369" lon="-1.5280878357603476"><ele>15.0</ele><time>2026-03-29T10:00:09Z</time></trkpt><trkpt lat="47.38877761182132" lon="-1.527912737803094"><ele>15.0</ele><time>2026-03-29T10:00:11Z</time></trkpt><trkpt lat="47.38880393099728" lon="-1.5278134960695429"><ele>15.0</ele><time>2026-03-29T10:00:12Z</time></trkpt><trkpt lat="47.38881834787073" lon="-1.5277036093189638"><ele>15.0</ele><time>2026-03-29T10:00:13Z</time></trkpt><trkpt lat="47.38883356102499" lon="-1.52760813944184"><ele>15.0</ele><time>2026-03-29T10:00:14Z</time></trkpt><trkpt lat="47.388832178010965" lon="-1.5275014378144662"><ele>15.0</ele><time>2026-03-29T10:00:15Z</time></trkpt><trkpt lat="47.38883423157724" lon="-1.5273190476014533"><ele>15.0</ele><time>2026-03-29T10:00:17Z</time></trkpt><trkpt lat="47.38882400565537" lon="-1.5271350648268378"><ele>15.0</ele><time>2026-03-29T10:00:19Z</time></trkpt><trkpt lat="47.3888010811502" lon="-1.5269583743079815"><ele>15.0</ele><time>2026-03-29T10:00:21Z</time></trkpt><trkpt lat="47.388765709518815" lon="-1.526816887782446"><ele>15.0</ele><time>2026-03-29T10:00:23Z</time></trkpt><trkpt lat="47.38871185579094" lon="-1.5266968589290293"><ele>15.0</ele><time>2026-03-29T10:00:25Z</time></trkpt><trkpt lat="47.38866852135154" lon="-1.526628630237213"><ele>14.4</ele><time>2026-03-29T10:00:26Z</time></trkpt><trkpt lat="47.38860863265338" lon="-1.5264630876495748"><ele>13.8</ele><time>2026-03-29T10:00:28Z</time></trkpt><trkpt lat="47.388578038706804" lon="-1.5263753291233688"><ele>13.2</ele><time>2026-03-29T10:00:29Z</time></trkpt><trkpt lat="47.38854228988978" lon="-1.5262788534178642"><ele>12.6</ele><time>2026-03-29T10:00:30Z</time></trkpt><trkpt lat="47.38850339785906" lon="-1.5261022467180398"><ele>12.0</ele><time>2026-03-29T10:00:32Z</time></trkpt><trkpt lat="47.38848399375322" lon="-1.5260116383447553"><ele>11.833333333333334</ele><time>2026-03-29T10:00:33Z</time></trkpt><trkpt lat="47.38846345809045" lon="-1.5258773602559472"><ele>11.666666666666666</ele><time>2026-03-29T10:00:35Z</time></trkpt><trkpt lat="47.38845482473018" lon="-1.525778118522396"><ele>11.5</ele><time>2026-03-29T10:00:37Z</time></trkpt><trkpt lat="47.38844581418427" lon="-1.5256525576128863"><ele>11.333333333333332</ele><time>2026-03-29T10:00:40Z</time></trkpt><trkpt lat="47.38844078504237" lon="-1.525506209583511"><ele>11.166666666666666</ele><time>2026-03-29T10:00:42Z</time></trkpt><trkpt lat="47.38841647752317" lon="-1.5253591071828505"><ele>11.0</ele><time>2026-03-29T10:00:44Z</time></trkpt><trkpt lat="47.38836907786074" lon="-1.5252196323140759"><ele>11.0</ele><time>2026-03-29T10:00:46Z</time></trkpt><trkpt lat="47.38834686581733" lon="-1.5250804089023964"><ele>11.0</ele><time>2026-03-29T10:00:48Z</time></trkpt><trkpt lat="47.38832121719363" lon="-1.5249281935408012"><ele>11.0</ele><time>2026-03-29T10:00:50Z</time></trkpt><trkpt lat="47.388304746753896" lon="-1.5247701946660175"><ele>11.0</ele><time>2026-03-29T10:00:52Z</time></trkpt><trkpt lat="47.38829489801767" lon="-1.5246706176563396"><ele>11.0</ele><time>2026-03-29T10:00:53Z</time></trkpt><trkpt lat="47.38827775702568" lon="-1.524484287948836"><ele>10.8</ele><time>2026-03-29T10:00:55Z</time></trkpt><trkpt lat="47.38825261131617" lon="-1.5243345033391604"><ele>10.600000000000001</ele><time>2026-03-29T10:00:57Z</time></trkpt><trkpt lat="47.38821497657093" lon="-1.5241630934193025"><ele>10.4</ele><time>2026-03-29T10:00:59Z</time></trkpt><trkpt lat="47.38819146533253" lon="-1.5240008197739012"><ele>10.2</ele><time>2026-03-29T10:01:01Z</time></trkpt><trkpt lat="47.38816434987577" lon="-1.5238586626961117"><ele>10.0</ele><time>2026-03-29T10:01:03Z</time></trkpt><trkpt lat="47.38814595159831" lon="-1.5237645339234953"><ele>9.8</ele><time>2026-03-29T10:01:04Z</time></trkpt><trkpt lat="47.38812897824439" lon="-1.5236217901124838"><ele>9.6</ele><time>2026-03-29T10:01:06Z</time></trkpt><trkpt lat="47.388099264397646" lon="-1.523477118463743"><ele>9.4</ele><time>2026-03-29T10:01:08Z</time></trkpt><trkpt lat="47.38807696853521" lon="-1.523370165379274"><ele>9.2</ele><time>2026-03-29T10:01:09Z</time></trkpt><trkpt lat="47.38805412784907" lon="-1.5232062153532386"><ele>9.0</ele><time>2026-03-29T10:01:11Z</time></trkpt><trkpt lat="47.388051613278115" lon="-1.5230462886407254"><ele>9.0</ele><time>2026-03-29T10:01:13Z</time></trkpt><trkpt lat="47.38804168072286" lon="-1.5228804107769605"><ele>9.0</ele><time>2026-03-29T10:01:15Z</time></trkpt><trkpt lat="47.388041387356246" lon="-1.5227801632150288"><ele>9.0</ele><time>2026-03-29T10:01:16Z</time></trkpt><trkpt lat="47.38801117059531" lon="-1.522618392483818"><ele>9.0</ele><time>2026-03-29T10:01:18Z</time></trkpt><trkpt lat="47.387972613840724" lon="-1.5224646683796517"><ele>9.0</ele><time>2026-03-29T10:01:20Z</time></trkpt><trkpt lat="47.3879522039065" lon="-1.522368527950274"><ele>9.0</ele><time>2026-03-29T10:01:21Z</time></trkpt><trkpt lat="47.387935272462094" lon="-1.52227842249118"><ele>9.0</ele><time>2026-03-29T10:01:22Z</time></trkpt><trkpt lat="47.38790555861535" lon="-1.5221135504557957"><ele>9.0</ele><time>2026-03-29T10:01:24Z</time></trkpt><trkpt lat="47.38787085753622" lon="-1.5219433140023815"><ele>9.0</ele><time>2026-03-29T10:01:26Z</time></trkpt><trkpt lat="47.38785011232587" lon="-1.52185480110489"><ele>9.0</ele><time>2026-03-29T10:01:27Z</time></trkpt><trkpt lat="47.38781666853222" lon="-1.5216799546047315"><ele>8.75</ele><time>2026-03-29T10:01:29Z</time></trkpt><trkpt lat="47.38778397910985" lon="-1.5215061139329535"><ele>8.5</ele><time>2026-03-29T10:01:31Z</time></trkpt><trkpt lat="47.38776197661402" lon="-1.5213226340725285"><ele>8.25</ele><time>2026-03-29T10:01:33Z</time></trkpt><trkpt lat="47.38773586698564" lon="-1.521140998230801"><ele>8.0</ele><time>2026-03-29T10:01:35Z</time></trkpt><trkpt lat="47.38769886088314" lon="-1.520966906101928"><ele>8.0</ele><time>2026-03-29T10:01:37Z</time></trkpt><trkpt lat="47.38766520754191" lon="-1.5207981783910847"><ele>8.0</ele><time>2026-03-29T10:01:39Z</time></trkpt><trkpt lat="47.387647018812025" lon="-1.5207003615810728"><ele>8.0</ele><time>2026-03-29T10:01:40Z</time></trkpt><trkpt lat="47.38762225028815" lon="-1.5206064842655516"><ele>8.0</ele><time>2026-03-29T10:01:41Z</time></trkpt><trkpt lat="47.38760477402004" lon="-1.520426021890268"><ele>8.0</ele><time>2026-03-29T10:01:43Z</time></trkpt><trkpt lat="47.38756299023273" lon="-1.5202594734742494"><ele>7.800000000000001</ele><time>2026-03-29T10:01:45Z</time></trkpt><trkpt lat="47.387509932785655" lon="-1.5200956072672456"><ele>7.6000000000000005</ele><time>2026-03-29T10:01:47Z</time></trkpt><trkpt lat="47.38746747844609" lon="-1.5199194196625798"><ele>7.3999999999999995</ele><time>2026-03-29T10:01:49Z</time></trkpt><trkpt lat="47.38743533384743" lon="-1.5198321640505639"><ele>7.199999999999999</ele><time>2026-03-29T10:01:50Z</time></trkpt><trkpt lat="47.38740092613491" lon="-1.5197468362762776"><ele>7.0</ele><time>2026-03-29T10:01:51Z</time></trkpt><trkpt lat="47.38735708878132" lon="-1.5196202695383871"><ele>7.199999999999999</ele><time>2026-03-29T10:01:53Z</time></trkpt><trkpt lat="47.38731777765545" lon="-1.5194672998055065"><ele>7.3999999999999995</ele><time>2026-03-29T10:01:55Z</time></trkpt><trkpt lat="47.38724812404009" lon="-1.5193337760879837"><ele>7.6000000000000005</ele><time>2026-03-29T10:01:57Z</time></trkpt><trkpt lat="47.38722151149752" lon="-1.519248867408856"><ele>7.800000000000001</ele><time>2026-03-29T10:01:58Z</time></trkpt><trkpt lat="47.38717013043108" lon="-1.5190940536572775"><ele>8.0</ele><time>2026-03-29T10:02:00Z</time></trkpt><trkpt lat="47.38712285649719" lon="-1.5189719293280681"><ele>8.0</ele><time>2026-03-29T10:02:02Z</time></trkpt><trkpt lat="47.387062925889516" lon="-1.5188020281507808"><ele>8.0</ele><time>2026-03-29T10:02:04Z</time></trkpt><trkpt lat="47.38701602914127" lon="-1.5186312049641446"><ele>8.0</ele><time>2026-03-29T10:02:06Z</time></trkpt><trkpt lat="47.386993020817066" lon="-1.5185425244285897"><ele>8.0</ele><time>2026-03-29T10:02:07Z</time></trkpt><trkpt lat="47.38693011463376" lon="-1.518375976012571"><ele>8.0</ele><time>2026-03-29T10:02:09Z</time></trkpt><trkpt lat="47.38685970664712" lon="-1.5182211622609927"><ele>8.0</ele><time>2026-03-29T10:02:11Z</time></trkpt><trkpt lat="47.38682085652592" lon="-1.5180763229741883"><ele>8.0</ele><time>2026-03-29T10:02:13Z</time></trkpt><trkpt lat="47.38676520068886" lon="-1.5179700404419731"><ele>8.0</ele><time>2026-03-29T10:02:15Z</time></trkpt><trkpt lat="47.38671021540406" lon="-1.5178496763124296"><ele>8.0</ele><time>2026-03-29T10:02:17Z</time></trkpt><trkpt lat="47.38665518820974" lon="-1.5176910907044239"><ele>8.0</ele><time>2026-03-29T10:02:19Z</time></trkpt><trkpt lat="47.38659441941174" lon="-1.5175375342383213"><ele>8.0</ele><time>2026-03-29T10:02:21Z</time></trkpt><trkpt lat="47.38656114325615" lon="-1.5174490213408296"><ele>8.0</ele><time>2026-03-29T10:02:22Z</time></trkpt><trkpt lat="47.386521957858825" lon="-1.5172755159451787"><ele>8.0</ele><time>2026-03-29T10:02:24Z</time></trkpt><trkpt lat="47.38647388764414" lon="-1.517138723285419"><ele>8.0</ele><time>2026-03-29T10:02:26Z</time></trkpt><trkpt lat="47.38642326094898" lon="-1.516980221496445"><ele>8.0</ele><time>2026-03-29T10:02:28Z</time></trkpt><trkpt lat="47.38638453655633" lon="-1.5169058740153134"><ele>8.0</ele><time>2026-03-29T10:02:29Z</time></trkpt><trkpt lat="47.38632481549623" lon="-1.5167578496053038"><ele>8.0</ele><time>2026-03-29T10:02:31Z</time></trkpt><trkpt lat="47.38628386989924" lon="-1.516681239010316"><ele>8.0</ele><time>2026-03-29T10:02:32Z</time></trkpt><trkpt lat="47.386230686723614" lon="-1.5165389142944632"><ele>8.0</ele><time>2026-03-29T10:02:34Z</time></trkpt><trkpt lat="47.38616832536402" lon="-1.5163639001562412"><ele>8.0</ele><time>2026-03-29T10:02:36Z</time></trkpt><trkpt lat="47.38611111887487" lon="-1.5162194799645954"><ele>7.800000000000001</ele><time>2026-03-29T10:02:38Z</time></trkpt><trkpt lat="47.38607197538706" lon="-1.5161364153041654"><ele>7.6000000000000005</ele><time>2026-03-29T10:02:39Z</time></trkpt><trkpt lat="47.38603396345618" lon="-1.5160497464253717"><ele>7.3999999999999995</ele><time>2026-03-29T10:02:40Z</time></trkpt><trkpt lat="47.38597478721979" lon="-1.5159031469389013"><ele>7.199999999999999</ele><time>2026-03-29T10:02:42Z</time></trkpt><trkpt lat="47.385934428356016" lon="-1.5157358441515971"><ele>7.0</ele><time>2026-03-29T10:02:44Z</time></trkpt><trkpt lat="47.38586389464083" lon="-1.5156152285649587"><ele>7.0</ele><time>2026-03-29T10:02:46Z</time></trkpt><trkpt lat="47.385810921012784" lon="-1.5154712274684714"><ele>7.0</ele><time>2026-03-29T10:02:48Z</time></trkpt><trkpt lat="47.385742608501936" lon="-1.5153179224594637"><ele>7.0</ele><time>2026-03-29T10:02:50Z</time></trkpt><trkpt lat="47.38567991186621" lon="-1.5151569899185702"><ele>7.0</ele><time>2026-03-29T10:02:52Z</time></trkpt><trkpt lat="47.38563272175136" lon="-1.5150267351432842"><ele>7.000000000000001</ele><time>2026-03-29T10:02:54Z</time></trkpt><trkpt lat="47.38559253052565" lon="-1.5149469394250912"><ele>7.0</ele><time>2026-03-29T10:02:55Z</time></trkpt><trkpt lat="47.38555661407056" lon="-1.5148562472327751"><ele>7.0</ele><time>2026-03-29T10:02:56Z</time></trkpt><trkpt lat="47.3854888044739" lon="-1.5146982483579914"><ele>7.0</ele><time>2026-03-29T10:02:58Z</time></trkpt><trkpt lat="47.38545703706088" lon="-1.514607556165675"><ele>7.000000000000001</ele><time>2026-03-29T10:02:59Z</time></trkpt><trkpt lat="47.385420282415474" lon="-1.5145262517049112"><ele>7.0</ele><time>2026-03-29T10:03:00Z</time></trkpt><trkpt lat="47.385367853611136" lon="-1.514384932817439"><ele>7.0</ele><time>2026-03-29T10:03:02Z</time></trkpt><trkpt lat="47.385343671820486" lon="-1.514298599214772"><ele>6.999999999999999</ele><time>2026-03-29T10:03:03Z</time></trkpt><trkpt lat="47.38529459577742" lon="-1.5141511615379846"><ele>6.999999999999999</ele><time>2026-03-29T10:03:05Z</time></trkpt><trkpt lat="47.38524853721949" lon="-1.514031132684568"><ele>7.0</ele><time>2026-03-29T10:03:07Z</time></trkpt><trkpt lat="47.38519225273969" lon="-1.5138921607299836"><ele>7.0</ele><time>2026-03-29T10:03:09Z</time></trkpt><trkpt lat="47.38513198685589" lon="-1.5137293841703923"><ele>7.0</ele><time>2026-03-29T10:03:11Z</time></trkpt><trkpt lat="47.38510751169863" lon="-1.5136331599219828"><ele>6.999999999999999</ele><time>2026-03-29T10:03:12Z</time></trkpt><trkpt lat="47.38507033795806" lon="-1.5135428030057936"><ele>6.999999999999999</ele><time>2026-03-29T10:03:13Z</time></trkpt><trkpt lat="47.38500512675139" lon="-1.5134038310512092"><ele>7.0</ele><time>2026-03-29T10:03:15Z</time></trkpt><trkpt lat="47.38492989917042" lon="-1.5132761746659067"><ele>7.0</ele><time>2026-03-29T10:03:17Z</time></trkpt><trkpt lat="47.38484331411066" lon="-1.513200402261236"><ele>7.0</ele><time>2026-03-29T10:03:19Z</time></trkpt><trkpt lat="47.384790550030196" lon="-1.5131310001029754"><ele>7.0</ele><time>2026-03-29T10:03:20Z</time></trkpt><trkpt lat="47.384733385450566" lon="-1.5130605082973028"><ele>7.0</ele><time>2026-03-29T10:03:21Z</time></trkpt><trkpt lat="47.384677059061254" lon="-1.512995967642882"><ele>7.0</ele><time>2026-03-29T10:03:22Z</time></trkpt><trkpt lat="47.384627563923026" lon="-1.5129208657904647"><ele>7.0</ele><time>2026-03-29T10:03:23Z</time></trkpt><trkpt lat="47.38457488366159" lon="-1.512839226053574"><ele>7.0</ele><time>2026-03-29T10:03:24Z</time></trkpt><trkpt lat="47.384528615556086" lon="-1.5127735957517408"><ele>7.0</ele><time>2026-03-29T10:03:25Z</time></trkpt><trkpt lat="47.384487963325704" lon="-1.5126962307854672"><ele>6.857142857142857</ele><time>2026-03-29T10:03:26Z</time></trkpt><trkpt lat="47.384452046870614" lon="-1.5126172732575913"><ele>6.714285714285714</ele><time>2026-03-29T10:03:27Z</time></trkpt><trkpt lat="47.3844189802626" lon="-1.5125358849777957"><ele>6.571428571428571</ele><time>2026-03-29T10:03:28Z</time></trkpt><trkpt lat="47.38438004632237" lon="-1.512460950763442"><ele>6.428571428571429</ele><time>2026-03-29T10:03:29Z</time></trkpt><trkpt lat="47.38433859781119" lon="-1.512372856961109"><ele>6.285714285714286</ele><time>2026-03-29T10:03:30Z</time></trkpt><trkpt lat="47.38429731693807" lon="-1.5122850146158713"><ele>6.142857142857142</ele><time>2026-03-29T10:03:31Z</time></trkpt><trkpt lat="47.38425855063589" lon="-1.512201949955441"><ele>6.0</ele><time>2026-03-29T10:03:32Z</time></trkpt><trkpt lat="47.38421119288297" lon="-1.512124249713041"><ele>5.833333333333333</ele><time>2026-03-29T10:03:33Z</time></trkpt><trkpt lat="47.3841795511985" lon="-1.5120401792242304"><ele>5.666666666666667</ele><time>2026-03-29T10:03:34Z</time></trkpt><trkpt lat="47.38411924340518" lon="-1.5119030512883438"><ele>5.5</ele><time>2026-03-29T10:03:36Z</time></trkpt><trkpt lat="47.384085799611526" lon="-1.5118147898479475"><ele>5.333333333333334</ele><time>2026-03-29T10:03:37Z</time></trkpt><trkpt lat="47.38401899584325" lon="-1.5116797573878538"><ele>5.166666666666667</ele><time>2026-03-29T10:03:39Z</time></trkpt><trkpt lat="47.38398324702622" lon="-1.511602811516739"><ele>5.0</ele><time>2026-03-29T10:03:40Z</time></trkpt><trkpt lat="47.3839189578289" lon="-1.5114570502205857"><ele>5.0</ele><time>2026-03-29T10:03:42Z</time></trkpt><trkpt lat="47.383879604793506" lon="-1.5113791823401221"><ele>5.0</ele><time>2026-03-29T10:03:43Z</time></trkpt><trkpt lat="47.38381938081922" lon="-1.5112345106913811"><ele>5.0</ele><time>2026-03-29T10:03:45Z</time></trkpt><trkpt lat="47.38374947574677" lon="-1.5111060161157615"><ele>5.0</ele><time>2026-03-29T10:03:47Z</time></trkpt><trkpt lat="47.38367915157916" lon="-1.5109633561237816"><ele>5.0</ele><time>2026-03-29T10:03:49Z</time></trkpt><trkpt lat="47.3836467555234" lon="-1.5108782798065905"><ele>5.6</ele><time>2026-03-29T10:03:50Z</time></trkpt><trkpt lat="47.38360195425095" lon="-1.5107169281705382"><ele>6.2</ele><time>2026-03-29T10:03:52Z</time></trkpt><trkpt lat="47.3835214879805" lon="-1.5105787105872395"><ele>6.800000000000001</ele><time>2026-03-29T10:03:54Z</time></trkpt><trkpt lat="47.383474926508384" lon="-1.5105134993805647"><ele>7.4</ele><time>2026-03-29T10:03:55Z</time></trkpt><trkpt lat="47.38336801533343" lon="-1.5104600228383303"><ele>8.0</ele><time>2026-03-29T10:03:57Z</time></trkpt><trkpt lat="47.383243837437945" lon="-1.5104489587261438"><ele>8.0</ele><time>2026-03-29T10:03:59Z</time></trkpt><trkpt lat="47.38314199731441" lon="-1.5104180295034408"><ele>8.0</ele><time>2026-03-29T10:04:01Z</time></trkpt><trkpt lat="47.383060106120425" lon="-1.510320715607619"><ele>8.0</ele><time>2026-03-29T10:04:03Z</time></trkpt><trkpt lat="47.38298051994981" lon="-1.5102112479521987"><ele>8.0</ele><time>2026-03-29T10:04:05Z</time></trkpt><trkpt lat="47.38292566039355" lon="-1.510159363971567"><ele>8.0</ele><time>2026-03-29T10:04:06Z</time></trkpt><trkpt lat="47.38284393683763" lon="-1.5100944042219875"><ele>7.800000000000001</ele><time>2026-03-29T10:04:08Z</time></trkpt><trkpt lat="47.382770553275364" lon="-1.5099976770593877"><ele>7.6000000000000005</ele><time>2026-03-29T10:04:10Z</time></trkpt><trkpt lat="47.38272772175016" lon="-1.5099237486734147"><ele>7.3999999999999995</ele><time>2026-03-29T10:04:11Z</time></trkpt><trkpt lat="47.38269251775684" lon="-1.5097600501044743"><ele>7.199999999999999</ele><time>2026-03-29T10:04:13Z</time></trkpt><trkpt lat="47.38264859658422" lon="-1.5095927473171702"><ele>7.0</ele><time>2026-03-29T10:04:15Z</time></trkpt><trkpt lat="47.38261678726168" lon="-1.5094709582640877"><ele>6.8</ele><time>2026-03-29T10:04:17Z</time></trkpt><trkpt lat="47.382584684572535" lon="-1.509309103713845"><ele>6.6</ele><time>2026-03-29T10:04:19Z</time></trkpt><trkpt lat="47.382563645995575" lon="-1.5092168189599264"><ele>6.3999999999999995</ele><time>2026-03-29T10:04:20Z</time></trkpt><trkpt lat="47.382538961290734" lon="-1.5091240312918173"><ele>6.199999999999999</ele><time>2026-03-29T10:04:21Z</time></trkpt><trkpt lat="47.382488460324126" lon="-1.5089704748257147"><ele>6.0</ele><time>2026-03-29T10:04:23Z</time></trkpt><trkpt lat="47.38245543562563" lon="-1.5087984781726345"><ele>6.0</ele><time>2026-03-29T10:04:25Z</time></trkpt><trkpt lat="47.38240719777288" lon="-1.5086491964771491"><ele>6.0</ele><time>2026-03-29T10:04:27Z</time></trkpt><trkpt lat="47.382358750372546" lon="-1.5085653774454337"><ele>6.0</ele><time>2026-03-29T10:04:28Z</time></trkpt><trkpt lat="47.382278116464036" lon="-1.5084618609412652"><ele>6.0</ele><time>2026-03-29T10:04:30Z</time></trkpt><trkpt lat="47.38221789248975" lon="-1.5084089711322526"><ele>6.0</ele><time>2026-03-29T10:04:31Z</time></trkpt><trkpt lat="47.382167642980235" lon="-1.5083203744157294"><ele>6.0</ele><time>2026-03-29T10:04:33Z</time></trkpt><trkpt lat="47.38210012675019" lon="-1.5082459431155661"><ele>6.0</ele><time>2026-03-29T10:04:35Z</time></trkpt><trkpt lat="47.3820478236744" lon="-1.5081846714033822"><ele>6.0</ele><time>2026-03-29T10:04:36Z</time></trkpt><trkpt lat="47.38198051699193" lon="-1.5081337932511307"><ele>6.0</ele><time>2026-03-29T10:04:37Z</time></trkpt><trkpt lat="47.381921592212635" lon="-1.5080932248397805"><ele>6.0</ele><time>2026-03-29T10:04:38Z</time></trkpt><trkpt lat="47.38187507265003" lon="-1.5080305282040574"><ele>6.0</ele><time>2026-03-29T10:04:39Z</time></trkpt><trkpt lat="47.381770843684095" lon="-1.5079151932164168"><ele>6.0</ele><time>2026-03-29T10:04:41Z</time></trkpt><trkpt lat="47.381711248352545" lon="-1.5078804083182549"><ele>6.0</ele><time>2026-03-29T10:04:42Z</time></trkpt><trkpt lat="47.38165416759195" lon="-1.5078338049366211"><ele>6.0</ele><time>2026-03-29T10:04:43Z</time></trkpt><trkpt lat="47.38152521201165" lon="-1.5077966731055712"><ele>6.0</ele><time>2026-03-29T10:04:45Z</time></trkpt><trkpt lat="47.381413690789955" lon="-1.5077707730247711"><ele>6.0</ele><time>2026-03-29T10:04:47Z</time></trkpt><trkpt lat="47.38132714763971" lon="-1.5077484771623348"><ele>6.0</ele><time>2026-03-29T10:04:49Z</time></trkpt><trkpt lat="47.38125162669213" lon="-1.5077159553780293"><ele>5.8</ele><time>2026-03-29T10:04:50Z</time></trkpt><trkpt lat="47.381149828478115" lon="-1.5076766442521545"><ele>5.6</ele><time>2026-03-29T10:04:52Z</time></trkpt><trkpt lat="47.38107158341201" lon="-1.5076097566648456"><ele>5.4</ele><time>2026-03-29T10:04:54Z</time></trkpt><trkpt lat="47.380972886502164" lon="-1.507545718924615"><ele>5.2</ele><time>2026-03-29T10:04:56Z</time></trkpt><trkpt lat="47.38088772636594" lon="-1.5074494108571739"><ele>5.0</ele><time>2026-03-29T10:04:58Z</time></trkpt><trkpt lat="47.38081593536528" lon="-1.5073833614601821"><ele>5.0</ele><time>2026-03-29T10:05:00Z</time></trkpt><trkpt lat="47.380731487690824" lon="-1.5073132049306364"><ele>5.0</ele><time>2026-03-29T10:05:02Z</time></trkpt><trkpt lat="47.380641214593666" lon="-1.5072472393526763"><ele>5.0</ele><time>2026-03-29T10:05:04Z</time></trkpt><trkpt lat="47.380539835474806" lon="-1.507209269331309"><ele>5.0</ele><time>2026-03-29T10:05:06Z</time></trkpt><trkpt lat="47.38042823043408" lon="-1.5072106104358165"><ele>5.0</ele><time>2026-03-29T10:05:08Z</time></trkpt><trkpt lat="47.38030929122807" lon="-1.5071997139616935"><ele>5.4</ele><time>2026-03-29T10:05:10Z</time></trkpt><trkpt lat="47.3802232090825" lon="-1.5071987919523446"><ele>5.8</ele><time>2026-03-29T10:05:12Z</time></trkpt><trkpt lat="47.38012954131456" lon="-1.5071761608137815"><ele>6.199999999999999</ele><time>2026-03-29T10:05:14Z</time></trkpt><trkpt lat="47.380021121397036" lon="-1.5071228519096105"><ele>6.6</ele><time>2026-03-29T10:05:16Z</time></trkpt><trkpt lat="47.379942624873834" lon="-1.507065268234822"><ele>7.0</ele><time>2026-03-29T10:05:18Z</time></trkpt><trkpt lat="47.37988223326148" lon="-1.5070089418455093"><ele>7.0</ele><time>2026-03-29T10:05:20Z</time></trkpt><trkpt lat="47.379813920750635" lon="-1.5069607459022727"><ele>6.999999999999999</ele><time>2026-03-29T10:05:22Z</time></trkpt><trkpt lat="47.37974497959705" lon="-1.5068959537907567"><ele>6.999999999999999</ele><time>2026-03-29T10:05:24Z</time></trkpt><trkpt lat="47.37967989411892" lon="-1.506786905230495"><ele>7.0</ele><time>2026-03-29T10:05:26Z</time></trkpt><trkpt lat="47.379598170563" lon="-1.506712306292268"><ele>7.0</ele><time>2026-03-29T10:05:28Z</time></trkpt><trkpt lat="47.37950810701342" lon="-1.50664399378142"><ele>8.166666666666668</ele><time>2026-03-29T10:05:30Z</time></trkpt><trkpt lat="47.379424413710254" lon="-1.5066809579744065"><ele>9.333333333333334</ele><time>2026-03-29T10:05:32Z</time></trkpt><trkpt lat="47.379362178079205" lon="-1.506701996551367"><ele>10.5</ele><time>2026-03-29T10:05:34Z</time></trkpt><trkpt lat="47.379296212501245" lon="-1.506733512507292"><ele>11.666666666666668</ele><time>2026-03-29T10:05:36Z</time></trkpt><trkpt lat="47.37921612341644" lon="-1.506743235514971"><ele>12.833333333333334</ele><time>2026-03-29T10:05:39Z</time></trkpt><trkpt lat="47.37914726608189" lon="-1.5066847298308337"><ele>14.0</ele><time>2026-03-29T10:05:41Z</time></trkpt><trkpt lat="47.37907476261945" lon="-1.5066230390234912"><ele>14.000000000000002</ele><time>2026-03-29T10:05:44Z</time></trkpt><trkpt lat="47.37900095996203" lon="-1.506550619380089"><ele>14.0</ele><time>2026-03-29T10:05:47Z</time></trkpt><trkpt lat="47.37893817950727" lon="-1.5065101347877705"><ele>14.0</ele><time>2026-03-29T10:05:49Z</time></trkpt><trkpt lat="47.37886676569225" lon="-1.5065013337894402"><ele>14.0</ele><time>2026-03-29T10:05:51Z</time></trkpt><trkpt lat="47.37879748926254" lon="-1.5065051056458674"><ele>14.000000000000002</ele><time>2026-03-29T10:05:53Z</time></trkpt><trkpt lat="47.378713251135665" lon="-1.506517678500625"><ele>14.0</ele><time>2026-03-29T10:05:56Z</time></trkpt><trkpt lat="47.37862528306188" lon="-1.5065266471370184"><ele>14.166666666666668</ele><time>2026-03-29T10:05:59Z</time></trkpt><trkpt lat="47.378544900610464" lon="-1.5065366216017926"><ele>14.333333333333334</ele><time>2026-03-29T10:06:02Z</time></trkpt><trkpt lat="47.37846393142583" lon="-1.5065294969840968"><ele>14.5</ele><time>2026-03-29T10:06:05Z</time></trkpt><trkpt lat="47.378398301123994" lon="-1.5065502841039622"><ele>14.666666666666668</ele><time>2026-03-29T10:06:44Z</time></trkpt><trkpt lat="47.37833032388927" lon="-1.5065763518228257"><ele>14.833333333333334</ele><time>2026-03-29T10:06:47Z</time></trkpt><trkpt lat="47.37823430918844" lon="-1.5065843146308386"><ele>15.0</ele><time>2026-03-29T10:06:50Z</time></trkpt><trkpt lat="47.378158201507645" lon="-1.5065911877914393"><ele>15.0</ele><time>2026-03-29T10:06:52Z</time></trkpt><trkpt lat="47.37807752568962" lon="-1.5066069457694018"><ele>15.0</ele><time>2026-03-29T10:06:54Z</time></trkpt><trkpt lat="47.37798800696375" lon="-1.5066240448518717"><ele>15.0</ele><time>2026-03-29T10:06:56Z</time></trkpt><trkpt lat="47.37789982934238" lon="-1.5066381264492"><ele>15.0</ele><time>2026-03-29T10:06:58Z</time></trkpt><trkpt lat="47.37780746076943" lon="-1.5066430717720711"><ele>15.0</ele><time>2026-03-29T10:07:00Z</time></trkpt><trkpt lat="47.37772242636176" lon="-1.5066500287517035"><ele>15.0</ele><time>2026-03-29T10:07:02Z</time></trkpt><trkpt lat="47.37763500311168" lon="-1.5066697262241566"><ele>14.333333333333334</ele><time>2026-03-29T10:07:04Z</time></trkpt><trkpt lat="47.377548920966106" lon="-1.5066814608885968"><ele>13.666666666666666</ele><time>2026-03-29T10:07:06Z</time></trkpt><trkpt lat="47.37746158153506" lon="-1.5066833049072945"><ele>13.0</ele><time>2026-03-29T10:07:08Z</time></trkpt><trkpt lat="47.37737730149867" lon="-1.5066916029914343"><ele>12.333333333333332</ele><time>2026-03-29T10:07:10Z</time></trkpt><trkpt lat="47.377298511608856" lon="-1.5066995657994473"><ele>11.666666666666666</ele><time>2026-03-29T10:07:12Z</time></trkpt><trkpt lat="47.37723170784058" lon="-1.5067098755403483"><ele>11.0</ele><time>2026-03-29T10:07:14Z</time></trkpt><trkpt lat="47.37714663152339" lon="-1.506679030136677"><ele>10.666666666666666</ele><time>2026-03-29T10:07:16Z</time></trkpt><trkpt lat="47.37707052384259" lon="-1.5066612605019534"><ele>10.333333333333332</ele><time>2026-03-29T10:07:18Z</time></trkpt><trkpt lat="47.37699110531004" lon="-1.5066396351917708"><ele>10.0</ele><time>2026-03-29T10:07:20Z</time></trkpt><trkpt lat="47.376905567988175" lon="-1.506630415098282"><ele>9.666666666666666</ele><time>2026-03-29T10:07:22Z</time></trkpt><trkpt lat="47.37681646835746" lon="-1.5066408924772465"><ele>9.333333333333334</ele><time>2026-03-29T10:07:24Z</time></trkpt><trkpt lat="47.376719489737766" lon="-1.5066767670228207"><ele>9.0</ele><time>2026-03-29T10:07:26Z</time></trkpt><trkpt lat="47.37664463934244" lon="-1.506704678760382"><ele>9.0</ele><time>2026-03-29T10:07:28Z</time></trkpt><trkpt lat="47.37656450834812" lon="-1.5067133121206486"><ele>9.0</ele><time>2026-03-29T10:07:30Z</time></trkpt><trkpt lat="47.376481359868656" lon="-1.506723202766391"><ele>9.0</ele><time>2026-03-29T10:07:32Z</time></trkpt><trkpt lat="47.376421177803884" lon="-1.506750695408794"><ele>9.0</ele><time>2026-03-29T10:07:34Z</time></trkpt><trkpt lat="47.37638614144863" lon="-1.5068635158254828"><ele>9.0</ele><time>2026-03-29T10:07:37Z</time></trkpt><trkpt lat="47.376376250802885" lon="-1.5069590695216384"><ele>9.0</ele><time>2026-03-29T10:07:39Z</time></trkpt><trkpt lat="47.37636900045664" lon="-1.5070933476104467"><ele>8.833333333333334</ele><time>2026-03-29T10:07:42Z</time></trkpt><trkpt lat="47.376354583583186" lon="-1.5072434674962492"><ele>8.666666666666666</ele><time>2026-03-29T10:07:45Z</time></trkpt><trkpt lat="47.37635169182659" lon="-1.50734220631561"><ele>8.5</ele><time>2026-03-29T10:07:47Z</time></trkpt><trkpt lat="47.376322522803555" lon="-1.5074541885419817"><ele>8.333333333333332</ele><time>2026-03-29T10:07:50Z</time></trkpt><trkpt lat="47.376269213899384" lon="-1.507567847148988"><ele>8.166666666666666</ele><time>2026-03-29T10:07:53Z</time></trkpt><trkpt lat="47.37623954196216" lon="-1.5076786559089157"><ele>8.0</ele><time>2026-03-29T10:07:55Z</time></trkpt><trkpt lat="47.37621100158186" lon="-1.507798181848142"><ele>7.6000000000000005</ele><time>2026-03-29T10:07:57Z</time></trkpt><trkpt lat="47.37619163938553" lon="-1.5078899636878704"><ele>7.200000000000001</ele><time>2026-03-29T10:07:58Z</time></trkpt><trkpt lat="47.37611565743328" lon="-1.5079930610968806"><ele>6.8</ele><time>2026-03-29T10:08:00Z</time></trkpt><trkpt lat="47.376047135374854" lon="-1.5081093180938698"><ele>6.4</ele><time>2026-03-29T10:08:02Z</time></trkpt><trkpt lat="47.37598527692945" lon="-1.5082358848317603"><ele>6.0</ele><time>2026-03-29T10:08:04Z</time></trkpt><trkpt lat="47.37592404712678" lon="-1.5083644632264117"><ele>6.0</ele><time>2026-03-29T10:08:06Z</time></trkpt><trkpt lat="47.37586730164231" lon="-1.5084891021265727"><ele>6.0</ele><time>2026-03-29T10:08:08Z</time></trkpt><trkpt lat="47.37579504963697" lon="-1.5086016710861665"><ele>6.0</ele><time>2026-03-29T10:08:10Z</time></trkpt><trkpt lat="47.37571575683297" lon="-1.5087020862861618"><ele>6.0</ele><time>2026-03-29T10:08:12Z</time></trkpt><trkpt lat="47.37562305298389" lon="-1.5087499469532712"><ele>6.0</ele><time>2026-03-29T10:08:14Z</time></trkpt><trkpt lat="47.37552309878857" lon="-1.5087460074587806"><ele>5.999999999999999</ele><time>2026-03-29T10:08:16Z</time></trkpt><trkpt lat="47.375462246171544" lon="-1.5087221190347417"><ele>6.0</ele><time>2026-03-29T10:08:17Z</time></trkpt><trkpt lat="47.37539690923632" lon="-1.5087066125138744"><ele>6.0</ele><time>2026-03-29T10:08:18Z</time></trkpt><trkpt lat="47.375326459340165" lon="-1.5086771082147106"><ele>6.0</ele><time>2026-03-29T10:08:19Z</time></trkpt><trkpt lat="47.37521250736655" lon="-1.5086758509292348"><ele>6.0</ele><time>2026-03-29T10:08:21Z</time></trkpt><trkpt lat="47.37514821816922" lon="-1.5086727496250614"><ele>5.999999999999999</ele><time>2026-03-29T10:08:22Z</time></trkpt><trkpt lat="47.37508359369577" lon="-1.5086516272290689"><ele>6.0</ele><time>2026-03-29T10:08:23Z</time></trkpt><trkpt lat="47.375013227618645" lon="-1.508643915878151"><ele>6.0</ele><time>2026-03-29T10:08:24Z</time></trkpt><trkpt lat="47.37493871249945" lon="-1.508654560895179"><ele>6.0</ele><time>2026-03-29T10:08:25Z</time></trkpt><trkpt lat="47.374814115508805" lon="-1.5087135694935068"><ele>6.0</ele><time>2026-03-29T10:08:27Z</time></trkpt><trkpt lat="47.37471164674253" lon="-1.5088216960444196"><ele>6.0</ele><time>2026-03-29T10:08:29Z</time></trkpt><trkpt lat="47.37460502893419" lon="-1.508897636087154"><ele>6.0</ele><time>2026-03-29T10:08:31Z</time></trkpt><trkpt lat="47.374487221285115" lon="-1.5089630987509237"><ele>6.0</ele><time>2026-03-29T10:08:33Z</time></trkpt><trkpt lat="47.374379974834035" lon="-1.509031075985645"><ele>6.0</ele><time>2026-03-29T10:08:35Z</time></trkpt><trkpt lat="47.374265561855744" lon="-1.509041637183641"><ele>6.0</ele><time>2026-03-29T10:08:37Z</time></trkpt><trkpt lat="47.37415500455291" lon="-1.5090243704631077"><ele>6.0</ele><time>2026-03-29T10:08:39Z</time></trkpt><trkpt lat="47.37408715304674" lon="-1.5090224426253782"><ele>6.0</ele><time>2026-03-29T10:08:40Z</time></trkpt><trkpt lat="47.37402433068247" lon="-1.5090154018267141"><ele>6.0</ele><time>2026-03-29T10:08:41Z</time></trkpt><trkpt lat="47.37395895183773" lon="-1.5089870709939943"><ele>6.0</ele><time>2026-03-29T10:08:42Z</time></trkpt><trkpt lat="47.37384261102171" lon="-1.5089778509005056"><ele>6.0</ele><time>2026-03-29T10:08:44Z</time></trkpt><trkpt lat="47.37373251472355" lon="-1.5089798625572668"><ele>6.0</ele><time>2026-03-29T10:08:46Z</time></trkpt><trkpt lat="47.37366084945143" lon="-1.5089720673873173"><ele>6.0</ele><time>2026-03-29T10:08:47Z</time></trkpt><trkpt lat="47.37359358467848" lon="-1.508957147599672"><ele>6.0</ele><time>2026-03-29T10:08:48Z</time></trkpt><trkpt lat="47.3735278286481" lon="-1.5089410543455826"><ele>6.0</ele><time>2026-03-29T10:08:49Z</time></trkpt><trkpt lat="47.37345758829952" lon="-1.5089414734407411"><ele>6.0</ele><time>2026-03-29T10:08:50Z</time></trkpt><trkpt lat="47.37333223693759" lon="-1.5089253801866518"><ele>6.0</ele><time>2026-03-29T10:08:52Z</time></trkpt><trkpt lat="47.37321639903576" lon="-1.50893652811787"><ele>6.0</ele><time>2026-03-29T10:08:54Z</time></trkpt><trkpt lat="47.37310408153326" lon="-1.508931498975967"><ele>5.75</ele><time>2026-03-29T10:08:56Z</time></trkpt><trkpt lat="47.3729794426331" lon="-1.5089230332537638"><ele>5.5</ele><time>2026-03-29T10:08:58Z</time></trkpt><trkpt lat="47.37286167689354" lon="-1.508902665229057"><ele>5.25</ele><time>2026-03-29T10:09:00Z</time></trkpt><trkpt lat="47.37274148040206" lon="-1.5088753402247175"><ele>5.0</ele><time>2026-03-29T10:09:02Z</time></trkpt><trkpt lat="47.37261910461576" lon="-1.5088826324804767"><ele>5.0</ele><time>2026-03-29T10:09:04Z</time></trkpt><trkpt lat="47.37255037300975" lon="-1.5088737476631149"><ele>5.0</ele><time>2026-03-29T10:09:05Z</time></trkpt><trkpt lat="47.37243734304548" lon="-1.5088447462781414"><ele>5.0</ele><time>2026-03-29T10:09:07Z</time></trkpt><trkpt lat="47.372320666953335" lon="-1.5088414773359045"><ele>5.0</ele><time>2026-03-29T10:09:09Z</time></trkpt><trkpt lat="47.372255413837145" lon="-1.5088323410614475"><ele>5.0</ele><time>2026-03-29T10:09:10Z</time></trkpt><trkpt lat="47.37219083127321" lon="-1.5088242944344028"><ele>5.0</ele><time>2026-03-29T10:09:11Z</time></trkpt><trkpt lat="47.372119752734314" lon="-1.5088073629899963"><ele>5.0</ele><time>2026-03-29T10:09:12Z</time></trkpt><trkpt lat="47.372056511274884" lon="-1.5088048484190448"><ele>5.0</ele><time>2026-03-29T10:09:13Z</time></trkpt><trkpt lat="47.37193149518908" lon="-1.5087789483382448"><ele>5.0</ele><time>2026-03-29T10:09:15Z</time></trkpt><trkpt lat="47.37186297313065" lon="-1.50877919979534"><ele>5.0</ele><time>2026-03-29T10:09:16Z</time></trkpt><trkpt lat="47.37173368227423" lon="-1.508759753779982"><ele>5.0</ele><time>2026-03-29T10:09:18Z</time></trkpt><trkpt lat="47.371657155498276" lon="-1.508737625555609"><ele>5.0</ele><time>2026-03-29T10:09:19Z</time></trkpt><trkpt lat="47.37155845858843" lon="-1.5087539702667936"><ele>5.0</ele><time>2026-03-29T10:09:21Z</time></trkpt><trkpt lat="47.37148989462049" lon="-1.5087381284697994"><ele>5.0</ele><time>2026-03-29T10:09:22Z</time></trkpt><trkpt lat="47.37142606642784" lon="-1.5087239630534395"><ele>5.0</ele><time>2026-03-29T10:09:23Z</time></trkpt><trkpt lat="47.37130138561816" lon="-1.5087024215622886"><ele>5.0</ele><time>2026-03-29T10:09:25Z</time></trkpt><trkpt lat="47.37117351968528" lon="-1.5086694806828245"><ele>4.8</ele><time>2026-03-29T10:09:27Z</time></trkpt><trkpt lat="47.37105370037944" lon="-1.5086812153472646"><ele>4.6</ele><time>2026-03-29T10:09:29Z</time></trkpt><trkpt lat="47.370939329310666" lon="-1.5087005775435909"><ele>4.4</ele><time>2026-03-29T10:09:31Z</time></trkpt><trkpt lat="47.37083183140249" lon="-1.5087289083763107"><ele>4.2</ele><time>2026-03-29T10:09:33Z</time></trkpt><trkpt lat="47.370766620195816" lon="-1.5087503660484298"><ele>4.0</ele><time>2026-03-29T10:09:34Z</time></trkpt><trkpt lat="47.37065602098347" lon="-1.5087770205005153"><ele>4.6</ele><time>2026-03-29T10:09:36Z</time></trkpt><trkpt lat="47.37059202515275" lon="-1.5087947063162073"><ele>5.2</ele><time>2026-03-29T10:09:37Z</time></trkpt><trkpt lat="47.37047803126962" lon="-1.5088309161379083"><ele>5.799999999999999</ele><time>2026-03-29T10:09:39Z</time></trkpt><trkpt lat="47.370407874740074" lon="-1.5088331792517646"><ele>6.3999999999999995</ele><time>2026-03-29T10:09:40Z</time></trkpt><trkpt lat="47.370334407358776" lon="-1.508842818440412"><ele>7.0</ele><time>2026-03-29T10:09:41Z</time></trkpt><trkpt lat="47.370210564739416" lon="-1.5088558103903278"><ele>7.000000000000001</ele><time>2026-03-29T10:09:43Z</time></trkpt><trkpt lat="47.37013948620052" lon="-1.5088567323996767"><ele>7.0</ele><time>2026-03-29T10:09:44Z</time></trkpt><trkpt lat="47.370070042132745" lon="-1.5088548045619472"><ele>7.0</ele><time>2026-03-29T10:09:45Z</time></trkpt><trkpt lat="47.369959149553786" lon="-1.5088822972043499"><ele>7.0</ele><time>2026-03-29T10:09:47Z</time></trkpt><trkpt lat="47.36986585897149" lon="-1.5088971331729637"><ele>7.000000000000001</ele><time>2026-03-29T10:09:49Z</time></trkpt><trkpt lat="47.36977336466999" lon="-1.5089115500464187"><ele>7.0</ele><time>2026-03-29T10:09:50Z</time></trkpt><trkpt lat="47.36967584122659" lon="-1.508970977739905"><ele>7.0</ele><time>2026-03-29T10:09:52Z</time></trkpt><trkpt lat="47.369552836797546" lon="-1.5089884959175335"><ele>7.0</ele><time>2026-03-29T10:09:54Z</time></trkpt><trkpt lat="47.369443788237284" lon="-1.5090286452337252"><ele>7.0</ele><time>2026-03-29T10:09:56Z</time></trkpt><trkpt lat="47.3692625295812" lon="-1.5090541262193666"><ele>7.0</ele><time>2026-03-29T10:09:59Z</time></trkpt><trkpt lat="47.369146021127115" lon="-1.5090951137258755"><ele>7.0</ele><time>2026-03-29T10:10:01Z</time></trkpt><trkpt lat="47.369038774676035" lon="-1.5091596543802965"><ele>6.999999999999999</ele><time>2026-03-29T10:10:03Z</time></trkpt><trkpt lat="47.36896224790007" lon="-1.509265517817353"><ele>6.999999999999999</ele><time>2026-03-29T10:10:05Z</time></trkpt><trkpt lat="47.36889024735183" lon="-1.509400801734542"><ele>7.0</ele><time>2026-03-29T10:10:07Z</time></trkpt><trkpt lat="47.36883002337754" lon="-1.5095199085786095"><ele>7.0</ele><time>2026-03-29T10:10:09Z</time></trkpt><trkpt lat="47.36876971558422" lon="-1.5096303820624106"><ele>7.0</ele><time>2026-03-29T10:10:11Z</time></trkpt><trkpt lat="47.36871523321361" lon="-1.5097317192717545"><ele>6.999999999999999</ele><time>2026-03-29T10:10:13Z</time></trkpt><trkpt lat="47.36862504393548" lon="-1.509826686234688"><ele>6.999999999999999</ele><time>2026-03-29T10:10:15Z</time></trkpt><trkpt lat="47.36854034480393" lon="-1.509939255194282"><ele>7.0</ele><time>2026-03-29T10:10:17Z</time></trkpt><trkpt lat="47.368464740037325" lon="-1.5100644808276649"><ele>7.0</ele><time>2026-03-29T10:10:19Z</time></trkpt><trkpt lat="47.368392613760534" lon="-1.5101767983301637"><ele>7.0</ele><time>2026-03-29T10:10:21Z</time></trkpt><trkpt lat="47.36830565151513" lon="-1.5102816559388397"><ele>6.999999999999999</ele><time>2026-03-29T10:10:23Z</time></trkpt><trkpt lat="47.36821642615587" lon="-1.5103865973665476"><ele>6.999999999999999</ele><time>2026-03-29T10:10:25Z</time></trkpt><trkpt lat="47.36811571758926" lon="-1.5104896947755575"><ele>7.0</ele><time>2026-03-29T10:10:27Z</time></trkpt><trkpt lat="47.36805117693484" lon="-1.510514589027977"><ele>7.0</ele><time>2026-03-29T10:10:28Z</time></trkpt><trkpt lat="47.36794539731682" lon="-1.5105926245465042"><ele>7.000000000000001</ele><time>2026-03-29T10:10:30Z</time></trkpt><trkpt lat="47.367847580506805" lon="-1.5106658823802235"><ele>7.0</ele><time>2026-03-29T10:10:32Z</time></trkpt><trkpt lat="47.367803365967575" lon="-1.5107341948910715"><ele>7.0</ele><time>2026-03-29T10:10:33Z</time></trkpt><trkpt lat="47.3677537451008" lon="-1.5108104702099328"><ele>7.0</ele><time>2026-03-29T10:10:34Z</time></trkpt><trkpt lat="47.3676948203215" lon="-1.5108600910767083"><ele>7.000000000000001</ele><time>2026-03-29T10:10:35Z</time></trkpt><trkpt lat="47.3676483007589" lon="-1.5109278168543343"><ele>7.0</ele><time>2026-03-29T10:10:36Z</time></trkpt><trkpt lat="47.36756728966475" lon="-1.5110553056015736"><ele>7.000000000000001</ele><time>2026-03-29T10:10:38Z</time></trkpt><trkpt lat="47.36751670487911" lon="-1.5111129730953938"><ele>7.0</ele><time>2026-03-29T10:10:39Z</time></trkpt><trkpt lat="47.36745782200933" lon="-1.5111596602960593"><ele>7.0</ele><time>2026-03-29T10:10:40Z</time></trkpt><trkpt lat="47.36742056444973" lon="-1.5112434793277747"><ele>7.0</ele><time>2026-03-29T10:10:41Z</time></trkpt><trkpt lat="47.36738980286509" lon="-1.511330902577854"><ele>7.000000000000001</ele><time>2026-03-29T10:10:42Z</time></trkpt><trkpt lat="47.36735895746142" lon="-1.5114204213037261"><ele>7.0</ele><time>2026-03-29T10:10:43Z</time></trkpt><trkpt lat="47.3673176765883" lon="-1.511584874243952"><ele>7.000000000000001</ele><time>2026-03-29T10:10:45Z</time></trkpt><trkpt lat="47.367292949973944" lon="-1.5116724651320945"><ele>7.0</ele><time>2026-03-29T10:10:46Z</time></trkpt><trkpt lat="47.36724035353154" lon="-1.5118378400816692"><ele>7.0</ele><time>2026-03-29T10:10:48Z</time></trkpt><trkpt lat="47.36720041376293" lon="-1.5119697712375892"><ele>7.0</ele><time>2026-03-29T10:10:50Z</time></trkpt><trkpt lat="47.367179333276454" lon="-1.5120619721724764"><ele>7.000000000000001</ele><time>2026-03-29T10:10:51Z</time></trkpt><trkpt lat="47.36716458112687" lon="-1.5121539216502682"><ele>7.0</ele><time>2026-03-29T10:10:52Z</time></trkpt><trkpt lat="47.3671424529025" lon="-1.5122496429844874"><ele>7.0</ele><time>2026-03-29T10:10:53Z</time></trkpt><trkpt lat="47.3671250185439" lon="-1.5123568475260514"><ele>6.999999999999999</ele><time>2026-03-29T10:10:54Z</time></trkpt><trkpt lat="47.36709723253489" lon="-1.512524904684641"><ele>6.999999999999999</ele><time>2026-03-29T10:10:56Z</time></trkpt><trkpt lat="47.36708084591419" lon="-1.5127023495747824"><ele>7.0</ele><time>2026-03-29T10:10:58Z</time></trkpt><trkpt lat="47.367048491767946" lon="-1.5128444228335403"><ele>7.0</ele><time>2026-03-29T10:11:00Z</time></trkpt><trkpt lat="47.367012575312856" lon="-1.5130153298392082"><ele>7.0</ele><time>2026-03-29T10:11:02Z</time></trkpt><trkpt lat="47.36699229110718" lon="-1.513170897962072"><ele>6.999999999999999</ele><time>2026-03-29T10:11:04Z</time></trkpt><trkpt lat="47.36698956698865" lon="-1.5132662002011326"><ele>6.999999999999999</ele><time>2026-03-29T10:11:05Z</time></trkpt><trkpt lat="47.36700390004307" lon="-1.5134145598872688"><ele>7.0</ele><time>2026-03-29T10:11:07Z</time></trkpt><trkpt lat="47.36701760445476" lon="-1.5135634224875956"><ele>7.0</ele><time>2026-03-29T10:11:09Z</time></trkpt><trkpt lat="47.36704979096294" lon="-1.513692336158374"><ele>7.3999999999999995</ele><time>2026-03-29T10:11:11Z</time></trkpt><trkpt lat="47.367077241695824" lon="-1.5138536877944262"><ele>7.799999999999999</ele><time>2026-03-29T10:11:13Z</time></trkpt><trkpt lat="47.367124473720196" lon="-1.5139894746258054"><ele>8.2</ele><time>2026-03-29T10:11:15Z</time></trkpt><trkpt lat="47.36717895609081" lon="-1.5141370799406562"><ele>8.6</ele><time>2026-03-29T10:11:17Z</time></trkpt><trkpt lat="47.36723670740366" lon="-1.5142759680762088"><ele>9.0</ele><time>2026-03-29T10:11:19Z</time></trkpt><trkpt lat="47.36723595303238" lon="-1.514385854826788"><ele>9.333333333333334</ele><time>2026-03-29T10:11:21Z</time></trkpt><trkpt lat="47.367257117337886" lon="-1.5144809056087531"><ele>9.666666666666666</ele><time>2026-03-29T10:11:22Z</time></trkpt><trkpt lat="47.36726994164974" lon="-1.5146000124528207"><ele>10.0</ele><time>2026-03-29T10:11:24Z</time></trkpt><trkpt lat="47.36730581619531" lon="-1.514762872831444"><ele>10.333333333333332</ele><time>2026-03-29T10:11:26Z</time></trkpt><trkpt lat="47.367338463708165" lon="-1.5148926246925396"><ele>10.666666666666666</ele><time>2026-03-29T10:11:28Z</time></trkpt><trkpt lat="47.367391688793305" lon="-1.5149850770845217"><ele>11.0</ele><time>2026-03-29T10:11:30Z</time></trkpt><trkpt lat="47.36742190555424" lon="-1.5151375439032122"><ele>11.0</ele><time>2026-03-29T10:11:32Z</time></trkpt><trkpt lat="47.367451074577275" lon="-1.5152729954584643"><ele>11.0</ele><time>2026-03-29T10:11:34Z</time></trkpt><trkpt lat="47.367500863082114" lon="-1.5154387895031975"><ele>11.0</ele><time>2026-03-29T10:11:36Z</time></trkpt><trkpt lat="47.3675489332968" lon="-1.5155897475793172"><ele>11.0</ele><time>2026-03-29T10:11:38Z</time></trkpt><trkpt lat="47.36758845397026" lon="-1.5157369337990094"><ele>11.0</ele><time>2026-03-29T10:11:40Z</time></trkpt><trkpt lat="47.36763099212885" lon="-1.5159070026143602"><ele>11.0</ele><time>2026-03-29T10:11:42Z</time></trkpt><trkpt lat="47.36765567683369" lon="-1.515993671493154"><ele>11.0</ele><time>2026-03-29T10:11:43Z</time></trkpt><trkpt lat="47.36768627078027" lon="-1.5160852018757873"><ele>11.0</ele><time>2026-03-29T10:11:44Z</time></trkpt><trkpt lat="47.367738322398964" lon="-1.5162534266724401"><ele>11.0</ele><time>2026-03-29T10:11:46Z</time></trkpt><trkpt lat="47.367792343764904" lon="-1.516411090271097"><ele>11.0</ele><time>2026-03-29T10:11:48Z</time></trkpt><trkpt lat="47.367823608263734" lon="-1.5165033750250156"><ele>11.0</ele><time>2026-03-29T10:11:49Z</time></trkpt><trkpt lat="47.367854956581596" lon="-1.5165945701315222"><ele>10.857142857142858</ele><time>2026-03-29T10:11:50Z</time></trkpt><trkpt lat="47.367897452830675" lon="-1.516669755802971"><ele>10.714285714285714</ele><time>2026-03-29T10:11:51Z</time></trkpt><trkpt lat="47.36792838205338" lon="-1.5167514793588934"><ele>10.571428571428571</ele><time>2026-03-29T10:11:52Z</time></trkpt><trkpt lat="47.36795822162867" lon="-1.5168969053789199"><ele>10.428571428571429</ele><time>2026-03-29T10:11:54Z</time></trkpt><trkpt lat="47.36798977949411" lon="-1.516981394962889"><ele>10.285714285714286</ele><time>2026-03-29T10:11:55Z</time></trkpt><trkpt lat="47.36800608229578" lon="-1.5170813910677257"><ele>10.142857142857142</ele><time>2026-03-29T10:11:56Z</time></trkpt><trkpt lat="47.36802192409277" lon="-1.5171766094877543"><ele>10.0</ele><time>2026-03-29T10:11:57Z</time></trkpt><trkpt lat="47.368046273521486" lon="-1.517297811807615"><ele>9.8</ele><time>2026-03-29T10:11:58Z</time></trkpt><trkpt lat="47.36805918165237" lon="-1.5173963829889123"><ele>9.6</ele><time>2026-03-29T10:11:59Z</time></trkpt><trkpt lat="47.36806869511247" lon="-1.5175056830062694"><ele>9.4</ele><time>2026-03-29T10:12:00Z</time></trkpt><trkpt lat="47.36808143560529" lon="-1.5176130551858968"><ele>9.2</ele><time>2026-03-29T10:12:01Z</time></trkpt><trkpt lat="47.36808763821364" lon="-1.5177888236954042"><ele>9.0</ele><time>2026-03-29T10:12:03Z</time></trkpt><trkpt lat="47.36810008533985" lon="-1.5179769974216055"><ele>9.000000000000002</ele><time>2026-03-29T10:12:05Z</time></trkpt><trkpt lat="47.36809086524636" lon="-1.5180844534202647"><ele>9.0</ele><time>2026-03-29T10:12:06Z</time></trkpt><trkpt lat="47.36808005259127" lon="-1.5181923285140826"><ele>9.0</ele><time>2026-03-29T10:12:07Z</time></trkpt><trkpt lat="47.36805666708142" lon="-1.5182948391898705"><ele>9.0</ele><time>2026-03-29T10:12:08Z</time></trkpt><trkpt lat="47.36803764016122" lon="-1.5183877944960429"><ele>9.0</ele><time>2026-03-29T10:12:09Z</time></trkpt><trkpt lat="47.36800960269511" lon="-1.5184784028693274"><ele>9.000000000000002</ele><time>2026-03-29T10:12:10Z</time></trkpt><trkpt lat="47.36798278060496" lon="-1.5185681730522946"><ele>9.0</ele><time>2026-03-29T10:12:11Z</time></trkpt><trkpt lat="47.3679305613482" lon="-1.5187319554402667"><ele>8.833333333333334</ele><time>2026-03-29T10:12:13Z</time></trkpt><trkpt lat="47.367878425910476" lon="-1.5188218932612974"><ele>8.666666666666666</ele><time>2026-03-29T10:12:14Z</time></trkpt><trkpt lat="47.36784695186407" lon="-1.518908645959123"><ele>8.5</ele><time>2026-03-29T10:12:15Z</time></trkpt><trkpt lat="47.36778056719095" lon="-1.5190605260445913"><ele>8.333333333333332</ele><time>2026-03-29T10:12:17Z</time></trkpt><trkpt lat="47.36774737485439" lon="-1.5191528946175419"><ele>8.166666666666666</ele><time>2026-03-29T10:12:18Z</time></trkpt><trkpt lat="47.367708063728514" lon="-1.5192298404886566"><ele>8.0</ele><time>2026-03-29T10:12:19Z</time></trkpt><trkpt lat="47.36767390747309" lon="-1.5193090494736277"><ele>8.0</ele><time>2026-03-29T10:12:20Z</time></trkpt><trkpt lat="47.367639876946214" lon="-1.5194164216532553"><ele>8.0</ele><time>2026-03-29T10:12:21Z</time></trkpt><trkpt lat="47.36757462383002" lon="-1.5195745043470705"><ele>8.0</ele><time>2026-03-29T10:12:23Z</time></trkpt><trkpt lat="47.36752642788679" lon="-1.5197138115777817"><ele>8.0</ele><time>2026-03-29T10:12:25Z</time></trkpt><trkpt lat="47.36747240652085" lon="-1.5198767557754367"><ele>8.0</ele><time>2026-03-29T10:12:27Z</time></trkpt><trkpt lat="47.36743602906108" lon="-1.5200111176832765"><ele>8.0</ele><time>2026-03-29T10:12:29Z</time></trkpt><trkpt lat="47.36738225915224" lon="-1.5201541967704149"><ele>8.0</ele><time>2026-03-29T10:12:31Z</time></trkpt><trkpt lat="47.36735925082803" lon="-1.5202448051436992"><ele>8.0</ele><time>2026-03-29T10:12:32Z</time></trkpt><trkpt lat="47.367297099016014" lon="-1.5203774906709049"><ele>8.0</ele><time>2026-03-29T10:12:34Z</time></trkpt><trkpt lat="47.367225769020024" lon="-1.520521743224487"><ele>8.0</ele><time>2026-03-29T10:12:36Z</time></trkpt><trkpt lat="47.36717774071485" lon="-1.5206859447076178"><ele>7.800000000000001</ele><time>2026-03-29T10:12:38Z</time></trkpt><trkpt lat="47.36710259695292" lon="-1.5208160318448403"><ele>7.6000000000000005</ele><time>2026-03-29T10:12:40Z</time></trkpt><trkpt lat="47.36705746040434" lon="-1.5209798142328121"><ele>7.3999999999999995</ele><time>2026-03-29T10:12:42Z</time></trkpt><trkpt lat="47.36702196304441" lon="-1.5211519785239558"><ele>7.199999999999999</ele><time>2026-03-29T10:12:44Z</time></trkpt><trkpt lat="47.36697955061436" lon="-1.5212357975556712"><ele>7.0</ele><time>2026-03-29T10:12:45Z</time></trkpt><trkpt lat="47.36694627445877" lon="-1.521317772568689"><ele>7.8</ele><time>2026-03-29T10:12:46Z</time></trkpt><trkpt lat="47.36686593391687" lon="-1.5214552357807023"><ele>8.6</ele><time>2026-03-29T10:12:48Z</time></trkpt><trkpt lat="47.36681794752121" lon="-1.5216324292137489"><ele>9.4</ele><time>2026-03-29T10:12:50Z</time></trkpt><trkpt lat="47.366733457937244" lon="-1.521765198559986"><ele>10.200000000000001</ele><time>2026-03-29T10:12:52Z</time></trkpt><trkpt lat="47.36669192560703" lon="-1.5218479279442894"><ele>11.0</ele><time>2026-03-29T10:12:53Z</time></trkpt><trkpt lat="47.366632665551606" lon="-1.5219204314067232"><ele>11.200000000000001</ele><time>2026-03-29T10:12:54Z</time></trkpt><trkpt lat="47.36657680016697" lon="-1.522075748072492"><ele>11.4</ele><time>2026-03-29T10:12:56Z</time></trkpt><trkpt lat="47.36652458091021" lon="-1.522232154385673"><ele>11.6</ele><time>2026-03-29T10:12:58.001Z</time></trkpt><trkpt lat="47.36650350042373" lon="-1.5223204996451012"><ele>11.8</ele><time>2026-03-29T10:12:59.001Z</time></trkpt><trkpt lat="47.36647001472056" lon="-1.5224824380143753"><ele>12.0</ele><time>2026-03-29T10:13:01.001Z</time></trkpt><trkpt lat="47.36645920206547" lon="-1.5226370841278904"><ele>12.0</ele><time>2026-03-29T10:13:03.001Z</time></trkpt><trkpt lat="47.36644784458667" lon="-1.522809835152256"><ele>12.0</ele><time>2026-03-29T10:13:05.001Z</time></trkpt><trkpt lat="47.36643623565078" lon="-1.5229756291969894"><ele>12.0</ele><time>2026-03-29T10:13:07.001Z</time></trkpt><trkpt lat="47.3663945356825" lon="-1.5231001842781184"><ele>12.0</ele><time>2026-03-29T10:13:08.001Z</time></trkpt><trkpt lat="47.366391057192686" lon="-1.5231956541552423"><ele>12.0</ele><time>2026-03-29T10:13:09.001Z</time></trkpt><trkpt lat="47.36637068916798" lon="-1.5233747754260183"><ele>11.2</ele><time>2026-03-29T10:13:11.001Z</time></trkpt><trkpt lat="47.36634663310588" lon="-1.5235485322787645"><ele>10.399999999999999</ele><time>2026-03-29T10:13:13.001Z</time></trkpt><trkpt lat="47.36634734556765" lon="-1.52364701964103"><ele>9.600000000000001</ele><time>2026-03-29T10:13:14.001Z</time></trkpt><trkpt lat="47.366341184868816" lon="-1.5237403940423613"><ele>8.8</ele><time>2026-03-29T10:13:15.001Z</time></trkpt><trkpt lat="47.36630635806114" lon="-1.5238861553385143"><ele>8.0</ele><time>2026-03-29T10:13:17.001Z</time></trkpt><trkpt lat="47.366278362504545" lon="-1.5240499377264864"><ele>8.0</ele><time>2026-03-29T10:13:19.001Z</time></trkpt><trkpt lat="47.366255396089855" lon="-1.5241438150420077"><ele>8.0</ele><time>2026-03-29T10:13:20.001Z</time></trkpt><trkpt lat="47.3662322620371" lon="-1.5242956113084445"><ele>8.0</ele><time>2026-03-29T10:13:22.001Z</time></trkpt><trkpt lat="47.3662142828548" lon="-1.5244493354126107"><ele>8.0</ele><time>2026-03-29T10:13:24.001Z</time></trkpt><trkpt lat="47.366184066093865" lon="-1.5245716273798835"><ele>8.0</ele><time>2026-03-29T10:13:26.001Z</time></trkpt><trkpt lat="47.366206026680175" lon="-1.5246945898994102"><ele>8.333333333333332</ele><time>2026-03-29T10:13:28.001Z</time></trkpt><trkpt lat="47.36618968196899" lon="-1.5247849468155994"><ele>8.666666666666666</ele><time>2026-03-29T10:13:30.001Z</time></trkpt><trkpt lat="47.36617660620004" lon="-1.5248781535788671"><ele>9.0</ele><time>2026-03-29T10:13:32.001Z</time></trkpt><trkpt lat="47.36615355596632" lon="-1.5249701868756906"><ele>9.333333333333334</ele><time>2026-03-29T10:13:34.001Z</time></trkpt><trkpt lat="47.36608951822609" lon="-1.5250976756229297"><ele>9.666666666666668</ele><time>2026-03-29T10:13:36.001Z</time></trkpt><trkpt lat="47.366009848236445" lon="-1.5252277627601523"><ele>10.0</ele><time>2026-03-29T10:13:38.001Z</time></trkpt><trkpt lat="47.365922131619755" lon="-1.5253667347147366"><ele>10.4</ele><time>2026-03-29T10:13:40.001Z</time></trkpt><trkpt lat="47.365869116082195" lon="-1.5254427585765025"><ele>10.8</ele><time>2026-03-29T10:13:41.001Z</time></trkpt><trkpt lat="47.365827332294884" lon="-1.5255166031434437"><ele>11.2</ele><time>2026-03-29T10:13:42.001Z</time></trkpt><trkpt lat="47.36572855156601" lon="-1.5256415773197316"><ele>11.6</ele><time>2026-03-29T10:13:44.001Z</time></trkpt><trkpt lat="47.3656727700004" lon="-1.525806700812211"><ele>12.0</ele><time>2026-03-29T10:13:46.001Z</time></trkpt><trkpt lat="47.365625789433125" lon="-1.5258807968362476"><ele>11.999999999999998</ele><time>2026-03-29T10:13:47.001Z</time></trkpt><trkpt lat="47.36557432454765" lon="-1.525951372460952"><ele>12.0</ele><time>2026-03-29T10:13:48.001Z</time></trkpt><trkpt lat="47.36550613776535" lon="-1.5260198526098634"><ele>12.0</ele><time>2026-03-29T10:13:49.001Z</time></trkpt><trkpt lat="47.36544486605317" lon="-1.5260848961784748"><ele>12.0</ele><time>2026-03-29T10:13:50.001Z</time></trkpt><trkpt lat="47.36538627655" lon="-1.5261460002525953"><ele>12.0</ele><time>2026-03-29T10:13:51.001Z</time></trkpt><trkpt lat="47.3653249629283" lon="-1.5262105409070161"><ele>11.999999999999998</ele><time>2026-03-29T10:13:52.001Z</time></trkpt><trkpt lat="47.36526067373097" lon="-1.5262599941357282"><ele>12.0</ele><time>2026-03-29T10:13:53.001Z</time></trkpt><trkpt lat="47.36519567207188" lon="-1.526294527576795"><ele>11.5</ele><time>2026-03-29T10:13:54.001Z</time></trkpt><trkpt lat="47.36512228850961" lon="-1.5263206791146904"><ele>11.0</ele><time>2026-03-29T10:13:55.001Z</time></trkpt><trkpt lat="47.36504743811429" lon="-1.5263538714512497"><ele>10.5</ele><time>2026-03-29T10:13:56.001Z</time></trkpt><trkpt lat="47.364971791438165" lon="-1.5263842139407306"><ele>10.0</ele><time>2026-03-29T10:13:57.001Z</time></trkpt><trkpt lat="47.3649129504779" lon="-1.5264422167106777"><ele>9.5</ele><time>2026-03-29T10:13:58.001Z</time></trkpt><trkpt lat="47.36484191384852" lon="-1.5264648478492409"><ele>9.0</ele><time>2026-03-29T10:13:59.001Z</time></trkpt><trkpt lat="47.36476274677307" lon="-1.5264878980829626"><ele>8.833333333333334</ele><time>2026-03-29T10:14:00.001Z</time></trkpt><trkpt lat="47.364685381806794" lon="-1.526508685202828"><ele>8.666666666666666</ele><time>2026-03-29T10:14:01.001Z</time></trkpt><trkpt lat="47.36461447090596" lon="-1.5265377704068335"><ele>8.5</ele><time>2026-03-29T10:14:02.001Z</time></trkpt><trkpt lat="47.36453186725021" lon="-1.5265474095954807"><ele>8.333333333333332</ele><time>2026-03-29T10:14:03.001Z</time></trkpt><trkpt lat="47.364447922489944" lon="-1.526561155916682"><ele>8.166666666666666</ele><time>2026-03-29T10:14:04.001Z</time></trkpt><trkpt lat="47.36436167270631" lon="-1.5265849605216892"><ele>8.0</ele><time>2026-03-29T10:14:05.001Z</time></trkpt><trkpt lat="47.36428175125957" lon="-1.5266013890519055"><ele>8.0</ele><time>2026-03-29T10:14:06.001Z</time></trkpt><trkpt lat="47.36420568548829" lon="-1.526618571953407"><ele>7.999999999999999</ele><time>2026-03-29T10:14:07.001Z</time></trkpt><trkpt lat="47.36413540323019" lon="-1.526629216970435"><ele>8.0</ele><time>2026-03-29T10:14:08.001Z</time></trkpt><trkpt lat="47.364052715755406" lon="-1.5266352519407185"><ele>8.0</ele><time>2026-03-29T10:14:09.001Z</time></trkpt><trkpt lat="47.363977949179116" lon="-1.526657212527028"><ele>7.999999999999999</ele><time>2026-03-29T10:14:10.001Z</time></trkpt><trkpt lat="47.36391407907695" lon="-1.526679005475274"><ele>8.0</ele><time>2026-03-29T10:14:11.001Z</time></trkpt><trkpt lat="47.3638396896863" lon="-1.5266971103861244"><ele>8.0</ele><time>2026-03-29T10:14:12.001Z</time></trkpt><trkpt lat="47.363771251446906" lon="-1.5267114434405478"><ele>8.4</ele><time>2026-03-29T10:14:13.001Z</time></trkpt><trkpt lat="47.363706501244906" lon="-1.5267225075527342"><ele>8.8</ele><time>2026-03-29T10:14:14.001Z</time></trkpt><trkpt lat="47.3636401584813" lon="-1.5267438814058216"><ele>9.2</ele><time>2026-03-29T10:14:15.001Z</time></trkpt><trkpt lat="47.3635272961551" lon="-1.5267726313337"><ele>9.6</ele><time>2026-03-29T10:14:17.001Z</time></trkpt><trkpt lat="47.363419169604185" lon="-1.5267971064909611"><ele>10.0</ele><time>2026-03-29T10:14:19Z</time></trkpt><trkpt lat="47.363298763565126" lon="-1.5268340706839476"><ele>10.0</ele><time>2026-03-29T10:14:21Z</time></trkpt><trkpt lat="47.363186278424564" lon="-1.5268508344902907"><ele>10.0</ele><time>2026-03-29T10:14:23Z</time></trkpt><trkpt lat="47.36307454765529" lon="-1.5268849488361989"><ele>10.0</ele><time>2026-03-29T10:14:25Z</time></trkpt><trkpt lat="47.362990183799866" lon="-1.526919649915329"><ele>10.0</ele><time>2026-03-29T10:14:27Z</time></trkpt><trkpt lat="47.362888511314395" lon="-1.5269466396435414"><ele>10.0</ele><time>2026-03-29T10:14:29Z</time></trkpt><trkpt lat="47.362818899608556" lon="-1.5269407723113213"><ele>11.0</ele><time>2026-03-29T10:14:30Z</time></trkpt><trkpt lat="47.362720370336774" lon="-1.5269582904889498"><ele>12.0</ele><time>2026-03-29T10:14:32Z</time></trkpt><trkpt lat="47.36262460709304" lon="-1.526955273003808"><ele>13.0</ele><time>2026-03-29T10:14:34Z</time></trkpt><trkpt lat="47.36252331179321" lon="-1.5269708633437071"><ele>14.0</ele><time>2026-03-29T10:14:36Z</time></trkpt><trkpt lat="47.36246493183762" lon="-1.5270064026131545"><ele>15.0</ele><time>2026-03-29T10:14:37Z</time></trkpt><trkpt lat="47.362368665679696" lon="-1.52706432156407"><ele>15.25</ele><time>2026-03-29T10:14:39Z</time></trkpt><trkpt lat="47.362246960445646" lon="-1.5270872041597283"><ele>15.5</ele><time>2026-03-29T10:14:41Z</time></trkpt><trkpt lat="47.36214717388839" lon="-1.5271109249457038"><ele>15.75</ele><time>2026-03-29T10:14:43Z</time></trkpt><trkpt lat="47.362029450058344" lon="-1.527121737600795"><ele>16.0</ele><time>2026-03-29T10:14:45Z</time></trkpt><trkpt lat="47.36191281587571" lon="-1.5271555166705764"><ele>16.5</ele><time>2026-03-29T10:14:47Z</time></trkpt><trkpt lat="47.36180728771478" lon="-1.5271876193597234"><ele>17.0</ele><time>2026-03-29T10:14:49Z</time></trkpt><trkpt lat="47.36169358719826" lon="-1.527271438391439"><ele>17.5</ele><time>2026-03-29T10:14:51Z</time></trkpt><trkpt lat="47.36158621501863" lon="-1.5272919740542092"><ele>18.0</ele><time>2026-03-29T10:14:53Z</time></trkpt><trkpt lat="47.36146819782198" lon="-1.5273395832642236"><ele>18.0</ele><time>2026-03-29T10:14:55Z</time></trkpt><trkpt lat="47.36138936602264" lon="-1.5274065546705642"><ele>18.0</ele><time>2026-03-29T10:14:57Z</time></trkpt><trkpt lat="47.36131380316555" lon="-1.5274556726231494"><ele>18.0</ele><time>2026-03-29T10:14:59Z</time></trkpt><trkpt lat="47.36125005879193" lon="-1.527468748392097"><ele>18.0</ele><time>2026-03-29T10:15:00Z</time></trkpt><trkpt lat="47.361146835654374" lon="-1.5275121666505258"><ele>18.0</ele><time>2026-03-29T10:15:02Z</time></trkpt><trkpt lat="47.3610435706073" lon="-1.5275643859072845"><ele>18.6</ele><time>2026-03-29T10:15:04Z</time></trkpt><trkpt lat="47.360933055213984" lon="-1.527609899641506"><ele>19.200000000000003</ele><time>2026-03-29T10:15:06Z</time></trkpt><trkpt lat="47.360843410759564" lon="-1.5276635438218038"><ele>19.8</ele><time>2026-03-29T10:15:08Z</time></trkpt><trkpt lat="47.360762776851054" lon="-1.5277090575560253"><ele>20.400000000000002</ele><time>2026-03-29T10:15:10Z</time></trkpt><trkpt lat="47.36068612434655" lon="-1.5277682337924166"><ele>21.0</ele><time>2026-03-29T10:15:12Z</time></trkpt><trkpt lat="47.36060792118996" lon="-1.5278112329556865"><ele>21.0</ele><time>2026-03-29T10:15:14Z</time></trkpt><trkpt lat="47.36052770637661" lon="-1.5278799645616932"><ele>21.0</ele><time>2026-03-29T10:15:16Z</time></trkpt><trkpt lat="47.36044116322636" lon="-1.5279310103520078"><ele>21.0</ele><time>2026-03-29T10:15:19Z</time></trkpt><trkpt lat="47.36036153514623" lon="-1.527995551006429"><ele>21.0</ele><time>2026-03-29T10:15:21Z</time></trkpt><trkpt lat="47.36026405361235" lon="-1.528060007841818"><ele>21.0</ele><time>2026-03-29T10:15:23Z</time></trkpt><trkpt lat="47.36018002503305" lon="-1.528102755547993"><ele>21.0</ele><time>2026-03-29T10:15:25Z</time></trkpt><trkpt lat="47.360081747218366" lon="-1.5281426534070894"><ele>21.0</ele><time>2026-03-29T10:15:27Z</time></trkpt><trkpt lat="47.360001029490824" lon="-1.5281838923706934"><ele>21.0</ele><time>2026-03-29T10:15:29Z</time></trkpt><trkpt lat="47.359921191863116" lon="-1.5282298252000737"><ele>21.0</ele><time>2026-03-29T10:15:31Z</time></trkpt><trkpt lat="47.35983536117464" lon="-1.5282677952214407"><ele>21.0</ele><time>2026-03-29T10:15:33Z</time></trkpt><trkpt lat="47.35975502063274" lon="-1.5283071063473153"><ele>21.0</ele><time>2026-03-29T10:15:35Z</time></trkpt><trkpt lat="47.359667262106534" lon="-1.5283246245249438"><ele>21.0</ele><time>2026-03-29T10:15:37Z</time></trkpt><trkpt lat="47.359585706188675" lon="-1.5283621754511523"><ele>21.0</ele><time>2026-03-29T10:15:39Z</time></trkpt><trkpt lat="47.359509724236425" lon="-1.5284286439433026"><ele>21.0</ele><time>2026-03-29T10:15:41Z</time></trkpt><trkpt lat="47.35942054078668" lon="-1.5284909214838673"><ele>21.0</ele><time>2026-03-29T10:15:43Z</time></trkpt><trkpt lat="47.35933512919336" lon="-1.5285206772401263"><ele>21.0</ele><time>2026-03-29T10:15:45Z</time></trkpt><trkpt lat="47.359264679297205" lon="-1.5285842120661666"><ele>21.0</ele><time>2026-03-29T10:15:47Z</time></trkpt><trkpt lat="47.35917893242776" lon="-1.528638275341623"><ele>21.0</ele><time>2026-03-29T10:15:49Z</time></trkpt><trkpt lat="47.3591060936892" lon="-1.5286439750357796"><ele>21.0</ele><time>2026-03-29T10:15:51Z</time></trkpt><trkpt lat="47.359038242183026" lon="-1.5286924224361114"><ele>21.0</ele><time>2026-03-29T10:15:53Z</time></trkpt><trkpt lat="47.358956811993714" lon="-1.5287423785790137"><ele>21.0</ele><time>2026-03-29T10:15:55Z</time></trkpt><trkpt lat="47.358871400400396" lon="-1.5287812706097297"><ele>21.0</ele><time>2026-03-29T10:15:57Z</time></trkpt><trkpt lat="47.35878787473529" lon="-1.5288339927806787"><ele>21.0</ele><time>2026-03-29T10:15:59Z</time></trkpt><trkpt lat="47.358714197806414" lon="-1.5288915764554671"><ele>21.6</ele><time>2026-03-29T10:16:01Z</time></trkpt><trkpt lat="47.35862744510859" lon="-1.5289431251599723"><ele>22.200000000000003</ele><time>2026-03-29T10:16:03Z</time></trkpt><trkpt lat="47.3585344478929" lon="-1.5289909858270818"><ele>22.799999999999997</ele><time>2026-03-29T10:16:05Z</time></trkpt><trkpt lat="47.35843223058372" lon="-1.5290210768594676"><ele>23.4</ele><time>2026-03-29T10:16:07Z</time></trkpt><trkpt lat="47.358346818990405" lon="-1.5290991961970264"><ele>24.0</ele><time>2026-03-29T10:16:09Z</time></trkpt><trkpt lat="47.35824305102914" lon="-1.5291509963586265"><ele>24.0</ele><time>2026-03-29T10:16:11Z</time></trkpt><trkpt lat="47.35813974407255" lon="-1.5292165428414282"><ele>24.0</ele><time>2026-03-29T10:16:13Z</time></trkpt><trkpt lat="47.358030863150354" lon="-1.5292680077269014"><ele>24.0</ele><time>2026-03-29T10:16:15Z</time></trkpt><trkpt lat="47.35796900470495" lon="-1.5293001942350801"><ele>24.0</ele><time>2026-03-29T10:16:16Z</time></trkpt><trkpt lat="47.35785094559878" lon="-1.5293492283686336"><ele>24.0</ele><time>2026-03-29T10:16:18Z</time></trkpt><trkpt lat="47.35775874466389" lon="-1.5294256713255583"><ele>24.2</ele><time>2026-03-29T10:16:20Z</time></trkpt><trkpt lat="47.35764462505221" lon="-1.529455175624722"><ele>24.4</ele><time>2026-03-29T10:16:22Z</time></trkpt><trkpt lat="47.357584987811144" lon="-1.5294909663512646"><ele>24.6</ele><time>2026-03-29T10:16:23Z</time></trkpt><trkpt lat="47.357507874301966" lon="-1.5295059699579416"><ele>24.8</ele><time>2026-03-29T10:16:24Z</time></trkpt><trkpt lat="47.3574397713387" lon="-1.5295413415893255"><ele>25.0</ele><time>2026-03-29T10:16:25Z</time></trkpt><trkpt lat="47.357320622585114" lon="-1.529616024346584"><ele>25.0</ele><time>2026-03-29T10:16:27Z</time></trkpt><trkpt lat="47.357191708914335" lon="-1.5296642202898205"><ele>25.0</ele><time>2026-03-29T10:16:29Z</time></trkpt><trkpt lat="47.357091545171436" lon="-1.529736220838064"><ele>25.0</ele><time>2026-03-29T10:16:31Z</time></trkpt><trkpt lat="47.35702918381184" lon="-1.529749464245075"><ele>25.0</ele><time>2026-03-29T10:16:32Z</time></trkpt><trkpt lat="47.35691204671502" lon="-1.5298102330430687"><ele>25.0</ele><time>2026-03-29T10:16:34Z</time></trkpt><trkpt lat="47.35678736590534" lon="-1.5298520587398947"><ele>25.000000000000004</ele><time>2026-03-29T10:16:36Z</time></trkpt><trkpt lat="47.35671607781887" lon="-1.529859015719527"><ele>25.0</ele><time>2026-03-29T10:16:37Z</time></trkpt><trkpt lat="47.356650321788486" lon="-1.5298817306771222"><ele>25.0</ele><time>2026-03-29T10:16:38Z</time></trkpt><trkpt lat="47.356517384804185" lon="-1.529914168642396"><ele>25.0</ele><time>2026-03-29T10:16:40Z</time></trkpt><trkpt lat="47.35644831792205" lon="-1.5299207903459016"><ele>25.000000000000004</ele><time>2026-03-29T10:16:41Z</time></trkpt><trkpt lat="47.35638612420052" lon="-1.5299518033876363"><ele>25.0</ele><time>2026-03-29T10:16:42Z</time></trkpt><trkpt lat="47.356268609918054" lon="-1.530011398719186"><ele>24.833333333333336</ele><time>2026-03-29T10:16:44Z</time></trkpt><trkpt lat="47.356203733987506" lon="-1.5300333593054953"><ele>24.666666666666668</ele><time>2026-03-29T10:16:45Z</time></trkpt><trkpt lat="47.35613164962023" lon="-1.5300553198918048"><ele>24.5</ele><time>2026-03-29T10:16:46Z</time></trkpt><trkpt lat="47.35605679922491" lon="-1.5300796274110022"><ele>24.333333333333336</ele><time>2026-03-29T10:16:47Z</time></trkpt><trkpt lat="47.3559312383154" lon="-1.5301269851639216"><ele>24.166666666666668</ele><time>2026-03-29T10:16:49Z</time></trkpt><trkpt lat="47.35586313535213" lon="-1.5301455091699308"><ele>24.0</ele><time>2026-03-29T10:16:50Z</time></trkpt><trkpt lat="47.355740466199215" lon="-1.5301904361709302"><ele>24.0</ele><time>2026-03-29T10:16:52Z</time></trkpt><trkpt lat="47.35568053559154" lon="-1.5302297472968047"><ele>24.0</ele><time>2026-03-29T10:16:53Z</time></trkpt><trkpt lat="47.355599943592544" lon="-1.530249696226353"><ele>24.0</ele><time>2026-03-29T10:16:54Z</time></trkpt><trkpt lat="47.355535193390544" lon="-1.5302719082697576"><ele>24.0</ele><time>2026-03-29T10:16:55Z</time></trkpt><trkpt lat="47.355462941385206" lon="-1.5302928630276864"><ele>24.0</ele><time>2026-03-29T10:16:56Z</time></trkpt><trkpt lat="47.35537530858755" lon="-1.5303082019104903"><ele>24.0</ele><time>2026-03-29T10:16:57Z</time></trkpt><trkpt lat="47.355291154279705" lon="-1.5303170867278522"><ele>23.666666666666668</ele><time>2026-03-29T10:16:58Z</time></trkpt><trkpt lat="47.35521974046468" lon="-1.5303453337415402"><ele>23.333333333333332</ele><time>2026-03-29T10:16:59Z</time></trkpt><trkpt lat="47.35514522534549" lon="-1.5303662884994693"><ele>23.0</ele><time>2026-03-29T10:17:00Z</time></trkpt><trkpt lat="47.35506165777087" lon="-1.5303765982403703"><ele>22.666666666666664</ele><time>2026-03-29T10:17:01Z</time></trkpt><trkpt lat="47.354977503463026" lon="-1.5303936135038085"><ele>22.333333333333332</ele><time>2026-03-29T10:17:02Z</time></trkpt><trkpt lat="47.354898294478055" lon="-1.530399648474092"><ele>22.0</ele><time>2026-03-29T10:17:03Z</time></trkpt><trkpt lat="47.35482248016387" lon="-1.5304149035378642"><ele>22.0</ele><time>2026-03-29T10:17:04Z</time></trkpt><trkpt lat="47.35475286845803" lon="-1.530440300704474"><ele>22.0</ele><time>2026-03-29T10:17:05Z</time></trkpt><trkpt lat="47.354621188759204" lon="-1.5304651949568935"><ele>22.0</ele><time>2026-03-29T10:17:07Z</time></trkpt><trkpt lat="47.35455111604869" lon="-1.5304991416647382"><ele>22.0</ele><time>2026-03-29T10:17:08Z</time></trkpt><trkpt lat="47.354472661435004" lon="-1.530508948491449"><ele>22.0</ele><time>2026-03-29T10:17:09Z</time></trkpt><trkpt lat="47.354386160194274" lon="-1.5305188391371913"><ele>22.0</ele><time>2026-03-29T10:17:10Z</time></trkpt><trkpt lat="47.354303388900455" lon="-1.5305269695832677"><ele>22.0</ele><time>2026-03-29T10:17:11Z</time></trkpt><trkpt lat="47.35423402865171" lon="-1.5305589046343513"><ele>22.0</ele><time>2026-03-29T10:17:12Z</time></trkpt><trkpt lat="47.35417041000664" lon="-1.5306060947492073"><ele>22.0</ele><time>2026-03-29T10:17:13Z</time></trkpt><trkpt lat="47.35408977609813" lon="-1.5306301508113096"><ele>22.0</ele><time>2026-03-29T10:17:14Z</time></trkpt><trkpt lat="47.35402297232985" lon="-1.5306514408453653"><ele>22.0</ele><time>2026-03-29T10:17:15Z</time></trkpt><trkpt lat="47.35394527208745" lon="-1.5306386165335129"><ele>22.0</ele><time>2026-03-29T10:17:16Z</time></trkpt><trkpt lat="47.35387423545807" lon="-1.5306521952166507"><ele>22.0</ele><time>2026-03-29T10:17:17Z</time></trkpt><trkpt lat="47.353802570185955" lon="-1.5306714735939453"><ele>22.0</ele><time>2026-03-29T10:17:18Z</time></trkpt><trkpt lat="47.353733796670426" lon="-1.5306923445328424"><ele>22.0</ele><time>2026-03-29T10:17:19Z</time></trkpt><trkpt lat="47.353594196073104" lon="-1.530687483029003"><ele>22.0</ele><time>2026-03-29T10:17:21Z</time></trkpt><trkpt lat="47.35352647029548" lon="-1.530698044226999"><ele>22.0</ele><time>2026-03-29T10:17:22Z</time></trkpt><trkpt lat="47.35346167818396" lon="-1.5306824538871"><ele>22.0</ele><time>2026-03-29T10:17:23Z</time></trkpt><trkpt lat="47.35338033181368" lon="-1.5307124611004541"><ele>22.0</ele><time>2026-03-29T10:17:24Z</time></trkpt><trkpt lat="47.353315455883134" lon="-1.5307136345668981"><ele>22.0</ele><time>2026-03-29T10:17:25Z</time></trkpt><trkpt lat="47.35323620498865" lon="-1.5307196695371816"><ele>22.0</ele><time>2026-03-29T10:17:26Z</time></trkpt><trkpt lat="47.353170365139235" lon="-1.5307314042016218"><ele>22.0</ele><time>2026-03-29T10:17:27Z</time></trkpt><trkpt lat="47.35309551474391" lon="-1.5307553764446924"><ele>22.0</ele><time>2026-03-29T10:17:28Z</time></trkpt><trkpt lat="47.35302435238599" lon="-1.5307747386410187"><ele>22.0</ele><time>2026-03-29T10:17:29Z</time></trkpt><trkpt lat="47.352930475070465" lon="-1.5307541191592167"><ele>22.0</ele><time>2026-03-29T10:17:30Z</time></trkpt><trkpt lat="47.35280156139969" lon="-1.530781695620651"><ele>21.571428571428573</ele><time>2026-03-29T10:17:32Z</time></trkpt><trkpt lat="47.35272503462373" lon="-1.5308127086623857"><ele>21.142857142857142</ele><time>2026-03-29T10:17:33Z</time></trkpt><trkpt lat="47.35266330190687" lon="-1.5308354236199808"><ele>20.714285714285715</ele><time>2026-03-29T10:17:34Z</time></trkpt><trkpt lat="47.35259607904344" lon="-1.5308549534543705"><ele>20.285714285714285</ele><time>2026-03-29T10:17:35Z</time></trkpt><trkpt lat="47.352511715188015" lon="-1.5308542829021168"><ele>19.857142857142858</ele><time>2026-03-29T10:17:36Z</time></trkpt><trkpt lat="47.35243879263042" lon="-1.5308755729361725"><ele>19.428571428571427</ele><time>2026-03-29T10:17:37Z</time></trkpt><trkpt lat="47.35236800745814" lon="-1.5308925881996107"><ele>19.0</ele><time>2026-03-29T10:17:38Z</time></trkpt><trkpt lat="47.35228393696933" lon="-1.5308945998563719"><ele>19.2</ele><time>2026-03-29T10:17:39Z</time></trkpt><trkpt lat="47.35215695113628" lon="-1.5309156384333324"><ele>19.4</ele><time>2026-03-29T10:17:41Z</time></trkpt><trkpt lat="47.352020619481195" lon="-1.5309344138964367"><ele>19.6</ele><time>2026-03-29T10:17:43Z</time></trkpt><trkpt lat="47.35195469581275" lon="-1.5309572126730633"><ele>19.8</ele><time>2026-03-29T10:17:44Z</time></trkpt><trkpt lat="47.351874816275526" lon="-1.5309557039304924"><ele>20.0</ele><time>2026-03-29T10:17:45Z</time></trkpt><trkpt lat="47.35179699030458" lon="-1.5309648402049494"><ele>20.0</ele><time>2026-03-29T10:17:46Z</time></trkpt><trkpt lat="47.35168111049323" lon="-1.5310034807785702"><ele>20.0</ele><time>2026-03-29T10:17:48Z</time></trkpt><trkpt lat="47.35161376190125" lon="-1.5310071688159657"><ele>20.0</ele><time>2026-03-29T10:17:49Z</time></trkpt><trkpt lat="47.351482585116614" lon="-1.5310369245722246"><ele>20.0</ele><time>2026-03-29T10:17:51Z</time></trkpt><trkpt lat="47.35140316658406" lon="-1.5310063306256485"><ele>20.0</ele><time>2026-03-29T10:17:52Z</time></trkpt><trkpt lat="47.35133359678774" lon="-1.5310011338456821"><ele>20.0</ele><time>2026-03-29T10:17:53Z</time></trkpt><trkpt lat="47.35126549382447" lon="-1.5310018043979359"><ele>20.0</ele><time>2026-03-29T10:17:54Z</time></trkpt><trkpt lat="47.35119428955703" lon="-1.531004402787919"><ele>20.0</ele><time>2026-03-29T10:17:55Z</time></trkpt><trkpt lat="47.35112283383249" lon="-1.5310016367598724"><ele>20.0</ele><time>2026-03-29T10:17:56Z</time></trkpt><trkpt lat="47.351053599312294" lon="-1.5309939254089546"><ele>20.0</ele><time>2026-03-29T10:17:57Z</time></trkpt><trkpt lat="47.350929966240514" lon="-1.5310029778643799"><ele>20.0</ele><time>2026-03-29T10:17:59Z</time></trkpt><trkpt lat="47.35086584468125" lon="-1.530998200179572"><ele>20.0</ele><time>2026-03-29T10:18:00Z</time></trkpt><trkpt lat="47.35079816081314" lon="-1.5310071688159657"><ele>20.0</ele><time>2026-03-29T10:18:01Z</time></trkpt><trkpt lat="47.35068433456807" lon="-1.5310236811652136"><ele>20.0</ele><time>2026-03-29T10:18:03Z</time></trkpt><trkpt lat="47.350610657639194" lon="-1.531030051411624"><ele>20.0</ele><time>2026-03-29T10:18:04Z</time></trkpt><trkpt lat="47.35054632653235" lon="-1.53103767894351"><ele>20.0</ele><time>2026-03-29T10:18:05Z</time></trkpt><trkpt lat="47.35042981807827" lon="-1.5310412831618738"><ele>20.0</ele><time>2026-03-29T10:18:07Z</time></trkpt><trkpt lat="47.35036745671867" lon="-1.5310202445849133"><ele>20.0</ele><time>2026-03-29T10:18:08Z</time></trkpt><trkpt lat="47.350251996002484" lon="-1.5309913270189714"><ele>20.0</ele><time>2026-03-29T10:18:10Z</time></trkpt><trkpt lat="47.35017232601284" lon="-1.5309515967979384"><ele>20.0</ele><time>2026-03-29T10:18:11Z</time></trkpt><trkpt lat="47.350066127299655" lon="-1.530961152167554"><ele>20.0</ele><time>2026-03-29T10:18:13Z</time></trkpt><trkpt lat="47.34994534407495" lon="-1.530932821334834"><ele>20.0</ele><time>2026-03-29T10:18:15Z</time></trkpt><trkpt lat="47.34982254919349" lon="-1.5309040714069557"><ele>20.0</ele><time>2026-03-29T10:18:17Z</time></trkpt><trkpt lat="47.349710189781476" lon="-1.5308999642744017"><ele>20.0</ele><time>2026-03-29T10:18:19Z</time></trkpt><trkpt lat="47.34959301077514" lon="-1.5308863855912638"><ele>20.0</ele><time>2026-03-29T10:18:21Z</time></trkpt><trkpt lat="47.34947817870169" lon="-1.5308593120440197"><ele>20.0</ele><time>2026-03-29T10:18:23Z</time></trkpt><trkpt lat="47.34937093225061" lon="-1.5308519359692287"><ele>20.8</ele><time>2026-03-29T10:18:25Z</time></trkpt><trkpt lat="47.34924734108834" lon="-1.5308268740787456"><ele>21.6</ele><time>2026-03-29T10:18:27Z</time></trkpt><trkpt lat="47.34918342907666" lon="-1.5308123733862589"><ele>22.4</ele><time>2026-03-29T10:18:28Z</time></trkpt><trkpt lat="47.3490767693588" lon="-1.5307864733054588"><ele>23.2</ele><time>2026-03-29T10:18:30Z</time></trkpt><trkpt lat="47.34895850070505" lon="-1.5307306498303364"><ele>24.0</ele><time>2026-03-29T10:18:32Z</time></trkpt><trkpt lat="47.34889337331741" lon="-1.5307011455311725"><ele>24.4</ele><time>2026-03-29T10:18:33Z</time></trkpt><trkpt lat="47.348773512102056" lon="-1.5306932665421913"><ele>24.799999999999997</ele><time>2026-03-29T10:18:35Z</time></trkpt><trkpt lat="47.34865335752009" lon="-1.5306687075658987"><ele>25.200000000000003</ele><time>2026-03-29T10:18:37Z</time></trkpt><trkpt lat="47.34858982269405" lon="-1.5306620020433614"><ele>25.6</ele><time>2026-03-29T10:18:38Z</time></trkpt><trkpt lat="47.34847197313546" lon="-1.5306444000467012"><ele>26.0</ele><time>2026-03-29T10:18:40Z</time></trkpt><trkpt lat="47.348343227102745" lon="-1.530646830798621"><ele>26.0</ele><time>2026-03-29T10:18:42Z</time></trkpt><trkpt lat="47.348242560445655" lon="-1.5306790173067997"><ele>26.0</ele><time>2026-03-29T10:18:44Z</time></trkpt><trkpt lat="47.34812596817254" lon="-1.530675413088436"><ele>26.0</ele><time>2026-03-29T10:18:46Z</time></trkpt><trkpt lat="47.34806381636052" lon="-1.5306947752847622"><ele>26.0</ele><time>2026-03-29T10:18:47Z</time></trkpt><trkpt lat="47.347947140268374" lon="-1.5307166520520399"><ele>26.0</ele><time>2026-03-29T10:18:49Z</time></trkpt><trkpt lat="47.347843539945174" lon="-1.5307635068907688"><ele>27.0</ele><time>2026-03-29T10:18:51Z</time></trkpt><trkpt lat="47.34774232846438" lon="-1.530786724762554"><ele>28.0</ele><time>2026-03-29T10:18:53Z</time></trkpt><trkpt lat="47.34764467929243" lon="-1.5307991299792478"><ele>29.0</ele><time>2026-03-29T10:18:55Z</time></trkpt><trkpt lat="47.34755247835754" lon="-1.5308150555952738"><ele>30.0</ele><time>2026-03-29T10:18:57Z</time></trkpt><trkpt lat="47.34746132516055" lon="-1.530818492175574"><ele>31.0</ele><time>2026-03-29T10:18:58Z</time></trkpt><trkpt lat="47.34738182280897" lon="-1.5308239404126356"><ele>31.0</ele><time>2026-03-29T10:19:00Z</time></trkpt><trkpt lat="47.34728832267909" lon="-1.5308414585902643"><ele>31.0</ele><time>2026-03-29T10:19:02Z</time></trkpt><trkpt lat="47.347189751497794" lon="-1.5308484155698967"><ele>31.0</ele><time>2026-03-29T10:19:04Z</time></trkpt><trkpt lat="47.34707881700932" lon="-1.5308272931739042"><ele>31.0</ele><time>2026-03-29T10:19:06Z</time></trkpt><trkpt lat="47.34697928190916" lon="-1.5307917539044569"><ele>31.0</ele><time>2026-03-29T10:19:08Z</time></trkpt><trkpt lat="47.34688775152652" lon="-1.5307862218483637"><ele>31.000000000000004</ele><time>2026-03-29T10:19:10Z</time></trkpt><trkpt lat="47.34680824917494" lon="-1.530796447770233"><ele>31.0</ele><time>2026-03-29T10:19:12Z</time></trkpt><trkpt lat="47.34670963608413" lon="-1.530767278747196"><ele>31.0</ele><time>2026-03-29T10:19:14Z</time></trkpt><trkpt lat="47.34662363775759" lon="-1.5307226032032917"><ele>31.0</ele><time>2026-03-29T10:19:16Z</time></trkpt><trkpt lat="47.34656228222637" lon="-1.5306926798089693"><ele>31.000000000000004</ele><time>2026-03-29T10:19:17Z</time></trkpt><trkpt lat="47.346498412124205" lon="-1.5306628402336786"><ele>31.0</ele><time>2026-03-29T10:19:18Z</time></trkpt><trkpt lat="47.34643399719833" lon="-1.5306195896133135"><ele>30.200000000000003</ele><time>2026-03-29T10:19:19Z</time></trkpt><trkpt lat="47.346331067427386" lon="-1.5305549651398607"><ele>29.400000000000002</ele><time>2026-03-29T10:19:21Z</time></trkpt><trkpt lat="47.34626937662004" lon="-1.5305197611465402"><ele>28.6</ele><time>2026-03-29T10:19:22Z</time></trkpt><trkpt lat="47.346148258119214" lon="-1.5304433181896158"><ele>27.8</ele><time>2026-03-29T10:19:24Z</time></trkpt><trkpt lat="47.34608669304041" lon="-1.5304028335972972"><ele>27.0</ele><time>2026-03-29T10:19:25Z</time></trkpt><trkpt lat="47.346017248972636" lon="-1.5303630195572324"><ele>26.833333333333332</ele><time>2026-03-29T10:19:26Z</time></trkpt><trkpt lat="47.3459336394885" lon="-1.5303133986904567"><ele>26.666666666666664</ele><time>2026-03-29T10:19:27Z</time></trkpt><trkpt lat="47.34586239331154" lon="-1.530269980432028"><ele>26.5</ele><time>2026-03-29T10:19:28Z</time></trkpt><trkpt lat="47.345769982829076" lon="-1.5301512926831191"><ele>26.333333333333332</ele><time>2026-03-29T10:19:29Z</time></trkpt><trkpt lat="47.34569760509519" lon="-1.5300747659071627"><ele>26.166666666666664</ele><time>2026-03-29T10:19:30Z</time></trkpt><trkpt lat="47.34563423790721" lon="-1.5300315152867976"><ele>26.0</ele><time>2026-03-29T10:19:31Z</time></trkpt><trkpt lat="47.34556969725279" lon="-1.5299794636681023"><ele>25.499999999999996</ele><time>2026-03-29T10:19:32Z</time></trkpt><trkpt lat="47.345509473278504" lon="-1.5299401525422278"><ele>25.0</ele><time>2026-03-29T10:19:33Z</time></trkpt><trkpt lat="47.34539225236265" lon="-1.529898578302497"><ele>24.5</ele><time>2026-03-29T10:19:35Z</time></trkpt><trkpt lat="47.34528953213928" lon="-1.5298404078944863"><ele>24.0</ele><time>2026-03-29T10:19:37Z</time></trkpt><trkpt lat="47.34523701951591" lon="-1.5297754481449068"><ele>23.5</ele><time>2026-03-29T10:19:38Z</time></trkpt><trkpt lat="47.34519871421842" lon="-1.5296993404641093"><ele>23.0</ele><time>2026-03-29T10:19:39Z</time></trkpt><trkpt lat="47.345148674256485" lon="-1.5296273399158655"><ele>23.166666666666668</ele><time>2026-03-29T10:19:40Z</time></trkpt><trkpt lat="47.34506770507185" lon="-1.5295048803105293"><ele>23.333333333333336</ele><time>2026-03-29T10:19:42Z</time></trkpt><trkpt lat="47.345019592947644" lon="-1.529410164804691"><ele>23.5</ele><time>2026-03-29T10:19:43Z</time></trkpt><trkpt lat="47.34496728987185" lon="-1.5293323807432588"><ele>23.666666666666668</ele><time>2026-03-29T10:19:44Z</time></trkpt><trkpt lat="47.344911424487215" lon="-1.5292600449188885"><ele>23.833333333333332</ele><time>2026-03-29T10:19:45Z</time></trkpt><trkpt lat="47.34486004342077" lon="-1.529198354111546"><ele>24.0</ele><time>2026-03-29T10:19:46Z</time></trkpt><trkpt lat="47.34481067401109" lon="-1.5291369147612983"><ele>24.0</ele><time>2026-03-29T10:19:47Z</time></trkpt><trkpt lat="47.3447620589727" lon="-1.5290700271739894"><ele>24.0</ele><time>2026-03-29T10:19:48Z</time></trkpt><trkpt lat="47.344673755622786" lon="-1.5289642475559646"><ele>24.0</ele><time>2026-03-29T10:19:50Z</time></trkpt><trkpt lat="47.34461449556736" lon="-1.5289188176407746"><ele>24.0</ele><time>2026-03-29T10:19:51Z</time></trkpt><trkpt lat="47.3445548583263" lon="-1.5288687776788406"><ele>24.0</ele><time>2026-03-29T10:19:52Z</time></trkpt><trkpt lat="47.344490736767035" lon="-1.528808847071164"><ele>24.0</ele><time>2026-03-29T10:19:53Z</time></trkpt><trkpt lat="47.34439799100844" lon="-1.5287332423045568"><ele>23.4</ele><time>2026-03-29T10:19:55Z</time></trkpt><trkpt lat="47.344305496706944" lon="-1.528653027491205"><ele>22.799999999999997</ele><time>2026-03-29T10:19:57Z</time></trkpt><trkpt lat="47.34419364020912" lon="-1.528619751335614"><ele>22.200000000000003</ele><time>2026-03-29T10:19:59Z</time></trkpt><trkpt lat="47.34408823777674" lon="-1.5286163985743453"><ele>21.6</ele><time>2026-03-29T10:20:01Z</time></trkpt><trkpt lat="47.3439866491103" lon="-1.5286858007326058"><ele>21.0</ele><time>2026-03-29T10:20:03Z</time></trkpt><trkpt lat="47.34392600604085" lon="-1.5287577174618177"><ele>20.8</ele><time>2026-03-29T10:20:05Z</time></trkpt><trkpt lat="47.34386733271865" lon="-1.528812954203718"><ele>20.6</ele><time>2026-03-29T10:20:07Z</time></trkpt><trkpt lat="47.34379248232333" lon="-1.5288759022965364"><ele>20.4</ele><time>2026-03-29T10:20:09Z</time></trkpt><trkpt lat="47.343711890324336" lon="-1.5289595536901885"><ele>20.2</ele><time>2026-03-29T10:20:11Z</time></trkpt><trkpt lat="47.343616504266244" lon="-1.529055107386344"><ele>20.0</ele><time>2026-03-29T10:20:13Z</time></trkpt><trkpt lat="47.34354735356508" lon="-1.529120234773987"><ele>20.0</ele><time>2026-03-29T10:20:14Z</time></trkpt><trkpt lat="47.3434419511327" lon="-1.5292070712908443"><ele>20.0</ele><time>2026-03-29T10:20:16Z</time></trkpt><trkpt lat="47.34338252343921" lon="-1.529256356881493"><ele>20.0</ele><time>2026-03-29T10:20:17Z</time></trkpt><trkpt lat="47.343323808207494" lon="-1.5293135214611229"><ele>20.0</ele><time>2026-03-29T10:20:18Z</time></trkpt><trkpt lat="47.34321165834306" lon="-1.5294141881182133"><ele>20.0</ele><time>2026-03-29T10:20:20Z</time></trkpt><trkpt lat="47.34315487094907" lon="-1.5295042097582756"><ele>20.0</ele><time>2026-03-29T10:20:21Z</time></trkpt><trkpt lat="47.34307503332136" lon="-1.5295573510243832"><ele>20.0</ele><time>2026-03-29T10:20:23Z</time></trkpt><trkpt lat="47.34296975661753" lon="-1.5296577662243784"><ele>20.0</ele><time>2026-03-29T10:20:25Z</time></trkpt><trkpt lat="47.342907353348416" lon="-1.529716188089484"><ele>20.0</ele><time>2026-03-29T10:20:26Z</time></trkpt><trkpt lat="47.342826928987485" lon="-1.5297705028220356"><ele>20.0</ele><time>2026-03-29T10:20:27Z</time></trkpt><trkpt lat="47.342779990329724" lon="-1.5298327803626002"><ele>20.0</ele><time>2026-03-29T10:20:28Z</time></trkpt><trkpt lat="47.342706229581815" lon="-1.529897404836053"><ele>20.0</ele><time>2026-03-29T10:20:29Z</time></trkpt><trkpt lat="47.34263552822856" lon="-1.529981894420022"><ele>20.0</ele><time>2026-03-29T10:20:30Z</time></trkpt><trkpt lat="47.3425663775274" lon="-1.5300471056266967"><ele>20.0</ele><time>2026-03-29T10:20:31Z</time></trkpt><trkpt lat="47.34250778802423" lon="-1.5300918649896327"><ele>20.0</ele><time>2026-03-29T10:20:32Z</time></trkpt><trkpt lat="47.34243419491438" lon="-1.5301549807205146"><ele>20.0</ele><time>2026-03-29T10:20:33Z</time></trkpt><trkpt lat="47.34237283938317" lon="-1.5302186831846183"><ele>20.0</ele><time>2026-03-29T10:20:34Z</time></trkpt><trkpt lat="47.342311944856625" lon="-1.5302786976113265"><ele>20.0</ele><time>2026-03-29T10:20:35Z</time></trkpt><trkpt lat="47.34226718549369" lon="-1.5303644444807716"><ele>20.0</ele><time>2026-03-29T10:20:36Z</time></trkpt><trkpt lat="47.342208344533425" lon="-1.5304375346764274"><ele>20.0</ele><time>2026-03-29T10:20:37Z</time></trkpt><trkpt lat="47.342151473320406" lon="-1.5304882451906152"><ele>20.0</ele><time>2026-03-29T10:20:38Z</time></trkpt><trkpt lat="47.342095733664316" lon="-1.5305547136827655"><ele>20.0</ele><time>2026-03-29T10:20:39Z</time></trkpt><trkpt lat="47.34204083219854" lon="-1.5306068491204927"><ele>20.0</ele><time>2026-03-29T10:20:40Z</time></trkpt><trkpt lat="47.341986559375506" lon="-1.5306576434537122"><ele>20.0</ele><time>2026-03-29T10:20:41Z</time></trkpt><trkpt lat="47.34192872424362" lon="-1.5307106170817564"><ele>19.57142857142857</ele><time>2026-03-29T10:20:42Z</time></trkpt><trkpt lat="47.34185852580456" lon="-1.5307863056673954"><ele>19.142857142857142</ele><time>2026-03-29T10:20:43Z</time></trkpt><trkpt lat="47.341795954897385" lon="-1.5308432187899303"><ele>18.714285714285715</ele><time>2026-03-29T10:20:44Z</time></trkpt><trkpt lat="47.34173539564697" lon="-1.5308827813729"><ele>18.285714285714285</ele><time>2026-03-29T10:20:45Z</time></trkpt><trkpt lat="47.34167802151976" lon="-1.5309370961054516"><ele>17.857142857142858</ele><time>2026-03-29T10:20:46Z</time></trkpt><trkpt lat="47.34161662407903" lon="-1.530995853246684"><ele>17.428571428571427</ele><time>2026-03-29T10:20:47Z</time></trkpt><trkpt lat="47.34154516835449" lon="-1.5310414507999373"><ele>17.0</ele><time>2026-03-29T10:20:48Z</time></trkpt><trkpt lat="47.34146843203096" lon="-1.5310726314797356"><ele>17.0</ele><time>2026-03-29T10:20:49Z</time></trkpt><trkpt lat="47.34139974233447" lon="-1.531094592066045"><ele>17.0</ele><time>2026-03-29T10:20:50Z</time></trkpt><trkpt lat="47.341274516701084" lon="-1.5311117749675467"><ele>17.0</ele><time>2026-03-29T10:20:52Z</time></trkpt><trkpt lat="47.34120310288606" lon="-1.5311038959785654"><ele>17.0</ele><time>2026-03-29T10:20:53Z</time></trkpt><trkpt lat="47.34113277871845" lon="-1.5310898143812373"><ele>17.0</ele><time>2026-03-29T10:20:54Z</time></trkpt><trkpt lat="47.34104166743098" lon="-1.5310867130770638"><ele>17.0</ele><time>2026-03-29T10:20:55Z</time></trkpt><trkpt lat="47.340953573628646" lon="-1.5310926642283156"><ele>16.5</ele><time>2026-03-29T10:20:56Z</time></trkpt><trkpt lat="47.34086401299326" lon="-1.5310950949802353"><ele>16.0</ele><time>2026-03-29T10:20:57Z</time></trkpt><trkpt lat="47.34078145124702" lon="-1.5310857072486832"><ele>15.5</ele><time>2026-03-29T10:20:58Z</time></trkpt><trkpt lat="47.340690214230996" lon="-1.5310626570149612"><ele>15.0</ele><time>2026-03-29T10:20:59Z</time></trkpt><trkpt lat="47.34059910294352" lon="-1.5310550294830751"><ele>14.500000000000002</ele><time>2026-03-29T10:21:00Z</time></trkpt><trkpt lat="47.34051138632683" lon="-1.5310496650650454"><ele>14.0</ele><time>2026-03-29T10:21:01Z</time></trkpt><trkpt lat="47.34042421453385" lon="-1.5310375951244783"><ele>13.333333333333334</ele><time>2026-03-29T10:21:02Z</time></trkpt><trkpt lat="47.34033909630714" lon="-1.5310251899077845"><ele>12.666666666666668</ele><time>2026-03-29T10:21:03Z</time></trkpt><trkpt lat="47.340247985019666" lon="-1.5310060791685534"><ele>12.0</ele><time>2026-03-29T10:21:04Z</time></trkpt><trkpt lat="47.34017661311416" lon="-1.5310102701201391"><ele>11.333333333333334</ele><time>2026-03-29T10:21:05Z</time></trkpt><trkpt lat="47.34010465447543" lon="-1.531020328403945"><ele>10.666666666666668</ele><time>2026-03-29T10:21:06Z</time></trkpt><trkpt lat="47.34005063310949" lon="-1.5310816001161291"><ele>10.0</ele><time>2026-03-29T10:21:07Z</time></trkpt><trkpt lat="47.34002272137193" lon="-1.5311792492880776"><ele>10.0</ele><time>2026-03-29T10:21:08Z</time></trkpt><trkpt lat="47.3399705859342" lon="-1.5312550216927483"><ele>10.0</ele><time>2026-03-29T10:21:09Z</time></trkpt><trkpt lat="47.33993601058362" lon="-1.5313400980099396"><ele>10.0</ele><time>2026-03-29T10:21:10Z</time></trkpt><trkpt lat="47.33986480631618" lon="-1.5314758848413186"><ele>10.0</ele><time>2026-03-29T10:21:12Z</time></trkpt><trkpt lat="47.33980022375224" lon="-1.5316287707551677"><ele>10.0</ele><time>2026-03-29T10:21:14Z</time></trkpt><trkpt lat="47.3397142254257" lon="-1.531776795165177"><ele>10.0</ele><time>2026-03-29T10:21:16Z</time></trkpt><trkpt lat="47.33966607139198" lon="-1.5318583510830364"><ele>10.0</ele><time>2026-03-29T10:21:17Z</time></trkpt><trkpt lat="47.33959759124307" lon="-1.5319472830756864"><ele>10.0</ele><time>2026-03-29T10:21:19Z</time></trkpt><trkpt lat="47.33954721600501" lon="-1.5320168528720102"><ele>10.0</ele><time>2026-03-29T10:21:20Z</time></trkpt><trkpt lat="47.339457823007685" lon="-1.5321316011264288"><ele>10.0</ele><time>2026-03-29T10:21:22Z</time></trkpt><trkpt lat="47.339390139139574" lon="-1.5322003327324354"><ele>10.0</ele><time>2026-03-29T10:21:23Z</time></trkpt><trkpt lat="47.339332555464786" lon="-1.5322838164880241"><ele>10.5</ele><time>2026-03-29T10:21:24Z</time></trkpt><trkpt lat="47.33928134203641" lon="-1.5323505364372696"><ele>11.0</ele><time>2026-03-29T10:21:25Z</time></trkpt><trkpt lat="47.33917166483341" lon="-1.5324713196619715"><ele>11.5</ele><time>2026-03-29T10:21:27Z</time></trkpt><trkpt lat="47.3391219601476" lon="-1.5325397159918515"><ele>12.0</ele><time>2026-03-29T10:21:28Z</time></trkpt><trkpt lat="47.33904677447615" lon="-1.5325575694456068"><ele>12.499999999999998</ele><time>2026-03-29T10:21:29Z</time></trkpt><trkpt lat="47.33898872979669" lon="-1.532632922755119"><ele>13.0</ele><time>2026-03-29T10:21:30Z</time></trkpt><trkpt lat="47.338936678177994" lon="-1.5327077731504408"><ele>12.999999999999998</ele><time>2026-03-29T10:21:31Z</time></trkpt><trkpt lat="47.33888756022541" lon="-1.5327806118890017"><ele>13.0</ele><time>2026-03-29T10:21:32Z</time></trkpt><trkpt lat="47.33879104261039" lon="-1.5328972879811495"><ele>13.0</ele><time>2026-03-29T10:21:34Z</time></trkpt><trkpt lat="47.338743223852795" lon="-1.5329588949694604"><ele>13.0</ele><time>2026-03-29T10:21:35Z</time></trkpt><trkpt lat="47.338690920777005" lon="-1.533017652110693"><ele>12.999999999999998</ele><time>2026-03-29T10:21:36Z</time></trkpt><trkpt lat="47.33864758633761" lon="-1.5331049077227088"><ele>13.0</ele><time>2026-03-29T10:21:37Z</time></trkpt><trkpt lat="47.33860253360806" lon="-1.5331772435470792"><ele>13.0</ele><time>2026-03-29T10:21:38Z</time></trkpt><trkpt lat="47.33854821887551" lon="-1.5332255233093475"><ele>13.0</ele><time>2026-03-29T10:21:39Z</time></trkpt><trkpt lat="47.338467459238444" lon="-1.5333735477193569"><ele>13.0</ele><time>2026-03-29T10:21:41Z</time></trkpt><trkpt lat="47.338413521691535" lon="-1.5334219113006566"><ele>13.0</ele><time>2026-03-29T10:21:42Z</time></trkpt><trkpt lat="47.338361009068166" lon="-1.5334833506509042"><ele>13.0</ele><time>2026-03-29T10:21:43Z</time></trkpt><trkpt lat="47.33825212814597" lon="-1.5335907228305317"><ele>12.999999999999998</ele><time>2026-03-29T10:21:45Z</time></trkpt><trkpt lat="47.33819907069889" lon="-1.533645959572432"><ele>13.0</ele><time>2026-03-29T10:21:46Z</time></trkpt><trkpt lat="47.33810724694965" lon="-1.533778309823511"><ele>13.0</ele><time>2026-03-29T10:21:48Z</time></trkpt><trkpt lat="47.33801613566217" lon="-1.5338770486428717"><ele>13.0</ele><time>2026-03-29T10:21:50Z</time></trkpt><trkpt lat="47.33795322947887" lon="-1.5339250769480446"><ele>12.999999999999998</ele><time>2026-03-29T10:21:51Z</time></trkpt><trkpt lat="47.337898034646486" lon="-1.5339840855463724"><ele>13.0</ele><time>2026-03-29T10:21:52Z</time></trkpt><trkpt lat="47.337837936400746" lon="-1.5340118296458702"><ele>12.999999999999998</ele><time>2026-03-29T10:21:53Z</time></trkpt><trkpt lat="47.33773693446753" lon="-1.5341172739877682"><ele>13.0</ele><time>2026-03-29T10:21:55Z</time></trkpt><trkpt lat="47.33766329944817" lon="-1.534137977288602"><ele>13.0</ele><time>2026-03-29T10:21:56Z</time></trkpt><trkpt lat="47.337602907835816" lon="-1.5341932978495343"><ele>13.0</ele><time>2026-03-29T10:21:57Z</time></trkpt><trkpt lat="47.3375465814465" lon="-1.534272339196442"><ele>12.999999999999998</ele><time>2026-03-29T10:21:58Z</time></trkpt><trkpt lat="47.33748107687322" lon="-1.5343423280879243"><ele>13.0</ele><time>2026-03-29T10:21:59Z</time></trkpt><trkpt lat="47.33742357701746" lon="-1.53438071720445"><ele>12.999999999999998</ele><time>2026-03-29T10:22:00Z</time></trkpt><trkpt lat="47.3373428173804" lon="-1.534431427718638"><ele>13.0</ele><time>2026-03-29T10:22:01Z</time></trkpt><trkpt lat="47.337273792407785" lon="-1.5345064457520232"><ele>13.0</ele><time>2026-03-29T10:22:02Z</time></trkpt><trkpt lat="47.33720204331664" lon="-1.5345641970648751"><ele>13.0</ele><time>2026-03-29T10:22:03Z</time></trkpt><trkpt lat="47.33712878548292" lon="-1.5346341859563575"><ele>12.999999999999998</ele><time>2026-03-29T10:22:04Z</time></trkpt><trkpt lat="47.33705179770229" lon="-1.5346889197840679"><ele>13.0</ele><time>2026-03-29T10:22:05Z</time></trkpt><trkpt lat="47.33697267253635" lon="-1.534746000544666"><ele>12.999999999999998</ele><time>2026-03-29T10:22:06Z</time></trkpt><trkpt lat="47.33689618766991" lon="-1.5347822941853988"><ele>13.0</ele><time>2026-03-29T10:22:07Z</time></trkpt><trkpt lat="47.33681065034804" lon="-1.5348135586842286"><ele>13.0</ele><time>2026-03-29T10:22:08Z</time></trkpt><trkpt lat="47.336725825487946" lon="-1.5347998123630273"><ele>13.0</ele><time>2026-03-29T10:22:09Z</time></trkpt><trkpt lat="47.336653280115996" lon="-1.53483317233765"><ele>12.999999999999998</ele><time>2026-03-29T10:22:10Z</time></trkpt><trkpt lat="47.336594606793795" lon="-1.5348786860718715"><ele>13.0</ele><time>2026-03-29T10:22:11Z</time></trkpt><trkpt lat="47.33651795428929" lon="-1.5349063463523378"><ele>13.0</ele><time>2026-03-29T10:22:12Z</time></trkpt><trkpt lat="47.33644813303587" lon="-1.5349298156812181"><ele>13.0</ele><time>2026-03-29T10:22:13Z</time></trkpt><trkpt lat="47.336351992606495" lon="-1.5349453222020855"><ele>13.0</ele><time>2026-03-29T10:22:15Z</time></trkpt><trkpt lat="47.336280872158085" lon="-1.5349431429072609"><ele>13.0</ele><time>2026-03-29T10:22:16Z</time></trkpt><trkpt lat="47.33617567927328" lon="-1.534955464304923"><ele>13.0</ele><time>2026-03-29T10:22:18Z</time></trkpt><trkpt lat="47.33605883554307" lon="-1.5349502675249567"><ele>13.0</ele><time>2026-03-29T10:22:20Z</time></trkpt><trkpt lat="47.336001419506346" lon="-1.534890672193407"><ele>13.0</ele><time>2026-03-29T10:22:21Z</time></trkpt><trkpt lat="47.335891155570124" lon="-1.5348916780217876"><ele>13.0</ele><time>2026-03-29T10:22:23Z</time></trkpt><trkpt lat="47.335825273811196" lon="-1.5348988026394834"><ele>13.0</ele><time>2026-03-29T10:22:24Z</time></trkpt><trkpt lat="47.33571769208399" lon="-1.5349231101586809"><ele>13.0</ele><time>2026-03-29T10:22:26Z</time></trkpt><trkpt lat="47.335598040416215" lon="-1.5349114593132724"><ele>13.8</ele><time>2026-03-29T10:22:28Z</time></trkpt><trkpt lat="47.335477341010545" lon="-1.5348869841560115"><ele>14.600000000000001</ele><time>2026-03-29T10:22:30Z</time></trkpt><trkpt lat="47.335374453149115" lon="-1.5349128004177799"><ele>15.399999999999999</ele><time>2026-03-29T10:22:32Z</time></trkpt><trkpt lat="47.33525781896648" lon="-1.5349170751883974"><ele>16.2</ele><time>2026-03-29T10:22:34Z</time></trkpt><trkpt lat="47.3351542605528" lon="-1.534936605022787"><ele>17.0</ele><time>2026-03-29T10:22:36Z</time></trkpt><trkpt lat="47.3350702319735" lon="-1.5349661093219509"><ele>17.0</ele><time>2026-03-29T10:22:38Z</time></trkpt><trkpt lat="47.33496730220256" lon="-1.5349374432131042"><ele>17.0</ele><time>2026-03-29T10:22:40Z</time></trkpt><trkpt lat="47.33486571353612" lon="-1.5349620021893968"><ele>17.0</ele><time>2026-03-29T10:22:42Z</time></trkpt><trkpt lat="47.33475381512878" lon="-1.5349782630815496"><ele>17.0</ele><time>2026-03-29T10:22:44Z</time></trkpt><trkpt lat="47.3346550343999" lon="-1.535004079343318"><ele>17.0</ele><time>2026-03-29T10:22:46Z</time></trkpt><trkpt lat="47.334549380510424" lon="-1.535029979424118"><ele>17.5</ele><time>2026-03-29T10:22:48Z</time></trkpt><trkpt lat="47.3344512703338" lon="-1.5350286383196106"><ele>18.0</ele><time>2026-03-29T10:22:50Z</time></trkpt><trkpt lat="47.33436577492145" lon="-1.5350577235236158"><ele>18.5</ele><time>2026-03-29T10:22:52Z</time></trkpt><trkpt lat="47.334275501824294" lon="-1.535089155660509"><ele>19.0</ele><time>2026-03-29T10:22:54Z</time></trkpt><trkpt lat="47.33419985514817" lon="-1.535102734343647"><ele>19.5</ele><time>2026-03-29T10:22:56Z</time></trkpt><trkpt lat="47.334126555404936" lon="-1.5351427160217754"><ele>20.0</ele><time>2026-03-29T10:22:58Z</time></trkpt><trkpt lat="47.33403573748407" lon="-1.5351519361152641"><ele>20.0</ele><time>2026-03-29T10:23:00Z</time></trkpt><trkpt lat="47.333945254839335" lon="-1.5351768303676836"><ele>20.0</ele><time>2026-03-29T10:23:02Z</time></trkpt><trkpt lat="47.33387187127707" lon="-1.5352179855122559"><ele>20.0</ele><time>2026-03-29T10:23:04Z</time></trkpt><trkpt lat="47.333785914860044" lon="-1.5352101903423063"><ele>20.0</ele><time>2026-03-29T10:23:06Z</time></trkpt><trkpt lat="47.33368566729811" lon="-1.5352271217867128"><ele>20.0</ele><time>2026-03-29T10:23:08Z</time></trkpt><trkpt lat="47.333587012297784" lon="-1.535251513124942"><ele>20.2</ele><time>2026-03-29T10:23:10Z</time></trkpt><trkpt lat="47.333466606258725" lon="-1.5352495852872126"><ele>20.4</ele><time>2026-03-29T10:23:12Z</time></trkpt><trkpt lat="47.33338400260297" lon="-1.5353053249433033"><ele>20.6</ele><time>2026-03-29T10:23:14Z</time></trkpt><trkpt lat="47.33326497957793" lon="-1.5353250224157564"><ele>20.8</ele><time>2026-03-29T10:23:16Z</time></trkpt><trkpt lat="47.333164187192295" lon="-1.53535695746684"><ele>21.0</ele><time>2026-03-29T10:23:18Z</time></trkpt><trkpt lat="47.33307378836659" lon="-1.535395011307239"><ele>21.200000000000003</ele><time>2026-03-29T10:23:20Z</time></trkpt><trkpt lat="47.33298012059865" lon="-1.5354287903770203"><ele>21.400000000000002</ele><time>2026-03-29T10:23:22Z</time></trkpt><trkpt lat="47.33288418971685" lon="-1.5354479011162514"><ele>21.6</ele><time>2026-03-29T10:23:24Z</time></trkpt><trkpt lat="47.33278976757762" lon="-1.5354965161546463"><ele>21.8</ele><time>2026-03-29T10:23:26Z</time></trkpt><trkpt lat="47.332679377912854" lon="-1.5355279482915396"><ele>22.0</ele><time>2026-03-29T10:23:28Z</time></trkpt><trkpt lat="47.332576070956264" lon="-1.5355015452965493"><ele>22.0</ele><time>2026-03-29T10:23:30Z</time></trkpt><trkpt lat="47.33252862938431" lon="-1.5354126133038992"><ele>22.0</ele><time>2026-03-29T10:23:32Z</time></trkpt><trkpt lat="47.332524773708855" lon="-1.5352717973306171"><ele>22.0</ele><time>2026-03-29T10:23:34Z</time></trkpt><trkpt lat="47.33245947868315" lon="-1.5351604018374674"><ele>22.0</ele><time>2026-03-29T10:23:36Z</time></trkpt><trkpt lat="47.33236124277798" lon="-1.5350943524404754"><ele>22.0</ele><time>2026-03-29T10:23:38Z</time></trkpt><trkpt lat="47.332296324937914" lon="-1.535044983030795"><ele>21.833333333333332</ele><time>2026-03-29T10:23:39Z</time></trkpt><trkpt lat="47.33218631245879" lon="-1.535003744067191"><ele>21.666666666666664</ele><time>2026-03-29T10:23:41Z</time></trkpt><trkpt lat="47.33207022309986" lon="-1.5349521115436544"><ele>21.5</ele><time>2026-03-29T10:23:43Z</time></trkpt><trkpt lat="47.33200681400237" lon="-1.5349267143770446"><ele>21.333333333333332</ele><time>2026-03-29T10:23:44Z</time></trkpt><trkpt lat="47.33194126751957" lon="-1.5349075198187818"><ele>21.166666666666668</ele><time>2026-03-29T10:23:45Z</time></trkpt><trkpt lat="47.331879283345614" lon="-1.5348786860718715"><ele>21.0</ele><time>2026-03-29T10:23:46Z</time></trkpt><trkpt lat="47.331816335252796" lon="-1.5348569769426572"><ele>21.0</ele><time>2026-03-29T10:23:47Z</time></trkpt><trkpt lat="47.33174479570923" lon="-1.5348288975670326"><ele>21.0</ele><time>2026-03-29T10:23:48Z</time></trkpt><trkpt lat="47.331676022193705" lon="-1.5347838867470014"><ele>21.0</ele><time>2026-03-29T10:23:48.999Z</time></trkpt><trkpt lat="47.331570703580354" lon="-1.5347541309907424"><ele>21.0</ele><time>2026-03-29T10:23:50.999Z</time></trkpt><trkpt lat="47.331482567868505" lon="-1.5347434859737146"><ele>21.0</ele><time>2026-03-29T10:23:52.999Z</time></trkpt><trkpt lat="47.33141572219071" lon="-1.5347054321333158"><ele>21.0</ele><time>2026-03-29T10:23:53.999Z</time></trkpt><trkpt lat="47.33133529782978" lon="-1.5346760116531837"><ele>20.2</ele><time>2026-03-29T10:23:54.999Z</time></trkpt><trkpt lat="47.33124372553763" lon="-1.5346554759904134"><ele>19.400000000000002</ele><time>2026-03-29T10:23:56.999Z</time></trkpt><trkpt lat="47.33111606915233" lon="-1.5346341021373258"><ele>18.6</ele><time>2026-03-29T10:23:59Z</time></trkpt><trkpt lat="47.33100798451093" lon="-1.5346424002214656"><ele>17.8</ele><time>2026-03-29T10:24:01Z</time></trkpt><trkpt lat="47.330942396118616" lon="-1.5346414782121167"><ele>17.0</ele><time>2026-03-29T10:24:02Z</time></trkpt><trkpt lat="47.33087819074032" lon="-1.5346546378000963"><ele>17.0</ele><time>2026-03-29T10:24:03Z</time></trkpt><trkpt lat="47.33080325652596" lon="-1.5346649475409972"><ele>17.0</ele><time>2026-03-29T10:24:04Z</time></trkpt><trkpt lat="47.330690310380724" lon="-1.5346581581994283"><ele>17.0</ele><time>2026-03-29T10:24:06Z</time></trkpt><trkpt lat="47.330588218800095" lon="-1.5346905123456704"><ele>17.0</ele><time>2026-03-29T10:24:08Z</time></trkpt><trkpt lat="47.33052724045452" lon="-1.5347169153406608"><ele>17.0</ele><time>2026-03-29T10:24:09Z</time></trkpt><trkpt lat="47.330430890477565" lon="-1.5347347687944162"><ele>16.166666666666668</ele><time>2026-03-29T10:24:11Z</time></trkpt><trkpt lat="47.33032720633533" lon="-1.5347639378174531"><ele>15.333333333333334</ele><time>2026-03-29T10:24:13Z</time></trkpt><trkpt lat="47.33024497986522" lon="-1.5348088648184526"><ele>14.5</ele><time>2026-03-29T10:24:15Z</time></trkpt><trkpt lat="47.33018127740112" lon="-1.5348524507149446"><ele>13.666666666666668</ele><time>2026-03-29T10:24:17Z</time></trkpt><trkpt lat="47.330123106993106" lon="-1.5348984673633566"><ele>12.833333333333334</ele><time>2026-03-29T10:24:19Z</time></trkpt><trkpt lat="47.33006472703752" lon="-1.53493870049858"><ele>12.0</ele><time>2026-03-29T10:24:20Z</time></trkpt><trkpt lat="47.32998405121949" lon="-1.535012628884553"><ele>12.0</ele><time>2026-03-29T10:24:22Z</time></trkpt><trkpt lat="47.329901028468576" lon="-1.5351096913232793"><ele>12.0</ele><time>2026-03-29T10:24:24Z</time></trkpt><trkpt lat="47.32980241537776" lon="-1.535174064339637"><ele>12.0</ele><time>2026-03-29T10:24:26Z</time></trkpt><trkpt lat="47.32969856359747" lon="-1.5352278761579983"><ele>12.0</ele><time>2026-03-29T10:24:28Z</time></trkpt><trkpt lat="47.32960305181083" lon="-1.5352810174241058"><ele>12.0</ele><time>2026-03-29T10:24:30Z</time></trkpt><trkpt lat="47.32950355862018" lon="-1.5353209152832024"><ele>12.2</ele><time>2026-03-29T10:24:32Z</time></trkpt><trkpt lat="47.32939463578847" lon="-1.5353657584651703"><ele>12.399999999999999</ele><time>2026-03-29T10:24:34Z</time></trkpt><trkpt lat="47.32927904934373" lon="-1.5353943407549853"><ele>12.600000000000001</ele><time>2026-03-29T10:24:36Z</time></trkpt><trkpt lat="47.329186052128044" lon="-1.5354219172164196"><ele>12.8</ele><time>2026-03-29T10:24:38Z</time></trkpt><trkpt lat="47.32909217481252" lon="-1.5354605577900404"><ele>13.0</ele><time>2026-03-29T10:24:40Z</time></trkpt><trkpt lat="47.32900831387129" lon="-1.5354919899269337"><ele>12.999999999999998</ele><time>2026-03-29T10:24:42Z</time></trkpt><trkpt lat="47.32892135162589" lon="-1.535539012403726"><ele>13.0</ele><time>2026-03-29T10:24:44Z</time></trkpt><trkpt lat="47.32882537883457" lon="-1.5355886332705015"><ele>13.0</ele><time>2026-03-29T10:24:46Z</time></trkpt><trkpt lat="47.32875974853274" lon="-1.5356320515289303"><ele>13.0</ele><time>2026-03-29T10:24:48Z</time></trkpt><trkpt lat="47.32868975964126" lon="-1.5356903895750043"><ele>12.999999999999998</ele><time>2026-03-29T10:24:51Z</time></trkpt><trkpt lat="47.32862312351104" lon="-1.535739088432431"><ele>13.0</ele><time>2026-03-29T10:24:53Z</time></trkpt><trkpt lat="47.328567048578826" lon="-1.5357971750214097"><ele>13.499999999999998</ele><time>2026-03-29T10:24:56Z</time></trkpt><trkpt lat="47.32850904580888" lon="-1.5358576923623084"><ele>14.0</ele><time>2026-03-29T10:24:58Z</time></trkpt><trkpt lat="47.328449911482004" lon="-1.5359158627703189"><ele>14.5</ele><time>2026-03-29T10:25:00Z</time></trkpt><trkpt lat="47.32839077715513" lon="-1.5359674952938556"><ele>15.0</ele><time>2026-03-29T10:25:02Z</time></trkpt><trkpt lat="47.32832229700622" lon="-1.5360642224564551"><ele>15.499999999999998</ele><time>2026-03-29T10:25:05Z</time></trkpt><trkpt lat="47.3282947624543" lon="-1.5361749473973514"><ele>16.0</ele><time>2026-03-29T10:25:07Z</time></trkpt><trkpt lat="47.328316136307386" lon="-1.5362754464163781"><ele>16.166666666666664</ele><time>2026-03-29T10:25:09Z</time></trkpt><trkpt lat="47.32837095395413" lon="-1.5363536495729688"><ele>16.333333333333332</ele><time>2026-03-29T10:25:11Z</time></trkpt><trkpt lat="47.32842518486765" lon="-1.5364314336344007"><ele>16.5</ele><time>2026-03-29T10:25:13Z</time></trkpt><trkpt lat="47.328490354164806" lon="-1.5365125704571012"><ele>16.666666666666668</ele><time>2026-03-29T10:25:16Z</time></trkpt><trkpt lat="47.328523965596524" lon="-1.5366202779128557"><ele>16.833333333333336</ele><time>2026-03-29T10:25:19Z</time></trkpt><trkpt lat="47.328455653085676" lon="-1.5367077011629349"><ele>17.0</ele><time>2026-03-29T10:25:22Z</time></trkpt><trkpt lat="47.32836952903059" lon="-1.536720609293819"><ele>17.0</ele><time>2026-03-29T10:25:24Z</time></trkpt><trkpt lat="47.32830473691907" lon="-1.536735361443401"><ele>17.0</ele><time>2026-03-29T10:25:25Z</time></trkpt><trkpt lat="47.32821308080789" lon="-1.5367685537799602"><ele>17.0</ele><time>2026-03-29T10:25:27Z</time></trkpt><trkpt lat="47.32812507082459" lon="-1.53677098453188"><ele>17.0</ele><time>2026-03-29T10:25:29Z</time></trkpt><trkpt lat="47.32803198978987" lon="-1.5367814619108444"><ele>17.0</ele><time>2026-03-29T10:25:31Z</time></trkpt><trkpt lat="47.32792910192844" lon="-1.536827562378288"><ele>17.0</ele><time>2026-03-29T10:25:34Z</time></trkpt><trkpt lat="47.32784809083429" lon="-1.5368344355388888"><ele>17.5</ele><time>2026-03-29T10:25:36Z</time></trkpt><trkpt lat="47.32776297260758" lon="-1.5368447452797898"><ele>18.0</ele><time>2026-03-29T10:25:38Z</time></trkpt><trkpt lat="47.32766410805967" lon="-1.5368449129178532"><ele>18.5</ele><time>2026-03-29T10:25:40Z</time></trkpt><trkpt lat="47.327593616254" lon="-1.5369019098594197"><ele>19.0</ele><time>2026-03-29T10:25:42Z</time></trkpt><trkpt lat="47.32751134787437" lon="-1.536924205721856"><ele>19.5</ele><time>2026-03-29T10:25:44Z</time></trkpt><trkpt lat="47.32743322853681" lon="-1.536979274825693"><ele>20.0</ele><time>2026-03-29T10:25:46Z</time></trkpt><trkpt lat="47.32734027323064" lon="-1.537003414706827"><ele>20.0</ele><time>2026-03-29T10:25:48Z</time></trkpt><trkpt lat="47.32725750193682" lon="-1.5370138082667597"><ele>20.0</ele><time>2026-03-29T10:25:51Z</time></trkpt><trkpt lat="47.327161026231316" lon="-1.5370285604163418"><ele>20.0</ele><time>2026-03-29T10:25:53Z</time></trkpt><trkpt lat="47.32706203595486" lon="-1.537007521839381"><ele>20.0</ele><time>2026-03-29T10:25:55Z</time></trkpt><trkpt lat="47.32696095020261" lon="-1.5369973797365435"><ele>20.0</ele><time>2026-03-29T10:25:57Z</time></trkpt><trkpt lat="47.326872688762215" lon="-1.5369613375529059"><ele>20.833333333333336</ele><time>2026-03-29T10:25:59Z</time></trkpt><trkpt lat="47.326786899983254" lon="-1.5369294025018223"><ele>21.666666666666668</ele><time>2026-03-29T10:26:02Z</time></trkpt><trkpt lat="47.326715276620654" lon="-1.5369226131602534"><ele>22.5</ele><time>2026-03-29T10:26:04Z</time></trkpt><trkpt lat="47.32664461717692" lon="-1.536940969528199"><ele>23.333333333333336</ele><time>2026-03-29T10:26:06Z</time></trkpt><trkpt lat="47.32657035351482" lon="-1.5369484294220217"><ele>24.166666666666668</ele><time>2026-03-29T10:26:08Z</time></trkpt><trkpt lat="47.32649122834888" lon="-1.5369400475188502"><ele>25.0</ele><time>2026-03-29T10:26:10Z</time></trkpt><trkpt lat="47.32640916951683" lon="-1.5369190927609213"><ele>25.666666666666668</ele><time>2026-03-29T10:26:12Z</time></trkpt><trkpt lat="47.326324428475765" lon="-1.536891767756582"><ele>26.333333333333336</ele><time>2026-03-29T10:26:14Z</time></trkpt><trkpt lat="47.326245219490794" lon="-1.5368626825525769"><ele>27.0</ele><time>2026-03-29T10:26:16Z</time></trkpt><trkpt lat="47.326162657744554" lon="-1.5368281491115101"><ele>27.666666666666664</ele><time>2026-03-29T10:26:18Z</time></trkpt><trkpt lat="47.32608168855992" lon="-1.5367974713459023"><ele>28.333333333333332</ele><time>2026-03-29T10:26:20Z</time></trkpt><trkpt lat="47.32598475184974" lon="-1.536760088057757"><ele>29.0</ele><time>2026-03-29T10:26:22Z</time></trkpt><trkpt lat="47.325899382165936" lon="-1.5367196034654385"><ele>29.0</ele><time>2026-03-29T10:26:24Z</time></trkpt><trkpt lat="47.325809360525874" lon="-1.5366803761585957"><ele>29.0</ele><time>2026-03-29T10:26:26Z</time></trkpt><trkpt lat="47.325709280602005" lon="-1.5366273187115198"><ele>29.0</ele><time>2026-03-29T10:26:28Z</time></trkpt><trkpt lat="47.32564184819099" lon="-1.5366107225432402"><ele>29.0</ele><time>2026-03-29T10:26:29Z</time></trkpt><trkpt lat="47.32554797087547" lon="-1.5365741774454122"><ele>29.0</ele><time>2026-03-29T10:26:31Z</time></trkpt><trkpt lat="47.325447136580316" lon="-1.5365501213833097"><ele>29.0</ele><time>2026-03-29T10:26:33Z</time></trkpt><trkpt lat="47.32533171777364" lon="-1.5365116484477523"><ele>29.0</ele><time>2026-03-29T10:26:35Z</time></trkpt><trkpt lat="47.32523331423041" lon="-1.536471080036402"><ele>29.0</ele><time>2026-03-29T10:26:37Z</time></trkpt><trkpt lat="47.32511898507115" lon="-1.536430763082147"><ele>29.0</ele><time>2026-03-29T10:26:39Z</time></trkpt><trkpt lat="47.32500666756865" lon="-1.536374185235739"><ele>29.0</ele><time>2026-03-29T10:26:41Z</time></trkpt><trkpt lat="47.32488751881507" lon="-1.5363298449679617"><ele>29.0</ele><time>2026-03-29T10:26:43Z</time></trkpt><trkpt lat="47.324781110554305" lon="-1.53626723215127"><ele>29.0</ele><time>2026-03-29T10:26:45Z</time></trkpt><trkpt lat="47.324670637070504" lon="-1.5362056251629592"><ele>29.0</ele><time>2026-03-29T10:26:47Z</time></trkpt><trkpt lat="47.32459092517134" lon="-1.5361723490073682"><ele>29.0</ele><time>2026-03-29T10:26:48Z</time></trkpt><trkpt lat="47.32451842170891" lon="-1.536142928527236"><ele>28.428571428571434</ele><time>2026-03-29T10:26:49Z</time></trkpt><trkpt lat="47.32445740145382" lon="-1.5360974147930146"><ele>27.857142857142858</ele><time>2026-03-29T10:26:50Z</time></trkpt><trkpt lat="47.32439415999439" lon="-1.5360665693893432"><ele>27.28571428571429</ele><time>2026-03-29T10:26:51Z</time></trkpt><trkpt lat="47.324331882453826" lon="-1.5360234025880097"><ele>26.714285714285715</ele><time>2026-03-29T10:26:52Z</time></trkpt><trkpt lat="47.3242617678338" lon="-1.5359810739769935"><ele>26.142857142857146</ele><time>2026-03-29T10:26:53Z</time></trkpt><trkpt lat="47.324190354018775" lon="-1.5359189640744924"><ele>25.571428571428573</ele><time>2026-03-29T10:26:54Z</time></trkpt><trkpt lat="47.324120239398745" lon="-1.5358708519502877"><ele>25.0</ele><time>2026-03-29T10:26:55Z</time></trkpt><trkpt lat="47.32405733321544" lon="-1.5358496457352637"><ele>25.000000000000004</ele><time>2026-03-29T10:26:56Z</time></trkpt><trkpt lat="47.323979800611106" lon="-1.5357985161259171"><ele>25.0</ele><time>2026-03-29T10:26:57Z</time></trkpt><trkpt lat="47.32390830297705" lon="-1.5357747953399417"><ele>25.0</ele><time>2026-03-29T10:26:58Z</time></trkpt><trkpt lat="47.32383244675335" lon="-1.5357462130501267"><ele>25.0</ele><time>2026-03-29T10:26:59Z</time></trkpt><trkpt lat="47.323768660470215" lon="-1.5357153676464554"><ele>25.000000000000004</ele><time>2026-03-29T10:27:00Z</time></trkpt><trkpt lat="47.323699970773724" lon="-1.535664238037109"><ele>25.0</ele><time>2026-03-29T10:27:01Z</time></trkpt><trkpt lat="47.32362143234101" lon="-1.5356369130327698"><ele>23.833333333333336</ele><time>2026-03-29T10:27:02Z</time></trkpt><trkpt lat="47.32354645621714" lon="-1.5356205683215853"><ele>22.666666666666668</ele><time>2026-03-29T10:27:03Z</time></trkpt><trkpt lat="47.32345961970028" lon="-1.5356105100377795"><ele>21.5</ele><time>2026-03-29T10:27:04Z</time></trkpt><trkpt lat="47.323395623869565" lon="-1.535596763716578"><ele>20.333333333333336</ele><time>2026-03-29T10:27:05Z</time></trkpt><trkpt lat="47.32332923919645" lon="-1.5355669241412873"><ele>19.166666666666668</ele><time>2026-03-29T10:27:06Z</time></trkpt><trkpt lat="47.3232252616876" lon="-1.5355054009720082"><ele>18.0</ele><time>2026-03-29T10:27:08Z</time></trkpt><trkpt lat="47.32312681623485" lon="-1.5354280360057349"><ele>17.666666666666668</ele><time>2026-03-29T10:27:10Z</time></trkpt><trkpt lat="47.323013534813484" lon="-1.5353821869953865"><ele>17.333333333333332</ele><time>2026-03-29T10:27:12Z</time></trkpt><trkpt lat="47.32295071244921" lon="-1.535335751251816"><ele>17.0</ele><time>2026-03-29T10:27:13Z</time></trkpt><trkpt lat="47.322881394109984" lon="-1.5352866332992308"><ele>16.666666666666664</ele><time>2026-03-29T10:27:14Z</time></trkpt><trkpt lat="47.322814422703644" lon="-1.535268612207412"><ele>16.333333333333332</ele><time>2026-03-29T10:27:15Z</time></trkpt><trkpt lat="47.322748750492295" lon="-1.5352420415743582"><ele>16.0</ele><time>2026-03-29T10:27:16Z</time></trkpt><trkpt lat="47.32268119235273" lon="-1.5352077595903866"><ele>16.0</ele><time>2026-03-29T10:27:17Z</time></trkpt><trkpt lat="47.32259016488429" lon="-1.5351448953166"><ele>16.0</ele><time>2026-03-29T10:27:19Z</time></trkpt><trkpt lat="47.32250697449531" lon="-1.5351529419436447"><ele>16.0</ele><time>2026-03-29T10:27:21Z</time></trkpt><trkpt lat="47.32255504471" lon="-1.535312449560999"><ele>16.0</ele><time>2026-03-29T10:27:23Z</time></trkpt><trkpt lat="47.3225740716302" lon="-1.5354202408357853"><ele>16.0</ele><time>2026-03-29T10:27:25Z</time></trkpt><trkpt lat="47.322538909546395" lon="-1.5355922374888653"><ele>15.75</ele><time>2026-03-29T10:27:27Z</time></trkpt><trkpt lat="47.322470303668936" lon="-1.5357657428845164"><ele>15.5</ele><time>2026-03-29T10:27:29Z</time></trkpt><trkpt lat="47.322391807145735" lon="-1.53587780892992"><ele>15.25</ele><time>2026-03-29T10:27:31Z</time></trkpt><trkpt lat="47.322276220701" lon="-1.5358156990274188"><ele>15.0</ele><time>2026-03-29T10:27:33Z</time></trkpt><trkpt lat="47.32216327455576" lon="-1.5357992704972026"><ele>15.0</ele><time>2026-03-29T10:27:35Z</time></trkpt><trkpt lat="47.32205724348064" lon="-1.5357991028591391"><ele>15.0</ele><time>2026-03-29T10:27:37Z</time></trkpt><trkpt lat="47.321941363669296" lon="-1.5358060598387715"><ele>15.0</ele><time>2026-03-29T10:27:39Z</time></trkpt><trkpt lat="47.32182426848199" lon="-1.5358004439636466"><ele>15.0</ele><time>2026-03-29T10:27:41Z</time></trkpt><trkpt lat="47.321758763908704" lon="-1.5358149446561333"><ele>15.0</ele><time>2026-03-29T10:27:42Z</time></trkpt><trkpt lat="47.32167905200954" lon="-1.5358080714955327"><ele>15.0</ele><time>2026-03-29T10:27:43Z</time></trkpt><trkpt lat="47.32159795709636" lon="-1.5358066465719935"><ele>15.0</ele><time>2026-03-29T10:27:44Z</time></trkpt><trkpt lat="47.321532117246946" lon="-1.5358146093800065"><ele>15.0</ele><time>2026-03-29T10:27:45Z</time></trkpt><trkpt lat="47.32140207201924" lon="-1.5358402580037116"><ele>15.0</ele><time>2026-03-29T10:27:47Z</time></trkpt><trkpt lat="47.32133501679387" lon="-1.5358540881439446"><ele>15.0</ele><time>2026-03-29T10:27:48Z</time></trkpt><trkpt lat="47.32127416417684" lon="-1.5358785633012055"><ele>15.0</ele><time>2026-03-29T10:27:49Z</time></trkpt><trkpt lat="47.32121046171274" lon="-1.5358887892230748"><ele>15.0</ele><time>2026-03-29T10:27:50Z</time></trkpt><trkpt lat="47.321066628254314" lon="-1.5358941536411046"><ele>15.0</ele><time>2026-03-29T10:27:52Z</time></trkpt><trkpt lat="47.32100556608971" lon="-1.5359330456718205"><ele>15.0</ele><time>2026-03-29T10:27:53Z</time></trkpt><trkpt lat="47.32095397547569" lon="-1.536002699287176"><ele>15.0</ele><time>2026-03-29T10:27:54Z</time></trkpt><trkpt lat="47.32089911591943" lon="-1.5360653121038674"><ele>15.0</ele><time>2026-03-29T10:27:55Z</time></trkpt><trkpt lat="47.32083914340224" lon="-1.5361063834294082"><ele>15.0</ele><time>2026-03-29T10:27:56Z</time></trkpt><trkpt lat="47.32077183671977" lon="-1.5361654758467675"><ele>15.0</ele><time>2026-03-29T10:27:57Z</time></trkpt><trkpt lat="47.320708553350826" lon="-1.5362185332938434"><ele>15.0</ele><time>2026-03-29T10:27:58Z</time></trkpt><trkpt lat="47.320657968565186" lon="-1.5362829901292325"><ele>15.0</ele><time>2026-03-29T10:27:59Z</time></trkpt><trkpt lat="47.32060792860325" lon="-1.5364373847856525"><ele>15.0</ele><time>2026-03-29T10:28:01Z</time></trkpt><trkpt lat="47.32059611011978" lon="-1.536596640945912"><ele>15.0</ele><time>2026-03-29T10:28:03Z</time></trkpt><trkpt lat="47.320575113452335" lon="-1.5366918593659407"><ele>15.0</ele><time>2026-03-29T10:28:04Z</time></trkpt><trkpt lat="47.320551937490066" lon="-1.5367826353772884"><ele>15.166666666666666</ele><time>2026-03-29T10:28:05Z</time></trkpt><trkpt lat="47.32053014454182" lon="-1.5368717350080021"><ele>15.333333333333332</ele><time>2026-03-29T10:28:06Z</time></trkpt><trkpt lat="47.320489324673375" lon="-1.5369568113251932"><ele>15.5</ele><time>2026-03-29T10:28:07Z</time></trkpt><trkpt lat="47.320443391843995" lon="-1.5370288956924687"><ele>15.666666666666666</ele><time>2026-03-29T10:28:08Z</time></trkpt><trkpt lat="47.3203524901041" lon="-1.5371248684837828"><ele>15.833333333333332</ele><time>2026-03-29T10:28:10Z</time></trkpt><trkpt lat="47.32028753035452" lon="-1.5371814463301907"><ele>16.0</ele><time>2026-03-29T10:28:11Z</time></trkpt><trkpt lat="47.320212302773555" lon="-1.5372226852937947"><ele>15.166666666666666</ele><time>2026-03-29T10:28:12Z</time></trkpt><trkpt lat="47.32015580874618" lon="-1.5372832864537251"><ele>14.333333333333332</ele><time>2026-03-29T10:28:13Z</time></trkpt><trkpt lat="47.320091100453695" lon="-1.5373331587775958"><ele>13.5</ele><time>2026-03-29T10:28:14Z</time></trkpt><trkpt lat="47.32002417095687" lon="-1.5373673569425357"><ele>12.666666666666666</ele><time>2026-03-29T10:28:15Z</time></trkpt><trkpt lat="47.31994119011547" lon="-1.5374759025886071"><ele>11.833333333333332</ele><time>2026-03-29T10:28:17Z</time></trkpt><trkpt lat="47.31985523369845" lon="-1.5375868789865985"><ele>11.0</ele><time>2026-03-29T10:28:19Z</time></trkpt><trkpt lat="47.31978486762132" lon="-1.5376401040717378"><ele>11.166666666666666</ele><time>2026-03-29T10:28:20Z</time></trkpt><trkpt lat="47.31972166807141" lon="-1.5376937482520356"><ele>11.333333333333332</ele><time>2026-03-29T10:28:21Z</time></trkpt><trkpt lat="47.319676070518156" lon="-1.5377706103041189"><ele>11.5</ele><time>2026-03-29T10:28:22Z</time></trkpt><trkpt lat="47.31960612353619" lon="-1.53792458586538"><ele>11.666666666666666</ele><time>2026-03-29T10:28:24Z</time></trkpt><trkpt lat="47.3195522278988" lon="-1.5380184631809015"><ele>11.833333333333334</ele><time>2026-03-29T10:28:25Z</time></trkpt><trkpt lat="47.31951811355289" lon="-1.53810194693649"><ele>12.0</ele><time>2026-03-29T10:28:26Z</time></trkpt><trkpt lat="47.31947146826174" lon="-1.538201775403263"><ele>12.0</ele><time>2026-03-29T10:28:27Z</time></trkpt><trkpt lat="47.31941501614388" lon="-1.5383038669838927"><ele>12.0</ele><time>2026-03-29T10:28:28Z</time></trkpt><trkpt lat="47.319363048344215" lon="-1.5383770409985802"><ele>12.0</ele><time>2026-03-29T10:28:29Z</time></trkpt><trkpt lat="47.319319336719175" lon="-1.5384577587261221"><ele>12.0</ele><time>2026-03-29T10:28:30Z</time></trkpt><trkpt lat="47.31929230508145" lon="-1.5385492891087555"><ele>12.0</ele><time>2026-03-29T10:28:31Z</time></trkpt><trkpt lat="47.31925735254522" lon="-1.5386367123588347"><ele>12.0</ele><time>2026-03-29T10:28:32Z</time></trkpt><trkpt lat="47.31919473972853" lon="-1.5387494489564921"><ele>11.428571428571427</ele><time>2026-03-29T10:28:33Z</time></trkpt><trkpt lat="47.31915174056526" lon="-1.5388241317137505"><ele>10.857142857142858</ele><time>2026-03-29T10:28:34Z</time></trkpt><trkpt lat="47.31911146552052" lon="-1.5389014966800239"><ele>10.285714285714285</ele><time>2026-03-29T10:28:35Z</time></trkpt><trkpt lat="47.31907659680333" lon="-1.5389843937023906"><ele>9.714285714285714</ele><time>2026-03-29T10:28:36Z</time></trkpt><trkpt lat="47.31903669894423" lon="-1.539065279067996"><ele>9.142857142857142</ele><time>2026-03-29T10:28:37Z</time></trkpt><trkpt lat="47.31896880552854" lon="-1.539190169425252"><ele>8.571428571428571</ele><time>2026-03-29T10:28:39Z</time></trkpt><trkpt lat="47.31893138033088" lon="-1.5392804425224096"><ele>8.0</ele><time>2026-03-29T10:28:40Z</time></trkpt><trkpt lat="47.31889169201936" lon="-1.5393640100970298"><ele>8.857142857142858</ele><time>2026-03-29T10:28:41Z</time></trkpt><trkpt lat="47.31883792211052" lon="-1.5394262038185629"><ele>9.714285714285714</ele><time>2026-03-29T10:28:42Z</time></trkpt><trkpt lat="47.318797186061104" lon="-1.5395110286786589"><ele>10.571428571428571</ele><time>2026-03-29T10:28:43Z</time></trkpt><trkpt lat="47.318744673437735" lon="-1.5395882260068687"><ele>11.428571428571429</ele><time>2026-03-29T10:28:44Z</time></trkpt><trkpt lat="47.31871043336328" lon="-1.5396743919714724"><ele>12.285714285714285</ele><time>2026-03-29T10:28:45Z</time></trkpt><trkpt lat="47.31866471008148" lon="-1.53974756598616"><ele>13.142857142857142</ele><time>2026-03-29T10:28:46Z</time></trkpt><trkpt lat="47.318623764484485" lon="-1.5398280322566067"><ele>14.0</ele><time>2026-03-29T10:28:47Z</time></trkpt><trkpt lat="47.31858516582038" lon="-1.5399116836502589"><ele>14.000000000000002</ele><time>2026-03-29T10:28:48Z</time></trkpt><trkpt lat="47.31855188966479" lon="-1.5399919822826422"><ele>14.0</ele><time>2026-03-29T10:28:49Z</time></trkpt><trkpt lat="47.31851048306312" lon="-1.5400686766966618"><ele>14.0</ele><time>2026-03-29T10:28:50Z</time></trkpt><trkpt lat="47.318442673466464" lon="-1.540222736076955"><ele>14.0</ele><time>2026-03-29T10:28:52Z</time></trkpt><trkpt lat="47.318374277136584" lon="-1.5403781365617555"><ele>14.000000000000002</ele><time>2026-03-29T10:28:54Z</time></trkpt><trkpt lat="47.318335427015384" lon="-1.5404544118806165"><ele>14.0</ele><time>2026-03-29T10:28:55Z</time></trkpt><trkpt lat="47.3182905419239" lon="-1.540541164578442"><ele>13.333333333333334</ele><time>2026-03-29T10:28:56Z</time></trkpt><trkpt lat="47.31825156607415" lon="-1.540620122106318"><ele>12.666666666666668</ele><time>2026-03-29T10:28:57Z</time></trkpt><trkpt lat="47.31817923024978" lon="-1.5407792106285139"><ele>12.0</ele><time>2026-03-29T10:28:59Z</time></trkpt><trkpt lat="47.31814452917065" lon="-1.5408607665463732"><ele>11.333333333333334</ele><time>2026-03-29T10:29:00Z</time></trkpt><trkpt lat="47.31810664296832" lon="-1.5409355331226633"><ele>10.666666666666668</ele><time>2026-03-29T10:29:01Z</time></trkpt><trkpt lat="47.318066200285514" lon="-1.5410121437176512"><ele>10.0</ele><time>2026-03-29T10:29:02Z</time></trkpt><trkpt lat="47.31798083060171" lon="-1.5411746688201475"><ele>10.5</ele><time>2026-03-29T10:29:04Z</time></trkpt><trkpt lat="47.3179400945523" lon="-1.541252871976738"><ele>11.0</ele><time>2026-03-29T10:29:05Z</time></trkpt><trkpt lat="47.317894999913236" lon="-1.5413250401630452"><ele>11.5</ele><time>2026-03-29T10:29:06Z</time></trkpt><trkpt lat="47.317854850597044" lon="-1.5413974598064473"><ele>12.0</ele><time>2026-03-29T10:29:07Z</time></trkpt><trkpt lat="47.31781637766149" lon="-1.5414715558304837"><ele>12.499999999999998</ele><time>2026-03-29T10:29:08Z</time></trkpt><trkpt lat="47.31773674958136" lon="-1.5416170656695418"><ele>13.0</ele><time>2026-03-29T10:29:10Z</time></trkpt><trkpt lat="47.31769869574096" lon="-1.541700381787067"><ele>12.999999999999998</ele><time>2026-03-29T10:29:11Z</time></trkpt><trkpt lat="47.317658253058156" lon="-1.541773388163691"><ele>13.0</ele><time>2026-03-29T10:29:12.001Z</time></trkpt><trkpt lat="47.31760033410724" lon="-1.5418280381723697"><ele>13.0</ele><time>2026-03-29T10:29:13.001Z</time></trkpt><trkpt lat="47.317552221983036" lon="-1.5419017151012475"><ele>13.0</ele><time>2026-03-29T10:29:14.001Z</time></trkpt><trkpt lat="47.3174995417216" lon="-1.541966926307922"><ele>12.999999999999998</ele><time>2026-03-29T10:29:15.001Z</time></trkpt><trkpt lat="47.31744765774097" lon="-1.5420269407346303"><ele>13.0</ele><time>2026-03-29T10:29:16.001Z</time></trkpt><trkpt lat="47.31735419952061" lon="-1.5421483945115861"><ele>12.4</ele><time>2026-03-29T10:29:18.001Z</time></trkpt><trkpt lat="47.317258771553" lon="-1.5422426071032342"><ele>11.8</ele><time>2026-03-29T10:29:20.001Z</time></trkpt><trkpt lat="47.31719209351327" lon="-1.5422885399326145"><ele>11.2</ele><time>2026-03-29T10:29:21.001Z</time></trkpt><trkpt lat="47.31708928947087" lon="-1.5424130950137436"><ele>10.6</ele><time>2026-03-29T10:29:23.001Z</time></trkpt><trkpt lat="47.31703367554333" lon="-1.5424686670317709"><ele>10.0</ele><time>2026-03-29T10:29:24.001Z</time></trkpt><trkpt lat="47.3169212742218" lon="-1.542560281233436"><ele>10.0</ele><time>2026-03-29T10:29:26.001Z</time></trkpt><trkpt lat="47.316863019994756" lon="-1.542617445813066"><ele>10.0</ele><time>2026-03-29T10:29:27.001Z</time></trkpt><trkpt lat="47.31680346657272" lon="-1.542661031709558"><ele>10.0</ele><time>2026-03-29T10:29:28.001Z</time></trkpt><trkpt lat="47.316749319478234" lon="-1.542728422211057"><ele>10.0</ele><time>2026-03-29T10:29:29.001Z</time></trkpt><trkpt lat="47.316691023341676" lon="-1.542765051127917"><ele>10.0</ele><time>2026-03-29T10:29:30.001Z</time></trkpt><trkpt lat="47.31662585404452" lon="-1.5428021829589669"><ele>10.0</ele><time>2026-03-29T10:29:31.001Z</time></trkpt><trkpt lat="47.31656676162716" lon="-1.542843673379666"><ele>10.0</ele><time>2026-03-29T10:29:32.001Z</time></trkpt><trkpt lat="47.31650775302883" lon="-1.542883152143604"><ele>9.666666666666668</ele><time>2026-03-29T10:29:33.001Z</time></trkpt><trkpt lat="47.31644857679244" lon="-1.5429259836688105"><ele>9.333333333333334</ele><time>2026-03-29T10:29:34.001Z</time></trkpt><trkpt lat="47.316391957036515" lon="-1.5429689828320805"><ele>9.0</ele><time>2026-03-29T10:29:35.001Z</time></trkpt><trkpt lat="47.31632682964887" lon="-1.5430845692768163"><ele>8.666666666666666</ele><time>2026-03-29T10:29:37.001Z</time></trkpt><trkpt lat="47.31628680606123" lon="-1.5431658737375802"><ele>8.333333333333332</ele><time>2026-03-29T10:29:39.001Z</time></trkpt><trkpt lat="47.31619875416841" lon="-1.5432090405389136"><ele>8.0</ele><time>2026-03-29T10:29:42.001Z</time></trkpt><trkpt lat="47.316132746680935" lon="-1.543243154884822"><ele>8.0</ele><time>2026-03-29T10:29:44.001Z</time></trkpt><trkpt lat="47.31603149329062" lon="-1.5433024987592765"><ele>8.0</ele><time>2026-03-29T10:29:46.001Z</time></trkpt><trkpt lat="47.31592416302051" lon="-1.5432733297362395"><ele>8.0</ele><time>2026-03-29T10:29:48.001Z</time></trkpt><trkpt lat="47.31581528209831" lon="-1.5432627685382434"><ele>8.0</ele><time>2026-03-29T10:29:50.001Z</time></trkpt><trkpt lat="47.31568037536677" lon="-1.543253464625723"><ele>8.0</ele><time>2026-03-29T10:29:52.001Z</time></trkpt><trkpt lat="47.31560078919615" lon="-1.5432296600207158"><ele>7.999999999999999</ele><time>2026-03-29T10:29:53.001Z</time></trkpt><trkpt lat="47.31553570371802" lon="-1.5432249661549395"><ele>8.0</ele><time>2026-03-29T10:29:54.001Z</time></trkpt><trkpt lat="47.3154701153257" lon="-1.543223373593337"><ele>8.0</ele><time>2026-03-29T10:29:55.001Z</time></trkpt><trkpt lat="47.315433654046906" lon="-1.5433045942350694"><ele>7.999999999999999</ele><time>2026-03-29T10:29:56.001Z</time></trkpt><trkpt lat="47.31536270123656" lon="-1.5432980563505956"><ele>8.0</ele><time>2026-03-29T10:29:57.001Z</time></trkpt><trkpt lat="47.31529493354942" lon="-1.5432945359512635"><ele>8.0</ele><time>2026-03-29T10:29:58.001Z</time></trkpt><trkpt lat="47.3152240645581" lon="-1.5432743355646201"><ele>8.0</ele><time>2026-03-29T10:29:59.001Z</time></trkpt><trkpt lat="47.315160487822546" lon="-1.5432721562697955"><ele>7.999999999999999</ele><time>2026-03-29T10:30:00.001Z</time></trkpt><trkpt lat="47.315093013502015" lon="-1.5432802028968402"><ele>8.0</ele><time>2026-03-29T10:30:01.001Z</time></trkpt><trkpt lat="47.3150282213905" lon="-1.5432946197702953"><ele>8.0</ele><time>2026-03-29T10:30:02.001Z</time></trkpt><trkpt lat="47.31492742900486" lon="-1.5433370322003432"><ele>7.999999999999999</ele><time>2026-03-29T10:30:04.001Z</time></trkpt><trkpt lat="47.3148545902663" lon="-1.5433191787465879"><ele>8.0</ele><time>2026-03-29T10:30:05.001Z</time></trkpt><trkpt lat="47.31478334408934" lon="-1.5433077793582746"><ele>8.0</ele><time>2026-03-29T10:30:06.001Z</time></trkpt><trkpt lat="47.314716121225906" lon="-1.5433162450804778"><ele>8.0</ele><time>2026-03-29T10:30:07.001Z</time></trkpt><trkpt lat="47.314597433477" lon="-1.5433133114143678"><ele>8.0</ele><time>2026-03-29T10:30:09.001Z</time></trkpt><trkpt lat="47.314476566433264" lon="-1.5433092881008454"><ele>8.0</ele><time>2026-03-29T10:30:11.001Z</time></trkpt><trkpt lat="47.314365967220915" lon="-1.5432865731432506"><ele>8.0</ele><time>2026-03-29T10:30:13.001Z</time></trkpt><trkpt lat="47.31428202246065" lon="-1.5432625170811483"><ele>8.0</ele><time>2026-03-29T10:30:14.001Z</time></trkpt><trkpt lat="47.31421513487334" lon="-1.5432408917709657"><ele>8.0</ele><time>2026-03-29T10:30:15.001Z</time></trkpt><trkpt lat="47.3140929267251" lon="-1.5432070288821524"><ele>8.0</ele><time>2026-03-29T10:30:17.001Z</time></trkpt><trkpt lat="47.31401543603028" lon="-1.5431851521148747"><ele>8.0</ele><time>2026-03-29T10:30:18.001Z</time></trkpt><trkpt lat="47.31395001527603" lon="-1.543170902879483"><ele>8.0</ele><time>2026-03-29T10:30:19.001Z</time></trkpt><trkpt lat="47.31382654984231" lon="-1.543228151278145"><ele>8.0</ele><time>2026-03-29T10:30:21.001Z</time></trkpt><trkpt lat="47.313762763559176" lon="-1.5432320907726356"><ele>8.200000000000001</ele><time>2026-03-29T10:30:22.001Z</time></trkpt><trkpt lat="47.31369248130108" lon="-1.5432176738991803"><ele>8.4</ele><time>2026-03-29T10:30:23.001Z</time></trkpt><trkpt lat="47.31361440387304" lon="-1.5432026702925032"><ele>8.600000000000001</ele><time>2026-03-29T10:30:24.001Z</time></trkpt><trkpt lat="47.31354236141528" lon="-1.54319127090419"><ele>8.8</ele><time>2026-03-29T10:30:25.001Z</time></trkpt><trkpt lat="47.313434570140494" lon="-1.543191522361285"><ele>9.0</ele><time>2026-03-29T10:30:27.001Z</time></trkpt><trkpt lat="47.313297777480734" lon="-1.5430911909803218"><ele>9.000000000000002</ele><time>2026-03-29T10:30:29.001Z</time></trkpt><trkpt lat="47.31323248245503" lon="-1.5430562384440965"><ele>9.0</ele><time>2026-03-29T10:30:30.001Z</time></trkpt><trkpt lat="47.3131589312547" lon="-1.5430345293148822"><ele>9.0</ele><time>2026-03-29T10:30:31.001Z</time></trkpt><trkpt lat="47.31309204366739" lon="-1.5430275723352498"><ele>9.0</ele><time>2026-03-29T10:30:32.001Z</time></trkpt><trkpt lat="47.31302901175554" lon="-1.5430305898203915"><ele>9.0</ele><time>2026-03-29T10:30:33.001Z</time></trkpt><trkpt lat="47.31296312999661" lon="-1.5430297516300744"><ele>9.000000000000002</ele><time>2026-03-29T10:30:34.001Z</time></trkpt><trkpt lat="47.31289029125805" lon="-1.543024554850108"><ele>9.0</ele><time>2026-03-29T10:30:35.001Z</time></trkpt><trkpt lat="47.31280710086907" lon="-1.5430012531592912"><ele>8.6</ele><time>2026-03-29T10:30:36.001Z</time></trkpt><trkpt lat="47.312697507485105" lon="-1.5430351160481042"><ele>8.2</ele><time>2026-03-29T10:30:38.001Z</time></trkpt><trkpt lat="47.3126295721599" lon="-1.5430370438858336"><ele>7.799999999999999</ele><time>2026-03-29T10:30:39.001Z</time></trkpt><trkpt lat="47.31251168069179" lon="-1.5430528856828278"><ele>7.3999999999999995</ele><time>2026-03-29T10:30:41.001Z</time></trkpt><trkpt lat="47.31244743340398" lon="-1.543089933694846"><ele>7.0</ele><time>2026-03-29T10:30:42.001Z</time></trkpt><trkpt lat="47.312368978790296" lon="-1.5432246308788127"><ele>7.0</ele><time>2026-03-29T10:30:44.001Z</time></trkpt><trkpt lat="47.31227987915958" lon="-1.543260840700514"><ele>6.999999999999999</ele><time>2026-03-29T10:30:46.001Z</time></trkpt><trkpt lat="47.31217175260867" lon="-1.5432392153903314"><ele>6.999999999999999</ele><time>2026-03-29T10:30:48.001Z</time></trkpt><trkpt lat="47.31208051559265" lon="-1.5431890916093653"><ele>7.0</ele><time>2026-03-29T10:30:50.001Z</time></trkpt><trkpt lat="47.312029134526206" lon="-1.543095549569971"><ele>7.0</ele><time>2026-03-29T10:30:52.001Z</time></trkpt><trkpt lat="47.31192364827479" lon="-1.5430309250965184"><ele>7.666666666666667</ele><time>2026-03-29T10:30:54.001Z</time></trkpt><trkpt lat="47.31181271378632" lon="-1.543010724709875"><ele>8.333333333333334</ele><time>2026-03-29T10:30:56.001Z</time></trkpt><trkpt lat="47.311748801774634" lon="-1.5429772809162203"><ele>9.0</ele><time>2026-03-29T10:30:57.001Z</time></trkpt><trkpt lat="47.31168258473958" lon="-1.5429504588260714"><ele>9.666666666666666</ele><time>2026-03-29T10:30:58.001Z</time></trkpt><trkpt lat="47.31161993001337" lon="-1.5429231338217322"><ele>10.333333333333332</ele><time>2026-03-29T10:30:59.001Z</time></trkpt><trkpt lat="47.311507193415714" lon="-1.5429174341275755"><ele>11.0</ele><time>2026-03-29T10:31:01.001Z</time></trkpt><trkpt lat="47.311440305828405" lon="-1.542909638957626"><ele>11.5</ele><time>2026-03-29T10:31:02.001Z</time></trkpt><trkpt lat="47.311319396875156" lon="-1.542904358358628"><ele>12.0</ele><time>2026-03-29T10:31:04.001Z</time></trkpt><trkpt lat="47.3111997871169" lon="-1.5429015085115496"><ele>12.5</ele><time>2026-03-29T10:31:06.001Z</time></trkpt><trkpt lat="47.311092582575334" lon="-1.542898155750281"><ele>13.0</ele><time>2026-03-29T10:31:08.001Z</time></trkpt><trkpt lat="47.3109828215533" lon="-1.5428914502277438"><ele>13.0</ele><time>2026-03-29T10:31:10.001Z</time></trkpt><trkpt lat="47.3109088093483" lon="-1.542893461884505"><ele>13.0</ele><time>2026-03-29T10:31:11.001Z</time></trkpt><trkpt lat="47.310801101892544" lon="-1.5428723394885127"><ele>13.0</ele><time>2026-03-29T10:31:13.001Z</time></trkpt><trkpt lat="47.310694861269845" lon="-1.5428711660220686"><ele>13.0</ele><time>2026-03-29T10:31:15.001Z</time></trkpt><trkpt lat="47.31060190596367" lon="-1.5428738482310835"><ele>13.0</ele><time>2026-03-29T10:31:17.001Z</time></trkpt><trkpt lat="47.310509202114595" lon="-1.5428651310517851"><ele>12.833333333333332</ele><time>2026-03-29T10:31:19.001Z</time></trkpt><trkpt lat="47.31040182993497" lon="-1.5428589284434382"><ele>12.666666666666666</ele><time>2026-03-29T10:31:21.001Z</time></trkpt><trkpt lat="47.31028930288489" lon="-1.5428432542845074"><ele>12.5</ele><time>2026-03-29T10:31:23.001Z</time></trkpt><trkpt lat="47.31022526514466" lon="-1.5428264066591326"><ele>12.333333333333332</ele><time>2026-03-29T10:31:24.001Z</time></trkpt><trkpt lat="47.310150833844496" lon="-1.5428077988340918"><ele>12.166666666666666</ele><time>2026-03-29T10:31:26.001Z</time></trkpt><trkpt lat="47.3100678530031" lon="-1.5428111515953604"><ele>12.0</ele><time>2026-03-29T10:31:28.001Z</time></trkpt><trkpt lat="47.30995796625252" lon="-1.5428206231459443"><ele>12.0</ele><time>2026-03-29T10:31:30.001Z</time></trkpt><trkpt lat="47.309853485829485" lon="-1.5428617782905165"><ele>12.0</ele><time>2026-03-29T10:31:32.001Z</time></trkpt><trkpt lat="47.30975650720979" lon="-1.5429094713195626"><ele>12.0</ele><time>2026-03-29T10:31:34.001Z</time></trkpt><trkpt lat="47.309666024565054" lon="-1.5429230500027005"><ele>12.0</ele><time>2026-03-29T10:31:36.001Z</time></trkpt><trkpt lat="47.309594485021485" lon="-1.5428883489235703"><ele>12.0</ele><time>2026-03-29T10:31:38.001Z</time></trkpt><trkpt lat="47.309507564685596" lon="-1.5428357943906847"><ele>12.5</ele><time>2026-03-29T10:31:40.001Z</time></trkpt><trkpt lat="47.30944499377842" lon="-1.5427990816547934"><ele>13.0</ele><time>2026-03-29T10:31:41.001Z</time></trkpt><trkpt lat="47.30935472068126" lon="-1.542744934560305"><ele>13.5</ele><time>2026-03-29T10:31:43.001Z</time></trkpt><trkpt lat="47.30927936737175" lon="-1.5427016001209082"><ele>14.0</ele><time>2026-03-29T10:31:45.001Z</time></trkpt><trkpt lat="47.309202631048215" lon="-1.5427010972067179"><ele>14.5</ele><time>2026-03-29T10:31:46.681Z</time></trkpt><trkpt lat="47.30911256749864" lon="-1.5427159331753315"><ele>15.0</ele><time>2026-03-29T10:31:48.681Z</time></trkpt><trkpt lat="47.30903109539981" lon="-1.5427359659239115"><ele>15.0</ele><time>2026-03-29T10:31:50.681Z</time></trkpt><trkpt lat="47.30893952310766" lon="-1.542747030036098"><ele>15.0</ele><time>2026-03-29T10:31:52.681Z</time></trkpt><trkpt lat="47.30885587171401" lon="-1.542764464394695"><ele>15.0</ele><time>2026-03-29T10:31:54.681Z</time></trkpt><trkpt lat="47.30875269048597" lon="-1.5427364688381018"><ele>15.0</ele><time>2026-03-29T10:31:56.681Z</time></trkpt><trkpt lat="47.30866627306427" lon="-1.5427351277335943"><ele>15.0</ele><time>2026-03-29T10:31:58.681Z</time></trkpt><trkpt lat="47.30858115483756" lon="-1.5427454374744953"><ele>15.5</ele><time>2026-03-29T10:32:00.681Z</time></trkpt><trkpt lat="47.30850668162788" lon="-1.5427843295052115"><ele>16.0</ele><time>2026-03-29T10:32:02.681Z</time></trkpt><trkpt lat="47.308435016355766" lon="-1.5428411588087145"><ele>16.5</ele><time>2026-03-29T10:32:04.681Z</time></trkpt><trkpt lat="47.30835882485594" lon="-1.5428992453976933"><ele>17.0</ele><time>2026-03-29T10:32:06.681Z</time></trkpt><trkpt lat="47.30828166943724" lon="-1.5429557394250695"><ele>17.5</ele><time>2026-03-29T10:32:08.681Z</time></trkpt><trkpt lat="47.30819977824326" lon="-1.54299337417031"><ele>18.0</ele><time>2026-03-29T10:32:10.681Z</time></trkpt><trkpt lat="47.30811302554543" lon="-1.5430178493275708"><ele>18.666666666666668</ele><time>2026-03-29T10:32:12.681Z</time></trkpt><trkpt lat="47.308029709427906" lon="-1.5430279076113766"><ele>19.333333333333332</ele><time>2026-03-29T10:32:14.681Z</time></trkpt><trkpt lat="47.30795900807465" lon="-1.5430405642851657"><ele>20.0</ele><time>2026-03-29T10:32:16.681Z</time></trkpt><trkpt lat="47.307879799089676" lon="-1.543056070806033"><ele>20.666666666666664</ele><time>2026-03-29T10:32:18.681Z</time></trkpt><trkpt lat="47.30780440387065" lon="-1.543064620347268"><ele>21.333333333333332</ele><time>2026-03-29T10:32:20.681Z</time></trkpt><trkpt lat="47.30773495980287" lon="-1.5430556517108744"><ele>22.0</ele><time>2026-03-29T10:32:22.681Z</time></trkpt><trkpt lat="47.30765587654645" lon="-1.5430267341449326"><ele>22.0</ele><time>2026-03-29T10:32:24.681Z</time></trkpt><trkpt lat="47.30758249298418" lon="-1.5430138260140485"><ele>22.0</ele><time>2026-03-29T10:32:26.681Z</time></trkpt><trkpt lat="47.3075019428947" lon="-1.5430170949562854"><ele>22.0</ele><time>2026-03-29T10:32:28.681Z</time></trkpt><trkpt lat="47.3074234463715" lon="-1.543029583992011"><ele>22.0</ele><time>2026-03-29T10:32:30.681Z</time></trkpt><trkpt lat="47.307350146628266" lon="-1.543065793813712"><ele>22.0</ele><time>2026-03-29T10:32:32.681Z</time></trkpt><trkpt lat="47.30728351049805" lon="-1.543124970050103"><ele>22.0</ele><time>2026-03-29T10:32:34.681Z</time></trkpt><trkpt lat="47.307223579890376" lon="-1.5431852359339064"><ele>22.571428571428573</ele><time>2026-03-29T10:32:36.681Z</time></trkpt><trkpt lat="47.30716553521091" lon="-1.5432482678457566"><ele>23.142857142857142</ele><time>2026-03-29T10:32:38.681Z</time></trkpt><trkpt lat="47.307105814150816" lon="-1.5433096233769723"><ele>23.714285714285715</ele><time>2026-03-29T10:32:40.681Z</time></trkpt><trkpt lat="47.307046931281036" lon="-1.5433681290611097"><ele>24.285714285714285</ele><time>2026-03-29T10:32:42.681Z</time></trkpt><trkpt lat="47.30698783886368" lon="-1.5434288978591033"><ele>24.857142857142858</ele><time>2026-03-29T10:32:44.681Z</time></trkpt><trkpt lat="47.30692518413747" lon="-1.5434887446477483"><ele>25.428571428571427</ele><time>2026-03-29T10:32:46.681Z</time></trkpt><trkpt lat="47.30686223604465" lon="-1.5435503516360591"><ele>26.0</ele><time>2026-03-29T10:32:48.681Z</time></trkpt><trkpt lat="47.30679685719991" lon="-1.5436056721969913"><ele>25.999999999999996</ele><time>2026-03-29T10:32:50.681Z</time></trkpt><trkpt lat="47.30672607202763" lon="-1.5436588972821306"><ele>26.0</ele><time>2026-03-29T10:32:52.681Z</time></trkpt><trkpt lat="47.30666148946369" lon="-1.543722180651076"><ele>26.0</ele><time>2026-03-29T10:32:54.681Z</time></trkpt><trkpt lat="47.30659443423832" lon="-1.5437868889435602"><ele>26.0</ele><time>2026-03-29T10:32:56.681Z</time></trkpt><trkpt lat="47.306519625752514" lon="-1.5438474062844587"><ele>25.999999999999996</ele><time>2026-03-29T10:32:58.681Z</time></trkpt><trkpt lat="47.30644133877689" lon="-1.5439186524614168"><ele>26.0</ele><time>2026-03-29T10:33:00.681Z</time></trkpt><trkpt lat="47.30637151752347" lon="-1.543979002164252"><ele>26.200000000000003</ele><time>2026-03-29T10:33:02.681Z</time></trkpt><trkpt lat="47.3062957451188" lon="-1.544050583617337"><ele>26.400000000000002</ele><time>2026-03-29T10:33:04.681Z</time></trkpt><trkpt lat="47.306201532527155" lon="-1.5441080834730938"><ele>26.6</ele><time>2026-03-29T10:33:06.681Z</time></trkpt><trkpt lat="47.306127562231666" lon="-1.544195590542205"><ele>26.8</ele><time>2026-03-29T10:33:08.681Z</time></trkpt><trkpt lat="47.306037833958214" lon="-1.5442702732994633"><ele>27.0</ele><time>2026-03-29T10:33:10.681Z</time></trkpt><trkpt lat="47.305952548093444" lon="-1.5443421900286751"><ele>27.0</ele><time>2026-03-29T10:33:12.681Z</time></trkpt><trkpt lat="47.30587212373251" lon="-1.5444298647358496"><ele>27.000000000000004</ele><time>2026-03-29T10:33:14.681Z</time></trkpt><trkpt lat="47.30580368549312" lon="-1.5445192158236583"><ele>27.000000000000004</ele><time>2026-03-29T10:33:16.681Z</time></trkpt><trkpt lat="47.30571785480464" lon="-1.5446034539505322"><ele>27.0</ele><time>2026-03-29T10:33:18.681Z</time></trkpt><trkpt lat="47.30563122783536" lon="-1.5446977503612123"><ele>27.0</ele><time>2026-03-29T10:33:20.681Z</time></trkpt><trkpt lat="47.30553253092552" lon="-1.5447751153274856"><ele>26.75</ele><time>2026-03-29T10:33:22.681Z</time></trkpt><trkpt lat="47.30543404356325" lon="-1.5448383986964307"><ele>26.5</ele><time>2026-03-29T10:33:24.681Z</time></trkpt><trkpt lat="47.305330107963925" lon="-1.5449093934162939"><ele>26.25</ele><time>2026-03-29T10:33:26.681Z</time></trkpt><trkpt lat="47.30522437025542" lon="-1.5449955593808973"><ele>26.0</ele><time>2026-03-29T10:33:28.681Z</time></trkpt><trkpt lat="47.305116830437726" lon="-1.545076360927471"><ele>25.999999999999996</ele><time>2026-03-29T10:33:30.681Z</time></trkpt><trkpt lat="47.305004932030386" lon="-1.5451673045768823"><ele>26.0</ele><time>2026-03-29T10:33:32.681Z</time></trkpt><trkpt lat="47.304944330870455" lon="-1.545213321225294"><ele>26.0</ele><time>2026-03-29T10:33:33.681Z</time></trkpt><trkpt lat="47.30489412327046" lon="-1.5452701505287971"><ele>26.0</ele><time>2026-03-29T10:33:34.681Z</time></trkpt><trkpt lat="47.304823841012364" lon="-1.545309964568862"><ele>25.999999999999996</ele><time>2026-03-29T10:33:35.681Z</time></trkpt><trkpt lat="47.304755486592" lon="-1.545365033672699"><ele>26.0</ele><time>2026-03-29T10:33:36.681Z</time></trkpt><trkpt lat="47.30469597507948" lon="-1.5454097092166035"><ele>25.333333333333332</ele><time>2026-03-29T10:33:37.681Z</time></trkpt><trkpt lat="47.30463273362005" lon="-1.5454682987197725"><ele>24.666666666666664</ele><time>2026-03-29T10:33:38.681Z</time></trkpt><trkpt lat="47.30455524292523" lon="-1.5455163270249455"><ele>24.0</ele><time>2026-03-29T10:33:39.681Z</time></trkpt><trkpt lat="47.30448684659535" lon="-1.5455740783377974"><ele>23.333333333333332</ele><time>2026-03-29T10:33:40.681Z</time></trkpt><trkpt lat="47.30441446886147" lon="-1.5456283930703492"><ele>22.666666666666664</ele><time>2026-03-29T10:33:41.681Z</time></trkpt><trkpt lat="47.304340833842105" lon="-1.5456765051945538"><ele>22.0</ele><time>2026-03-29T10:33:42.681Z</time></trkpt><trkpt lat="47.30426158294762" lon="-1.5457229409381241"><ele>22.0</ele><time>2026-03-29T10:33:43.681Z</time></trkpt><trkpt lat="47.304186439185685" lon="-1.5457889903351159"><ele>22.0</ele><time>2026-03-29T10:33:44.681Z</time></trkpt><trkpt lat="47.30412810113961" lon="-1.5458762459471318"><ele>22.0</ele><time>2026-03-29T10:33:45.681Z</time></trkpt><trkpt lat="47.30405589104379" lon="-1.5459587238743397"><ele>22.0</ele><time>2026-03-29T10:33:46.681Z</time></trkpt><trkpt lat="47.30398606979037" lon="-1.546049332247624"><ele>22.0</ele><time>2026-03-29T10:33:47.681Z</time></trkpt><trkpt lat="47.3039129376852" lon="-1.5461298823371028"><ele>22.0</ele><time>2026-03-29T10:33:48.681Z</time></trkpt><trkpt lat="47.30381373786116" lon="-1.5461939200773334"><ele>21.200000000000003</ele><time>2026-03-29T10:33:49.681Z</time></trkpt><trkpt lat="47.303739641837126" lon="-1.5462890546783303"><ele>20.400000000000002</ele><time>2026-03-29T10:33:50.681Z</time></trkpt><trkpt lat="47.30367401153529" lon="-1.5463748015477754"><ele>19.6</ele><time>2026-03-29T10:33:51.681Z</time></trkpt><trkpt lat="47.303602974905914" lon="-1.5465262625380851"><ele>18.8</ele><time>2026-03-29T10:33:53.681Z</time></trkpt><trkpt lat="47.30348789137537" lon="-1.5466030407711366"><ele>18.0</ele><time>2026-03-29T10:33:55.681Z</time></trkpt><trkpt lat="47.30337347839708" lon="-1.5466205589487652"><ele>18.0</ele><time>2026-03-29T10:33:57.681Z</time></trkpt><trkpt lat="47.30330063965852" lon="-1.5466642286642889"><ele>18.0</ele><time>2026-03-29T10:33:59.681Z</time></trkpt><trkpt lat="47.30320634324784" lon="-1.5466956608011821"><ele>18.0</ele><time>2026-03-29T10:34:01.681Z</time></trkpt><trkpt lat="47.30312407486821" lon="-1.5466653183117012"><ele>18.0</ele><time>2026-03-29T10:34:03.681Z</time></trkpt><trkpt lat="47.30303954337472" lon="-1.5466346405460933"><ele>18.0</ele><time>2026-03-29T10:34:05.681Z</time></trkpt><trkpt lat="47.302944827868885" lon="-1.5466007776572803"><ele>18.0</ele><time>2026-03-29T10:34:07.681Z</time></trkpt><trkpt lat="47.30287232440645" lon="-1.5465816669180492"><ele>18.5</ele><time>2026-03-29T10:34:08.681Z</time></trkpt><trkpt lat="47.30280036576772" lon="-1.5465550124659635"><ele>19.0</ele><time>2026-03-29T10:34:09.681Z</time></trkpt><trkpt lat="47.3027368728512" lon="-1.546547804029236"><ele>19.5</ele><time>2026-03-29T10:34:10.681Z</time></trkpt><trkpt lat="47.30263809212232" lon="-1.5465706866248945"><ele>20.0</ele><time>2026-03-29T10:34:12.681Z</time></trkpt><trkpt lat="47.30254999831999" lon="-1.54662617482389"><ele>20.5</ele><time>2026-03-29T10:34:14.681Z</time></trkpt><trkpt lat="47.302450295581764" lon="-1.5467061381801466"><ele>21.0</ele><time>2026-03-29T10:34:16.681Z</time></trkpt><trkpt lat="47.30234845545823" lon="-1.5467404201641182"><ele>21.200000000000003</ele><time>2026-03-29T10:34:18.681Z</time></trkpt><trkpt lat="47.30222763032401" lon="-1.5467580221607784"><ele>21.400000000000002</ele><time>2026-03-29T10:34:20.681Z</time></trkpt><trkpt lat="47.302165688059574" lon="-1.5467910468592743"><ele>21.6</ele><time>2026-03-29T10:34:21.681Z</time></trkpt><trkpt lat="47.30210332669998" lon="-1.5468136779978376"><ele>21.8</ele><time>2026-03-29T10:34:22.681Z</time></trkpt><trkpt lat="47.30199918155307" lon="-1.54686656780685"><ele>22.0</ele><time>2026-03-29T10:34:24.681Z</time></trkpt><trkpt lat="47.301909495189136" lon="-1.5469338744893175"><ele>22.0</ele><time>2026-03-29T10:34:26.681Z</time></trkpt><trkpt lat="47.30180769697512" lon="-1.546977879480968"><ele>22.0</ele><time>2026-03-29T10:34:28.681Z</time></trkpt><trkpt lat="47.301754597618526" lon="-1.5470312722041708"><ele>22.0</ele><time>2026-03-29T10:34:29.681Z</time></trkpt><trkpt lat="47.30164207056845" lon="-1.5470812283470734"><ele>22.0</ele><time>2026-03-29T10:34:31.681Z</time></trkpt><trkpt lat="47.30154090099717" lon="-1.5471441764398917"><ele>22.0</ele><time>2026-03-29T10:34:33.681Z</time></trkpt><trkpt lat="47.30143189434642" lon="-1.547208549456249"><ele>22.400000000000002</ele><time>2026-03-29T10:34:35.681Z</time></trkpt><trkpt lat="47.30131919965828" lon="-1.5472603496178492"><ele>22.8</ele><time>2026-03-29T10:34:37.681Z</time></trkpt><trkpt lat="47.30121819772506" lon="-1.5473209507777796"><ele>23.2</ele><time>2026-03-29T10:34:39.681Z</time></trkpt><trkpt lat="47.301120255186504" lon="-1.5473497845246897"><ele>23.6</ele><time>2026-03-29T10:34:41.681Z</time></trkpt><trkpt lat="47.301060156940764" lon="-1.5473873354508982"><ele>24.0</ele><time>2026-03-29T10:34:42.681Z</time></trkpt><trkpt lat="47.30095596988434" lon="-1.5474149119123326"><ele>24.0</ele><time>2026-03-29T10:34:44.681Z</time></trkpt><trkpt lat="47.30089700319553" lon="-1.547471070663582"><ele>24.0</ele><time>2026-03-29T10:34:45.681Z</time></trkpt><trkpt lat="47.30079822246665" lon="-1.5475110523417102"><ele>24.0</ele><time>2026-03-29T10:34:47.681Z</time></trkpt><trkpt lat="47.300701285756475" lon="-1.5475817117854465"><ele>24.0</ele><time>2026-03-29T10:34:49.681Z</time></trkpt><trkpt lat="47.30058662132109" lon="-1.5476226154729236"><ele>24.0</ele><time>2026-03-29T10:34:51.681Z</time></trkpt><trkpt lat="47.30051457886333" lon="-1.547620436178099"><ele>24.4</ele><time>2026-03-29T10:34:52.681Z</time></trkpt><trkpt lat="47.300419108986205" lon="-1.5476674586548913"><ele>24.799999999999997</ele><time>2026-03-29T10:34:54.681Z</time></trkpt><trkpt lat="47.30029778093779" lon="-1.5477164927884448"><ele>25.200000000000003</ele><time>2026-03-29T10:34:56.681Z</time></trkpt><trkpt lat="47.30018504434013" lon="-1.5477578155710807"><ele>25.6</ele><time>2026-03-29T10:34:58.681Z</time></trkpt><trkpt lat="47.30012192860925" lon="-1.5477604977800956"><ele>26.0</ele><time>2026-03-29T10:34:59.681Z</time></trkpt><trkpt lat="47.300014849796234" lon="-1.5478061791523805"><ele>26.0</ele><time>2026-03-29T10:35:01.681Z</time></trkpt><trkpt lat="47.29991715871477" lon="-1.547849597410809"><ele>26.0</ele><time>2026-03-29T10:35:03.681Z</time></trkpt><trkpt lat="47.29981577959591" lon="-1.5479094441994539"><ele>26.0</ele><time>2026-03-29T10:35:05.681Z</time></trkpt><trkpt lat="47.299752580046" lon="-1.5479179099216571"><ele>26.0</ele><time>2026-03-29T10:35:06.681Z</time></trkpt><trkpt lat="47.29968686592513" lon="-1.54794297181214"><ele>26.0</ele><time>2026-03-29T10:35:07.681Z</time></trkpt><trkpt lat="47.2996117221632" lon="-1.5480580553426855"><ele>26.0</ele><time>2026-03-29T10:35:09.681Z</time></trkpt><trkpt lat="47.29948926255786" lon="-1.5480718854829185"><ele>26.0</ele><time>2026-03-29T10:35:11.681Z</time></trkpt><trkpt lat="47.29941776492381" lon="-1.5480921696885936"><ele>26.0</ele><time>2026-03-29T10:35:12.681Z</time></trkpt><trkpt lat="47.299297023608624" lon="-1.5481130406274908"><ele>26.0</ele><time>2026-03-29T10:35:14.681Z</time></trkpt><trkpt lat="47.2991679842093" lon="-1.5481161419316642"><ele>26.0</ele><time>2026-03-29T10:35:16.681Z</time></trkpt><trkpt lat="47.299054996154545" lon="-1.5481684450074547"><ele>26.0</ele><time>2026-03-29T10:35:18.681Z</time></trkpt><trkpt lat="47.298989952585934" lon="-1.5481896512224786"><ele>26.0</ele><time>2026-03-29T10:35:19.681Z</time></trkpt><trkpt lat="47.29891858068043" lon="-1.5481926687076204"><ele>26.0</ele><time>2026-03-29T10:35:20.681Z</time></trkpt><trkpt lat="47.2988579795205" lon="-1.5482178982361667"><ele>26.0</ele><time>2026-03-29T10:35:21.681Z</time></trkpt><trkpt lat="47.298785769424676" lon="-1.5482392720892544"><ele>26.0</ele><time>2026-03-29T10:35:22.681Z</time></trkpt><trkpt lat="47.298704632601975" lon="-1.5482716262354965"><ele>26.0</ele><time>2026-03-29T10:35:23.681Z</time></trkpt><trkpt lat="47.29862923738295" lon="-1.5483004599824066"><ele>26.0</ele><time>2026-03-29T10:35:24.681Z</time></trkpt><trkpt lat="47.29854960930282" lon="-1.5483385138228054"><ele>26.0</ele><time>2026-03-29T10:35:25.681Z</time></trkpt><trkpt lat="47.298485906838714" lon="-1.5483464766308184"><ele>26.0</ele><time>2026-03-29T10:35:26.681Z</time></trkpt><trkpt lat="47.29837174531752" lon="-1.548399282620799"><ele>26.0</ele><time>2026-03-29T10:35:28.681Z</time></trkpt><trkpt lat="47.298302678435384" lon="-1.5484182257219667"><ele>26.0</ele><time>2026-03-29T10:35:29.681Z</time></trkpt><trkpt lat="47.298187343447744" lon="-1.5484137833132858"><ele>26.0</ele><time>2026-03-29T10:35:31.681Z</time></trkpt><trkpt lat="47.29804853913122" lon="-1.5484406054034348"><ele>26.0</ele><time>2026-03-29T10:35:33.681Z</time></trkpt><trkpt lat="47.297966983213364" lon="-1.5484489034875746"><ele>26.0</ele><time>2026-03-29T10:35:34.681Z</time></trkpt><trkpt lat="47.29790168818766" lon="-1.548434654252183"><ele>26.0</ele><time>2026-03-29T10:35:35.681Z</time></trkpt><trkpt lat="47.29783886582339" lon="-1.5483970195069428"><ele>26.0</ele><time>2026-03-29T10:35:36.681Z</time></trkpt><trkpt lat="47.29777118195528" lon="-1.5483961813166256"><ele>26.0</ele><time>2026-03-29T10:35:37.681Z</time></trkpt><trkpt lat="47.29769729547882" lon="-1.548411101104271"><ele>26.0</ele><time>2026-03-29T10:35:38.681Z</time></trkpt><trkpt lat="47.29762839623475" lon="-1.5483967680498476"><ele>26.0</ele><time>2026-03-29T10:35:39.681Z</time></trkpt><trkpt lat="47.297518048479496" lon="-1.5484209917500134"><ele>25.999999999999996</ele><time>2026-03-29T10:35:41.681Z</time></trkpt><trkpt lat="47.29740874846214" lon="-1.548483017833483"><ele>26.0</ele><time>2026-03-29T10:35:43.681Z</time></trkpt><trkpt lat="47.29733117394829" lon="-1.548520736397755"><ele>26.0</ele><time>2026-03-29T10:35:45.681Z</time></trkpt><trkpt lat="47.297256826467155" lon="-1.5485223289593575"><ele>26.0</ele><time>2026-03-29T10:35:48.681Z</time></trkpt><trkpt lat="47.29717627637768" lon="-1.5485764760538456"><ele>25.999999999999996</ele><time>2026-03-29T10:35:52.681Z</time></trkpt><trkpt lat="47.297102725177346" lon="-1.5486065670862315"><ele>26.0</ele><time>2026-03-29T10:35:54.681Z</time></trkpt><trkpt lat="47.297036759599386" lon="-1.5485833492144463"><ele>26.0</ele><time>2026-03-29T10:35:55.681Z</time></trkpt><trkpt lat="47.296934081285535" lon="-1.5485983528211233"><ele>26.0</ele><time>2026-03-29T10:35:57.681Z</time></trkpt><trkpt lat="47.29680374269122" lon="-1.5485729556545136"><ele>26.0</ele><time>2026-03-29T10:35:59.681Z</time></trkpt><trkpt lat="47.29669536468321" lon="-1.5486136917039273"><ele>26.0</ele><time>2026-03-29T10:36:01.681Z</time></trkpt><trkpt lat="47.296593524559675" lon="-1.5486833453192828"><ele>26.0</ele><time>2026-03-29T10:36:03.681Z</time></trkpt><trkpt lat="47.29648229670459" lon="-1.5487084072097657"><ele>26.0</ele><time>2026-03-29T10:36:05.681Z</time></trkpt><trkpt lat="47.29636352513665" lon="-1.5487233269974112"><ele>26.0</ele><time>2026-03-29T10:36:07.681Z</time></trkpt><trkpt lat="47.2962486930632" lon="-1.5487485565259576"><ele>26.0</ele><time>2026-03-29T10:36:09.681Z</time></trkpt><trkpt lat="47.296143919273554" lon="-1.5487794019296288"><ele>27.0</ele><time>2026-03-29T10:36:11.681Z</time></trkpt><trkpt lat="47.29603051212364" lon="-1.5488355606808781"><ele>28.0</ele><time>2026-03-29T10:36:13.681Z</time></trkpt><trkpt lat="47.295927498533665" lon="-1.5488911326989054"><ele>29.0</ele><time>2026-03-29T10:36:15.681Z</time></trkpt><trkpt lat="47.295796866572736" lon="-1.548908064143312"><ele>30.0</ele><time>2026-03-29T10:36:17.681Z</time></trkpt><trkpt lat="47.29573115245187" lon="-1.5489223133787036"><ele>31.0</ele><time>2026-03-29T10:36:18.681Z</time></trkpt><trkpt lat="47.295664851597785" lon="-1.5489241573974013"><ele>31.200000000000003</ele><time>2026-03-29T10:36:19.681Z</time></trkpt><trkpt lat="47.29555161208594" lon="-1.54893044382478"><ele>31.400000000000002</ele><time>2026-03-29T10:36:21.681Z</time></trkpt><trkpt lat="47.29545404673302" lon="-1.5489421784892201"><ele>31.6</ele><time>2026-03-29T10:36:23.681Z</time></trkpt><trkpt lat="47.29534101676875" lon="-1.5489423461272835"><ele>31.8</ele><time>2026-03-29T10:36:25.681Z</time></trkpt><trkpt lat="47.295238506092964" lon="-1.5489627141519906"><ele>32.0</ele><time>2026-03-29T10:36:27.681Z</time></trkpt><trkpt lat="47.29512702678078" lon="-1.5489636361613395"><ele>32.0</ele><time>2026-03-29T10:36:29.681Z</time></trkpt><trkpt lat="47.29502338454807" lon="-1.548965815456164"><ele>32.0</ele><time>2026-03-29T10:36:31.681Z</time></trkpt><trkpt lat="47.29490779810333" lon="-1.5489444416030764"><ele>32.0</ele><time>2026-03-29T10:36:33.681Z</time></trkpt><trkpt lat="47.29479711507195" lon="-1.5489265043302893"><ele>32.0</ele><time>2026-03-29T10:36:35.681Z</time></trkpt><trkpt lat="47.29469829243356" lon="-1.5489346347763657"><ele>32.0</ele><time>2026-03-29T10:36:37.681Z</time></trkpt><trkpt lat="47.294613844759105" lon="-1.548926001416099"><ele>32.2</ele><time>2026-03-29T10:36:39.681Z</time></trkpt><trkpt lat="47.29452235628599" lon="-1.5489281807109236"><ele>32.400000000000006</ele><time>2026-03-29T10:36:41.681Z</time></trkpt><trkpt lat="47.29442336600953" lon="-1.5489306114628434"><ele>32.599999999999994</ele><time>2026-03-29T10:36:43.681Z</time></trkpt><trkpt lat="47.29433648758316" lon="-1.5489356406047463"><ele>32.8</ele><time>2026-03-29T10:36:45.681Z</time></trkpt><trkpt lat="47.29424768131906" lon="-1.5489330422147631"><ele>33.0</ele><time>2026-03-29T10:36:47.681Z</time></trkpt><trkpt lat="47.29415434882724" lon="-1.5489467885359645"><ele>33.0</ele><time>2026-03-29T10:36:49.681Z</time></trkpt><trkpt lat="47.29405259252274" lon="-1.5489332936718583"><ele>33.0</ele><time>2026-03-29T10:36:51.681Z</time></trkpt><trkpt lat="47.29395573963159" lon="-1.548919547350657"><ele>33.0</ele><time>2026-03-29T10:36:53.681Z</time></trkpt><trkpt lat="47.29385830000722" lon="-1.5489249117686867"><ele>33.0</ele><time>2026-03-29T10:36:55.681Z</time></trkpt><trkpt lat="47.29375340048903" lon="-1.5489185415222764"><ele>33.0</ele><time>2026-03-29T10:36:57.681Z</time></trkpt><trkpt lat="47.293652482374846" lon="-1.5489130932852149"><ele>32.6</ele><time>2026-03-29T10:36:59.681Z</time></trkpt><trkpt lat="47.29355743159288" lon="-1.5489250794067502"><ele>32.199999999999996</ele><time>2026-03-29T10:37:01.681Z</time></trkpt><trkpt lat="47.29347721677953" lon="-1.549009149895561"><ele>31.8</ele><time>2026-03-29T10:37:03.681Z</time></trkpt><trkpt lat="47.293398636437296" lon="-1.5491056256010654"><ele>31.4</ele><time>2026-03-29T10:37:05.681Z</time></trkpt><trkpt lat="47.29331741579556" lon="-1.5491886902614955"><ele>31.0</ele><time>2026-03-29T10:37:07.681Z</time></trkpt><trkpt lat="47.29319747076118" lon="-1.549182906748307"><ele>30.6</ele><time>2026-03-29T10:37:09.681Z</time></trkpt><trkpt lat="47.29308473416352" lon="-1.549215931446803"><ele>30.200000000000003</ele><time>2026-03-29T10:37:11.681Z</time></trkpt><trkpt lat="47.292969776361524" lon="-1.549206208439124"><ele>29.799999999999997</ele><time>2026-03-29T10:37:13.681Z</time></trkpt><trkpt lat="47.29290230204099" lon="-1.5491896960898761"><ele>29.4</ele><time>2026-03-29T10:37:14.681Z</time></trkpt><trkpt lat="47.29283696510577" lon="-1.5491762850448014"><ele>29.0</ele><time>2026-03-29T10:37:15.681Z</time></trkpt><trkpt lat="47.292707841887406" lon="-1.5491676516845347"><ele>28.999999999999996</ele><time>2026-03-29T10:37:17.681Z</time></trkpt><trkpt lat="47.29263579942965" lon="-1.549169076608074"><ele>29.0</ele><time>2026-03-29T10:37:18.681Z</time></trkpt><trkpt lat="47.29256132621997" lon="-1.54918257147218"><ele>29.0</ele><time>2026-03-29T10:37:19.681Z</time></trkpt><trkpt lat="47.29247671090745" lon="-1.5491964016124133"><ele>29.0</ele><time>2026-03-29T10:37:20.681Z</time></trkpt><trkpt lat="47.29240894322031" lon="-1.5491867624237659"><ele>28.999999999999996</ele><time>2026-03-29T10:37:21.681Z</time></trkpt><trkpt lat="47.292296080894104" lon="-1.549140745775354"><ele>29.0</ele><time>2026-03-29T10:37:23.681Z</time></trkpt><trkpt lat="47.2922384553098" lon="-1.5490996744498136"><ele>28.666666666666664</ele><time>2026-03-29T10:37:24.681Z</time></trkpt><trkpt lat="47.292157779491774" lon="-1.5490914601847054"><ele>28.333333333333332</ele><time>2026-03-29T10:37:25.681Z</time></trkpt><trkpt lat="47.29208976034754" lon="-1.5491123311236026"><ele>28.0</ele><time>2026-03-29T10:37:26.681Z</time></trkpt><trkpt lat="47.29201608341866" lon="-1.549106882886541"><ele>27.666666666666664</ele><time>2026-03-29T10:37:27.681Z</time></trkpt><trkpt lat="47.291938634633354" lon="-1.5490981657072427"><ele>27.333333333333332</ele><time>2026-03-29T10:37:28.681Z</time></trkpt><trkpt lat="47.29185276203536" lon="-1.5491293463870408"><ele>27.0</ele><time>2026-03-29T10:37:29.681Z</time></trkpt><trkpt lat="47.291770577474765" lon="-1.5491377282902123"><ele>27.0</ele><time>2026-03-29T10:37:30.681Z</time></trkpt><trkpt lat="47.291692374318174" lon="-1.5491349622621657"><ele>27.0</ele><time>2026-03-29T10:37:31.681Z</time></trkpt><trkpt lat="47.291613542518846" lon="-1.5491323638721826"><ele>27.0</ele><time>2026-03-29T10:37:32.681Z</time></trkpt><trkpt lat="47.291526328816346" lon="-1.5491246525212647"><ele>27.0</ele><time>2026-03-29T10:37:33.681Z</time></trkpt><trkpt lat="47.29143995330416" lon="-1.5491139236852052"><ele>27.0</ele><time>2026-03-29T10:37:34.681Z</time></trkpt><trkpt lat="47.291346536993316" lon="-1.5491150971516492"><ele>27.0</ele><time>2026-03-29T10:37:35.681Z</time></trkpt><trkpt lat="47.29128316980534" lon="-1.549112498761666"><ele>27.166666666666668</ele><time>2026-03-29T10:37:36.681Z</time></trkpt><trkpt lat="47.29120974433356" lon="-1.5491238981499793"><ele>27.333333333333336</ele><time>2026-03-29T10:37:37.681Z</time></trkpt><trkpt lat="47.291108700490824" lon="-1.549132531510246"><ele>27.5</ele><time>2026-03-29T10:37:38.681Z</time></trkpt><trkpt lat="47.29101721201771" lon="-1.5491296816631677"><ele>27.666666666666668</ele><time>2026-03-29T10:37:39.681Z</time></trkpt><trkpt lat="47.29093465027147" lon="-1.549125490711582"><ele>27.833333333333336</ele><time>2026-03-29T10:37:40.681Z</time></trkpt><trkpt lat="47.29085217234426" lon="-1.5491339564337852"><ele>28.0</ele><time>2026-03-29T10:37:41.681Z</time></trkpt><trkpt lat="47.29077233471655" lon="-1.5491250716164233"><ele>28.000000000000004</ele><time>2026-03-29T10:37:42.681Z</time></trkpt><trkpt lat="47.2906884318658" lon="-1.5491353813573243"><ele>28.0</ele><time>2026-03-29T10:37:43.681Z</time></trkpt><trkpt lat="47.2906046547436" lon="-1.5491563361152532"><ele>28.0</ele><time>2026-03-29T10:37:44.681Z</time></trkpt><trkpt lat="47.2904754057967" lon="-1.5491813141867044"><ele>28.0</ele><time>2026-03-29T10:37:46.681Z</time></trkpt><trkpt lat="47.2903940175169" lon="-1.5491660591229321"><ele>28.000000000000004</ele><time>2026-03-29T10:37:47.681Z</time></trkpt><trkpt lat="47.290335511832765" lon="-1.5492041129633312"><ele>28.0</ele><time>2026-03-29T10:37:48.681Z</time></trkpt><trkpt lat="47.290315395265154" lon="-1.5493209566935424"><ele>27.4</ele><time>2026-03-29T10:37:50.681Z</time></trkpt><trkpt lat="47.290219171016744" lon="-1.5493475273265962"><ele>26.799999999999997</ele><time>2026-03-29T10:37:52.681Z</time></trkpt><trkpt lat="47.29008837141775" lon="-1.54939413070823"><ele>26.2</ele><time>2026-03-29T10:37:54.681Z</time></trkpt><trkpt lat="47.29001972363078" lon="-1.5494356211289293"><ele>25.6</ele><time>2026-03-29T10:37:55.681Z</time></trkpt><trkpt lat="47.289952165491215" lon="-1.5494443383082277"><ele>25.0</ele><time>2026-03-29T10:37:56.681Z</time></trkpt><trkpt lat="47.28982878387653" lon="-1.5494297537967092"><ele>25.6</ele><time>2026-03-29T10:37:58.681Z</time></trkpt><trkpt lat="47.28972090878271" lon="-1.5493818093105678"><ele>26.2</ele><time>2026-03-29T10:38:00.681Z</time></trkpt><trkpt lat="47.28962342724883" lon="-1.5493473596885328"><ele>26.799999999999997</ele><time>2026-03-29T10:38:02.681Z</time></trkpt><trkpt lat="47.289524101696244" lon="-1.549326069654477"><ele>27.4</ele><time>2026-03-29T10:38:04.681Z</time></trkpt><trkpt lat="47.289414927407435" lon="-1.549289859832776"><ele>28.0</ele><time>2026-03-29T10:38:06.681Z</time></trkpt><trkpt lat="47.28929820940577" lon="-1.5492926258608226"><ele>28.0</ele><time>2026-03-29T10:38:08.681Z</time></trkpt><trkpt lat="47.2892369796031" lon="-1.5493142511710052"><ele>27.999999999999996</ele><time>2026-03-29T10:38:09.681Z</time></trkpt><trkpt lat="47.28912277617239" lon="-1.5493316017105703"><ele>27.999999999999996</ele><time>2026-03-29T10:38:11.681Z</time></trkpt><trkpt lat="47.28901724801146" lon="-1.5493463538601522"><ele>28.0</ele><time>2026-03-29T10:38:13.681Z</time></trkpt><trkpt lat="47.28892135903918" lon="-1.549359094352973"><ele>28.0</ele><time>2026-03-29T10:38:15.681Z</time></trkpt><trkpt lat="47.28881268766456" lon="-1.5493733435883645"><ele>27.599999999999998</ele><time>2026-03-29T10:38:17.681Z</time></trkpt><trkpt lat="47.28869320363485" lon="-1.5493925381466274"><ele>27.199999999999996</ele><time>2026-03-29T10:38:19.681Z</time></trkpt><trkpt lat="47.28857472543352" lon="-1.5493884310140733"><ele>26.8</ele><time>2026-03-29T10:38:21.681Z</time></trkpt><trkpt lat="47.28850326970898" lon="-1.5494054462775115"><ele>26.4</ele><time>2026-03-29T10:38:22.681Z</time></trkpt><trkpt lat="47.28843139488929" lon="-1.5494060330107335"><ele>26.0</ele><time>2026-03-29T10:38:23.681Z</time></trkpt><trkpt lat="47.28831932884388" lon="-1.5494572464391119"><ele>26.0</ele><time>2026-03-29T10:38:25.681Z</time></trkpt><trkpt lat="47.28820252702319" lon="-1.5495015028878576"><ele>26.0</ele><time>2026-03-29T10:38:27.681Z</time></trkpt><trkpt lat="47.288138112097315" lon="-1.5495149977519638"><ele>26.0</ele><time>2026-03-29T10:38:28.681Z</time></trkpt><trkpt lat="47.28803270966493" lon="-1.5495604276671535"><ele>26.0</ele><time>2026-03-29T10:38:30.681Z</time></trkpt><trkpt lat="47.28796720509165" lon="-1.5495595056578046"><ele>26.0</ele><time>2026-03-29T10:38:31.681Z</time></trkpt><trkpt lat="47.28784667332404" lon="-1.5496021695449478"><ele>26.0</ele><time>2026-03-29T10:38:33.681Z</time></trkpt><trkpt lat="47.287706988907686" lon="-1.5495825558915264"><ele>26.0</ele><time>2026-03-29T10:38:35.681Z</time></trkpt><trkpt lat="47.28760007773273" lon="-1.5496066119536287"><ele>26.0</ele><time>2026-03-29T10:38:37.681Z</time></trkpt><trkpt lat="47.2874887241491" lon="-1.5496422350421077"><ele>26.0</ele><time>2026-03-29T10:38:39.681Z</time></trkpt><trkpt lat="47.28741282601588" lon="-1.5496342722340948"><ele>26.0</ele><time>2026-03-29T10:38:40.681Z</time></trkpt><trkpt lat="47.287340867377154" lon="-1.549633014948619"><ele>25.8</ele><time>2026-03-29T10:38:41.681Z</time></trkpt><trkpt lat="47.28722272445195" lon="-1.549625052140606"><ele>25.6</ele><time>2026-03-29T10:38:43.681Z</time></trkpt><trkpt lat="47.28712025568568" lon="-1.5496520418688184"><ele>25.4</ele><time>2026-03-29T10:38:45.681Z</time></trkpt><trkpt lat="47.28705349382692" lon="-1.5496476832791692"><ele>25.2</ele><time>2026-03-29T10:38:46.681Z</time></trkpt><trkpt lat="47.28692822628402" lon="-1.549673415721906"><ele>25.0</ele><time>2026-03-29T10:38:48.681Z</time></trkpt><trkpt lat="47.28686414663427" lon="-1.5496838931008705"><ele>25.000000000000004</ele><time>2026-03-29T10:38:49.681Z</time></trkpt><trkpt lat="47.28680233009838" lon="-1.5497128106668123"><ele>25.0</ele><time>2026-03-29T10:38:50.681Z</time></trkpt><trkpt lat="47.286732299297384" lon="-1.5497088711723217"><ele>25.0</ele><time>2026-03-29T10:38:51.681Z</time></trkpt><trkpt lat="47.28665577252143" lon="-1.549737956376327"><ele>25.0</ele><time>2026-03-29T10:38:52.681Z</time></trkpt><trkpt lat="47.28656256575816" lon="-1.5496989805265793"><ele>25.000000000000004</ele><time>2026-03-29T10:38:53.681Z</time></trkpt><trkpt lat="47.28647141256117" lon="-1.5496939513846764"><ele>25.0</ele><time>2026-03-29T10:38:54.681Z</time></trkpt><trkpt lat="47.28639119774782" lon="-1.5496956277653107"><ele>25.2</ele><time>2026-03-29T10:38:55.681Z</time></trkpt><trkpt lat="47.28627137844198" lon="-1.5497540496304163"><ele>25.4</ele><time>2026-03-29T10:38:57.681Z</time></trkpt><trkpt lat="47.28616870012813" lon="-1.5497767645880112"><ele>25.6</ele><time>2026-03-29T10:38:59.681Z</time></trkpt><trkpt lat="47.28605323941194" lon="-1.5497826319202312"><ele>25.8</ele><time>2026-03-29T10:39:01.681Z</time></trkpt><trkpt lat="47.285990375138155" lon="-1.549796545879496"><ele>26.0</ele><time>2026-03-29T10:39:02.681Z</time></trkpt><trkpt lat="47.285923194184235" lon="-1.5498737432077059"><ele>25.999999999999996</ele><time>2026-03-29T10:39:04.681Z</time></trkpt><trkpt lat="47.28585685142063" lon="-1.5499216038748156"><ele>26.0</ele><time>2026-03-29T10:39:07.681Z</time></trkpt><trkpt lat="47.28581821084701" lon="-1.5500345081105362"><ele>26.0</ele><time>2026-03-29T10:39:10.681Z</time></trkpt><trkpt lat="47.28574528828942" lon="-1.5500934328898321"><ele>26.0</ele><time>2026-03-29T10:39:13.681Z</time></trkpt><trkpt lat="47.28567852643066" lon="-1.5501251164838206"><ele>25.999999999999996</ele><time>2026-03-29T10:39:15.681Z</time></trkpt><trkpt lat="47.28560715452515" lon="-1.550188651309861"><ele>26.0</ele><time>2026-03-29T10:39:17.681Z</time></trkpt><trkpt lat="47.28551792916589" lon="-1.5502203349038495"><ele>26.200000000000003</ele><time>2026-03-29T10:39:19.681Z</time></trkpt><trkpt lat="47.28543884590947" lon="-1.5502058342113627"><ele>26.400000000000002</ele><time>2026-03-29T10:39:21.681Z</time></trkpt><trkpt lat="47.28534790226006" lon="-1.5501175727709662"><ele>26.6</ele><time>2026-03-29T10:39:23.681Z</time></trkpt><trkpt lat="47.285276488445035" lon="-1.5500224381699692"><ele>26.8</ele><time>2026-03-29T10:39:25.681Z</time></trkpt><trkpt lat="47.285190699666074" lon="-1.549933254720224"><ele>27.0</ele><time>2026-03-29T10:39:27.681Z</time></trkpt><trkpt lat="47.285080142363235" lon="-1.549880197273148"><ele>27.0</ele><time>2026-03-29T10:39:29.681Z</time></trkpt><trkpt lat="47.28501430251382" lon="-1.549857482315553"><ele>27.000000000000004</ele><time>2026-03-29T10:39:30.681Z</time></trkpt><trkpt lat="47.284905714958235" lon="-1.5498549677446016"><ele>27.000000000000004</ele><time>2026-03-29T10:39:32.681Z</time></trkpt><trkpt lat="47.28478266861968" lon="-1.5498508606120476"><ele>27.0</ele><time>2026-03-29T10:39:34.681Z</time></trkpt><trkpt lat="47.28466335222803" lon="-1.549854297192348"><ele>27.0</ele><time>2026-03-29T10:39:36.681Z</time></trkpt><trkpt lat="47.28456457149915" lon="-1.549871647731913"><ele>27.200000000000003</ele><time>2026-03-29T10:39:38.681Z</time></trkpt><trkpt lat="47.28446365338497" lon="-1.5498951170607933"><ele>27.400000000000002</ele><time>2026-03-29T10:39:40.681Z</time></trkpt><trkpt lat="47.2843971429833" lon="-1.5498821251108774"><ele>27.599999999999998</ele><time>2026-03-29T10:39:41.681Z</time></trkpt><trkpt lat="47.28428788487546" lon="-1.5498853102340826"><ele>27.799999999999997</ele><time>2026-03-29T10:39:43.681Z</time></trkpt><trkpt lat="47.284219656183645" lon="-1.5498617570861706"><ele>28.0</ele><time>2026-03-29T10:39:44.681Z</time></trkpt><trkpt lat="47.28411467284642" lon="-1.5498828794821629"><ele>28.0</ele><time>2026-03-29T10:39:46.681Z</time></trkpt><trkpt lat="47.284050090282484" lon="-1.549866031856788"><ele>27.999999999999996</ele><time>2026-03-29T10:39:47.681Z</time></trkpt><trkpt lat="47.28398328651421" lon="-1.5498573984965214"><ele>27.999999999999996</ele><time>2026-03-29T10:39:48.681Z</time></trkpt><trkpt lat="47.28387046609752" lon="-1.5498575661345848"><ele>28.0</ele><time>2026-03-29T10:39:50.681Z</time></trkpt><trkpt lat="47.28376124989919" lon="-1.5498411376043686"><ele>28.0</ele><time>2026-03-29T10:39:52.681Z</time></trkpt><trkpt lat="47.28364733983509" lon="-1.5498291514828333"><ele>28.25</ele><time>2026-03-29T10:39:54.681Z</time></trkpt><trkpt lat="47.28353787217967" lon="-1.549817165361298"><ele>28.5</ele><time>2026-03-29T10:39:56.681Z</time></trkpt><trkpt lat="47.28342161518268" lon="-1.5498046763255724"><ele>28.75</ele><time>2026-03-29T10:39:58.681Z</time></trkpt><trkpt lat="47.28329651527785" lon="-1.5497957076891788"><ele>29.0</ele><time>2026-03-29T10:40:00.681Z</time></trkpt><trkpt lat="47.28318243757568" lon="-1.549798306079162"><ele>29.0</ele><time>2026-03-29T10:40:02.681Z</time></trkpt><trkpt lat="47.28306773123078" lon="-1.5498335938915142"><ele>29.0</ele><time>2026-03-29T10:40:04.681Z</time></trkpt><trkpt lat="47.28300214283846" lon="-1.5498505253359207"><ele>29.0</ele><time>2026-03-29T10:40:05.681Z</time></trkpt><trkpt lat="47.28291735988788" lon="-1.5498911775663027"><ele>29.0</ele><time>2026-03-29T10:40:07.681Z</time></trkpt><trkpt lat="47.28282654196702" lon="-1.5498553868397602"><ele>29.0</ele><time>2026-03-29T10:40:09.681Z</time></trkpt><trkpt lat="47.28272709068589" lon="-1.549789169804705"><ele>29.0</ele><time>2026-03-29T10:40:11.681Z</time></trkpt><trkpt lat="47.28262043096803" lon="-1.5497569832965263"><ele>29.0</ele><time>2026-03-29T10:40:13.681Z</time></trkpt><trkpt lat="47.28255723141812" lon="-1.5497372858240732"><ele>29.0</ele><time>2026-03-29T10:40:14.681Z</time></trkpt><trkpt lat="47.282494828149005" lon="-1.549722617493523"><ele>29.0</ele><time>2026-03-29T10:40:15.681Z</time></trkpt><trkpt lat="47.28239034772597" lon="-1.5496988967075476"><ele>29.0</ele><time>2026-03-29T10:40:17.681Z</time></trkpt><trkpt lat="47.28228050288491" lon="-1.5496910177185663"><ele>28.833333333333332</ele><time>2026-03-29T10:40:19.681Z</time></trkpt><trkpt lat="47.28216453925453" lon="-1.5496683027609715"><ele>28.666666666666664</ele><time>2026-03-29T10:40:21.681Z</time></trkpt><trkpt lat="47.282038726887926" lon="-1.549654221163643"><ele>28.5</ele><time>2026-03-29T10:40:23.682Z</time></trkpt><trkpt lat="47.281971965029165" lon="-1.5496350266053802"><ele>28.333333333333336</ele><time>2026-03-29T10:40:24.682Z</time></trkpt><trkpt lat="47.28190432307057" lon="-1.5496239624931938"><ele>28.166666666666668</ele><time>2026-03-29T10:40:25.682Z</time></trkpt><trkpt lat="47.281837393573745" lon="-1.5496128145619756"><ele>28.0</ele><time>2026-03-29T10:40:26.682Z</time></trkpt><trkpt lat="47.28176128589295" lon="-1.5495947934701568"><ele>28.0</ele><time>2026-03-29T10:40:27.682Z</time></trkpt><trkpt lat="47.2816929733821" lon="-1.549583561719907"><ele>28.0</ele><time>2026-03-29T10:40:28.682Z</time></trkpt><trkpt lat="47.28162076328628" lon="-1.54956855811323"><ele>28.0</ele><time>2026-03-29T10:40:29.682Z</time></trkpt><trkpt lat="47.28154821791433" lon="-1.5495531354113943"><ele>28.0</ele><time>2026-03-29T10:40:30.682Z</time></trkpt><trkpt lat="47.2814720264145" lon="-1.549535533414734"><ele>28.0</ele><time>2026-03-29T10:40:31.682Z</time></trkpt><trkpt lat="47.28140166033737" lon="-1.5495118964477903"><ele>28.0</ele><time>2026-03-29T10:40:32.682Z</time></trkpt><trkpt lat="47.28133003697477" lon="-1.5494885109379417"><ele>28.0</ele><time>2026-03-29T10:40:33.682Z</time></trkpt><trkpt lat="47.281259880445226" lon="-1.5494562406107313"><ele>27.666666666666668</ele><time>2026-03-29T10:40:34.682Z</time></trkpt><trkpt lat="47.281183814673945" lon="-1.5494358725860244"><ele>27.333333333333336</ele><time>2026-03-29T10:40:35.682Z</time></trkpt><trkpt lat="47.281104899055585" lon="-1.5494016744210843"><ele>27.0</ele><time>2026-03-29T10:40:36.682Z</time></trkpt><trkpt lat="47.28101299148731" lon="-1.5493652969613199"><ele>26.666666666666664</ele><time>2026-03-29T10:40:37.682Z</time></trkpt><trkpt lat="47.28089581248097" lon="-1.5493296738728408"><ele>26.333333333333332</ele><time>2026-03-29T10:40:39.682Z</time></trkpt><trkpt lat="47.28082682941787" lon="-1.5493030194207553"><ele>26.0</ele><time>2026-03-29T10:40:40.682Z</time></trkpt><trkpt lat="47.2807579301738" lon="-1.549286339433444"><ele>25.999999999999996</ele><time>2026-03-29T10:40:41.682Z</time></trkpt><trkpt lat="47.28069141977213" lon="-1.5492575895055656"><ele>26.0</ele><time>2026-03-29T10:40:42.682Z</time></trkpt><trkpt lat="47.28061149832539" lon="-1.5492492914214258"><ele>26.0</ele><time>2026-03-29T10:40:43.682Z</time></trkpt><trkpt lat="47.28049519941889" lon="-1.5492564998581533"><ele>26.0</ele><time>2026-03-29T10:40:45.682Z</time></trkpt><trkpt lat="47.28042215113275" lon="-1.5492331143483047"><ele>25.999999999999996</ele><time>2026-03-29T10:40:46.682Z</time></trkpt><trkpt lat="47.280343528881" lon="-1.5491881035282735"><ele>26.0</ele><time>2026-03-29T10:40:47.682Z</time></trkpt><trkpt lat="47.280271109237596" lon="-1.5491633769139173"><ele>25.8</ele><time>2026-03-29T10:40:48.682Z</time></trkpt><trkpt lat="47.28015338540755" lon="-1.5491426736130836"><ele>25.6</ele><time>2026-03-29T10:40:50.682Z</time></trkpt><trkpt lat="47.28008549199186" lon="-1.549114007504237"><ele>25.4</ele><time>2026-03-29T10:40:51.682Z</time></trkpt><trkpt lat="47.28002128661357" lon="-1.549092801289213"><ele>25.2</ele><time>2026-03-29T10:40:52.682Z</time></trkpt><trkpt lat="47.279898910827264" lon="-1.549048880116594"><ele>25.0</ele><time>2026-03-29T10:40:54.682Z</time></trkpt><trkpt lat="47.279782653830274" lon="-1.549024153502238"><ele>25.666666666666668</ele><time>2026-03-29T10:40:56.682Z</time></trkpt><trkpt lat="47.27971601770006" lon="-1.5490123350187661"><ele>26.333333333333336</ele><time>2026-03-29T10:40:57.682Z</time></trkpt><trkpt lat="47.279652231416925" lon="-1.5489863511189343"><ele>27.0</ele><time>2026-03-29T10:40:58.682Z</time></trkpt><trkpt lat="47.27954213511877" lon="-1.548962881790054"><ele>27.666666666666664</ele><time>2026-03-29T10:41:00.682Z</time></trkpt><trkpt lat="47.27943488866769" lon="-1.548938658089888"><ele>28.333333333333332</ele><time>2026-03-29T10:41:02.682Z</time></trkpt><trkpt lat="47.279371689117774" lon="-1.548921307550323"><ele>29.0</ele><time>2026-03-29T10:41:03.682Z</time></trkpt><trkpt lat="47.279258659153506" lon="-1.5488912165179372"><ele>29.0</ele><time>2026-03-29T10:41:05.682Z</time></trkpt><trkpt lat="47.27915149652146" lon="-1.5488682501032471"><ele>29.0</ele><time>2026-03-29T10:41:07.682Z</time></trkpt><trkpt lat="47.27907266472213" lon="-1.548878895120275"><ele>29.0</ele><time>2026-03-29T10:41:09.682Z</time></trkpt><trkpt lat="47.278961520686074" lon="-1.548818210141313"><ele>29.0</ele><time>2026-03-29T10:41:11.682Z</time></trkpt><trkpt lat="47.27887175050311" lon="-1.5488095767810464"><ele>29.0</ele><time>2026-03-29T10:41:13.682Z</time></trkpt><trkpt lat="47.27876349822365" lon="-1.5487538371249556"><ele>29.4</ele><time>2026-03-29T10:41:15.682Z</time></trkpt><trkpt lat="47.27868072692983" lon="-1.5487376600518346"><ele>29.799999999999997</ele><time>2026-03-29T10:41:17.682Z</time></trkpt><trkpt lat="47.27859250739895" lon="-1.5487196389600157"><ele>30.200000000000003</ele><time>2026-03-29T10:41:19.682Z</time></trkpt><trkpt lat="47.27849242747508" lon="-1.5486605465426562"><ele>30.6</ele><time>2026-03-29T10:41:21.682Z</time></trkpt><trkpt lat="47.278404459401294" lon="-1.5486381668611882"><ele>31.0</ele><time>2026-03-29T10:41:23.682Z</time></trkpt><trkpt lat="47.27832206529312" lon="-1.5486043877914069"><ele>31.0</ele><time>2026-03-29T10:41:25.682Z</time></trkpt><trkpt lat="47.2782488074594" lon="-1.5486012026682017"><ele>31.0</ele><time>2026-03-29T10:41:27.682Z</time></trkpt><trkpt lat="47.27814227347009" lon="-1.5485573653146145"><ele>31.0</ele><time>2026-03-29T10:41:29.682Z</time></trkpt><trkpt lat="47.278047516054734" lon="-1.5485529229059336"><ele>31.0</ele><time>2026-03-29T10:41:31.682Z</time></trkpt><trkpt lat="47.27795460265808" lon="-1.5485134441419957"><ele>31.0</ele><time>2026-03-29T10:41:33.682Z</time></trkpt><trkpt lat="47.27784559600733" lon="-1.5484436228885765"><ele>32.0</ele><time>2026-03-29T10:41:35.682Z</time></trkpt><trkpt lat="47.277770577973946" lon="-1.5484575368478413"><ele>33.0</ele><time>2026-03-29T10:41:37.682Z</time></trkpt><trkpt lat="47.27768633984707" lon="-1.548420237378728"><ele>34.0</ele><time>2026-03-29T10:41:39.682Z</time></trkpt><trkpt lat="47.27759988051586" lon="-1.5483873803182955"><ele>35.0</ele><time>2026-03-29T10:41:41.682Z</time></trkpt><trkpt lat="47.27751459465109" lon="-1.5483756456538553"><ele>36.0</ele><time>2026-03-29T10:41:43.682Z</time></trkpt><trkpt lat="47.277422770901836" lon="-1.5483569540097828"><ele>37.0</ele><time>2026-03-29T10:41:45.682Z</time></trkpt><trkpt lat="47.277335557199336" lon="-1.5483244322254772"><ele>37.4</ele><time>2026-03-29T10:41:47.682Z</time></trkpt><trkpt lat="47.27723836903206" lon="-1.5482986997827406"><ele>37.800000000000004</ele><time>2026-03-29T10:41:49.682Z</time></trkpt><trkpt lat="47.27714763493023" lon="-1.548262070865881"><ele>38.2</ele><time>2026-03-29T10:41:51.682Z</time></trkpt><trkpt lat="47.277061175599016" lon="-1.548244971783411"><ele>38.6</ele><time>2026-03-29T10:41:53.682Z</time></trkpt><trkpt lat="47.27696754974059" lon="-1.548228710891258"><ele>39.0</ele><time>2026-03-29T10:41:55.682Z</time></trkpt><trkpt lat="47.27688276679001" lon="-1.5482141263797395"><ele>39.0</ele><time>2026-03-29T10:41:57.682Z</time></trkpt><trkpt lat="47.276778705462135" lon="-1.5481767430915945"><ele>39.0</ele><time>2026-03-29T10:41:59.682Z</time></trkpt><trkpt lat="47.27668424141339" lon="-1.5481555368765705"><ele>39.0</ele><time>2026-03-29T10:42:01.682Z</time></trkpt><trkpt lat="47.2765785456144" lon="-1.5481262840345018"><ele>39.0</ele><time>2026-03-29T10:42:03.682Z</time></trkpt><trkpt lat="47.27649719924412" lon="-1.5481433831169717"><ele>39.0</ele><time>2026-03-29T10:42:05.682Z</time></trkpt><trkpt lat="47.2764160205119" lon="-1.5482091810568683"><ele>38.8</ele><time>2026-03-29T10:42:07.682Z</time></trkpt><trkpt lat="47.276338194540955" lon="-1.5482596401139612"><ele>38.599999999999994</ele><time>2026-03-29T10:42:09.682Z</time></trkpt><trkpt lat="47.27625588425181" lon="-1.5482945926501865"><ele>38.4</ele><time>2026-03-29T10:42:11.682Z</time></trkpt><trkpt lat="47.27615458895198" lon="-1.5483061596765633"><ele>38.199999999999996</ele><time>2026-03-29T10:42:13.682Z</time></trkpt><trkpt lat="47.27605061144314" lon="-1.548270285130989"><ele>38.0</ele><time>2026-03-29T10:42:15.682Z</time></trkpt><trkpt lat="47.27596088316969" lon="-1.548212533818137"><ele>38.0</ele><time>2026-03-29T10:42:17.682Z</time></trkpt><trkpt lat="47.275913064412094" lon="-1.5481046587243192"><ele>38.0</ele><time>2026-03-29T10:42:19.682Z</time></trkpt><trkpt lat="47.27586847268722" lon="-1.547988317908298"><ele>38.0</ele><time>2026-03-29T10:42:21.682Z</time></trkpt><trkpt lat="47.27579777133397" lon="-1.5479124616845956"><ele>38.0</ele><time>2026-03-29T10:42:23.682Z</time></trkpt><trkpt lat="47.2757177660682" lon="-1.5478059276952854"><ele>38.0</ele><time>2026-03-29T10:42:25.682Z</time></trkpt><trkpt lat="47.275623511567034" lon="-1.5477670356645694"><ele>38.0</ele><time>2026-03-29T10:42:27.682Z</time></trkpt><trkpt lat="47.275517354763366" lon="-1.5477234497680772"><ele>38.0</ele><time>2026-03-29T10:42:29.682Z</time></trkpt><trkpt lat="47.27540956348858" lon="-1.5476605854942906"><ele>38.0</ele><time>2026-03-29T10:42:31.682Z</time></trkpt><trkpt lat="47.27528278720311" lon="-1.547628985719334"><ele>38.0</ele><time>2026-03-29T10:42:33.682Z</time></trkpt><trkpt lat="47.27516774558208" lon="-1.5475978050395358"><ele>38.0</ele><time>2026-03-29T10:42:35.682Z</time></trkpt><trkpt lat="47.275102241008796" lon="-1.5475778561099875"><ele>38.0</ele><time>2026-03-29T10:42:36.682Z</time></trkpt><trkpt lat="47.275034347593106" lon="-1.5475558117046464"><ele>38.0</ele><time>2026-03-29T10:42:37.682Z</time></trkpt><trkpt lat="47.27496662181548" lon="-1.5475333482041467"><ele>38.0</ele><time>2026-03-29T10:42:38.682Z</time></trkpt><trkpt lat="47.27489784829996" lon="-1.547524128110658"><ele>38.0</ele><time>2026-03-29T10:42:39.682Z</time></trkpt><trkpt lat="47.27476667151532" lon="-1.547519098968755"><ele>38.0</ele><time>2026-03-29T10:42:41.682Z</time></trkpt><trkpt lat="47.27470024493269" lon="-1.5475255530341971"><ele>37.33333333333333</ele><time>2026-03-29T10:42:42.682Z</time></trkpt><trkpt lat="47.27463335734538" lon="-1.547522619368087"><ele>36.666666666666664</ele><time>2026-03-29T10:42:43.682Z</time></trkpt><trkpt lat="47.27451609452001" lon="-1.5475366171463836"><ele>36.0</ele><time>2026-03-29T10:42:45.682Z</time></trkpt><trkpt lat="47.27445314642719" lon="-1.5476050134762633"><ele>35.333333333333336</ele><time>2026-03-29T10:42:47.682Z</time></trkpt><trkpt lat="47.27438081060282" lon="-1.547665782274257"><ele>34.66666666666667</ele><time>2026-03-29T10:42:49.682Z</time></trkpt><trkpt lat="47.27430059578947" lon="-1.5477587375804296"><ele>34.0</ele><time>2026-03-29T10:42:51.682Z</time></trkpt><trkpt lat="47.274205125912346" lon="-1.5477894991650691"><ele>34.0</ele><time>2026-03-29T10:42:53.682Z</time></trkpt><trkpt lat="47.27412759330801" lon="-1.547778937967073"><ele>34.0</ele><time>2026-03-29T10:42:55.682Z</time></trkpt><trkpt lat="47.2740485519611" lon="-1.547720851378094"><ele>34.0</ele><time>2026-03-29T10:42:59.682Z</time></trkpt><trkpt lat="47.27397378538481" lon="-1.5476524550482142"><ele>34.0</ele><time>2026-03-29T10:43:01.682Z</time></trkpt><trkpt lat="47.27388686504892" lon="-1.5475921891644109"><ele>34.0</ele><time>2026-03-29T10:43:03.682Z</time></trkpt><trkpt lat="47.2738291975551" lon="-1.5475493576392043"><ele>34.0</ele><time>2026-03-29T10:43:04.682Z</time></trkpt><trkpt lat="47.27378439628265" lon="-1.5474838949754344"><ele>33.8</ele><time>2026-03-29T10:43:05.682Z</time></trkpt><trkpt lat="47.27367258169434" lon="-1.5473216213300334"><ele>33.599999999999994</ele><time>2026-03-29T10:43:07.682Z</time></trkpt><trkpt lat="47.27361160334877" lon="-1.5472755208625897"><ele>33.4</ele><time>2026-03-29T10:43:08.682Z</time></trkpt><trkpt lat="47.27349576544694" lon="-1.5471793804332121"><ele>33.199999999999996</ele><time>2026-03-29T10:43:10.682Z</time></trkpt><trkpt lat="47.27342686620287" lon="-1.5471518877908095"><ele>33.0</ele><time>2026-03-29T10:43:11.682Z</time></trkpt><trkpt lat="47.27335168053142" lon="-1.5471313521280392"><ele>33.0</ele><time>2026-03-29T10:43:12.682Z</time></trkpt><trkpt lat="47.27327460893176" lon="-1.5470903646215304"><ele>33.0</ele><time>2026-03-29T10:43:13.682Z</time></trkpt><trkpt lat="47.27314829365096" lon="-1.5470847487464054"><ele>33.0</ele><time>2026-03-29T10:43:15.682Z</time></trkpt><trkpt lat="47.27306807883761" lon="-1.5470407437547546"><ele>33.0</ele><time>2026-03-29T10:43:16.682Z</time></trkpt><trkpt lat="47.27299482100389" lon="-1.5470304340138537"><ele>33.0</ele><time>2026-03-29T10:43:17.682Z</time></trkpt><trkpt lat="47.272932878739454" lon="-1.547005623580466"><ele>33.0</ele><time>2026-03-29T10:43:18.682Z</time></trkpt><trkpt lat="47.27286230311475" lon="-1.5469713415964943"><ele>32.857142857142854</ele><time>2026-03-29T10:43:19.682Z</time></trkpt><trkpt lat="47.27278833281926" lon="-1.546946112067948"><ele>32.714285714285715</ele><time>2026-03-29T10:43:20.682Z</time></trkpt><trkpt lat="47.2727144463428" lon="-1.546924570576797"><ele>32.57142857142857</ele><time>2026-03-29T10:43:21.682Z</time></trkpt><trkpt lat="47.27264588237486" lon="-1.5469063818469149"><ele>32.42857142857143</ele><time>2026-03-29T10:43:22.682Z</time></trkpt><trkpt lat="47.272578449963845" lon="-1.546900430695663"><ele>32.285714285714285</ele><time>2026-03-29T10:43:23.682Z</time></trkpt><trkpt lat="47.272506617053665" lon="-1.546890707687984"><ele>32.14285714285714</ele><time>2026-03-29T10:43:24.682Z</time></trkpt><trkpt lat="47.27243470032445" lon="-1.5468788892045122"><ele>32.0</ele><time>2026-03-29T10:43:25.682Z</time></trkpt><trkpt lat="47.272354653149165" lon="-1.546834213660608"><ele>31.999999999999996</ele><time>2026-03-29T10:43:26.682Z</time></trkpt><trkpt lat="47.27228298787705" lon="-1.5468049608185392"><ele>32.0</ele><time>2026-03-29T10:43:27.682Z</time></trkpt><trkpt lat="47.272141794718124" lon="-1.546764895321379"><ele>32.0</ele><time>2026-03-29T10:43:29.682Z</time></trkpt><trkpt lat="47.27207423657856" lon="-1.5467368159457544"><ele>32.0</ele><time>2026-03-29T10:43:30.682Z</time></trkpt><trkpt lat="47.27200713944367" lon="-1.5467170346542696"><ele>31.999999999999996</ele><time>2026-03-29T10:43:31.682Z</time></trkpt><trkpt lat="47.27193157658658" lon="-1.5467031206950048"><ele>32.0</ele><time>2026-03-29T10:43:32.682Z</time></trkpt><trkpt lat="47.271861336238004" lon="-1.5466867759838203"><ele>31.8</ele><time>2026-03-29T10:43:33.682Z</time></trkpt><trkpt lat="47.27172701623968" lon="-1.5466330479844907"><ele>31.6</ele><time>2026-03-29T10:43:35.682Z</time></trkpt><trkpt lat="47.27159986276857" lon="-1.5465962514295677"><ele>31.400000000000002</ele><time>2026-03-29T10:43:37.682Z</time></trkpt><trkpt lat="47.271532807543196" lon="-1.5465773083284"><ele>31.200000000000003</ele><time>2026-03-29T10:43:38.682Z</time></trkpt><trkpt lat="47.271462609104134" lon="-1.5465391706689693"><ele>31.0</ele><time>2026-03-29T10:43:39.682Z</time></trkpt><trkpt lat="47.2713338211619" lon="-1.5465063136085369"><ele>31.333333333333336</ele><time>2026-03-29T10:43:41.682Z</time></trkpt><trkpt lat="47.27127204653553" lon="-1.5464717801674701"><ele>31.666666666666668</ele><time>2026-03-29T10:43:42.682Z</time></trkpt><trkpt lat="47.271204111210324" lon="-1.5464452095344163"><ele>32.0</ele><time>2026-03-29T10:43:43.682Z</time></trkpt><trkpt lat="47.2711361339756" lon="-1.5464288648232318"><ele>32.333333333333336</ele><time>2026-03-29T10:43:44.682Z</time></trkpt><trkpt lat="47.27103106681935" lon="-1.5463900566115476"><ele>32.666666666666664</ele><time>2026-03-29T10:43:46.682Z</time></trkpt><trkpt lat="47.27095910818062" lon="-1.5463633183404304"><ele>33.0</ele><time>2026-03-29T10:43:47.682Z</time></trkpt><trkpt lat="47.27089808792553" lon="-1.5463354066028692"><ele>33.0</ele><time>2026-03-29T10:43:48.682Z</time></trkpt><trkpt lat="47.27079147011719" lon="-1.546312691645274"><ele>33.0</ele><time>2026-03-29T10:43:50.682Z</time></trkpt><trkpt lat="47.27066310127012" lon="-1.546269692482004"><ele>33.0</ele><time>2026-03-29T10:43:52.682Z</time></trkpt><trkpt lat="47.270544245883144" lon="-1.546255610884676"><ele>33.0</ele><time>2026-03-29T10:43:54.682Z</time></trkpt><trkpt lat="47.27047367025844" lon="-1.546252341942439"><ele>33.0</ele><time>2026-03-29T10:43:55.682Z</time></trkpt><trkpt lat="47.27040527392856" lon="-1.54625678435112"><ele>33.0</ele><time>2026-03-29T10:43:56.682Z</time></trkpt><trkpt lat="47.27028960366479" lon="-1.5462648309781646"><ele>33.0</ele><time>2026-03-29T10:43:58.682Z</time></trkpt><trkpt lat="47.27022103969685" lon="-1.546253515408883"><ele>33.0</ele><time>2026-03-29T10:43:59.682Z</time></trkpt><trkpt lat="47.270099083005704" lon="-1.5462213289007043"><ele>33.0</ele><time>2026-03-29T10:44:01.682Z</time></trkpt><trkpt lat="47.27002678909085" lon="-1.5462244302048778"><ele>33.0</ele><time>2026-03-29T10:44:02.682Z</time></trkpt><trkpt lat="47.269958853765644" lon="-1.5462147910162305"><ele>33.0</ele><time>2026-03-29T10:44:03.682Z</time></trkpt><trkpt lat="47.269894606477834" lon="-1.5462219156339263"><ele>33.0</ele><time>2026-03-29T10:44:04.682Z</time></trkpt><trkpt lat="47.26977545772424" lon="-1.546238763259301"><ele>33.0</ele><time>2026-03-29T10:44:06.682Z</time></trkpt><trkpt lat="47.26968828593126" lon="-1.546234656126747"><ele>33.0</ele><time>2026-03-29T10:44:07.682Z</time></trkpt><trkpt lat="47.2695713164725" lon="-1.5462396014496183"><ele>33.0</ele><time>2026-03-29T10:44:09.682Z</time></trkpt><trkpt lat="47.269507949284524" lon="-1.5462347399457788"><ele>33.0</ele><time>2026-03-29T10:44:10.682Z</time></trkpt><trkpt lat="47.26944374390623" lon="-1.5462546050562953"><ele>33.0</ele><time>2026-03-29T10:44:11.682Z</time></trkpt><trkpt lat="47.26931223184547" lon="-1.5462663397207355"><ele>33.0</ele><time>2026-03-29T10:44:13.682Z</time></trkpt><trkpt lat="47.269175187728614" lon="-1.5462660882636403"><ele>33.0</ele><time>2026-03-29T10:44:15.682Z</time></trkpt><trkpt lat="47.26910918024114" lon="-1.5462699439390992"><ele>33.0</ele><time>2026-03-29T10:44:16.682Z</time></trkpt><trkpt lat="47.26904665124348" lon="-1.546284444631586"><ele>33.0</ele><time>2026-03-29T10:44:17.682Z</time></trkpt><trkpt lat="47.26897846446118" lon="-1.5462846960886811"><ele>32.333333333333336</ele><time>2026-03-29T10:44:18.682Z</time></trkpt><trkpt lat="47.26891057104549" lon="-1.546268267558465"><ele>31.666666666666664</ele><time>2026-03-29T10:44:19.682Z</time></trkpt><trkpt lat="47.26883966014466" lon="-1.546262064950118"><ele>31.0</ele><time>2026-03-29T10:44:20.682Z</time></trkpt><trkpt lat="47.26878387857905" lon="-1.5462188143297528"><ele>30.333333333333332</ele><time>2026-03-29T10:44:21.682Z</time></trkpt><trkpt lat="47.268712716221124" lon="-1.546181095765481"><ele>29.666666666666664</ele><time>2026-03-29T10:44:22.682Z</time></trkpt><trkpt lat="47.26859021470627" lon="-1.5461188182249164"><ele>29.0</ele><time>2026-03-29T10:44:24.682Z</time></trkpt><trkpt lat="47.26847932212731" lon="-1.5460874699070546"><ele>28.999999999999996</ele><time>2026-03-29T10:44:26.682Z</time></trkpt><trkpt lat="47.26841624830595" lon="-1.5460558701320979"><ele>29.0</ele><time>2026-03-29T10:44:27.682Z</time></trkpt><trkpt lat="47.26833527912131" lon="-1.5460474882289263"><ele>29.0</ele><time>2026-03-29T10:44:28.682Z</time></trkpt><trkpt lat="47.268222710161716" lon="-1.5461019705995416"><ele>29.0</ele><time>2026-03-29T10:44:30.682Z</time></trkpt><trkpt lat="47.26813302379778" lon="-1.546108927579174"><ele>28.999999999999996</ele><time>2026-03-29T10:44:32.682Z</time></trkpt><trkpt lat="47.2680638311871" lon="-1.5460896492018794"><ele>29.0</ele><time>2026-03-29T10:44:33.682Z</time></trkpt><trkpt lat="47.267940952486605" lon="-1.546077914537439"><ele>28.71428571428572</ele><time>2026-03-29T10:44:35.682Z</time></trkpt><trkpt lat="47.267870837866575" lon="-1.5460667666062209"><ele>28.42857142857143</ele><time>2026-03-29T10:44:36.682Z</time></trkpt><trkpt lat="47.26779552646658" lon="-1.546057043598542"><ele>28.142857142857146</ele><time>2026-03-29T10:44:37.682Z</time></trkpt><trkpt lat="47.267731111540705" lon="-1.5460597258075568"><ele>27.85714285714286</ele><time>2026-03-29T10:44:38.682Z</time></trkpt><trkpt lat="47.26766388867727" lon="-1.5460676886155698"><ele>27.57142857142857</ele><time>2026-03-29T10:44:39.682Z</time></trkpt><trkpt lat="47.267587236172766" lon="-1.5460575465127322"><ele>27.285714285714285</ele><time>2026-03-29T10:44:40.682Z</time></trkpt><trkpt lat="47.267522192604154" lon="-1.546067353339443"><ele>27.0</ele><time>2026-03-29T10:44:41.682Z</time></trkpt><trkpt lat="47.26744855758479" lon="-1.5460524335517976"><ele>27.0</ele><time>2026-03-29T10:44:42.682Z</time></trkpt><trkpt lat="47.267364445186466" lon="-1.5460380166783425"><ele>27.0</ele><time>2026-03-29T10:44:43.682Z</time></trkpt><trkpt lat="47.267294833480626" lon="-1.5460476558669898"><ele>27.0</ele><time>2026-03-29T10:44:44.682Z</time></trkpt><trkpt lat="47.26720271636477" lon="-1.5460254438235852"><ele>27.0</ele><time>2026-03-29T10:44:45.682Z</time></trkpt><trkpt lat="47.267129919535726" lon="-1.5460444707437846"><ele>27.0</ele><time>2026-03-29T10:44:46.682Z</time></trkpt><trkpt lat="47.267066803804845" lon="-1.5460425429060551"><ele>27.0</ele><time>2026-03-29T10:44:47.682Z</time></trkpt><trkpt lat="47.26699924566528" lon="-1.5460745617761704"><ele>27.0</ele><time>2026-03-29T10:44:48.682Z</time></trkpt><trkpt lat="47.266928586221546" lon="-1.5460928343250846"><ele>27.0</ele><time>2026-03-29T10:44:49.682Z</time></trkpt><trkpt lat="47.26685692094943" lon="-1.5461109392359351"><ele>27.0</ele><time>2026-03-29T10:44:50.682Z</time></trkpt><trkpt lat="47.266787057786495" lon="-1.5461170580252503"><ele>27.0</ele><time>2026-03-29T10:44:51.682Z</time></trkpt><trkpt lat="47.26671970919451" lon="-1.5461261942997073"><ele>27.0</ele><time>2026-03-29T10:44:52.682Z</time></trkpt><trkpt lat="47.266652905426234" lon="-1.5461271163090562"><ele>27.0</ele><time>2026-03-29T10:44:53.682Z</time></trkpt><trkpt lat="47.26656380579552" lon="-1.5461533516659831"><ele>27.0</ele><time>2026-03-29T10:44:54.682Z</time></trkpt><trkpt lat="47.26648426153442" lon="-1.5461880527451133"><ele>26.833333333333332</ele><time>2026-03-29T10:44:55.682Z</time></trkpt><trkpt lat="47.26639503617516" lon="-1.5462033916279172"><ele>26.666666666666664</ele><time>2026-03-29T10:44:56.682Z</time></trkpt><trkpt lat="47.266316581561476" lon="-1.5462085884078836"><ele>26.5</ele><time>2026-03-29T10:44:57.682Z</time></trkpt><trkpt lat="47.26624772422692" lon="-1.5462377574309205"><ele>26.333333333333332</ele><time>2026-03-29T10:44:58.682Z</time></trkpt><trkpt lat="47.26616386328569" lon="-1.546271201224575"><ele>26.166666666666664</ele><time>2026-03-29T10:44:59.682Z</time></trkpt><trkpt lat="47.266079247973174" lon="-1.5463095065220689"><ele>26.0</ele><time>2026-03-29T10:45:00.682Z</time></trkpt><trkpt lat="47.265995261303395" lon="-1.5463492367431022"><ele>25.8</ele><time>2026-03-29T10:45:01.682Z</time></trkpt><trkpt lat="47.26589664821258" lon="-1.546384021641264"><ele>25.6</ele><time>2026-03-29T10:45:02.682Z</time></trkpt><trkpt lat="47.26580092687836" lon="-1.5464180521681405"><ele>25.4</ele><time>2026-03-29T10:45:03.682Z</time></trkpt><trkpt lat="47.26570801348171" lon="-1.5464549325420953"><ele>25.2</ele><time>2026-03-29T10:45:04.682Z</time></trkpt><trkpt lat="47.26561933294615" lon="-1.5465054754182197"><ele>25.0</ele><time>2026-03-29T10:45:05.682Z</time></trkpt><trkpt lat="47.265547961040646" lon="-1.54652014374877"><ele>24.2</ele><time>2026-03-29T10:45:06.682Z</time></trkpt><trkpt lat="47.2654717276313" lon="-1.5465533360853292"><ele>23.4</ele><time>2026-03-29T10:45:07.682Z</time></trkpt><trkpt lat="47.26538040679625" lon="-1.5465976763531069"><ele>22.6</ele><time>2026-03-29T10:45:08.682Z</time></trkpt><trkpt lat="47.26530123972079" lon="-1.5466255042716364"><ele>21.8</ele><time>2026-03-29T10:45:09.682Z</time></trkpt><trkpt lat="47.26520937406203" lon="-1.5466784778996805"><ele>21.0</ele><time>2026-03-29T10:45:10.682Z</time></trkpt><trkpt lat="47.265127482868046" lon="-1.5467617940172056"><ele>21.0</ele><time>2026-03-29T10:45:11.682Z</time></trkpt><trkpt lat="47.26504181981763" lon="-1.5468055475517613"><ele>21.0</ele><time>2026-03-29T10:45:12.682Z</time></trkpt><trkpt lat="47.26494655948809" lon="-1.54685776680852"><ele>21.0</ele><time>2026-03-29T10:45:13.682Z</time></trkpt><trkpt lat="47.26483583454719" lon="-1.5468976646676165"><ele>21.0</ele><time>2026-03-29T10:45:14.682Z</time></trkpt><trkpt lat="47.2647523507916" lon="-1.5469551645233732"><ele>21.0</ele><time>2026-03-29T10:45:15.682Z</time></trkpt><trkpt lat="47.26466740020296" lon="-1.5470019355430704"><ele>19.6</ele><time>2026-03-29T10:45:16.682Z</time></trkpt><trkpt lat="47.264572642787606" lon="-1.5470750257387265"><ele>18.200000000000003</ele><time>2026-03-29T10:45:17.682Z</time></trkpt><trkpt lat="47.264489075212985" lon="-1.5471478644772871"><ele>16.799999999999997</ele><time>2026-03-29T10:45:18.682Z</time></trkpt><trkpt lat="47.2644003108584" lon="-1.5472211223110064"><ele>15.399999999999999</ele><time>2026-03-29T10:45:19.682Z</time></trkpt><trkpt lat="47.26430987012318" lon="-1.5472948830589162"><ele>14.0</ele><time>2026-03-29T10:45:20.682Z</time></trkpt><trkpt lat="47.264225506267756" lon="-1.5473883412792788"><ele>14.0</ele><time>2026-03-29T10:45:21.682Z</time></trkpt><trkpt lat="47.26415866058996" lon="-1.547480458395134"><ele>13.999999999999998</ele><time>2026-03-29T10:45:22.682Z</time></trkpt><trkpt lat="47.264079409695476" lon="-1.5475726593300212"><ele>13.999999999999998</ele><time>2026-03-29T10:45:23.682Z</time></trkpt><trkpt lat="47.26399399810216" lon="-1.5476708952351916"><ele>14.0</ele><time>2026-03-29T10:45:24.682Z</time></trkpt><trkpt lat="47.26391143635592" lon="-1.5477729868158212"><ele>14.0</ele><time>2026-03-29T10:45:25.682Z</time></trkpt><trkpt lat="47.26383880716494" lon="-1.5478645171984544"><ele>13.500000000000002</ele><time>2026-03-29T10:45:26.682Z</time></trkpt><trkpt lat="47.263759598179966" lon="-1.547946240754377"><ele>13.0</ele><time>2026-03-29T10:45:27.682Z</time></trkpt><trkpt lat="47.263692836321205" lon="-1.5480136312558763"><ele>12.5</ele><time>2026-03-29T10:45:28.682Z</time></trkpt><trkpt lat="47.263642461083144" lon="-1.5480904933079593"><ele>12.0</ele><time>2026-03-29T10:45:29.682Z</time></trkpt><trkpt lat="47.26359233730218" lon="-1.5481629967703932"><ele>11.5</ele><time>2026-03-29T10:45:30.682Z</time></trkpt><trkpt lat="47.26354317744008" lon="-1.5482422057553644"><ele>11.0</ele><time>2026-03-29T10:45:31.682Z</time></trkpt><trkpt lat="47.26351291876963" lon="-1.5483317244812365"><ele>11.0</ele><time>2026-03-29T10:45:32.682Z</time></trkpt><trkpt lat="47.263480480804354" lon="-1.5484344866141195"><ele>11.0</ele><time>2026-03-29T10:45:33.682Z</time></trkpt><trkpt lat="47.263449006757945" lon="-1.5485986042782185"><ele>11.0</ele><time>2026-03-29T10:45:35.682Z</time></trkpt><trkpt lat="47.26340885744175" lon="-1.5487080719336388"><ele>11.0</ele><time>2026-03-29T10:45:37.682Z</time></trkpt><trkpt lat="47.263330821923226" lon="-1.5487237460925698"><ele>11.0</ele><time>2026-03-29T10:45:39.682Z</time></trkpt><trkpt lat="47.26323342420837" lon="-1.548704467715275"><ele>11.4</ele><time>2026-03-29T10:45:41.682Z</time></trkpt><trkpt lat="47.263137996240765" lon="-1.5487504005446553"><ele>11.8</ele><time>2026-03-29T10:45:43.682Z</time></trkpt><trkpt lat="47.263040263249785" lon="-1.5488298609867215"><ele>12.200000000000001</ele><time>2026-03-29T10:45:45.682Z</time></trkpt><trkpt lat="47.26293871649286" lon="-1.5489399991943955"><ele>12.600000000000001</ele><time>2026-03-29T10:45:47.682Z</time></trkpt><trkpt lat="47.262884946584016" lon="-1.5490086469813706"><ele>13.0</ele><time>2026-03-29T10:45:48.682Z</time></trkpt><trkpt lat="47.26283515807918" lon="-1.5490654762848737"><ele>12.166666666666666</ele><time>2026-03-29T10:45:49.682Z</time></trkpt><trkpt lat="47.2627897700735" lon="-1.5491311904057385"><ele>11.333333333333332</ele><time>2026-03-29T10:45:50.682Z</time></trkpt><trkpt lat="47.26273847282609" lon="-1.549191204832447"><ele>10.5</ele><time>2026-03-29T10:45:51.682Z</time></trkpt><trkpt lat="47.26264157802543" lon="-1.5493177715703372"><ele>9.666666666666666</ele><time>2026-03-29T10:45:53.682Z</time></trkpt><trkpt lat="47.26259380117735" lon="-1.5493872575476293"><ele>8.833333333333332</ele><time>2026-03-29T10:45:54.682Z</time></trkpt><trkpt lat="47.262554112865836" lon="-1.5494664665326006"><ele>8.0</ele><time>2026-03-29T10:45:55.682Z</time></trkpt><trkpt lat="47.26250755139372" lon="-1.5495381318047172"><ele>8.428571428571429</ele><time>2026-03-29T10:45:56.682Z</time></trkpt><trkpt lat="47.26245713424614" lon="-1.5496070310487873"><ele>8.857142857142856</ele><time>2026-03-29T10:45:57.682Z</time></trkpt><trkpt lat="47.26241677538237" lon="-1.549680205063475"><ele>9.285714285714285</ele><time>2026-03-29T10:45:58.682Z</time></trkpt><trkpt lat="47.2623721836575" lon="-1.549746505917562"><ele>9.714285714285714</ele><time>2026-03-29T10:45:59.682Z</time></trkpt><trkpt lat="47.26232629273763" lon="-1.5498252958073744"><ele>10.142857142857142</ele><time>2026-03-29T10:46:00.682Z</time></trkpt><trkpt lat="47.26228220392695" lon="-1.5498962905272373"><ele>10.571428571428571</ele><time>2026-03-29T10:46:01.682Z</time></trkpt><trkpt lat="47.2622374026545" lon="-1.54996627941872"><ele>11.0</ele><time>2026-03-29T10:46:02.682Z</time></trkpt><trkpt lat="47.262195786505245" lon="-1.5500438120230566"><ele>11.0</ele><time>2026-03-29T10:46:03.682Z</time></trkpt><trkpt lat="47.26214939267119" lon="-1.5501113701626192"><ele>11.0</ele><time>2026-03-29T10:46:04.682Z</time></trkpt><trkpt lat="47.26210480094632" lon="-1.5501893218621148"><ele>11.0</ele><time>2026-03-29T10:46:05.682Z</time></trkpt><trkpt lat="47.26206498690625" lon="-1.550267608837737"><ele>11.0</ele><time>2026-03-29T10:46:06.682Z</time></trkpt><trkpt lat="47.26202555005183" lon="-1.5503469016417397"><ele>11.0</ele><time>2026-03-29T10:46:07.682Z</time></trkpt><trkpt lat="47.26199026223948" lon="-1.5504298824831382"><ele>11.0</ele><time>2026-03-29T10:46:08.682Z</time></trkpt><trkpt lat="47.26194479041477" lon="-1.55050179921235"><ele>11.0</ele><time>2026-03-29T10:46:09.682Z</time></trkpt><trkpt lat="47.26190698803147" lon="-1.5505814272924796"><ele>11.0</ele><time>2026-03-29T10:46:10.682Z</time></trkpt><trkpt lat="47.2618613485687" lon="-1.5506471414133447"><ele>11.0</ele><time>2026-03-29T10:46:11.682Z</time></trkpt><trkpt lat="47.261822163171374" lon="-1.5507312119021552"><ele>11.0</ele><time>2026-03-29T10:46:12.682Z</time></trkpt><trkpt lat="47.261743247553014" lon="-1.5508913062527319"><ele>11.0</ele><time>2026-03-29T10:46:14.682Z</time></trkpt><trkpt lat="47.261707414916955" lon="-1.5509711857899566"><ele>11.0</ele><time>2026-03-29T10:46:15.682Z</time></trkpt><trkpt lat="47.261675940870546" lon="-1.5510529931649109"><ele>11.0</ele><time>2026-03-29T10:46:16.682Z</time></trkpt><trkpt lat="47.26161093921145" lon="-1.5512236487134836"><ele>11.0</ele><time>2026-03-29T10:46:18.682Z</time></trkpt><trkpt lat="47.26157787260344" lon="-1.5513036958887718"><ele>11.0</ele><time>2026-03-29T10:46:19.682Z</time></trkpt><trkpt lat="47.26151035637339" lon="-1.5514730103328371"><ele>11.0</ele><time>2026-03-29T10:46:21.682Z</time></trkpt><trkpt lat="47.26146123842081" lon="-1.551634194330826"><ele>11.0</ele><time>2026-03-29T10:46:23.682Z</time></trkpt><trkpt lat="47.26139988288959" lon="-1.5518102142974284"><ele>10.4</ele><time>2026-03-29T10:46:25.682Z</time></trkpt><trkpt lat="47.261341670572065" lon="-1.5519768465324788"><ele>9.8</ele><time>2026-03-29T10:46:27.682Z</time></trkpt><trkpt lat="47.26131287873467" lon="-1.552061671392575"><ele>9.200000000000001</ele><time>2026-03-29T10:46:28.682Z</time></trkpt><trkpt lat="47.26128739774903" lon="-1.5521489270045907"><ele>8.600000000000001</ele><time>2026-03-29T10:46:29.682Z</time></trkpt><trkpt lat="47.26124125537207" lon="-1.5523159783347997"><ele>8.0</ele><time>2026-03-29T10:46:31.682Z</time></trkpt><trkpt lat="47.26119632837107" lon="-1.5524811856463108"><ele>8.0</ele><time>2026-03-29T10:46:33.682Z</time></trkpt><trkpt lat="47.261161375834845" lon="-1.5526373405023968"><ele>8.0</ele><time>2026-03-29T10:46:35.682Z</time></trkpt><trkpt lat="47.26113543384453" lon="-1.552763907240287"><ele>8.0</ele><time>2026-03-29T10:46:37.682Z</time></trkpt><trkpt lat="47.26110500753602" lon="-1.5529006999000468"><ele>8.0</ele><time>2026-03-29T10:46:39.682Z</time></trkpt><trkpt lat="47.26105903279712" lon="-1.5530310384943644"><ele>8.0</ele><time>2026-03-29T10:46:41.682Z</time></trkpt><trkpt lat="47.26099721626123" lon="-1.5531396679594676"><ele>8.0</ele><time>2026-03-29T10:46:43.682Z</time></trkpt><trkpt lat="47.26090639834037" lon="-1.5532648097738189"><ele>8.0</ele><time>2026-03-29T10:46:45.682Z</time></trkpt><trkpt lat="47.26083967839112" lon="-1.5534041170045298"><ele>8.0</ele><time>2026-03-29T10:46:47.682Z</time></trkpt><trkpt lat="47.26078515411099" lon="-1.553552895785825"><ele>8.0</ele><time>2026-03-29T10:46:49.682Z</time></trkpt><trkpt lat="47.260724720589124" lon="-1.553707793356435"><ele>7.800000000000001</ele><time>2026-03-29T10:46:51.682Z</time></trkpt><trkpt lat="47.260665209076606" lon="-1.5538432449116872"><ele>7.6000000000000005</ele><time>2026-03-29T10:46:53.682Z</time></trkpt><trkpt lat="47.26061563011935" lon="-1.5539698116495777"><ele>7.3999999999999995</ele><time>2026-03-29T10:46:55.682Z</time></trkpt><trkpt lat="47.26054673087528" lon="-1.5541306603714395"><ele>7.199999999999999</ele><time>2026-03-29T10:46:57.682Z</time></trkpt><trkpt lat="47.26051969923755" lon="-1.5542150661363772"><ele>7.0</ele><time>2026-03-29T10:46:58.682Z</time></trkpt><trkpt lat="47.26046949163755" lon="-1.5543622523560694"><ele>6.75</ele><time>2026-03-29T10:47:00.682Z</time></trkpt><trkpt lat="47.26041505117645" lon="-1.5545402839794331"><ele>6.5</ele><time>2026-03-29T10:47:02.682Z</time></trkpt><trkpt lat="47.2603718424656" lon="-1.5546996239587243"><ele>6.25</ele><time>2026-03-29T10:47:04.682Z</time></trkpt><trkpt lat="47.2603150131621" lon="-1.5548653341844256"><ele>6.0</ele><time>2026-03-29T10:47:06.682Z</time></trkpt><trkpt lat="47.260250598236226" lon="-1.555016962812799"><ele>6.0</ele><time>2026-03-29T10:47:08.682Z</time></trkpt><trkpt lat="47.26019892380317" lon="-1.5551728662117899"><ele>6.0</ele><time>2026-03-29T10:47:10.682Z</time></trkpt><trkpt lat="47.260156720920705" lon="-1.5553128439947546"><ele>6.0</ele><time>2026-03-29T10:47:12.682Z</time></trkpt><trkpt lat="47.260109153620206" lon="-1.5554671548321428"><ele>6.0</ele><time>2026-03-29T10:47:14.682Z</time></trkpt><trkpt lat="47.26008199625393" lon="-1.5555533207967462"><ele>6.0</ele><time>2026-03-29T10:47:15.682Z</time></trkpt><trkpt lat="47.2600396257334" lon="-1.5556864254191105"><ele>6.333333333333333</ele><time>2026-03-29T10:47:17.682Z</time></trkpt><trkpt lat="47.26000362545928" lon="-1.5558285824968998"><ele>6.666666666666666</ele><time>2026-03-29T10:47:19.682Z</time></trkpt><trkpt lat="47.26001087580552" lon="-1.5559459291413016"><ele>7.0</ele><time>2026-03-29T10:47:21.682Z</time></trkpt><trkpt lat="47.26003040563991" lon="-1.5560696460321135"><ele>7.333333333333333</ele><time>2026-03-29T10:47:23.682Z</time></trkpt><trkpt lat="47.260076589926385" lon="-1.5561646129950473"><ele>7.666666666666666</ele><time>2026-03-29T10:47:25.682Z</time></trkpt><trkpt lat="47.26012164265593" lon="-1.5562452469035575"><ele>8.0</ele><time>2026-03-29T10:47:27.682Z</time></trkpt><trkpt lat="47.26017268844625" lon="-1.5563000645502993"><ele>8.333333333333332</ele><time>2026-03-29T10:47:29.682Z</time></trkpt><trkpt lat="47.26023023021152" lon="-1.5563552174731683"><ele>8.666666666666666</ele><time>2026-03-29T10:47:31.682Z</time></trkpt><trkpt lat="47.26030784663489" lon="-1.5564202610417794"><ele>9.0</ele><time>2026-03-29T10:47:34.682Z</time></trkpt><trkpt lat="47.26036798679014" lon="-1.5564734861269187"><ele>9.333333333333334</ele><time>2026-03-29T10:47:37.682Z</time></trkpt><trkpt lat="47.26038278084924" lon="-1.5565718058511209"><ele>9.666666666666668</ele><time>2026-03-29T10:47:40.682Z</time></trkpt><trkpt lat="47.26039237812837" lon="-1.5566922537996961"><ele>10.0</ele><time>2026-03-29T10:47:42.682Z</time></trkpt><trkpt lat="47.260407633192145" lon="-1.5568183176233963"><ele>10.0</ele><time>2026-03-29T10:47:44.682Z</time></trkpt><trkpt lat="47.26041312333872" lon="-1.5569541044547752"><ele>10.0</ele><time>2026-03-29T10:47:46.682Z</time></trkpt><trkpt lat="47.26039828737011" lon="-1.5570867061629492"><ele>10.0</ele><time>2026-03-29T10:47:48.682Z</time></trkpt><trkpt lat="47.26037431512704" lon="-1.5571927372380692"><ele>10.0</ele><time>2026-03-29T10:47:50.682Z</time></trkpt><trkpt lat="47.260341164699994" lon="-1.5572960861041745"><ele>10.0</ele><time>2026-03-29T10:47:52.682Z</time></trkpt><trkpt lat="47.260252023159765" lon="-1.5574039611979922"><ele>10.5</ele><time>2026-03-29T10:47:54.682Z</time></trkpt><trkpt lat="47.260182914368116" lon="-1.557483840735217"><ele>11.0</ele><time>2026-03-29T10:47:56.682Z</time></trkpt><trkpt lat="47.26010202900251" lon="-1.5575485490277015"><ele>11.5</ele><time>2026-03-29T10:47:58.682Z</time></trkpt><trkpt lat="47.26001950916579" lon="-1.557605210693141"><ele>12.0</ele><time>2026-03-29T10:48:00.682Z</time></trkpt><trkpt lat="47.259954381778144" lon="-1.5576860960587464"><ele>12.499999999999998</ele><time>2026-03-29T10:48:02.682Z</time></trkpt><trkpt lat="47.25988275841554" lon="-1.5577166900053225"><ele>13.0</ele><time>2026-03-29T10:48:04.682Z</time></trkpt><trkpt lat="47.25980669264426" lon="-1.557679725812336"><ele>12.200000000000001</ele><time>2026-03-29T10:48:06.682Z</time></trkpt><trkpt lat="47.259715497537755" lon="-1.557677378879448"><ele>11.4</ele><time>2026-03-29T10:48:08.682Z</time></trkpt><trkpt lat="47.259634570262634" lon="-1.5576330386116706"><ele>10.600000000000001</ele><time>2026-03-29T10:48:10.682Z</time></trkpt><trkpt lat="47.259572544179164" lon="-1.5575673244908057"><ele>9.8</ele><time>2026-03-29T10:48:12.682Z</time></trkpt><trkpt lat="47.25947292525997" lon="-1.5574989281609257"><ele>9.0</ele><time>2026-03-29T10:48:14.682Z</time></trkpt><trkpt lat="47.25936790001323" lon="-1.557473530994316"><ele>9.0</ele><time>2026-03-29T10:48:16.682Z</time></trkpt><trkpt lat="47.25925243929704" lon="-1.557470010594984"><ele>9.0</ele><time>2026-03-29T10:48:18.682Z</time></trkpt><trkpt lat="47.259129895872675" lon="-1.5574459545328816"><ele>9.0</ele><time>2026-03-29T10:48:20.682Z</time></trkpt><trkpt lat="47.25905844014814" lon="-1.557421395556589"><ele>9.0</ele><time>2026-03-29T10:48:21.682Z</time></trkpt><trkpt lat="47.2589922650226" lon="-1.5574222337469061"><ele>9.0</ele><time>2026-03-29T10:48:22.682Z</time></trkpt><trkpt lat="47.25892961029639" lon="-1.5574315376594265"><ele>9.0</ele><time>2026-03-29T10:48:23.682Z</time></trkpt><trkpt lat="47.2588529997014" lon="-1.5574153605863055"><ele>9.166666666666666</ele><time>2026-03-29T10:48:24.682Z</time></trkpt><trkpt lat="47.2587850643762" lon="-1.5574006922557553"><ele>9.333333333333334</ele><time>2026-03-29T10:48:25.682Z</time></trkpt><trkpt lat="47.25871809296986" lon="-1.5573901310577591"><ele>9.5</ele><time>2026-03-29T10:48:26.682Z</time></trkpt><trkpt lat="47.25865422286769" lon="-1.5573891252293786"><ele>9.666666666666668</ele><time>2026-03-29T10:48:27.682Z</time></trkpt><trkpt lat="47.25854630586436" lon="-1.557363979519864"><ele>9.833333333333334</ele><time>2026-03-29T10:48:29.682Z</time></trkpt><trkpt lat="47.25843864031812" lon="-1.5573609620347222"><ele>10.0</ele><time>2026-03-29T10:48:31.682Z</time></trkpt><trkpt lat="47.25836387374183" lon="-1.5573281049742898"><ele>10.0</ele><time>2026-03-29T10:48:32.682Z</time></trkpt><trkpt lat="47.258299668363534" lon="-1.5573254227652749"><ele>10.0</ele><time>2026-03-29T10:48:33.682Z</time></trkpt><trkpt lat="47.25821434058925" lon="-1.5573234111085137"><ele>10.0</ele><time>2026-03-29T10:48:35.682Z</time></trkpt><trkpt lat="47.258145064159535" lon="-1.5573096647873124"><ele>10.0</ele><time>2026-03-29T10:48:36.682Z</time></trkpt><trkpt lat="47.258049761920475" lon="-1.5572725329562622"><ele>10.0</ele><time>2026-03-29T10:48:38.682Z</time></trkpt><trkpt lat="47.25794004280796" lon="-1.557203382255097"><ele>10.0</ele><time>2026-03-29T10:48:40.682Z</time></trkpt><trkpt lat="47.25783422128042" lon="-1.5571451280280548"><ele>11.0</ele><time>2026-03-29T10:48:42.682Z</time></trkpt><trkpt lat="47.25777399730613" lon="-1.5571072418257195"><ele>12.0</ele><time>2026-03-29T10:48:43.682Z</time></trkpt><trkpt lat="47.25766113497993" lon="-1.5570350736394123"><ele>13.0</ele><time>2026-03-29T10:48:45.682Z</time></trkpt><trkpt lat="47.25760501813819" lon="-1.5569858718677954"><ele>14.0</ele><time>2026-03-29T10:48:46.682Z</time></trkpt><trkpt lat="47.257509590170585" lon="-1.5569412801429228"><ele>15.0</ele><time>2026-03-29T10:48:48.682Z</time></trkpt><trkpt lat="47.25741688632151" lon="-1.5568816009923414"><ele>15.0</ele><time>2026-03-29T10:48:50.682Z</time></trkpt><trkpt lat="47.25731940478762" lon="-1.5568132046624614"><ele>15.0</ele><time>2026-03-29T10:48:52.682Z</time></trkpt><trkpt lat="47.25724040535023" lon="-1.556717902423401"><ele>15.0</ele><time>2026-03-29T10:48:54.682Z</time></trkpt><trkpt lat="47.257169452539884" lon="-1.5566362626865102"><ele>15.0</ele><time>2026-03-29T10:48:56.682Z</time></trkpt><trkpt lat="47.25713127297094" lon="-1.5565593168153953"><ele>15.0</ele><time>2026-03-29T10:48:57.682Z</time></trkpt><trkpt lat="47.257088692902826" lon="-1.5564699657275867"><ele>15.0</ele><time>2026-03-29T10:48:58.682Z</time></trkpt><trkpt lat="47.25702067375859" lon="-1.5563614200815152"><ele>15.333333333333334</ele><time>2026-03-29T10:49:00.682Z</time></trkpt><trkpt lat="47.25693920165976" lon="-1.5562119707479665"><ele>15.666666666666668</ele><time>2026-03-29T10:49:03.682Z</time></trkpt><trkpt lat="47.25689762742003" lon="-1.556137623266835"><ele>16.0</ele><time>2026-03-29T10:49:04.682Z</time></trkpt><trkpt lat="47.25684817419132" lon="-1.5560433268561549"><ele>16.333333333333336</ele><time>2026-03-29T10:49:05.682Z</time></trkpt><trkpt lat="47.25681565240701" lon="-1.5559635311379618"><ele>16.666666666666668</ele><time>2026-03-29T10:49:06.682Z</time></trkpt><trkpt lat="47.256777682385646" lon="-1.5558839030578322"><ele>17.0</ele><time>2026-03-29T10:49:07.682Z</time></trkpt><trkpt lat="47.256718003235065" lon="-1.555738979951996"><ele>17.0</ele><time>2026-03-29T10:49:09.682Z</time></trkpt><trkpt lat="47.256677518642746" lon="-1.5556513890638535"><ele>17.0</ele><time>2026-03-29T10:49:10.682Z</time></trkpt><trkpt lat="47.256619976877474" lon="-1.555498922245163"><ele>17.0</ele><time>2026-03-29T10:49:12.682Z</time></trkpt><trkpt lat="47.25657651670953" lon="-1.5554112475379887"><ele>17.0</ele><time>2026-03-29T10:49:13.682Z</time></trkpt><trkpt lat="47.256530919156276" lon="-1.5553435217603624"><ele>17.0</ele><time>2026-03-29T10:49:14.682Z</time></trkpt><trkpt lat="47.25648444150319" lon="-1.5552467945977628"><ele>17.0</ele><time>2026-03-29T10:49:15.682Z</time></trkpt><trkpt lat="47.25644994997164" lon="-1.555163394661206"><ele>18.0</ele><time>2026-03-29T10:49:16.682Z</time></trkpt><trkpt lat="47.256394838958286" lon="-1.5550310444101272"><ele>19.0</ele><time>2026-03-29T10:49:18.682Z</time></trkpt><trkpt lat="47.256323508962296" lon="-1.5548839420094664"><ele>20.0</ele><time>2026-03-29T10:49:20.682Z</time></trkpt><trkpt lat="47.25626408126881" lon="-1.5547431260361846"><ele>21.0</ele><time>2026-03-29T10:49:22.682Z</time></trkpt><trkpt lat="47.25621609487315" lon="-1.5546000469490462"><ele>22.0</ele><time>2026-03-29T10:49:24.682Z</time></trkpt><trkpt lat="47.25615088366648" lon="-1.5544782578959637"><ele>22.0</ele><time>2026-03-29T10:49:26.682Z</time></trkpt><trkpt lat="47.256081607236766" lon="-1.5543528646245173"><ele>22.0</ele><time>2026-03-29T10:49:28.682Z</time></trkpt><trkpt lat="47.256033746569656" lon="-1.554221604020851"><ele>22.0</ele><time>2026-03-29T10:49:30.682Z</time></trkpt><trkpt lat="47.255992591425084" lon="-1.5541342645898033"><ele>22.0</ele><time>2026-03-29T10:49:32.682Z</time></trkpt><trkpt lat="47.25591271188786" lon="-1.5540193486973215"><ele>22.0</ele><time>2026-03-29T10:49:34.682Z</time></trkpt><trkpt lat="47.25587721452793" lon="-1.5539326798185276"><ele>22.0</ele><time>2026-03-29T10:49:35.682Z</time></trkpt><trkpt lat="47.25579251539638" lon="-1.5538196079447435"><ele>22.0</ele><time>2026-03-29T10:49:37.682Z</time></trkpt><trkpt lat="47.25572168831458" lon="-1.553715756164448"><ele>22.0</ele><time>2026-03-29T10:49:39.682Z</time></trkpt><trkpt lat="47.25565492645582" lon="-1.5535822324469253"><ele>22.0</ele><time>2026-03-29T10:49:41.682Z</time></trkpt><trkpt lat="47.25561460950156" lon="-1.5534728486105365"><ele>22.0</ele><time>2026-03-29T10:49:42.682Z</time></trkpt><trkpt lat="47.25553439468821" lon="-1.5533814858659667"><ele>22.8</ele><time>2026-03-29T10:49:45.682Z</time></trkpt><trkpt lat="47.25544403777202" lon="-1.553268916906373"><ele>23.6</ele><time>2026-03-29T10:49:47.682Z</time></trkpt><trkpt lat="47.25538046103647" lon="-1.5532078128322522"><ele>24.400000000000002</ele><time>2026-03-29T10:49:48.682Z</time></trkpt><trkpt lat="47.255277489356004" lon="-1.5531532466426055"><ele>25.200000000000003</ele><time>2026-03-29T10:49:51.682Z</time></trkpt><trkpt lat="47.2551992442899" lon="-1.553090382368819"><ele>26.0</ele><time>2026-03-29T10:49:53.682Z</time></trkpt><trkpt lat="47.255143839909934" lon="-1.5530368220075528"><ele>26.0</ele><time>2026-03-29T10:49:54.682Z</time></trkpt><trkpt lat="47.255052770531975" lon="-1.552962474526421"><ele>26.0</ele><time>2026-03-29T10:49:56.682Z</time></trkpt><trkpt lat="47.25496015050193" lon="-1.5529063157751717"><ele>26.0</ele><time>2026-03-29T10:49:58.682Z</time></trkpt><trkpt lat="47.25489355628123" lon="-1.5528595447554745"><ele>26.0</ele><time>2026-03-29T10:49:59.682Z</time></trkpt><trkpt lat="47.25480592348357" lon="-1.5528218261912026"><ele>26.0</ele><time>2026-03-29T10:50:01.682Z</time></trkpt><trkpt lat="47.25470596928825" lon="-1.5528035536422886"><ele>25.0</ele><time>2026-03-29T10:50:03.682Z</time></trkpt><trkpt lat="47.254600818312966" lon="-1.5527789108469643"><ele>24.0</ele><time>2026-03-29T10:50:05.682Z</time></trkpt><trkpt lat="47.25450157657941" lon="-1.5527613926693355"><ele>23.0</ele><time>2026-03-29T10:50:07.682Z</time></trkpt><trkpt lat="47.25440501705487" lon="-1.5527499932810223"><ele>22.0</ele><time>2026-03-29T10:50:09.682Z</time></trkpt><trkpt lat="47.254305817230836" lon="-1.5527515858426248"><ele>21.0</ele><time>2026-03-29T10:50:11.682Z</time></trkpt><trkpt lat="47.25421441257675" lon="-1.5527590457364475"><ele>21.0</ele><time>2026-03-29T10:50:13.682Z</time></trkpt><trkpt lat="47.25412698932667" lon="-1.5527784917518057"><ele>21.0</ele><time>2026-03-29T10:50:15.682Z</time></trkpt><trkpt lat="47.25402615503152" lon="-1.5528051462038912"><ele>21.0</ele><time>2026-03-29T10:50:17.682Z</time></trkpt><trkpt lat="47.25393672012468" lon="-1.5528382547214188"><ele>21.0</ele><time>2026-03-29T10:50:19.682Z</time></trkpt><trkpt lat="47.25386740178545" lon="-1.5528056491180815"><ele>21.0</ele><time>2026-03-29T10:50:20.682Z</time></trkpt><trkpt lat="47.25376987834205" lon="-1.5528349857791819"><ele>21.0</ele><time>2026-03-29T10:50:22.682Z</time></trkpt><trkpt lat="47.25367998243053" lon="-1.5529004484429516"><ele>21.0</ele><time>2026-03-29T10:50:24.682Z</time></trkpt><trkpt lat="47.253582836172775" lon="-1.5529367420836844"><ele>21.0</ele><time>2026-03-29T10:50:26.682Z</time></trkpt><trkpt lat="47.253479026301996" lon="-1.5529759693905272"><ele>21.0</ele><time>2026-03-29T10:50:28.682Z</time></trkpt><trkpt lat="47.253356524787144" lon="-1.5529986005290903"><ele>21.0</ele><time>2026-03-29T10:50:30.682Z</time></trkpt><trkpt lat="47.25324630276044" lon="-1.553057944403545"><ele>21.0</ele><time>2026-03-29T10:50:32.682Z</time></trkpt><trkpt lat="47.25313339852472" lon="-1.5531001891955296"><ele>21.0</ele><time>2026-03-29T10:50:34.682Z</time></trkpt><trkpt lat="47.253056536472634" lon="-1.5530874487027089"><ele>21.0</ele><time>2026-03-29T10:50:35.682Z</time></trkpt><trkpt lat="47.2529417463087" lon="-1.5531291067614714"><ele>21.0</ele><time>2026-03-29T10:50:37.682Z</time></trkpt><trkpt lat="47.25282641132106" lon="-1.5532045438900153"><ele>21.0</ele><time>2026-03-29T10:50:39.682Z</time></trkpt><trkpt lat="47.25272121843626" lon="-1.5532760415240687"><ele>20.8</ele><time>2026-03-29T10:50:41.682Z</time></trkpt><trkpt lat="47.25260177631606" lon="-1.5532990917577905"><ele>20.6</ele><time>2026-03-29T10:50:43.682Z</time></trkpt><trkpt lat="47.252516364722744" lon="-1.5533642191454333"><ele>20.4</ele><time>2026-03-29T10:50:45.682Z</time></trkpt><trkpt lat="47.252477095506386" lon="-1.5534786321237248"><ele>20.2</ele><time>2026-03-29T10:50:47.682Z</time></trkpt><trkpt lat="47.25248128645797" lon="-1.553619699554102"><ele>20.0</ele><time>2026-03-29T10:50:49.682Z</time></trkpt><trkpt lat="47.25249658343126" lon="-1.5537813864662813"><ele>20.0</ele><time>2026-03-29T10:50:51.682Z</time></trkpt><trkpt lat="47.252515149346785" lon="-1.5539451688542532"><ele>20.0</ele><time>2026-03-29T10:50:53.682Z</time></trkpt><trkpt lat="47.252529524310724" lon="-1.5541033353671003"><ele>20.0</ele><time>2026-03-29T10:50:55.682Z</time></trkpt><trkpt lat="47.25255869333376" lon="-1.5542683750405482"><ele>20.0</ele><time>2026-03-29T10:50:57.682Z</time></trkpt><trkpt lat="47.25256640468468" lon="-1.554361162708657"><ele>20.0</ele><time>2026-03-29T10:50:58.682Z</time></trkpt><trkpt lat="47.25259138275613" lon="-1.554451100529688"><ele>20.4</ele><time>2026-03-29T10:50:59.682Z</time></trkpt><trkpt lat="47.25260613490571" lon="-1.5545439720168286"><ele>20.8</ele><time>2026-03-29T10:51:00.682Z</time></trkpt><trkpt lat="47.25262851458718" lon="-1.554702641443866"><ele>21.200000000000003</ele><time>2026-03-29T10:51:02.682Z</time></trkpt><trkpt lat="47.25267314822157" lon="-1.554843457417148"><ele>21.6</ele><time>2026-03-29T10:51:04.682Z</time></trkpt><trkpt lat="47.252685218162135" lon="-1.5550052281483588"><ele>22.0</ele><time>2026-03-29T10:51:06.682Z</time></trkpt><trkpt lat="47.25269619845529" lon="-1.5551652386799037"><ele>22.0</ele><time>2026-03-29T10:51:08.682Z</time></trkpt><trkpt lat="47.25272302054544" lon="-1.5553052164628685"><ele>22.0</ele><time>2026-03-29T10:51:10.682Z</time></trkpt><trkpt lat="47.252752902030245" lon="-1.5554565936341467"><ele>22.0</ele><time>2026-03-29T10:51:12.682Z</time></trkpt><trkpt lat="47.252760403833584" lon="-1.5555914584561767"><ele>22.0</ele><time>2026-03-29T10:51:14.682Z</time></trkpt><trkpt lat="47.252802774354116" lon="-1.5557247307166044"><ele>22.0</ele><time>2026-03-29T10:51:16.682Z</time></trkpt><trkpt lat="47.25282238800754" lon="-1.5558435022845452"><ele>22.400000000000002</ele><time>2026-03-29T10:51:18.682Z</time></trkpt><trkpt lat="47.25282527976413" lon="-1.5559872519239373"><ele>22.8</ele><time>2026-03-29T10:51:20.682Z</time></trkpt><trkpt lat="47.25284594115545" lon="-1.5561351086958835"><ele>23.2</ele><time>2026-03-29T10:51:22.682Z</time></trkpt><trkpt lat="47.252859142652945" lon="-1.556277517230768"><ele>23.6</ele><time>2026-03-29T10:51:24.682Z</time></trkpt><trkpt lat="47.252885755195514" lon="-1.556426296012063"><ele>24.0</ele><time>2026-03-29T10:51:26.682Z</time></trkpt><trkpt lat="47.25290461447765" lon="-1.5565775055452775"><ele>24.4</ele><time>2026-03-29T10:51:28.682Z</time></trkpt><trkpt lat="47.252928838177816" lon="-1.5567163936808301"><ele>24.799999999999997</ele><time>2026-03-29T10:51:30.682Z</time></trkpt><trkpt lat="47.25293256812473" lon="-1.5568532701596216"><ele>25.200000000000003</ele><time>2026-03-29T10:51:32.682Z</time></trkpt><trkpt lat="47.25295033775945" lon="-1.5569990314557747"><ele>25.6</ele><time>2026-03-29T10:51:34.682Z</time></trkpt><trkpt lat="47.25297925532539" lon="-1.557119144128223"><ele>26.0</ele><time>2026-03-29T10:51:36.682Z</time></trkpt><trkpt lat="47.25299870134075" lon="-1.557236658410688"><ele>26.200000000000003</ele><time>2026-03-29T10:51:38.682Z</time></trkpt><trkpt lat="47.25300821480085" lon="-1.5573647338911494"><ele>26.400000000000002</ele><time>2026-03-29T10:51:40.682Z</time></trkpt><trkpt lat="47.253032648048595" lon="-1.5575208049282034"><ele>26.6</ele><time>2026-03-29T10:51:42.682Z</time></trkpt><trkpt lat="47.25305741657247" lon="-1.5576644707485638"><ele>26.8</ele><time>2026-03-29T10:51:44.682Z</time></trkpt><trkpt lat="47.253071204803184" lon="-1.5578165184720958"><ele>27.0</ele><time>2026-03-29T10:51:47.054Z</time></trkpt><trkpt lat="47.2530979430743" lon="-1.5579743497088159"><ele>26.8</ele><time>2026-03-29T10:51:49.059Z</time></trkpt><trkpt lat="47.2531169699945" lon="-1.5581333544119802"><ele>26.6</ele><time>2026-03-29T10:51:51.07Z</time></trkpt><trkpt lat="47.253141403242246" lon="-1.5582947898670643"><ele>26.400000000000002</ele><time>2026-03-29T10:51:53.072Z</time></trkpt><trkpt lat="47.25316365719517" lon="-1.5584625117495268"><ele>26.200000000000003</ele><time>2026-03-29T10:51:55.065Z</time></trkpt><trkpt lat="47.25317899607797" lon="-1.5586138051017733"><ele>26.0</ele><time>2026-03-29T10:51:57.065Z</time></trkpt><trkpt lat="47.25319521506061" lon="-1.5587678644820664"><ele>25.6</ele><time>2026-03-29T10:51:59.075Z</time></trkpt><trkpt lat="47.25322065413673" lon="-1.558934077621958"><ele>25.200000000000003</ele><time>2026-03-29T10:52:01.061Z</time></trkpt><trkpt lat="47.25324060306628" lon="-1.559097021819613"><ele>24.799999999999997</ele><time>2026-03-29T10:52:03.062Z</time></trkpt><trkpt lat="47.25325468466361" lon="-1.5592461358770349"><ele>24.4</ele><time>2026-03-29T10:52:05.075Z</time></trkpt><trkpt lat="47.25326189310034" lon="-1.559343282134793"><ele>24.0</ele><time>2026-03-29T10:52:06.058Z</time></trkpt><trkpt lat="47.25327630997379" lon="-1.5595052205040674"><ele>24.0</ele><time>2026-03-29T10:52:08.06Z</time></trkpt><trkpt lat="47.25327886645426" lon="-1.5596863534316046"><ele>24.0</ele><time>2026-03-29T10:52:10.057Z</time></trkpt><trkpt lat="47.25329370242287" lon="-1.5598637145027143"><ele>24.0</ele><time>2026-03-29T10:52:12.062Z</time></trkpt><trkpt lat="47.25329848010768" lon="-1.560040907935761"><ele>24.0</ele><time>2026-03-29T10:52:14.059Z</time></trkpt><trkpt lat="47.25330543708731" lon="-1.5602074563517796"><ele>24.0</ele><time>2026-03-29T10:52:16.072Z</time></trkpt><trkpt lat="47.25330363497813" lon="-1.5603692270829903"><ele>24.0</ele><time>2026-03-29T10:52:18.06Z</time></trkpt><trkpt lat="47.253337288319365" lon="-1.5605333447470893"><ele>24.0</ele><time>2026-03-29T10:52:20.07Z</time></trkpt><trkpt lat="47.25332614038815" lon="-1.5606906730696193"><ele>24.0</ele><time>2026-03-29T10:52:22.055Z</time></trkpt><trkpt lat="47.25325845652004" lon="-1.560784718023204"><ele>24.0</ele><time>2026-03-29T10:52:24.06Z</time></trkpt><trkpt lat="47.253164579204515" lon="-1.5608455706402293"><ele>24.4</ele><time>2026-03-29T10:52:26.06Z</time></trkpt><trkpt lat="47.253087800971464" lon="-1.5609453152879709"><ele>24.799999999999997</ele><time>2026-03-29T10:52:28.059Z</time></trkpt><trkpt lat="47.25305808712472" lon="-1.5610308945193523"><ele>25.200000000000003</ele><time>2026-03-29T10:52:29.057Z</time></trkpt><trkpt lat="47.25298294336279" lon="-1.561168273912334"><ele>25.6</ele><time>2026-03-29T10:52:31.053Z</time></trkpt><trkpt lat="47.25294224922289" lon="-1.5613251831397053"><ele>26.0</ele><time>2026-03-29T10:52:33.052Z</time></trkpt><trkpt lat="47.25290268663992" lon="-1.561465244741702"><ele>26.200000000000003</ele><time>2026-03-29T10:52:35.059Z</time></trkpt><trkpt lat="47.25286714737047" lon="-1.561543280260229"><ele>26.400000000000002</ele><time>2026-03-29T10:52:36.055Z</time></trkpt><trkpt lat="47.25283165001054" lon="-1.561622573064232"><ele>26.6</ele><time>2026-03-29T10:52:37.062Z</time></trkpt><trkpt lat="47.252777083820895" lon="-1.5617705974742413"><ele>26.8</ele><time>2026-03-29T10:52:39.059Z</time></trkpt><trkpt lat="47.25272469692607" lon="-1.561931530015135"><ele>27.0</ele><time>2026-03-29T10:52:41.055Z</time></trkpt><trkpt lat="47.252667825713054" lon="-1.5620793867870812"><ele>26.6</ele><time>2026-03-29T10:52:43.06Z</time></trkpt><trkpt lat="47.25262436554511" lon="-1.5622260700925832"><ele>26.200000000000003</ele><time>2026-03-29T10:52:45.058Z</time></trkpt><trkpt lat="47.25257135000755" lon="-1.5623801294728763"><ele>25.8</ele><time>2026-03-29T10:52:47.055Z</time></trkpt><trkpt lat="47.25252457898785" lon="-1.5625249687596805"><ele>25.4</ele><time>2026-03-29T10:52:49.061Z</time></trkpt><trkpt lat="47.25248451349069" lon="-1.5626610070481548"><ele>25.0</ele><time>2026-03-29T10:52:51.06Z</time></trkpt><trkpt lat="47.25243149795313" lon="-1.5628040861352932"><ele>25.2</ele><time>2026-03-29T10:52:53.054Z</time></trkpt><trkpt lat="47.25237810522993" lon="-1.5629329998060715"><ele>25.4</ele><time>2026-03-29T10:52:55.059Z</time></trkpt><trkpt lat="47.252332633405224" lon="-1.5630630031242623"><ele>25.6</ele><time>2026-03-29T10:52:57.06Z</time></trkpt><trkpt lat="47.25227743857284" lon="-1.5631899051382794"><ele>25.8</ele><time>2026-03-29T10:52:59.06Z</time></trkpt><trkpt lat="47.25222094454546" lon="-1.563327619807388"><ele>26.0</ele><time>2026-03-29T10:53:01.05Z</time></trkpt><trkpt lat="47.25218716547568" lon="-1.5634665917619721"><ele>26.200000000000003</ele><time>2026-03-29T10:53:03.06Z</time></trkpt><trkpt lat="47.2521222057261" lon="-1.5636199805900115"><ele>26.400000000000002</ele><time>2026-03-29T10:53:05.058Z</time></trkpt><trkpt lat="47.25207861982961" lon="-1.5636948309853334"><ele>26.6</ele><time>2026-03-29T10:53:06.053Z</time></trkpt><trkpt lat="47.25203272890975" lon="-1.5638406761005184"><ele>26.8</ele><time>2026-03-29T10:53:08.06Z</time></trkpt><trkpt lat="47.25197967146267" lon="-1.5639822464450859"><ele>27.0</ele><time>2026-03-29T10:53:10.049Z</time></trkpt><trkpt lat="47.25192963150074" lon="-1.56412415206578"><ele>27.0</ele><time>2026-03-29T10:53:12.056Z</time></trkpt><trkpt lat="47.2518951818787" lon="-1.5642715897425676"><ele>27.000000000000004</ele><time>2026-03-29T10:53:14.056Z</time></trkpt><trkpt lat="47.25188206420024" lon="-1.5644051134600903"><ele>27.000000000000004</ele><time>2026-03-29T10:53:16.054Z</time></trkpt><trkpt lat="47.2518761549585" lon="-1.5645445045098332"><ele>27.0</ele><time>2026-03-29T10:53:18.052Z</time></trkpt><trkpt lat="47.25186295346101" lon="-1.5646923612817794"><ele>27.0</ele><time>2026-03-29T10:53:20.053Z</time></trkpt><trkpt lat="47.2518510511585" lon="-1.564821442590621"><ele>27.8</ele><time>2026-03-29T10:53:22.065Z</time></trkpt><trkpt lat="47.25184124433179" lon="-1.564962007106808"><ele>28.6</ele><time>2026-03-29T10:53:24.059Z</time></trkpt><trkpt lat="47.25182691127737" lon="-1.5650876518353494"><ele>29.400000000000002</ele><time>2026-03-29T10:53:26.056Z</time></trkpt><trkpt lat="47.25181433842261" lon="-1.5652223490193162"><ele>30.200000000000003</ele><time>2026-03-29T10:53:28.06Z</time></trkpt><trkpt lat="47.25179770034482" lon="-1.5653764083996091"><ele>31.0</ele><time>2026-03-29T10:53:30.058Z</time></trkpt><trkpt lat="47.25176551383664" lon="-1.5655343234553611"><ele>31.4</ele><time>2026-03-29T10:53:32.055Z</time></trkpt><trkpt lat="47.25175838921894" lon="-1.5656751394286432"><ele>31.8</ele><time>2026-03-29T10:53:34.06Z</time></trkpt><trkpt lat="47.25175172560592" lon="-1.5658028796329775"><ele>32.199999999999996</ele><time>2026-03-29T10:53:36.057Z</time></trkpt><trkpt lat="47.251734291247324" lon="-1.5659315418466608"><ele>32.6</ele><time>2026-03-29T10:53:38.057Z</time></trkpt><trkpt lat="47.25171694070776" lon="-1.566059868784217"><ele>33.0</ele><time>2026-03-29T10:53:40.051Z</time></trkpt><trkpt lat="47.25170248192479" lon="-1.5661923028543276"><ele>33.333333333333336</ele><time>2026-03-29T10:53:42.057Z</time></trkpt><trkpt lat="47.25172574170609" lon="-1.566335046665339"><ele>33.666666666666664</ele><time>2026-03-29T10:53:44.052Z</time></trkpt><trkpt lat="47.25174468480726" lon="-1.566441413016586"><ele>34.0</ele><time>2026-03-29T10:53:46.052Z</time></trkpt><trkpt lat="47.25176966287871" lon="-1.566541576759486"><ele>34.33333333333333</ele><time>2026-03-29T10:53:48.06Z</time></trkpt><trkpt lat="47.25179941863497" lon="-1.5666578337564754"><ele>34.666666666666664</ele><time>2026-03-29T10:53:50.055Z</time></trkpt><trkpt lat="47.2517899889939" lon="-1.566771324725418"><ele>35.0</ele><time>2026-03-29T10:53:52.053Z</time></trkpt><trkpt lat="47.251770920164184" lon="-1.5668832231327583"><ele>35.0</ele><time>2026-03-29T10:53:54.054Z</time></trkpt><trkpt lat="47.25173747637053" lon="-1.5669944509878446"><ele>35.0</ele><time>2026-03-29T10:53:56.053Z</time></trkpt><trkpt lat="47.25168668203731" lon="-1.567104840652614"><ele>35.0</ele><time>2026-03-29T10:53:58.055Z</time></trkpt><trkpt lat="47.25164116830309" lon="-1.5672100335374168"><ele>35.0</ele><time>2026-03-29T10:54:00.066Z</time></trkpt><trkpt lat="47.25159754049708" lon="-1.5672951936736397"><ele>35.0</ele><time>2026-03-29T10:54:02.058Z</time></trkpt><trkpt lat="47.25155852273782" lon="-1.5673884842559391"><ele>35.0</ele><time>2026-03-29T10:54:04.052Z</time></trkpt><trkpt lat="47.2515188344263" lon="-1.5675011370345646"><ele>35.33333333333333</ele><time>2026-03-29T10:54:06.055Z</time></trkpt><trkpt lat="47.251482959880725" lon="-1.567602390424877"><ele>35.666666666666664</ele><time>2026-03-29T10:54:08.056Z</time></trkpt><trkpt lat="47.25143371619959" lon="-1.567701045425206"><ele>36.0</ele><time>2026-03-29T10:54:10.057Z</time></trkpt><trkpt lat="47.25137776699592" lon="-1.5677949227407275"><ele>36.333333333333336</ele><time>2026-03-29T10:54:12.056Z</time></trkpt><trkpt lat="47.25130597599526" lon="-1.567813362927705"><ele>36.66666666666667</ele><time>2026-03-29T10:54:13.056Z</time></trkpt><trkpt lat="47.25124625493516" lon="-1.5679047256722747"><ele>37.0</ele><time>2026-03-29T10:54:15.068Z</time></trkpt><trkpt lat="47.251170440620974" lon="-1.5679742954685985"><ele>37.0</ele><time>2026-03-29T10:54:17.055Z</time></trkpt><trkpt lat="47.25108850751747" lon="-1.5680383332088292"><ele>37.0</ele><time>2026-03-29T10:54:19.06Z</time></trkpt><trkpt lat="47.251031510575906" lon="-1.5681277681156696"><ele>37.0</ele><time>2026-03-29T10:54:21.058Z</time></trkpt><trkpt lat="47.25095481616189" lon="-1.56817420385924"><ele>37.0</ele><time>2026-03-29T10:54:23.064Z</time></trkpt><trkpt lat="47.250882438428" lon="-1.5682383254185022"><ele>37.0</ele><time>2026-03-29T10:54:25.056Z</time></trkpt><trkpt lat="47.25079815839161" lon="-1.5682918857797685"><ele>37.0</ele><time>2026-03-29T10:54:27.055Z</time></trkpt><trkpt lat="47.25073847924103" lon="-1.5683702565744224"><ele>37.0</ele><time>2026-03-29T10:54:29.052Z</time></trkpt><trkpt lat="47.250642799816326" lon="-1.5683911275133195"><ele>37.0</ele><time>2026-03-29T10:54:31.049Z</time></trkpt><trkpt lat="47.250562585002974" lon="-1.568442843855888"><ele>37.0</ele><time>2026-03-29T10:54:33.054Z</time></trkpt><trkpt lat="47.2504862677746" lon="-1.5685258246972864"><ele>37.0</ele><time>2026-03-29T10:54:35.052Z</time></trkpt><trkpt lat="47.250417787625686" lon="-1.5685994178071325"><ele>37.0</ele><time>2026-03-29T10:54:37.051Z</time></trkpt><trkpt lat="47.250341931401984" lon="-1.5686857514097994"><ele>36.66666666666667</ele><time>2026-03-29T10:54:39.057Z</time></trkpt><trkpt lat="47.25028786812653" lon="-1.568774851040513"><ele>36.333333333333336</ele><time>2026-03-29T10:54:41.052Z</time></trkpt><trkpt lat="47.25024847318162" lon="-1.5688523836448498"><ele>36.0</ele><time>2026-03-29T10:54:44.055Z</time></trkpt><trkpt lat="47.25018900357862" lon="-1.5689459256842442"><ele>35.666666666666664</ele><time>2026-03-29T10:54:47.053Z</time></trkpt><trkpt lat="47.250103759623364" lon="-1.5689683053657122"><ele>35.33333333333333</ele><time>2026-03-29T10:54:49.051Z</time></trkpt><trkpt lat="47.25004035052587" lon="-1.5689672157183"><ele>35.0</ele><time>2026-03-29T10:54:50.053Z</time></trkpt><trkpt lat="47.24992794920434" lon="-1.5689175948515244"><ele>35.0</ele><time>2026-03-29T10:54:52.053Z</time></trkpt><trkpt lat="47.249835873998" lon="-1.568850874902279"><ele>35.0</ele><time>2026-03-29T10:54:54.063Z</time></trkpt><trkpt lat="47.24966165614058" lon="-1.5687004197403496"><ele>35.0</ele><time>2026-03-29T10:54:56.064Z</time></trkpt><trkpt lat="47.24953634668817" lon="-1.5686715021744078"><ele>35.0</ele><time>2026-03-29T10:54:58.057Z</time></trkpt><trkpt lat="47.24941254597832" lon="-1.56862665899244"><ele>35.166666666666664</ele><time>2026-03-29T10:55:00.056Z</time></trkpt><trkpt lat="47.24933166061272" lon="-1.5685943048461979"><ele>35.33333333333333</ele><time>2026-03-29T10:55:01.056Z</time></trkpt><trkpt lat="47.24925245162775" lon="-1.5685756132021254"><ele>35.5</ele><time>2026-03-29T10:55:02.066Z</time></trkpt><trkpt lat="47.24919164092024" lon="-1.5685425046845978"><ele>35.666666666666664</ele><time>2026-03-29T10:55:03.06Z</time></trkpt><trkpt lat="47.24913627844979" lon="-1.5684929676368538"><ele>35.833333333333336</ele><time>2026-03-29T10:55:04.059Z</time></trkpt><trkpt lat="47.249009544073836" lon="-1.5684836637243333"><ele>36.0</ele><time>2026-03-29T10:55:06.061Z</time></trkpt><trkpt lat="47.24893180192192" lon="-1.5684574283674064"><ele>35.42857142857143</ele><time>2026-03-29T10:55:07.055Z</time></trkpt><trkpt lat="47.24886017855932" lon="-1.5684394072755876"><ele>34.85714285714286</ele><time>2026-03-29T10:55:08.054Z</time></trkpt><trkpt lat="47.24878608253528" lon="-1.5684168599560562"><ele>34.285714285714285</ele><time>2026-03-29T10:55:09.058Z</time></trkpt><trkpt lat="47.24871051967819" lon="-1.5683881100281778"><ele>33.714285714285715</ele><time>2026-03-29T10:55:10.062Z</time></trkpt><trkpt lat="47.24864903841843" lon="-1.568362126128346"><ele>33.14285714285714</ele><time>2026-03-29T10:55:11.059Z</time></trkpt><trkpt lat="47.24858495876868" lon="-1.5683560073390308"><ele>32.57142857142857</ele><time>2026-03-29T10:55:12.056Z</time></trkpt><trkpt lat="47.248514592691556" lon="-1.5683384891614023"><ele>32.0</ele><time>2026-03-29T10:55:13.053Z</time></trkpt><trkpt lat="47.248426373160676" lon="-1.5682861022665802"><ele>31.999999999999996</ele><time>2026-03-29T10:55:14.06Z</time></trkpt><trkpt lat="47.24832637705584" lon="-1.5682231541737617"><ele>32.0</ele><time>2026-03-29T10:55:15.057Z</time></trkpt><trkpt lat="47.24826212976803" lon="-1.5682064741864503"><ele>32.0</ele><time>2026-03-29T10:55:16.055Z</time></trkpt><trkpt lat="47.24819846921344" lon="-1.5681996848448814"><ele>32.0</ele><time>2026-03-29T10:55:17.054Z</time></trkpt><trkpt lat="47.248123870275215" lon="-1.568160625176102"><ele>31.999999999999996</ele><time>2026-03-29T10:55:18.074Z</time></trkpt><trkpt lat="47.24805555776437" lon="-1.5681383293136657"><ele>32.0</ele><time>2026-03-29T10:55:19.062Z</time></trkpt><trkpt lat="47.24797416948457" lon="-1.5680819191053212"><ele>31.6</ele><time>2026-03-29T10:55:20.061Z</time></trkpt><trkpt lat="47.24785468545486" lon="-1.568026347087294"><ele>31.200000000000003</ele><time>2026-03-29T10:55:22.07Z</time></trkpt><trkpt lat="47.2477895161577" lon="-1.5679928194746076"><ele>30.8</ele><time>2026-03-29T10:55:23.057Z</time></trkpt><trkpt lat="47.24772912454535" lon="-1.5679507423206864"><ele>30.4</ele><time>2026-03-29T10:55:24.069Z</time></trkpt><trkpt lat="47.24760389891197" lon="-1.5678974334165154"><ele>30.0</ele><time>2026-03-29T10:55:26.065Z</time></trkpt><trkpt lat="47.24753789142449" lon="-1.567846890540391"><ele>29.6</ele><time>2026-03-29T10:55:27.069Z</time></trkpt><trkpt lat="47.2474501748078" lon="-1.5678052324816285"><ele>29.2</ele><time>2026-03-29T10:55:29.054Z</time></trkpt><trkpt lat="47.24739833273669" lon="-1.5677513368442353"><ele>28.799999999999997</ele><time>2026-03-29T10:55:30.056Z</time></trkpt><trkpt lat="47.24728408739646" lon="-1.567684281618863"><ele>28.4</ele><time>2026-03-29T10:55:32.049Z</time></trkpt><trkpt lat="47.24718090616842" lon="-1.5677392669036683"><ele>28.0</ele><time>2026-03-29T10:55:34.068Z</time></trkpt><trkpt lat="47.247107564515666" lon="-1.5678634867086707"><ele>28.0</ele><time>2026-03-29T10:55:36.058Z</time></trkpt><trkpt lat="47.24706150595774" lon="-1.5680037159487306"><ele>27.999999999999996</ele><time>2026-03-29T10:55:38.057Z</time></trkpt><trkpt lat="47.247061547867254" lon="-1.5681752935066522"><ele>27.999999999999996</ele><time>2026-03-29T10:55:40.056Z</time></trkpt><trkpt lat="47.24706129641016" lon="-1.5682740323260131"><ele>28.0</ele><time>2026-03-29T10:55:41.057Z</time></trkpt><trkpt lat="47.2470590332963" lon="-1.568390373142034"><ele>28.0</ele><time>2026-03-29T10:55:43.064Z</time></trkpt><trkpt lat="47.247031498744384" lon="-1.5685119945570534"><ele>28.000000000000004</ele><time>2026-03-29T10:55:45.059Z</time></trkpt><trkpt lat="47.24700555675407" lon="-1.568621043117315"><ele>28.0</ele><time>2026-03-29T10:55:47.056Z</time></trkpt><trkpt lat="47.24698108159681" lon="-1.568717686460883"><ele>28.0</ele><time>2026-03-29T10:55:49.055Z</time></trkpt><trkpt lat="47.246963186233536" lon="-1.568819023670227"><ele>28.0</ele><time>2026-03-29T10:55:52.054Z</time></trkpt><trkpt lat="47.24690694366325" lon="-1.5689104702338286"><ele>28.000000000000004</ele><time>2026-03-29T10:55:55.059Z</time></trkpt><trkpt lat="47.246838086328694" lon="-1.568934191019804"><ele>28.0</ele><time>2026-03-29T10:55:58.058Z</time></trkpt><trkpt lat="47.246744502379784" lon="-1.5689081233009405"><ele>29.0</ele><time>2026-03-29T10:56:01.07Z</time></trkpt><trkpt lat="47.24667241801251" lon="-1.5689072012915917"><ele>29.0</ele><time>2026-03-29T10:56:03.056Z</time></trkpt><trkpt lat="47.24659610078413" lon="-1.5688951313510247"><ele>29.0</ele><time>2026-03-29T10:56:06.06Z</time></trkpt><trkpt lat="47.24652854264457" lon="-1.5688712429269858"><ele>29.0</ele><time>2026-03-29T10:56:10.053Z</time></trkpt></trkseg></trk></gpx>